# Wetter Temperatur Luftdruck Luftfeuchtigkeit Sichtweite Windgeschwindigkeit Windrichtung Zeit
1 Haze 22 1016 53 3000 0 0 15:24 01.02.2023
2 Haze 27 1014 39 4000 1.03 80 13:20 01.02.2023
3 Haze 28 1014 36 4000 1.03 80 12:59 01.02.2023
4 Haze 28 1014 36 4000 2.06 20 11:57 01.02.2023
5 Haze 27 1016 41 4000 1.54 120 09:38 01.02.2023
6 Haze 19 1018 59 3000 1.03 20 03:18 01.02.2023
7 Haze 21 1016 68 3000 2.57 30 21:45 31.01.2023
8 Haze 22 1016 64 3000 2.57 20 20:20 31.01.2023
9 Haze 23 1017 64 2500 2.57 20 18:50 31.01.2023
10 Haze 25 1016 61 2500 2.57 20 16:20 31.01.2023
11 Haze 25 1014 65 2500 0 0 15:36 31.01.2023
12 Haze 25 1014 65 2500 0 0 15:18 31.01.2023
13 Haze 30 1013 48 2500 1.54 70 12:33 31.01.2023
14 Haze 30 1013 48 3000 2.06 20 11:21 31.01.2023
15 Haze 30 1014 48 3000 1.03 140 09:54 31.01.2023
16 Haze 29 1015 51 3000 1.03 350 08:59 31.01.2023
17 Haze 29 1015 51 3000 1.03 350 08:35 31.01.2023
18 Haze 24 1018 64 2500 1.54 80 05:44 31.01.2023
19 Haze 21 1015 73 2500 0 0 23:58 30.01.2023
20 Haze 21 1015 73 2500 1.54 10 22:54 30.01.2023
21 Haze 22 1015 68 2500 1.03 20 22:31 30.01.2023
22 Haze 23 1016 64 2500 1.03 20 21:22 30.01.2023
23 Haze 23 1016 68 2500 1.03 10 20:34 30.01.2023
24 Haze 24 1016 69 2500 1.03 320 17:54 30.01.2023
25 Haze 25 1016 65 2500 1.03 10 16:33 30.01.2023
26 Haze 27 1014 57 2500 1.03 100 14:27 30.01.2023
27 Haze 27 1014 57 2500 1.03 100 14:27 30.01.2023
28 Haze 31 1014 40 3000 2.06 200 12:26 30.01.2023
29 Haze 31 1013 45 3000 3.09 180 11:27 30.01.2023
30 Haze 31 1013 45 3000 3.09 180 11:27 30.01.2023
31 Haze 31 1014 45 3500 2.06 160 09:54 30.01.2023
32 Haze 31 1015 45 3500 2.57 250 08:56 30.01.2023
33 Haze 27 1018 57 3000 2.06 250 06:55 30.01.2023
34 Haze 20 1015 77 2500 3.6 190 01:39 30.01.2023
35 Haze 19 1013 82 3000 0 0 23:35 29.01.2023
36 Haze 20 1013 77 3000 0 0 22:37 29.01.2023
37 Haze 20 1014 77 3000 0 0 21:40 29.01.2023
38 Haze 21 1014 73 3000 0 0 20:36 29.01.2023
39 Haze 22 1014 68 3000 1.03 40 19:34 29.01.2023
40 Haze 22 1014 68 3000 1.03 50 18:44 29.01.2023
41 Haze 23 1014 68 3000 1.03 90 17:35 29.01.2023
42 Haze 25 1014 61 3000 1.54 90 16:21 29.01.2023
43 Haze 26 1012 57 3000 1.03 70 14:48 29.01.2023
44 Haze 29 1011 48 3000 2.57 110 13:26 29.01.2023
45 Haze 30 1011 45 3000 2.06 110 12:40 29.01.2023
46 Haze 30 1011 45 3000 2.06 110 12:40 29.01.2023
47 Haze 30 1011 42 3000 2.57 130 12:22 29.01.2023
48 Haze 31 1011 42 3000 2.06 130 11:45 29.01.2023
49 Haze 31 1011 42 3000 1.03 120 11:25 29.01.2023
50 Haze 30 1012 45 3000 2.57 110 09:37 29.01.2023
51 Haze 28 1015 54 3000 2.57 90 07:19 29.01.2023
52 Mist 17 1013 82 2500 0 0 00:59 29.01.2023
53 Mist 19 1013 77 2500 1.03 330 21:57 28.01.2023
54 Haze 20 1013 77 3000 1.03 330 20:34 28.01.2023
55 Haze 19 1013 77 3000 0 0 19:47 28.01.2023
56 Haze 21 1014 73 3000 1.03 260 18:23 28.01.2023
57 Haze 22 1014 68 3000 0 0 16:59 28.01.2023
58 Haze 23 1014 64 3000 0 0 16:20 28.01.2023
59 Haze 23 1014 64 3000 0 0 16:20 28.01.2023
60 Haze 23 1014 64 3000 0 0 16:20 28.01.2023
61 Haze 24 1014 64 3000 1.03 30 15:38 28.01.2023
62 Haze 27 1013 50 3000 1.03 70 14:21 28.01.2023
63 Haze 30 1012 37 4000 1.03 70 12:50 28.01.2023
64 Haze 31 1012 33 4000 1.54 110 11:54 28.01.2023
65 Haze 31 1013 40 4000 2.06 110 10:34 28.01.2023
66 Haze 27 1016 57 3000 1.03 70 07:21 28.01.2023
67 Mist 19 1015 82 2500 1.03 30 01:40 28.01.2023
68 Mist 19 1015 82 2500 1.03 20 00:25 28.01.2023
69 Haze 21 1016 78 3000 1.54 30 20:59 27.01.2023
70 Haze 23 1016 68 3000 1.03 30 18:25 27.01.2023
71 Haze 21 1016 68 3000 1.03 10 17:57 27.01.2023
72 Haze 22 1016 60 3000 0 0 17:18 27.01.2023
73 Haze 22 1016 64 3000 0 0 16:34 27.01.2023
74 Haze 25 1014 53 3000 1.03 80 14:55 27.01.2023
75 Haze 26 1014 50 3000 1.03 80 14:24 27.01.2023
76 Haze 30 1014 39 4000 1.54 100 12:49 27.01.2023
77 Haze 29 1016 51 4000 2.57 140 08:41 27.01.2023
78 Haze 22 1018 73 3000 1.54 30 04:55 27.01.2023
79 Haze 18 1015 72 3000 0 0 22:54 26.01.2023
80 Haze 19 1015 72 3000 0 0 21:40 26.01.2023
81 Haze 19 1015 72 3000 0 0 20:36 26.01.2023
82 Haze 21 1016 68 3000 1.03 350 19:21 26.01.2023
83 Haze 20 1016 68 3000 0 0 17:42 26.01.2023
84 Haze 22 1016 60 3000 0 0 16:27 26.01.2023
85 Haze 23 1015 60 3000 0 0 15:55 26.01.2023
86 Haze 24 1015 57 4000 1.03 110 15:31 26.01.2023
87 Haze 24 1014 50 4000 1.03 100 14:50 26.01.2023
88 Haze 31 1013 29 5000 1.03 200 12:49 26.01.2023
89 Haze 30 1013 30 5000 2.57 230 11:38 26.01.2023
90 Haze 30 1014 30 5000 2.57 230 10:31 26.01.2023
91 Haze 30 1014 30 5000 2.57 230 09:44 26.01.2023
92 Haze 28 1018 42 5000 2.06 240 08:25 26.01.2023
93 Haze 25 1018 61 4000 1.03 300 06:26 26.01.2023
94 Haze 18 1014 72 3000 0 0 23:39 25.01.2023
95 Haze 18 1014 72 3000 0 0 22:21 25.01.2023
96 Haze 20 1014 64 3000 0 0 21:24 25.01.2023
97 Haze 20 1014 64 3000 0 0 19:41 25.01.2023
98 Haze 21 1014 56 3000 1.03 160 18:23 25.01.2023
99 Haze 24 1014 46 4000 0 0 15:51 25.01.2023
100 Haze 29 1013 30 5000 2.57 180 13:33 25.01.2023
101 Haze 31 1013 23 5000 4.63 200 11:25 25.01.2023
102 Haze 30 1013 28 5000 3.09 140 09:49 25.01.2023
103 Haze 28 1016 36 5000 4.63 190 07:45 25.01.2023
104 Haze 19 1014 77 3000 0 0 01:51 25.01.2023
105 Haze 20 1013 77 3000 1.03 130 00:25 25.01.2023
106 Haze 20 1013 73 3000 0 0 21:35 24.01.2023
107 Haze 21 1014 68 3000 1.03 310 20:39 24.01.2023
108 Haze 22 1015 68 3000 1.03 110 18:50 24.01.2023
109 Haze 22 1015 68 3000 1.03 90 18:29 24.01.2023
110 Haze 23 1015 64 3000 1.54 90 16:53 24.01.2023
111 Haze 23 1015 64 3000 1.54 90 16:53 24.01.2023
112 Haze 24 1015 60 3000 1.54 100 16:29 24.01.2023
113 Haze 27 1013 47 4000 1.03 140 13:46 24.01.2023
114 Haze 31 1012 37 5000 2.57 230 11:46 24.01.2023
115 Haze 29 1014 42 5000 4.12 160 08:43 24.01.2023
116 Haze 29 1015 45 5000 4.63 190 08:18 24.01.2023
117 Haze 29 1016 45 5000 4.63 170 07:48 24.01.2023
118 Fog 16 1015 88 1800 1.03 110 02:43 24.01.2023
119 Haze 17 1014 88 2500 1.03 70 00:38 24.01.2023
120 Haze 19 1014 77 3000 1.03 330 22:28 23.01.2023
121 Haze 20 1015 73 3000 0 0 20:26 23.01.2023
122 Haze 20 1015 73 3000 0 0 19:21 23.01.2023
123 Haze 22 1015 68 3000 1.03 100 17:19 23.01.2023
124 Haze 24 1014 64 4000 1.03 120 15:32 23.01.2023
125 Haze 26 1013 57 4000 1.03 100 13:56 23.01.2023
126 Haze 28 1012 47 4000 1.54 90 12:55 23.01.2023
127 Haze 29 1012 45 4000 1.54 110 11:46 23.01.2023
128 Haze 29 1012 45 4000 1.54 90 11:28 23.01.2023
129 Haze 29 1012 45 4000 1.54 90 11:28 23.01.2023
130 Haze 28 1015 54 5000 2.57 190 08:25 23.01.2023
131 Haze 17 1014 82 3000 0 0 00:22 23.01.2023
132 Haze 18 1014 77 3000 0 0 21:51 22.01.2023
133 Haze 18 1015 77 3000 0 0 21:19 22.01.2023
134 Haze 20 1015 73 3000 0 0 19:56 22.01.2023
135 Haze 20 1015 73 3000 0 0 19:37 22.01.2023
136 Haze 21 1015 68 3000 0 0 18:37 22.01.2023
137 Haze 21 1016 68 3000 0 0 17:55 22.01.2023
138 Haze 23 1015 60 3000 1.54 110 17:24 22.01.2023
139 Haze 25 1014 53 3000 1.03 90 15:26 22.01.2023
140 Haze 26 1013 50 3000 1.03 90 14:34 22.01.2023
141 Haze 28 1013 44 5000 2.06 110 13:27 22.01.2023
142 Haze 30 1013 39 5000 2.06 170 12:31 22.01.2023
143 Haze 31 1013 40 5000 2.06 180 11:33 22.01.2023
144 Haze 29 1015 48 5000 4.12 180 09:35 22.01.2023
145 Mist 20 1017 94 2000 1.54 130 04:22 22.01.2023
146 Haze 17 1014 82 3000 0 0 23:49 21.01.2023
147 Haze 17 1014 82 3000 0 0 23:29 21.01.2023
148 Haze 19 1015 77 3000 1.03 310 21:34 21.01.2023
149 Haze 21 1016 68 3000 1.03 320 18:55 21.01.2023
150 Haze 23 1016 64 3000 1.54 110 16:40 21.01.2023
151 Haze 27 1014 50 3000 0 0 13:57 21.01.2023
152 Haze 29 1014 42 4000 2.06 190 12:57 21.01.2023
153 Haze 30 1014 39 4000 2.57 210 11:40 21.01.2023
154 Haze 30 1014 39 4000 3.09 180 10:49 21.01.2023
155 Haze 29 1016 45 4000 2.57 230 08:47 21.01.2023
156 Haze 21 1018 88 2000 1.03 320 04:31 21.01.2023
157 Haze 20 1016 77 3000 1.54 330 22:28 20.01.2023
158 Haze 20 1016 73 3000 1.03 140 21:37 20.01.2023
159 Haze 20 1016 77 3000 0 0 20:54 20.01.2023
160 Haze 21 1017 73 3000 0 0 19:20 20.01.2023
161 Clouds 23 1015 41 10000 1.67 112 16:37 20.01.2023
162 Haze 24 1015 60 3000 0 0 14:46 20.01.2023
163 Haze 27 1015 54 4000 1.03 110 13:37 20.01.2023
164 Haze 30 1015 42 5000 4.12 170 10:24 20.01.2023
165 Haze 28 1017 54 4000 4.12 180 08:22 20.01.2023
166 Fog 19 1018 94 1000 1.03 240 04:22 20.01.2023
167 Mist 17 1016 94 2000 0 0 02:29 20.01.2023
168 Haze 19 1015 94 3000 0 0 22:32 19.01.2023
169 Haze 19 1016 82 3000 0 0 20:25 19.01.2023
170 Haze 20 1017 83 3000 0 0 19:23 19.01.2023
171 Haze 23 1017 73 3000 0 0 16:25 19.01.2023
172 Haze 29 1015 48 4000 3.09 190 11:28 19.01.2023
173 Haze 28 1017 54 3000 1.03 210 08:59 19.01.2023
174 Haze 16 1017 72 3000 1.03 330 00:45 19.01.2023
175 Haze 19 1017 63 3000 1.03 20 21:19 18.01.2023
176 Haze 19 1017 68 3000 1.03 20 20:19 18.01.2023
177 Haze 20 1018 68 3000 1.03 30 19:37 18.01.2023
178 Haze 20 1018 77 3000 0 0 17:35 18.01.2023
179 Haze 23 1017 68 3000 1.03 70 15:24 18.01.2023
180 Haze 27 1015 54 4000 1.03 60 13:30 18.01.2023
181 Haze 27 1015 54 4000 1.54 60 11:25 18.01.2023
182 Haze 25 1017 53 4000 1.03 120 08:44 18.01.2023
183 Haze 16 1017 67 3000 1.03 360 01:28 18.01.2023
184 Haze 18 1016 59 3000 1.03 50 23:46 17.01.2023
185 Haze 19 1016 59 3000 1.54 40 20:37 17.01.2023
186 Haze 21 1016 64 3000 1.54 30 19:34 17.01.2023
187 Haze 21 1016 78 3000 1.03 40 18:28 17.01.2023
188 Haze 23 1015 73 3000 1.03 40 16:33 17.01.2023
189 Haze 24 1014 64 3000 1.03 100 14:56 17.01.2023
190 Haze 26 1013 61 4000 0 0 13:52 17.01.2023
191 Haze 28 1013 54 5000 2.57 200 12:48 17.01.2023
192 Haze 29 1013 51 5000 3.09 200 11:42 17.01.2023
193 Haze 28 1013 51 5000 1.03 130 09:34 17.01.2023
194 Haze 25 1016 57 4000 2.06 100 07:54 17.01.2023
195 Haze 17 1016 77 3000 1.03 10 03:57 17.01.2023
196 Haze 17 1014 72 3000 0 0 00:57 17.01.2023
197 Haze 18 1014 72 3000 0 0 23:38 16.01.2023
198 Haze 19 1014 72 3000 1.54 20 21:52 16.01.2023
199 Haze 20 1015 73 3000 1.03 50 20:27 16.01.2023
200 Haze 20 1015 73 3000 1.03 50 19:35 16.01.2023
201 Haze 21 1015 68 3000 1.03 30 18:53 16.01.2023
202 Haze 20 1015 77 3000 1.03 50 18:21 16.01.2023
203 Haze 20 1015 77 3000 0 0 17:35 16.01.2023
204 Haze 23 1014 64 4000 1.03 60 14:38 16.01.2023
205 Haze 24 1013 60 4000 1.54 60 13:38 16.01.2023
206 Haze 27 1013 50 4000 1.54 60 10:32 16.01.2023
207 Haze 26 1014 50 4000 2.06 80 09:53 16.01.2023
208 Haze 17 1013 72 3000 1.03 40 23:37 15.01.2023
209 Haze 17 1014 72 3000 0 0 21:42 15.01.2023
210 Haze 18 1014 72 3000 1.03 50 20:40 15.01.2023
211 Haze 19 1014 68 3000 1.54 30 19:49 15.01.2023
212 Haze 20 1015 73 3000 0 0 17:46 15.01.2023
213 Haze 21 1014 68 3000 1.03 90 15:44 15.01.2023
214 Haze 27 1012 44 5000 1.03 100 12:31 15.01.2023
215 Haze 27 1012 44 5000 2.06 120 11:35 15.01.2023
216 Haze 27 1013 44 5000 1.03 10 10:28 15.01.2023
217 Haze 27 1013 44 5000 1.54 250 09:35 15.01.2023
218 Haze 17 1014 72 3000 0 0 01:47 15.01.2023
219 Haze 15 1014 82 3000 0 0 22:50 14.01.2023
220 Haze 17 1014 77 3000 0 0 21:55 14.01.2023
221 Haze 18 1015 72 3000 0 0 21:36 14.01.2023
222 Clear 16 1014 42 10000 3.24 14 21:18 14.01.2023
223 Clear 16 1014 42 10000 3.24 14 21:18 14.01.2023
224 Haze 20 1015 68 3000 0 0 20:31 14.01.2023
225 Haze 21 1016 73 3000 1.03 10 18:38 14.01.2023
226 Haze 22 1015 68 4000 0 0 15:48 14.01.2023
227 Haze 22 1015 68 4000 1.03 120 15:26 14.01.2023
228 Haze 24 1014 60 4000 1.03 80 14:25 14.01.2023
229 Haze 27 1013 54 4000 1.03 120 13:33 14.01.2023
230 Haze 28 1013 47 5000 1.54 10 10:52 14.01.2023
231 Haze 28 1014 47 5000 1.03 30 09:59 14.01.2023
232 Haze 22 1017 68 5000 1.54 360 05:37 14.01.2023
233 Haze 19 1014 72 3000 2.57 330 23:23 13.01.2023
234 Haze 19 1014 72 3000 2.57 330 22:45 13.01.2023
235 Haze 18 1014 72 3000 2.06 330 22:20 13.01.2023
236 Haze 18 1014 72 3000 1.54 330 21:23 13.01.2023
237 Haze 18 1015 72 3000 1.54 340 19:38 13.01.2023
238 Haze 20 1015 64 3000 1.54 330 18:19 13.01.2023
239 Haze 21 1015 60 4000 0 0 16:24 13.01.2023
240 Haze 28 1012 36 5000 3.09 210 12:51 13.01.2023
241 Haze 29 1012 34 5000 3.6 200 12:19 13.01.2023
242 Haze 30 1013 35 4000 3.09 200 10:24 13.01.2023
243 Haze 30 1013 32 4000 3.09 180 09:45 13.01.2023
244 Haze 28 1014 39 4000 1.54 160 08:52 13.01.2023
245 Haze 27 1016 44 4000 0 0 07:49 13.01.2023
246 Haze 25 1017 53 4000 1.03 100 06:52 13.01.2023
247 Haze 14 1015 77 3000 1.03 60 03:26 13.01.2023
248 Haze 14 1013 82 3000 0 0 23:43 12.01.2023
249 Haze 15 1013 77 3000 1.03 320 22:31 12.01.2023
250 Haze 17 1013 67 3000 1.03 330 20:55 12.01.2023
251 Haze 17 1014 63 3500 0 0 18:52 12.01.2023
252 Haze 19 1014 59 3500 1.03 330 17:33 12.01.2023
253 Haze 22 1013 46 3500 0 0 15:53 12.01.2023
254 Haze 23 1012 43 4000 0 0 14:44 12.01.2023
255 Haze 24 1012 41 4000 1.54 240 14:21 12.01.2023
256 Haze 29 1011 30 4000 2.57 200 12:44 12.01.2023
257 Haze 30 1012 30 4000 2.06 230 10:30 12.01.2023
258 Haze 27 1015 41 5000 2.06 160 07:44 12.01.2023
259 Haze 12 1013 82 3000 0 0 01:40 12.01.2023
260 Haze 13 1013 82 3000 0 0 23:58 11.01.2023
261 Haze 13 1013 82 3000 0 0 23:39 11.01.2023
262 Haze 14 1013 77 3000 0 0 23:20 11.01.2023
263 Haze 15 1014 77 3000 0 0 21:41 11.01.2023
264 Haze 17 1015 67 3000 1.03 320 19:30 11.01.2023
265 Haze 17 1015 67 3000 0 0 18:19 11.01.2023
266 Haze 20 1015 52 4000 0 0 15:54 11.01.2023
267 Haze 22 1014 46 4000 1.03 160 14:40 11.01.2023
268 Haze 29 1013 28 5000 3.6 170 12:34 11.01.2023
269 Haze 30 1013 25 5000 1.03 170 11:51 11.01.2023
270 Haze 28 1015 30 5000 1.03 70 09:46 11.01.2023
271 Haze 26 1017 36 5000 2.06 100 07:37 11.01.2023
272 Haze 24 1019 38 5000 2.06 120 06:56 11.01.2023
273 Haze 13 1015 71 3000 1.54 340 23:55 10.01.2023
274 Haze 15 1016 67 3000 0 0 22:36 10.01.2023
275 Haze 15 1016 72 2500 1.03 330 21:29 10.01.2023
276 Haze 18 1017 59 2000 0 0 19:56 10.01.2023
277 Haze 18 1017 63 3000 1.03 10 19:29 10.01.2023
278 Haze 17 1018 67 3000 1.03 20 18:47 10.01.2023
279 Haze 18 1018 55 3000 0 0 17:33 10.01.2023
280 Haze 19 1018 52 3000 1.03 330 15:47 10.01.2023
281 Haze 20 1017 45 4000 0 0 15:21 10.01.2023
282 Haze 27 1016 29 4000 1.54 120 13:33 10.01.2023
283 Haze 29 1017 20 5000 1.54 120 10:38 10.01.2023
284 Haze 28 1019 21 5000 1.54 300 08:44 10.01.2023
285 Haze 27 1020 28 5000 2.06 70 07:59 10.01.2023
286 Haze 26 1021 29 5000 1.54 360 07:25 10.01.2023
287 Haze 11 1020 71 4000 0 0 03:33 10.01.2023
288 Haze 12 1018 71 2000 1.03 330 22:41 09.01.2023
289 Haze 14 1019 72 2000 1.03 330 21:20 09.01.2023
290 Haze 14 1019 67 2000 1.03 340 20:25 09.01.2023
291 Haze 15 1020 67 2000 1.03 330 18:40 09.01.2023
292 Haze 17 1020 59 2500 1.03 320 17:50 09.01.2023
293 Haze 17 1020 55 3000 0 0 16:34 09.01.2023
294 Haze 17 1019 51 4000 0 0 15:43 09.01.2023
295 Haze 18 1019 52 4000 0 0 15:22 09.01.2023
296 Haze 20 1019 42 4000 0 0 14:42 09.01.2023
297 Haze 28 1018 24 5000 1.03 80 12:54 09.01.2023
298 Haze 29 1018 21 5000 1.54 60 11:54 09.01.2023
299 Haze 29 1018 20 5000 1.03 20 11:19 09.01.2023
300 Haze 23 1022 35 5000 1.54 60 06:58 09.01.2023
301 Haze 10 1020 71 2500 0 0 02:55 09.01.2023
302 Haze 11 1020 71 2500 1.03 360 01:49 09.01.2023
303 Haze 13 1019 62 3000 1.03 340 22:29 08.01.2023
304 Haze 15 1019 58 3000 1.03 10 21:22 08.01.2023
305 Haze 14 1019 62 3000 1.03 340 20:37 08.01.2023
306 Haze 15 1020 63 3000 1.03 10 18:51 08.01.2023
307 Haze 15 1019 63 3000 0 0 17:22 08.01.2023
308 Haze 16 1019 55 3500 1.03 90 16:43 08.01.2023
309 Haze 17 1018 51 3500 1.03 340 15:36 08.01.2023
310 Haze 22 1017 33 5000 0 0 13:58 08.01.2023
311 Haze 26 1017 21 5000 0 0 13:30 08.01.2023
312 Haze 27 1016 19 5000 1.03 30 12:46 08.01.2023
313 Haze 27 1017 18 5000 1.54 70 10:28 08.01.2023
314 Haze 27 1018 19 5000 1.03 90 09:36 08.01.2023
315 Haze 24 1020 29 5000 2.06 50 07:47 08.01.2023
316 Haze 10 1018 76 3000 0 0 23:59 07.01.2023
317 Haze 9 1019 76 3000 0 0 22:47 07.01.2023
318 Haze 11 1019 76 3000 0 0 22:24 07.01.2023
319 Haze 11 1019 71 3000 0 0 21:47 07.01.2023
320 Haze 13 1020 67 3000 0 0 20:43 07.01.2023
321 Haze 14 1020 72 3000 1.03 330 20:22 07.01.2023
322 Haze 14 1020 67 3000 0 0 18:33 07.01.2023
323 Haze 15 1020 63 3000 0 0 17:44 07.01.2023
324 Haze 15 1020 63 3000 1.03 350 17:21 07.01.2023
325 Haze 17 1020 51 3000 1.54 300 16:32 07.01.2023
326 Haze 18 1019 48 3000 0 0 15:46 07.01.2023
327 Haze 18 1019 45 3000 0 0 15:24 07.01.2023
328 Haze 19 1018 45 3000 1.54 70 14:26 07.01.2023
329 Haze 21 1018 40 3000 1.03 100 13:44 07.01.2023
330 Haze 23 1018 38 4000 1.54 80 13:22 07.01.2023
331 Haze 25 1018 31 5000 2.57 90 12:22 07.01.2023
332 Haze 26 1018 29 5000 2.06 60 11:18 07.01.2023
333 Haze 25 1019 31 5000 2.57 60 10:25 07.01.2023
334 Haze 23 1021 38 5000 1.03 100 08:21 07.01.2023
335 Haze 23 1022 38 5000 1.54 100 07:43 07.01.2023
336 Haze 21 1023 43 5000 1.54 80 06:49 07.01.2023
337 Haze 15 1020 67 3000 1.03 10 23:55 06.01.2023
338 Mist 15 1020 77 2000 1.03 40 22:22 06.01.2023
339 Fog 15 1021 88 2000 1.54 50 21:58 06.01.2023
340 Fog 16 1021 94 1500 1.03 30 20:52 06.01.2023
341 Fog 17 1022 88 1500 1.03 10 19:57 06.01.2023
342 Fog 17 1022 88 1500 1.03 10 19:39 06.01.2023
343 Fog 17 1022 88 1500 1.03 350 19:21 06.01.2023
344 Fog 18 1022 82 2000 1.03 330 18:25 06.01.2023
345 Mist 18 1022 77 2000 1.03 10 16:55 06.01.2023
346 Mist 19 1021 77 2000 1.03 330 16:23 06.01.2023
347 Haze 19 1021 77 2000 1.03 340 15:53 06.01.2023
348 Haze 20 1021 73 2000 1.03 330 15:34 06.01.2023
349 Haze 22 1020 68 2000 1.03 60 13:48 06.01.2023
350 Haze 25 1020 61 2000 1.03 50 12:21 06.01.2023
351 Haze 25 1020 65 2000 2.06 70 10:57 06.01.2023
352 Haze 24 1021 64 2500 1.03 120 08:54 06.01.2023
353 Mist 19 1024 68 2500 1.54 50 05:31 06.01.2023
354 Fog 16 1020 88 1000 1.03 50 23:48 05.01.2023
355 Fog 17 1020 88 1000 1.03 30 22:54 05.01.2023
356 Fog 17 1021 94 1000 1.54 20 21:22 05.01.2023
357 Fog 18 1022 94 1000 1.03 20 17:57 05.01.2023
358 Fog 18 1022 94 1000 1.03 360 17:26 05.01.2023
359 Fog 18 1022 94 1000 1.03 360 17:26 05.01.2023
360 Fog 18 1021 94 1000 1.03 30 15:59 05.01.2023
361 Fog 18 1021 94 1000 1.03 30 15:59 05.01.2023
362 Fog 18 1021 94 1000 1.03 30 15:37 05.01.2023
363 Fog 18 1020 88 1000 1.54 10 14:34 05.01.2023
364 Fog 18 1020 88 800 1.54 10 12:42 05.01.2023
365 Fog 18 1019 88 800 1.54 360 11:42 05.01.2023
366 Fog 18 1020 88 800 2.06 10 09:48 05.01.2023
367 Clouds 18 1021 77 900 2.06 10 08:23 05.01.2023
368 Fog 18 1022 77 1000 1.54 30 06:57 05.01.2023
369 Fog 16 1021 77 1000 1.03 40 03:34 05.01.2023
370 Fog 16 1019 77 1500 1.54 60 22:33 04.01.2023
371 Fog 17 1019 72 1500 1.54 50 21:33 04.01.2023
372 Fog 17 1019 77 1500 2.06 60 20:26 04.01.2023
373 Fog 17 1019 77 1200 1.54 50 19:48 04.01.2023
374 Fog 17 1020 82 1200 2.06 60 19:30 04.01.2023
375 Fog 17 1020 82 1200 2.06 60 18:18 04.01.2023
376 Fog 18 1020 82 1000 2.06 20 16:31 04.01.2023
377 Fog 18 1019 82 10000 1.54 40 14:53 04.01.2023
378 Fog 18 1018 82 10000 2.06 50 13:31 04.01.2023
379 Fog 19 1017 77 10000 2.57 60 11:26 04.01.2023
380 Fog 19 1017 77 10000 1.54 30 10:59 04.01.2023
381 Fog 19 1018 77 10000 1.54 30 10:40 04.01.2023
382 Fog 19 1018 77 10000 1.54 30 10:20 04.01.2023
383 Fog 20 1020 73 1200 1.03 50 05:39 04.01.2023
384 Mist 18 1018 72 1500 0 0 01:41 04.01.2023
385 Mist 18 1017 72 2000 1.03 130 23:45 03.01.2023
386 Mist 18 1017 72 2000 1.03 30 23:26 03.01.2023
387 Mist 19 1018 72 2000 2.06 20 21:43 03.01.2023
388 Mist 20 1018 73 2000 1.54 60 20:50 03.01.2023
389 Mist 20 1019 88 2000 0 0 18:40 03.01.2023
390 Mist 20 1018 83 2000 0 0 16:42 03.01.2023
391 Mist 22 1018 73 2000 0 0 15:40 03.01.2023
392 Haze 24 1017 69 2500 1.03 90 13:43 03.01.2023
393 Haze 25 1017 65 2500 1.03 60 13:24 03.01.2023
394 Haze 25 1016 69 2500 1.03 70 12:57 03.01.2023
395 Haze 26 1016 65 2500 1.54 100 12:21 03.01.2023
396 Haze 26 1017 57 2500 1.54 210 09:50 03.01.2023
397 Mist 17 1021 77 2500 1.03 20 04:28 03.01.2023
398 Mist 15 1020 82 2500 1.03 50 03:52 03.01.2023
399 Haze 15 1020 77 2500 0 0 03:32 03.01.2023
400 Haze 16 1018 77 3000 1.54 320 23:19 02.01.2023
401 Haze 17 1018 72 3000 0 0 22:39 02.01.2023
402 Haze 18 1019 72 3000 1.54 40 20:59 02.01.2023
403 Haze 19 1019 68 3000 1.03 40 20:31 02.01.2023
404 Haze 20 1020 68 3000 1.54 50 18:52 02.01.2023
405 Haze 20 1020 73 3000 0 0 16:53 02.01.2023
406 Haze 23 1018 60 3000 1.03 70 14:26 02.01.2023
407 Haze 27 1017 54 3000 1.03 80 12:56 02.01.2023
408 Haze 28 1017 44 4000 1.54 20 11:27 02.01.2023
409 Haze 26 1018 47 5000 1.54 40 08:51 02.01.2023
410 Haze 22 1022 56 4000 1.03 60 05:43 02.01.2023
411 Haze 17 1017 72 3000 1.54 20 23:32 01.01.2023
412 Haze 18 1018 72 3000 1.03 20 21:55 01.01.2023
413 Haze 19 1018 68 3000 0 0 20:50 01.01.2023
414 Haze 19 1019 68 3000 1.03 20 20:18 01.01.2023
415 Haze 19 1019 68 3000 1.03 20 20:18 01.01.2023
416 Haze 21 1019 60 3000 1.54 10 18:53 01.01.2023
417 Haze 19 1020 72 3000 0 0 17:24 01.01.2023
418 Haze 19 1020 68 3000 0 0 16:57 01.01.2023
419 Haze 20 1019 64 3000 0 0 15:38 01.01.2023
420 Haze 24 1017 53 4000 1.03 40 13:50 01.01.2023
421 Haze 26 1017 47 4000 1.03 40 12:59 01.01.2023
422 Haze 27 1016 44 5000 1.54 40 11:42 01.01.2023
423 Haze 28 1016 42 5000 1.03 120 11:21 01.01.2023
424 Haze 27 1017 41 5000 2.57 110 09:35 01.01.2023
425 Haze 26 1019 44 5000 2.06 70 08:25 01.01.2023
426 Haze 25 1020 44 5000 2.57 90 07:57 01.01.2023
427 Haze 24 1021 46 5000 1.03 70 06:46 01.01.2023
428 Haze 18 1017 72 3000 1.03 340 23:47 31.12.2022
429 Haze 19 1017 63 3000 0 0 23:26 31.12.2022
430 Haze 19 1017 68 3000 1.03 10 22:22 31.12.2022
431 Haze 20 1017 64 3000 1.03 10 21:24 31.12.2022
432 Haze 21 1018 60 3000 1.03 360 20:24 31.12.2022
433 Haze 22 1019 64 3000 0 0 18:51 31.12.2022
434 Haze 22 1019 64 3000 1.54 70 18:32 31.12.2022
435 Haze 22 1019 68 3000 0 0 17:57 31.12.2022
436 Haze 23 1019 64 3000 1.03 10 17:31 31.12.2022
437 Haze 22 1018 64 3000 1.03 350 16:31 31.12.2022
438 Haze 23 1017 60 3000 1.03 110 15:28 31.12.2022
439 Haze 25 1016 57 4000 1.03 130 13:55 31.12.2022
440 Haze 25 1016 57 4000 1.03 130 13:55 31.12.2022
441 Haze 26 1016 53 4000 1.54 120 13:27 31.12.2022
442 Haze 29 1015 45 5000 1.03 90 12:21 31.12.2022
443 Haze 29 1015 42 5000 1.03 70 11:52 31.12.2022
444 Haze 29 1016 42 5000 1.03 350 10:55 31.12.2022
445 Haze 29 1017 42 5000 1.03 310 09:56 31.12.2022
446 Haze 29 1017 42 5000 1.03 310 09:37 31.12.2022
447 Haze 28 1019 44 5000 2.06 70 08:22 31.12.2022
448 Mist 18 1017 82 3000 1.03 330 00:59 31.12.2022
449 Mist 18 1017 82 3000 1.03 330 00:27 31.12.2022
450 Mist 17 1017 82 3000 0 0 22:55 30.12.2022
451 Mist 18 1017 82 3000 0 0 22:18 30.12.2022
452 Mist 19 1018 77 3000 0 0 21:37 30.12.2022
453 Haze 19 1018 77 3000 0 0 20:20 30.12.2022
454 Haze 22 1019 73 3000 1.54 330 18:28 30.12.2022
455 Haze 23 1019 68 3000 0 0 17:33 30.12.2022
456 Haze 24 1018 64 4000 0 0 15:58 30.12.2022
457 Haze 25 1018 61 4000 1.54 80 14:54 30.12.2022
458 Haze 30 1017 48 5000 1.03 70 12:52 30.12.2022
459 Haze 29 1019 39 5000 2.57 100 08:23 30.12.2022
460 Haze 17 1021 77 3000 1.03 360 03:47 30.12.2022
461 Haze 15 1020 77 3000 0 0 02:25 30.12.2022
462 Haze 16 1019 77 3000 0 0 23:18 29.12.2022
463 Haze 17 1019 72 3000 1.03 330 21:32 29.12.2022
464 Haze 17 1019 72 3000 0 0 20:54 29.12.2022
465 Haze 18 1019 68 3000 1.03 340 20:26 29.12.2022
466 Haze 19 1020 68 3000 0 0 18:32 29.12.2022
467 Haze 19 1020 68 3000 1.03 330 17:51 29.12.2022
468 Haze 19 1020 63 3000 0 0 17:18 29.12.2022
469 Haze 19 1020 63 3000 0 0 16:44 29.12.2022
470 Haze 20 1019 56 3000 0 0 15:44 29.12.2022
471 Haze 26 1017 44 4000 1.03 80 13:34 29.12.2022
472 Haze 29 1017 32 5000 1.54 100 11:48 29.12.2022
473 Haze 27 1018 32 5000 1.54 50 09:20 29.12.2022
474 Haze 18 1018 52 3000 1.03 170 00:37 29.12.2022
475 Haze 19 1018 48 3000 1.03 360 23:28 28.12.2022
476 Haze 20 1018 45 3000 1.54 10 21:44 28.12.2022
477 Haze 20 1018 45 3000 1.03 20 21:18 28.12.2022
478 Haze 21 1019 46 3000 1.03 10 19:47 28.12.2022
479 Haze 23 1019 53 3000 1.54 60 16:58 28.12.2022
480 Haze 24 1018 57 3000 1.54 70 15:38 28.12.2022
481 Haze 28 1016 57 3000 1.03 100 12:59 28.12.2022
482 Haze 29 1015 54 4000 1.03 90 12:24 28.12.2022
483 Haze 29 1015 51 4000 1.03 70 11:29 28.12.2022
484 Haze 28 1017 51 4000 1.54 30 09:18 28.12.2022
485 Haze 26 1019 53 3000 1.03 30 07:27 28.12.2022
486 Haze 25 1020 57 3000 2.06 70 06:43 28.12.2022
487 Mist 21 1016 78 3000 0 0 23:37 27.12.2022
488 Mist 22 1017 83 3000 0 0 20:31 27.12.2022
489 Haze 22 1017 83 3000 0 0 19:40 27.12.2022
490 Haze 22 1017 83 3000 1.03 330 17:47 27.12.2022
491 Haze 22 1016 83 3000 0 0 16:43 27.12.2022
492 Haze 24 1016 73 3000 0 0 15:31 27.12.2022
493 Haze 30 1014 54 5000 2.06 220 12:36 27.12.2022
494 Haze 31 1014 48 5000 2.57 220 11:29 27.12.2022
495 Haze 30 1015 58 5000 2.57 230 09:47 27.12.2022
496 Haze 31 1015 58 5000 4.12 220 09:23 27.12.2022
497 Haze 26 1019 73 4000 1.03 110 06:51 27.12.2022
498 Mist 21 1019 94 2000 1.03 100 04:31 27.12.2022
499 Haze 19 1016 94 3000 0 0 22:28 26.12.2022
500 Haze 20 1017 88 3000 0 0 21:24 26.12.2022
501 Haze 20 1017 88 3000 0 0 20:39 26.12.2022
502 Haze 21 1017 78 3000 0 0 18:44 26.12.2022
503 Haze 21 1017 83 3000 0 0 17:46 26.12.2022
504 Haze 23 1017 73 3000 0 0 16:20 26.12.2022
505 Haze 26 1015 61 4000 0 0 13:54 26.12.2022
506 Haze 29 1015 58 5000 0 0 12:45 26.12.2022
507 Haze 27 1018 65 3000 2.06 180 07:29 26.12.2022
508 Mist 17 1014 88 3000 0 0 23:56 25.12.2022
509 Mist 17 1014 88 3000 0 0 23:35 25.12.2022
510 Haze 19 1014 88 3000 0 0 22:27 25.12.2022
511 Haze 19 1014 88 3000 0 0 22:27 25.12.2022
512 Haze 20 1015 88 3000 0 0 21:37 25.12.2022
513 Haze 21 1016 73 3000 0 0 18:49 25.12.2022
514 Haze 21 1016 78 3000 1.03 90 17:52 25.12.2022
515 Haze 22 1016 73 3000 1.03 80 17:33 25.12.2022
516 Haze 23 1015 68 4000 2.06 120 15:19 25.12.2022
517 Haze 28 1013 51 4000 4.12 170 12:26 25.12.2022
518 Haze 28 1014 51 4000 2.06 280 08:39 25.12.2022
519 Haze 18 1013 82 3000 1.54 330 23:30 24.12.2022
520 Haze 18 1013 77 3000 0 0 21:25 24.12.2022
521 Haze 19 1014 77 3000 0 0 17:59 24.12.2022
522 Haze 21 1014 68 3000 0 0 16:32 24.12.2022
523 Haze 24 1013 57 4000 1.03 130 14:48 24.12.2022
524 Haze 29 1012 42 5000 2.06 150 12:42 24.12.2022
525 Haze 30 1012 37 5000 3.09 180 10:31 24.12.2022
526 Haze 30 1012 39 5000 1.54 210 09:55 24.12.2022
527 Haze 30 1012 39 5000 1.54 210 09:36 24.12.2022
528 Haze 19 1016 88 4000 1.54 350 04:28 24.12.2022
529 Haze 16 1013 82 3000 0 0 00:52 24.12.2022
530 Haze 16 1013 82 3000 0 0 23:35 23.12.2022
531 Haze 17 1013 77 3000 1.03 340 21:55 23.12.2022
532 Haze 17 1013 72 3000 0 0 20:22 23.12.2022
533 Haze 19 1013 68 3000 0 0 19:39 23.12.2022
534 Haze 19 1014 68 3000 0 0 19:21 23.12.2022
535 Haze 20 1014 64 3000 1.03 330 18:38 23.12.2022
536 Haze 19 1014 68 3000 1.54 330 18:18 23.12.2022
537 Haze 21 1013 56 3000 1.03 100 16:25 23.12.2022
538 Haze 25 1012 47 4000 1.54 100 14:42 23.12.2022
539 Haze 30 1012 32 5000 1.54 130 10:56 23.12.2022
540 Haze 30 1013 32 5000 1.03 170 09:36 23.12.2022
541 Haze 28 1015 39 5000 1.54 100 07:45 23.12.2022
542 Haze 26 1015 44 4000 1.03 100 06:50 23.12.2022
543 Haze 23 1016 60 3000 1.03 340 05:19 23.12.2022
544 Haze 15 1013 82 3000 0 0 23:20 22.12.2022
545 Haze 17 1013 77 3000 1.03 320 21:56 22.12.2022
546 Haze 18 1014 77 3000 1.03 320 19:56 22.12.2022
547 Haze 18 1014 77 3000 1.54 320 19:22 22.12.2022
548 Haze 19 1014 68 3000 0 0 18:25 22.12.2022
549 Haze 20 1014 64 3000 0 0 16:54 22.12.2022
550 Haze 21 1014 60 3000 0 0 16:30 22.12.2022
551 Haze 23 1014 53 4000 1.03 110 15:30 22.12.2022
552 Haze 24 1013 50 4000 1.03 70 14:30 22.12.2022
553 Haze 27 1012 41 4000 1.03 90 13:31 22.12.2022
554 Haze 29 1012 39 5000 1.03 100 12:32 22.12.2022
555 Haze 29 1012 34 5000 2.06 110 10:32 22.12.2022
556 Haze 29 1013 37 5000 1.03 10 09:59 22.12.2022
557 Haze 29 1013 37 5000 1.03 30 09:19 22.12.2022
558 Haze 29 1013 37 5000 1.03 30 09:19 22.12.2022
559 Haze 27 1015 39 5000 1.54 70 07:54 22.12.2022
560 Haze 18 1016 77 3000 1.03 330 04:19 22.12.2022
561 Haze 15 1013 77 3000 0 0 00:48 22.12.2022
562 Haze 17 1013 72 3000 1.03 320 22:41 21.12.2022
563 Haze 17 1014 72 3000 0 0 21:50 21.12.2022
564 Haze 18 1014 72 3000 1.03 330 21:20 21.12.2022
565 Haze 18 1014 72 3000 1.54 330 20:40 21.12.2022
566 Haze 17 1015 77 3000 1.03 330 19:56 21.12.2022
567 Haze 18 1015 72 3000 1.03 310 19:37 21.12.2022
568 Haze 18 1015 72 3000 1.03 310 19:18 21.12.2022
569 Haze 19 1015 68 3000 1.03 330 18:38 21.12.2022
570 Haze 20 1015 64 3000 0 0 16:19 21.12.2022
571 Haze 24 1013 46 4000 1.03 80 14:20 21.12.2022
572 Haze 29 1012 37 5000 1.03 90 12:18 21.12.2022
573 Haze 29 1012 32 5000 1.54 110 11:21 21.12.2022
574 Haze 30 1013 30 5000 1.03 100 10:30 21.12.2022
575 Haze 28 1014 39 5000 1.54 80 08:49 21.12.2022
576 Haze 25 1017 44 5000 1.54 60 06:30 21.12.2022
577 Haze 25 1017 44 5000 1.54 60 06:30 21.12.2022
578 Haze 15 1013 82 3000 0 0 00:26 21.12.2022
579 Haze 16 1014 77 3000 1.54 330 21:47 20.12.2022
580 Haze 16 1014 77 3000 1.54 330 21:47 20.12.2022
581 Haze 16 1014 77 3000 1.03 330 20:58 20.12.2022
582 Haze 18 1014 72 3000 1.03 350 19:55 20.12.2022
583 Haze 18 1014 77 3000 1.03 320 18:48 20.12.2022
584 Haze 18 1014 72 3000 1.03 320 18:23 20.12.2022
585 Haze 18 1014 72 3000 0 0 17:50 20.12.2022
586 Haze 19 1014 68 3000 0 0 17:24 20.12.2022
587 Haze 20 1013 64 3000 0 0 15:55 20.12.2022
588 Haze 22 1012 53 3000 0 0 14:55 20.12.2022
589 Haze 22 1012 53 3000 0 0 14:35 20.12.2022
590 Haze 26 1011 41 4000 1.03 90 13:26 20.12.2022
591 Haze 28 1011 39 4000 1.03 80 12:34 20.12.2022
592 Haze 29 1011 32 4000 1.03 50 11:54 20.12.2022
593 Haze 29 1012 32 4000 2.06 120 09:57 20.12.2022
594 Haze 26 1016 41 4000 2.06 90 06:58 20.12.2022
595 Haze 15 1013 77 3000 0 0 23:58 19.12.2022
596 Haze 15 1013 77 3000 1.03 320 22:21 19.12.2022
597 Haze 18 1014 72 3000 1.03 10 20:48 19.12.2022
598 Haze 17 1014 72 3000 1.03 330 19:40 19.12.2022
599 Haze 17 1014 72 3000 1.54 340 18:43 19.12.2022
600 Haze 17 1014 72 3500 1.03 300 17:38 19.12.2022
601 Haze 21 1013 52 4000 0 0 14:45 19.12.2022
602 Haze 27 1012 39 5000 1.03 100 12:35 19.12.2022
603 Haze 28 1012 32 5000 2.06 80 11:30 19.12.2022
604 Haze 26 1015 38 5000 1.03 90 07:47 19.12.2022
605 Haze 23 1017 46 5000 1.03 50 05:37 19.12.2022
606 Haze 14 1014 82 3000 1.03 330 22:59 18.12.2022
607 Haze 15 1014 77 3000 0 0 21:47 18.12.2022
608 Haze 15 1014 77 3000 0 0 21:24 18.12.2022
609 Haze 16 1015 77 3000 1.03 340 20:33 18.12.2022
610 Haze 16 1015 77 3000 0 0 19:42 18.12.2022
611 Haze 16 1015 77 3000 0 0 18:39 18.12.2022
612 Haze 16 1015 77 3000 0 0 17:49 18.12.2022
613 Haze 19 1015 63 3000 0 0 15:41 18.12.2022
614 Haze 19 1015 63 3000 0 0 15:41 18.12.2022
615 Haze 20 1014 64 3000 1.03 320 15:20 18.12.2022
616 Haze 21 1014 52 3000 0 0 14:21 18.12.2022
617 Haze 27 1013 36 4000 1.03 40 12:57 18.12.2022
618 Haze 27 1013 34 4000 1.03 80 12:30 18.12.2022
619 Haze 28 1013 32 5000 1.54 10 11:22 18.12.2022
620 Haze 27 1015 34 5000 1.03 270 09:20 18.12.2022
621 Haze 27 1015 34 5000 2.57 110 08:45 18.12.2022
622 Haze 24 1018 50 5000 1.54 100 06:24 18.12.2022
623 Haze 17 1017 72 4000 1.54 360 03:41 18.12.2022
624 Haze 15 1016 72 3000 1.03 310 01:48 18.12.2022
625 Haze 19 1015 63 3000 1.03 350 22:24 17.12.2022
626 Haze 20 1016 64 3000 0 0 19:46 17.12.2022
627 Haze 22 1017 56 3000 1.03 40 17:19 17.12.2022
628 Haze 25 1014 47 4000 1.03 60 14:44 17.12.2022
629 Haze 30 1013 42 5000 1.03 20 12:28 17.12.2022
630 Haze 30 1013 45 5000 1.54 50 10:50 17.12.2022
631 Haze 30 1014 45 5000 2.06 20 09:57 17.12.2022
632 Haze 28 1015 47 5000 1.03 20 08:35 17.12.2022
633 Haze 26 1017 53 5000 1.54 60 06:46 17.12.2022
634 Haze 21 1014 73 2000 1.03 10 23:59 16.12.2022
635 Mist 22 1014 83 2000 0 0 21:38 16.12.2022
636 Mist 23 1014 88 2000 1.03 40 20:24 16.12.2022
637 Mist 23 1015 94 2500 1.03 50 17:19 16.12.2022
638 Haze 27 1013 65 3000 1.03 130 14:50 16.12.2022
639 Haze 28 1012 65 3000 1.54 130 13:50 16.12.2022
640 Haze 30 1011 58 5000 1.54 120 12:21 16.12.2022
641 Haze 31 1011 51 5000 1.54 80 10:47 16.12.2022
642 Haze 31 1012 48 5000 1.03 360 09:32 16.12.2022
643 Haze 30 1013 51 5000 1.03 140 08:26 16.12.2022
644 Haze 30 1014 51 5000 2.06 120 07:54 16.12.2022
645 Haze 22 1013 78 2500 1.03 40 23:53 15.12.2022
646 Haze 21 1013 83 2500 0 0 22:31 15.12.2022
647 Haze 23 1014 78 3000 1.03 360 20:41 15.12.2022
648 Haze 22 1014 78 3000 0 0 19:37 15.12.2022
649 Haze 23 1015 73 3000 0 0 18:29 15.12.2022
650 Haze 24 1015 69 3000 0 0 17:27 15.12.2022
651 Haze 25 1014 65 3000 1.03 140 15:39 15.12.2022
652 Haze 26 1013 61 3000 1.03 120 13:59 15.12.2022
653 Haze 28 1012 61 4000 1.03 120 12:43 15.12.2022
654 Haze 30 1013 48 5000 2.06 140 10:29 15.12.2022
655 Haze 29 1014 54 5000 1.03 70 08:54 15.12.2022
656 Haze 26 1017 65 5000 2.06 60 06:26 15.12.2022
657 Haze 24 1017 69 4000 1.54 10 05:19 15.12.2022
658 Haze 24 1017 69 4000 1.54 10 05:19 15.12.2022
659 Haze 23 1015 60 3000 1.03 10 21:25 14.12.2022
660 Haze 23 1016 64 3000 1.54 20 20:59 14.12.2022
661 Haze 24 1016 60 3000 1.03 10 20:31 14.12.2022
662 Haze 25 1017 61 3000 0 0 18:31 14.12.2022
663 Haze 25 1017 61 3000 1.03 60 16:58 14.12.2022
664 Haze 26 1016 57 3000 0 0 15:49 14.12.2022
665 Haze 26 1015 61 3000 1.03 70 14:34 14.12.2022
666 Haze 30 1014 48 5000 1.03 60 12:21 14.12.2022
667 Haze 30 1014 45 5000 1.03 60 10:39 14.12.2022
668 Haze 30 1015 45 5000 1.03 60 09:25 14.12.2022
669 Clouds 20 1013 61 10000 2.62 22 00:51 14.12.2022
670 Haze 24 1015 64 2500 1.03 40 21:49 13.12.2022
671 Haze 24 1015 64 2500 1.03 40 21:19 13.12.2022
672 Haze 25 1015 65 2500 1.03 40 20:46 13.12.2022
673 Haze 26 1016 73 2500 0 0 17:55 13.12.2022
674 Haze 27 1016 69 2500 1.03 50 16:22 13.12.2022
675 Haze 27 1015 69 2500 1.03 40 14:52 13.12.2022
676 Haze 29 1013 65 3000 1.03 50 12:27 13.12.2022
677 Haze 29 1014 65 4000 1.03 60 10:38 13.12.2022
678 Haze 30 1014 62 4000 1.03 310 09:44 13.12.2022
679 Haze 27 1017 69 4000 1.54 110 07:43 13.12.2022
680 Haze 24 1014 78 2500 0 0 22:23 12.12.2022
681 Haze 24 1014 83 2500 0 0 21:28 12.12.2022
682 Haze 24 1014 83 2500 1.03 110 19:28 12.12.2022
683 Haze 25 1015 78 3000 0 0 17:21 12.12.2022
684 Haze 26 1013 73 3000 0 0 15:22 12.12.2022
685 Haze 26 1013 73 3000 0 0 15:22 12.12.2022
686 Haze 29 1011 65 3000 1.54 110 12:26 12.12.2022
687 Haze 30 1013 62 3000 2.57 140 09:20 12.12.2022
688 Mist 25 1017 78 1800 2.06 70 05:42 12.12.2022
689 Mist 22 1015 94 1500 1.03 10 03:51 12.12.2022
690 Haze 22 1013 83 3000 1.03 210 22:57 11.12.2022
691 Haze 23 1014 78 3000 1.03 180 20:54 11.12.2022
692 Haze 24 1014 73 3000 1.54 70 19:48 11.12.2022
693 Haze 24 1014 73 3000 1.54 70 19:30 11.12.2022
694 Haze 25 1014 69 3000 1.54 80 18:22 11.12.2022
695 Haze 25 1015 69 3000 1.54 60 17:32 11.12.2022
696 Haze 25 1014 69 3000 1.54 80 16:52 11.12.2022
697 Haze 25 1014 69 3000 1.03 40 15:47 11.12.2022
698 Haze 26 1014 65 3000 1.03 30 14:50 11.12.2022
699 Haze 27 1013 65 3000 1.03 100 12:45 11.12.2022
700 Haze 28 1013 61 3000 1.03 90 12:18 11.12.2022
701 Haze 29 1015 54 3000 2.06 80 08:29 11.12.2022
702 Haze 21 1013 64 3000 1.03 360 00:34 11.12.2022
703 Haze 21 1013 64 3000 2.87 38 23:20 10.12.2022
704 Haze 21 1014 64 3000 0 0 22:33 10.12.2022
705 Haze 22 1014 56 3000 1.03 350 21:19 10.12.2022
706 Haze 21 1014 60 3000 1.03 80 20:35 10.12.2022
707 Haze 22 1014 64 3000 1.03 100 18:49 10.12.2022
708 Haze 23 1014 60 3000 1.54 60 16:51 10.12.2022
709 Haze 24 1014 57 3000 1.03 40 16:32 10.12.2022
710 Haze 24 1013 57 3000 1.54 60 15:38 10.12.2022
711 Haze 25 1013 53 3000 1.54 70 14:22 10.12.2022
712 Haze 26 1012 53 3000 1.54 70 12:53 10.12.2022
713 Haze 28 1011 44 4000 2.57 70 11:35 10.12.2022
714 Haze 28 1012 42 4000 2.06 40 10:34 10.12.2022
715 Haze 26 1013 44 4000 1.54 30 08:55 10.12.2022
716 Haze 24 1015 50 4000 2.06 50 07:19 10.12.2022
717 Clouds 14 1012 43 10000 2.89 30 00:19 10.12.2022
718 Haze 15 1014 72 3000 0 0 22:46 09.12.2022
719 Haze 15 1014 72 3000 0 0 21:48 09.12.2022
720 Haze 15 1014 72 3000 1.03 10 21:21 09.12.2022
721 Haze 15 1014 72 3000 1.03 330 20:41 09.12.2022
722 Haze 19 1014 55 3000 1.54 120 18:40 09.12.2022
723 Haze 19 1014 52 3000 1.03 10 17:45 09.12.2022
724 Haze 20 1013 49 3000 1.03 350 16:30 09.12.2022
725 Haze 21 1013 46 3000 1.03 350 15:33 09.12.2022
726 Haze 22 1012 35 3000 0 0 14:25 09.12.2022
727 Haze 27 1012 24 5000 3.09 70 10:52 09.12.2022
728 Haze 27 1012 34 5000 2.06 30 10:29 09.12.2022
729 Haze 25 1014 38 5000 4.12 70 08:23 09.12.2022
730 Haze 13 1015 76 4000 1.54 320 03:18 09.12.2022
731 Haze 13 1014 76 3000 1.54 330 23:37 08.12.2022
732 Haze 14 1015 72 3000 0 0 20:56 08.12.2022
733 Haze 14 1015 72 3000 0 0 20:21 08.12.2022
734 Haze 15 1016 67 3000 0 0 16:51 08.12.2022
735 Haze 20 1015 45 3000 1.54 10 14:43 08.12.2022
736 Haze 21 1014 43 4000 1.03 20 14:20 08.12.2022
737 Haze 26 1014 36 5000 2.06 20 10:49 08.12.2022
738 Haze 26 1015 29 5000 1.54 80 09:34 08.12.2022
739 Haze 25 1016 33 5000 2.57 40 08:28 08.12.2022
740 Haze 16 1015 63 3000 2.06 150 22:44 07.12.2022
741 Haze 16 1015 63 3000 2.06 150 22:18 07.12.2022
742 Haze 17 1015 59 3000 1.03 10 21:47 07.12.2022
743 Haze 16 1015 67 3000 1.03 350 20:36 07.12.2022
744 Haze 17 1016 63 3000 1.03 10 18:41 07.12.2022
745 Haze 21 1016 49 3000 0 0 15:53 07.12.2022
746 Haze 23 1015 49 3000 1.03 50 14:30 07.12.2022
747 Haze 27 1013 41 4000 2.06 70 11:36 07.12.2022
748 Haze 27 1013 44 4000 2.06 30 10:30 07.12.2022
749 Haze 27 1014 44 4000 2.57 330 09:36 07.12.2022
750 Haze 26 1014 47 4000 3.09 350 08:36 07.12.2022
751 Haze 22 1018 56 4000 1.54 40 05:27 07.12.2022
752 Mist 18 1016 82 1500 1.03 360 02:58 07.12.2022
753 Haze 18 1015 88 3000 0 0 22:18 06.12.2022
754 Haze 20 1016 77 3000 0 0 19:38 06.12.2022
755 Haze 22 1016 73 3000 0 0 17:30 06.12.2022
756 Haze 22 1016 73 3000 0 0 16:38 06.12.2022
757 Haze 23 1015 68 3000 1.03 100 15:38 06.12.2022
758 Haze 24 1015 69 3000 0 0 14:55 06.12.2022
759 Haze 24 1014 69 3000 0 0 14:23 06.12.2022
760 Haze 28 1014 54 3000 0 0 12:42 06.12.2022
761 Haze 29 1013 51 4000 1.54 20 12:20 06.12.2022
762 Haze 28 1017 51 4000 2.06 90 07:51 06.12.2022
763 Haze 28 1017 51 4000 2.06 90 07:51 06.12.2022
764 Haze 18 1017 88 2000 1.03 320 03:26 06.12.2022
765 Mist 19 1015 82 2000 1.03 10 00:50 06.12.2022
766 Mist 20 1015 77 2000 1.03 10 22:22 05.12.2022
767 Mist 21 1016 78 2000 1.54 10 20:55 05.12.2022
768 Mist 20 1016 77 2000 0 0 20:23 05.12.2022
769 Mist 20 1016 77 2000 1.03 330 19:42 05.12.2022
770 Haze 22 1017 68 2000 0 0 16:56 05.12.2022
771 Haze 22 1017 68 2000 0 0 15:49 05.12.2022
772 Haze 23 1016 64 2000 0 0 15:18 05.12.2022
773 Haze 28 1015 54 2500 1.03 70 12:59 05.12.2022
774 Haze 28 1015 54 2500 1.03 70 12:38 05.12.2022
775 Haze 29 1014 48 3000 1.03 90 11:46 05.12.2022
776 Haze 29 1016 42 3000 2.06 90 09:36 05.12.2022
777 Mist 17 1016 94 2000 1.03 20 00:19 05.12.2022
778 Mist 17 1015 94 2000 1.03 330 22:44 04.12.2022
779 Mist 18 1015 88 2000 1.03 360 22:20 04.12.2022
780 Clouds 18 1014 57 10000 1.86 20 21:39 04.12.2022
781 Haze 19 1016 82 2000 0 0 20:26 04.12.2022
782 Haze 20 1016 83 2500 1.03 330 19:25 04.12.2022
783 Haze 20 1016 83 2500 1.03 330 18:37 04.12.2022
784 Haze 20 1016 52 2500 0 0 17:23 04.12.2022
785 Haze 21 1016 78 2500 0 0 16:37 04.12.2022
786 Haze 21 1016 73 2500 0 0 16:19 04.12.2022
787 Haze 22 1015 73 2500 1.03 70 15:44 04.12.2022
788 Haze 23 1015 68 2500 1.03 180 14:43 04.12.2022
789 Haze 25 1014 61 2500 0 0 13:18 04.12.2022
790 Haze 28 1014 54 2500 0 0 12:42 04.12.2022
791 Haze 29 1013 51 3000 1.03 40 11:46 04.12.2022
792 Haze 29 1015 48 3000 0 0 09:20 04.12.2022
793 Haze 25 1018 61 2500 1.03 50 06:34 04.12.2022
794 Mist 17 1014 94 2000 0 0 23:44 03.12.2022
795 Mist 17 1015 94 2000 0 0 22:51 03.12.2022
796 Mist 18 1015 94 2000 0 0 21:53 03.12.2022
797 Mist 19 1015 88 2000 1.03 320 21:19 03.12.2022
798 Mist 20 1015 83 2000 1.03 350 19:28 03.12.2022
799 Mist 20 1016 83 2500 0 0 18:39 03.12.2022
800 Haze 22 1015 73 2500 0 0 15:53 03.12.2022
801 Haze 25 1013 61 2500 0 0 13:54 03.12.2022
802 Haze 27 1013 54 2500 0 0 12:53 03.12.2022
803 Haze 28 1013 51 2500 0 0 12:22 03.12.2022
804 Haze 29 1013 48 2500 1.03 120 09:47 03.12.2022
805 Haze 24 1017 69 2000 0 0 06:27 03.12.2022
806 Mist 16 1014 88 1500 0 0 00:23 03.12.2022
807 Mist 17 1014 88 1500 0 0 22:20 02.12.2022
808 Mist 17 1014 88 1500 0 0 20:53 02.12.2022
809 Mist 19 1015 82 1500 0 0 18:21 02.12.2022
810 Haze 21 1014 78 2500 0 0 15:58 02.12.2022
811 Haze 22 1014 68 2500 1.54 350 14:38 02.12.2022
812 Haze 23 1014 64 3000 1.03 300 14:19 02.12.2022
813 Haze 26 1013 57 3000 0 0 12:51 02.12.2022
814 Haze 28 1012 51 3000 1.03 80 11:31 02.12.2022
815 Haze 28 1012 51 3000 1.03 80 11:31 02.12.2022
816 Haze 27 1015 50 3000 2.06 90 08:35 02.12.2022
817 Haze 26 1016 53 2500 1.54 90 07:23 02.12.2022
818 Mist 16 1013 88 2000 0 0 22:54 01.12.2022
819 Mist 16 1013 88 2000 0 0 22:54 01.12.2022
820 Haze 17 1014 88 2000 1.03 360 21:44 01.12.2022
821 Haze 16 1014 88 2000 1.54 330 21:22 01.12.2022
822 Haze 17 1014 82 2000 0 0 19:19 01.12.2022
823 Haze 17 1014 77 2000 1.03 330 17:46 01.12.2022
824 Haze 19 1014 68 2500 1.03 210 15:38 01.12.2022
825 Haze 28 1013 39 2500 1.03 50 11:23 01.12.2022
826 Haze 29 1014 39 2500 1.03 230 09:55 01.12.2022
827 Haze 28 1014 42 2500 2.06 150 09:37 01.12.2022
828 Haze 26 1017 53 2500 1.54 20 07:18 01.12.2022
829 Fog 16 1014 88 1500 1.03 360 23:59 30.11.2022
830 Fog 16 1015 82 1500 0 0 22:28 30.11.2022
831 Fog 17 1015 77 1500 0 0 21:19 30.11.2022
832 Fog 18 1016 77 1500 1.03 360 20:25 30.11.2022
833 Fog 18 1016 77 1500 1.03 330 19:35 30.11.2022
834 Fog 18 1016 77 2000 1.03 330 18:33 30.11.2022
835 Haze 18 1017 77 3000 1.03 330 17:33 30.11.2022
836 Haze 20 1015 68 3000 0 0 14:46 30.11.2022
837 Haze 22 1015 60 3000 0 0 14:27 30.11.2022
838 Haze 28 1014 42 3000 1.03 50 12:32 30.11.2022
839 Haze 29 1014 45 3000 1.03 70 10:24 30.11.2022
840 Haze 28 1015 47 3000 1.03 90 08:38 30.11.2022
841 Haze 25 1018 53 3000 2.06 30 06:44 30.11.2022
842 Mist 14 1014 94 2500 0 0 23:32 29.11.2022
843 Mist 14 1014 100 2500 0 0 22:20 29.11.2022
844 Mist 15 1015 94 2500 0 0 20:52 29.11.2022
845 Mist 15 1015 94 2500 0 0 20:32 29.11.2022
846 Haze 16 1016 88 3000 0 0 18:56 29.11.2022
847 Haze 18 1016 77 3000 0 0 16:57 29.11.2022
848 Haze 18 1015 77 3000 0 0 16:20 29.11.2022
849 Haze 21 1014 73 3000 0 0 14:49 29.11.2022
850 Haze 26 1013 50 4000 1.03 20 12:43 29.11.2022
851 Haze 29 1013 42 4000 0 0 11:31 29.11.2022
852 Haze 29 1013 42 4000 2.06 250 10:41 29.11.2022
853 Haze 29 1014 39 4000 2.06 70 09:28 29.11.2022
854 Haze 27 1015 47 3000 1.54 70 07:46 29.11.2022
855 Mist 14 1013 94 2500 0 0 00:33 29.11.2022
856 Mist 13 1013 100 2500 0 0 23:27 28.11.2022
857 Mist 14 1013 94 2500 0 0 22:22 28.11.2022
858 Mist 15 1013 77 2500 0 0 21:43 28.11.2022
859 Mist 15 1014 82 2500 0 0 20:33 28.11.2022
860 Mist 15 1014 82 2500 0 0 19:37 28.11.2022
861 Haze 16 1014 72 3000 0 0 18:29 28.11.2022
862 Haze 17 1014 77 3000 0 0 17:35 28.11.2022
863 Haze 21 1013 68 3000 0 0 15:19 28.11.2022
864 Haze 24 1012 60 4000 1.03 60 13:57 28.11.2022
865 Haze 25 1012 57 4000 1.03 20 13:32 28.11.2022
866 Haze 28 1011 34 5000 1.03 350 11:49 28.11.2022
867 Haze 28 1013 39 5000 1.03 120 08:49 28.11.2022
868 Haze 21 1015 68 4000 1.03 10 04:58 28.11.2022
869 Haze 21 1015 68 4000 1.03 10 04:40 28.11.2022
870 Haze 15 1013 94 4000 0 0 03:23 28.11.2022
871 Haze 14 1011 88 2500 1.54 330 00:35 28.11.2022
872 Haze 14 1011 82 2500 0 0 22:24 27.11.2022
873 Haze 15 1011 82 2500 1.03 330 20:49 27.11.2022
874 Haze 18 1012 72 2500 1.03 340 18:52 27.11.2022
875 Haze 19 1012 63 2500 0 0 16:39 27.11.2022
876 Haze 21 1011 52 3000 1.03 110 13:55 27.11.2022
877 Haze 28 1010 44 4000 1.03 100 12:25 27.11.2022
878 Haze 29 1011 32 5000 0 0 10:23 27.11.2022
879 Haze 26 1013 41 5000 1.54 130 07:30 27.11.2022
880 Haze 26 1013 41 5000 1.54 130 07:30 27.11.2022
881 Haze 14 1012 82 3000 0 0 23:38 26.11.2022
882 Haze 14 1013 77 3000 1.03 220 21:44 26.11.2022
883 Haze 15 1013 82 3000 1.03 340 19:57 26.11.2022
884 Haze 16 1014 72 3000 1.03 350 18:41 26.11.2022
885 Haze 17 1014 67 3000 0 0 16:40 26.11.2022
886 Haze 19 1013 59 3000 0 0 15:22 26.11.2022
887 Haze 26 1012 38 4000 1.03 40 12:51 26.11.2022
888 Haze 28 1012 32 5000 1.03 220 10:54 26.11.2022
889 Haze 28 1013 32 5000 1.54 20 09:43 26.11.2022
890 Haze 27 1015 34 5000 1.03 120 08:21 26.11.2022
891 Haze 14 1014 82 2500 1.03 330 22:43 25.11.2022
892 Haze 15 1015 77 2500 1.03 320 21:35 25.11.2022
893 Haze 16 1016 77 2500 1.03 320 20:21 25.11.2022
894 Haze 19 1016 72 3000 0 0 16:51 25.11.2022
895 Haze 20 1015 64 3000 1.03 340 15:31 25.11.2022
896 Haze 28 1015 39 5000 1.54 110 09:51 25.11.2022
897 Haze 28 1016 39 5000 2.06 80 08:43 25.11.2022
898 Haze 26 1018 44 5000 2.06 70 07:27 25.11.2022
899 Haze 25 1018 47 5000 1.03 40 06:41 25.11.2022
900 Haze 16 1015 77 2500 0 0 01:25 25.11.2022
901 Haze 15 1015 82 2500 0 0 23:21 24.11.2022
902 Haze 16 1015 82 2500 0 0 22:22 24.11.2022
903 Haze 17 1016 77 2500 0 0 21:32 24.11.2022
904 Haze 18 1016 77 2500 1.03 360 19:39 24.11.2022
905 Haze 17 1016 77 3000 0 0 17:46 24.11.2022
906 Haze 18 1016 72 3000 0 0 17:22 24.11.2022
907 Haze 18 1016 72 3000 0 0 16:19 24.11.2022
908 Haze 21 1014 60 3000 0 0 14:23 24.11.2022
909 Haze 21 1014 60 3000 0 0 14:23 24.11.2022
910 Haze 27 1013 39 5000 1.03 30 12:38 24.11.2022
911 Haze 29 1013 34 5000 1.03 330 10:38 24.11.2022
912 Haze 27 1015 39 5000 1.54 30 08:21 24.11.2022
913 Haze 18 1016 77 3000 1.03 10 03:38 24.11.2022
914 Clouds 16 1013 50 10000 2.57 11 23:47 23.11.2022
915 Haze 15 1014 77 2500 0 0 22:41 23.11.2022
916 Haze 16 1015 82 2500 1.03 330 21:40 23.11.2022
917 Haze 17 1015 77 2500 0 0 20:48 23.11.2022
918 Haze 18 1015 72 2500 1.03 320 19:31 23.11.2022
919 Haze 19 1016 72 3000 1.03 20 18:41 23.11.2022
920 Haze 19 1015 55 3000 1.03 350 16:56 23.11.2022
921 Haze 24 1014 50 3000 1.03 10 13:41 23.11.2022
922 Haze 26 1013 44 3000 1.03 10 13:21 23.11.2022
923 Haze 28 1013 39 4000 1.03 20 12:21 23.11.2022
924 Haze 28 1013 39 4000 1.03 20 12:21 23.11.2022
925 Haze 29 1013 37 4000 1.54 20 11:42 23.11.2022
926 Haze 29 1013 39 5000 1.03 50 10:44 23.11.2022
927 Haze 29 1013 37 5000 2.06 60 09:44 23.11.2022
928 Haze 29 1014 39 5000 1.54 90 09:25 23.11.2022
929 Haze 28 1015 42 5000 1.03 50 08:37 23.11.2022
930 Haze 25 1017 47 5000 2.06 60 06:23 23.11.2022
931 Haze 23 1018 53 4000 1.54 20 05:18 23.11.2022
932 Haze 15 1014 77 2500 1.03 240 23:24 22.11.2022
933 Haze 15 1014 72 2500 1.03 150 22:34 22.11.2022
934 Haze 18 1014 72 2500 1.54 350 21:34 22.11.2022
935 Haze 19 1014 68 2500 1.54 350 20:50 22.11.2022
936 Haze 19 1015 68 2500 1.54 330 20:18 22.11.2022
937 Haze 20 1015 73 2500 1.03 340 17:56 22.11.2022
938 Haze 19 1015 72 2500 1.03 340 17:28 22.11.2022
939 Haze 19 1014 72 3000 0 0 15:56 22.11.2022
940 Haze 23 1013 56 4000 0 0 13:47 22.11.2022
941 Haze 28 1012 42 5000 1.03 50 11:52 22.11.2022
942 Haze 28 1013 39 5000 1.03 70 09:26 22.11.2022
943 Haze 27 1015 47 4000 2.06 50 07:55 22.11.2022
944 Haze 17 1016 77 4000 1.54 320 03:47 22.11.2022
945 Haze 14 1013 88 3000 1.54 360 23:41 21.11.2022
946 Haze 15 1013 82 3000 0 0 22:49 21.11.2022
947 Haze 16 1013 82 3000 1.03 10 21:59 21.11.2022
948 Haze 15 1014 82 3000 1.03 340 20:53 21.11.2022
949 Haze 17 1014 82 3000 1.03 10 19:42 21.11.2022
950 Haze 18 1015 77 3000 1.03 350 18:54 21.11.2022
951 Haze 18 1015 77 3000 1.03 350 18:34 21.11.2022
952 Haze 17 1015 72 3000 1.03 330 16:56 21.11.2022
953 Haze 17 1015 72 3000 1.03 330 16:37 21.11.2022
954 Haze 18 1014 72 3000 1.03 350 15:50 21.11.2022
955 Haze 19 1014 63 3000 1.03 120 14:55 21.11.2022
956 Haze 21 1013 60 3000 0 0 13:44 21.11.2022
957 Haze 27 1012 39 4000 1.54 20 11:38 21.11.2022
958 Haze 27 1014 39 5000 1.03 280 09:18 21.11.2022
959 Haze 25 1015 47 5000 1.54 360 07:39 21.11.2022
960 Haze 14 1013 82 3000 0 0 22:38 20.11.2022
961 Haze 14 1013 82 3000 0 0 21:36 20.11.2022
962 Haze 14 1013 82 3000 0 0 21:36 20.11.2022
963 Haze 16 1013 77 3000 0 0 20:32 20.11.2022
964 Haze 17 1014 72 3000 1.03 320 18:39 20.11.2022
965 Haze 17 1014 67 3000 0 0 16:32 20.11.2022
966 Haze 18 1014 63 4000 0 0 15:30 20.11.2022
967 Haze 19 1014 59 4000 0 0 14:54 20.11.2022
968 Haze 20 1013 60 4000 1.03 160 13:34 20.11.2022
969 Haze 25 1013 38 5000 1.03 360 12:42 20.11.2022
970 Haze 27 1012 36 5000 1.03 10 11:26 20.11.2022
971 Haze 26 1013 36 5000 2.57 340 10:49 20.11.2022
972 Haze 26 1014 38 5000 2.06 80 09:28 20.11.2022
973 Haze 26 1015 38 5000 1.54 100 08:35 20.11.2022
974 Haze 25 1017 44 5000 2.06 80 07:30 20.11.2022
975 Haze 25 1017 44 5000 2.06 80 07:30 20.11.2022
976 Haze 25 1017 44 5000 2.06 80 07:30 20.11.2022
977 Haze 25 1017 44 5000 2.06 80 07:30 20.11.2022
978 Haze 17 1017 67 3000 1.03 350 04:26 20.11.2022
979 Haze 15 1015 67 3000 0 0 01:21 20.11.2022
980 Haze 15 1014 72 3000 0 0 00:42 20.11.2022
981 Haze 15 1014 72 3000 0 0 00:23 20.11.2022
982 Haze 15 1014 77 3000 1.03 340 23:51 19.11.2022
983 Haze 14 1014 82 3000 1.03 340 23:24 19.11.2022
984 Haze 14 1014 82 3000 1.03 340 22:39 19.11.2022
985 Haze 13 1014 76 3000 0 0 21:32 19.11.2022
986 Haze 15 1014 77 3000 1.03 320 20:57 19.11.2022
987 Haze 15 1015 77 3000 1.03 330 20:33 19.11.2022
988 Haze 17 1015 67 3000 1.03 10 18:57 19.11.2022
989 Haze 17 1016 67 3000 1.03 340 17:41 19.11.2022
990 Haze 17 1016 67 3000 0 0 17:19 19.11.2022
991 Haze 19 1015 59 3000 0 0 15:41 19.11.2022
992 Haze 21 1014 49 3000 0 0 14:30 19.11.2022
993 Haze 27 1014 34 5000 2.06 350 11:58 19.11.2022
994 Haze 27 1014 32 5000 1.54 350 10:40 19.11.2022
995 Haze 27 1016 32 5000 1.03 30 08:39 19.11.2022
996 Haze 21 1019 60 5000 1.03 350 04:51 19.11.2022
997 Haze 14 1018 77 4000 1.03 310 02:51 19.11.2022
998 Haze 17 1016 63 3000 1.03 360 23:45 18.11.2022
999 Haze 18 1016 63 3000 1.03 360 22:35 18.11.2022
1000 Haze 18 1016 63 3000 1.03 10 21:37 18.11.2022
1001 Haze 19 1017 59 3000 1.03 350 20:59 18.11.2022
1002 Haze 19 1017 63 3000 1.03 350 20:26 18.11.2022
1003 Haze 19 1017 63 3000 1.54 10 19:46 18.11.2022
1004 Haze 19 1018 59 3000 1.03 360 18:28 18.11.2022
1005 Haze 18 1017 63 4000 0 0 16:44 18.11.2022
1006 Haze 25 1015 41 4000 1.03 40 13:40 18.11.2022
1007 Haze 28 1014 34 5000 1.03 50 11:28 18.11.2022
1008 Haze 27 1016 36 5000 2.06 50 08:29 18.11.2022
1009 Haze 26 1017 41 5000 2.57 70 07:40 18.11.2022
1010 Haze 22 1018 56 5000 1.54 350 05:18 18.11.2022
1011 Haze 16 1015 77 3000 1.03 350 00:42 18.11.2022
1012 Haze 21 1015 64 3000 1.54 20 21:26 17.11.2022
1013 Haze 21 1015 64 3000 1.03 20 20:45 17.11.2022
1014 Haze 22 1016 64 3000 1.03 20 19:50 17.11.2022
1015 Haze 22 1016 64 3000 1.03 30 18:35 17.11.2022
1016 Haze 24 1016 60 3000 1.03 30 17:32 17.11.2022
1017 Haze 23 1016 68 3000 1.03 20 16:48 17.11.2022
1018 Haze 28 1013 44 5000 0 0 12:53 17.11.2022
1019 Haze 30 1013 37 5000 0 0 11:21 17.11.2022
1020 Haze 29 1015 45 5000 1.03 360 08:20 17.11.2022
1021 Haze 17 1015 88 3000 0 0 02:54 17.11.2022
1022 Haze 16 1014 88 3000 0 0 00:20 17.11.2022
1023 Haze 17 1014 82 3000 0 0 22:28 16.11.2022
1024 Haze 18 1015 77 3000 0 0 20:35 16.11.2022
1025 Haze 18 1015 77 3000 0 0 19:31 16.11.2022
1026 Haze 20 1015 68 3000 0 0 18:35 16.11.2022
1027 Haze 20 1015 68 3000 1.54 330 16:37 16.11.2022
1028 Haze 25 1013 50 4000 1.03 50 13:30 16.11.2022
1029 Haze 30 1014 35 5000 1.03 250 09:34 16.11.2022
1030 Mist 16 1015 88 2500 1.03 310 01:57 16.11.2022
1031 Haze 15 1015 88 2500 0 0 01:25 16.11.2022
1032 Haze 16 1015 82 3000 0 0 21:55 15.11.2022
1033 Haze 18 1015 77 3000 1.03 330 20:32 15.11.2022
1034 Haze 18 1016 82 3000 1.54 320 19:18 15.11.2022
1035 Haze 19 1016 72 3000 1.03 320 17:39 15.11.2022
1036 Haze 19 1016 68 3000 0 0 16:53 15.11.2022
1037 Haze 19 1016 72 3000 0 0 16:18 15.11.2022
1038 Haze 21 1015 60 3000 0 0 14:42 15.11.2022
1039 Haze 28 1014 36 5000 1.03 40 12:59 15.11.2022
1040 Haze 30 1014 32 5000 1.03 20 11:29 15.11.2022
1041 Haze 30 1015 32 5000 1.54 110 10:35 15.11.2022
1042 Haze 25 1019 57 4000 0 0 05:19 15.11.2022
1043 Haze 15 1016 94 3000 1.03 30 00:28 15.11.2022
1044 Haze 16 1016 88 3000 0 0 22:52 14.11.2022
1045 Haze 16 1016 88 3000 1.03 340 21:18 14.11.2022
1046 Clear 17 1015 58 10000 1.56 25 20:30 14.11.2022
1047 Haze 18 1017 82 3000 1.54 330 18:28 14.11.2022
1048 Haze 21 1016 60 3000 0 0 14:59 14.11.2022
1049 Haze 28 1014 39 4000 1.03 50 11:49 14.11.2022
1050 Haze 29 1014 37 5000 0 0 11:28 14.11.2022
1051 Haze 29 1016 39 5000 1.54 110 08:48 14.11.2022
1052 Haze 28 1017 42 5000 1.03 100 07:52 14.11.2022
1053 Haze 20 1019 73 4000 1.03 360 04:31 14.11.2022
1054 Haze 16 1016 88 3000 0 0 23:23 13.11.2022
1055 Haze 17 1017 82 3000 0 0 21:42 13.11.2022
1056 Haze 17 1017 82 3000 1.03 330 20:50 13.11.2022
1057 Haze 18 1018 77 3000 1.03 330 18:55 13.11.2022
1058 Haze 18 1017 77 3000 0 0 17:50 13.11.2022
1059 Haze 20 1016 64 3000 0 0 15:55 13.11.2022
1060 Haze 23 1015 53 3000 1.03 70 14:39 13.11.2022
1061 Haze 27 1015 50 4000 1.03 100 12:56 13.11.2022
1062 Haze 28 1014 42 5000 1.03 40 11:55 13.11.2022
1063 Haze 29 1015 39 5000 1.54 50 10:41 13.11.2022
1064 Haze 25 1019 61 4000 1.03 70 05:53 13.11.2022
1065 Mist 19 1016 88 2500 1.03 350 23:55 12.11.2022
1066 Clear 18 1015 56 10000 2.41 12 21:41 12.11.2022
1067 Mist 19 1017 94 2500 0 0 20:57 12.11.2022
1068 Mist 22 1017 78 2500 0 0 19:28 12.11.2022
1069 Haze 21 1017 78 3000 0 0 16:58 12.11.2022
1070 Haze 22 1017 73 3000 0 0 15:55 12.11.2022
1071 Haze 23 1016 73 3000 0 0 14:45 12.11.2022
1072 Haze 29 1016 54 4000 1.03 70 09:43 12.11.2022
1073 Haze 29 1018 54 4000 1.54 110 07:48 12.11.2022
1074 Haze 20 1016 88 3000 1.03 180 00:40 12.11.2022
1075 Haze 19 1016 88 3000 0 0 21:21 11.11.2022
1076 Haze 20 1017 83 3000 1.03 160 20:44 11.11.2022
1077 Haze 20 1017 83 3000 0 0 19:27 11.11.2022
1078 Haze 21 1017 78 3000 0 0 18:33 11.11.2022
1079 Haze 22 1017 78 3000 0 0 17:40 11.11.2022
1080 Haze 22 1017 78 3000 0 0 17:40 11.11.2022
1081 Haze 22 1017 78 3000 0 0 17:40 11.11.2022
1082 Haze 22 1017 78 3000 0 0 17:40 11.11.2022
1083 Haze 24 1016 69 3500 0 0 14:51 11.11.2022
1084 Haze 26 1016 61 3500 1.03 50 13:56 11.11.2022
1085 Haze 28 1015 54 4000 1.03 50 12:45 11.11.2022
1086 Haze 30 1016 48 5000 1.03 100 09:32 11.11.2022
1087 Haze 30 1017 48 4000 1.54 60 08:26 11.11.2022
1088 Haze 19 1016 94 3000 1.03 330 00:40 11.11.2022
1089 Haze 19 1016 88 3000 0 0 22:53 10.11.2022
1090 Haze 19 1016 88 3000 0 0 21:50 10.11.2022
1091 Haze 19 1016 88 3000 0 0 21:27 10.11.2022
1092 Haze 19 1017 88 3000 0 0 20:43 10.11.2022
1093 Haze 19 1017 82 3000 0 0 20:19 10.11.2022
1094 Haze 21 1018 83 3000 0 0 18:59 10.11.2022
1095 Haze 21 1018 78 3000 0 0 17:44 10.11.2022
1096 Haze 22 1017 73 4000 0 0 16:25 10.11.2022
1097 Haze 25 1015 57 4000 0 0 13:37 10.11.2022
1098 Haze 30 1015 42 4000 1.03 90 09:53 10.11.2022
1099 Haze 30 1017 48 4000 3.09 120 08:20 10.11.2022
1100 Haze 18 1017 88 3000 0 0 01:23 10.11.2022
1101 Haze 18 1016 88 3000 0 0 23:21 09.11.2022
1102 Haze 19 1016 82 3000 0 0 21:57 09.11.2022
1103 Haze 21 1017 78 3000 1.03 340 20:46 09.11.2022
1104 Haze 20 1017 83 3000 1.03 330 20:28 09.11.2022
1105 Haze 21 1017 78 3000 1.03 330 19:26 09.11.2022
1106 Haze 21 1017 78 3000 0 0 17:50 09.11.2022
1107 Haze 23 1016 68 3000 0 0 14:59 09.11.2022
1108 Haze 23 1016 68 3000 0 0 14:41 09.11.2022
1109 Haze 24 1015 60 3000 0 0 14:22 09.11.2022
1110 Haze 28 1015 47 4000 1.03 30 12:57 09.11.2022
1111 Haze 30 1015 39 5000 2.64 72 09:45 09.11.2022
1112 Haze 29 1017 48 5000 1.54 20 07:47 09.11.2022
1113 Haze 28 1018 54 5000 1.03 50 06:55 09.11.2022
1114 Mist 19 1015 88 2500 0 0 22:46 08.11.2022
1115 Haze 18 1016 88 3000 0 0 21:43 08.11.2022
1116 Haze 19 1016 88 3000 0 0 21:21 08.11.2022
1117 Haze 19 1017 82 3000 0 0 20:30 08.11.2022
1118 Haze 19 1017 82 3000 0 0 19:28 08.11.2022
1119 Haze 21 1017 73 3000 0 0 17:37 08.11.2022
1120 Haze 22 1016 68 4000 0 0 15:38 08.11.2022
1121 Haze 23 1015 60 4000 0 0 14:51 08.11.2022
1122 Haze 25 1015 53 4000 1.03 80 13:34 08.11.2022
1123 Haze 30 1014 37 5000 1.54 90 11:54 08.11.2022
1124 Haze 29 1017 48 5000 0 0 07:45 08.11.2022
1125 Haze 27 1019 57 5000 1.03 50 06:29 08.11.2022
1126 Clouds 18 1014 59 10000 2.42 37 23:50 07.11.2022
1127 Haze 20 1016 83 3000 0 0 21:56 07.11.2022
1128 Haze 20 1016 83 3000 1.03 320 20:58 07.11.2022
1129 Haze 20 1017 77 3000 0 0 19:52 07.11.2022
1130 Haze 21 1016 78 3000 0 0 17:43 07.11.2022
1131 Haze 23 1016 68 3000 0 0 15:55 07.11.2022
1132 Haze 23 1015 64 3000 0 0 15:32 07.11.2022
1133 Haze 25 1014 57 3500 1.03 80 13:51 07.11.2022
1134 Haze 32 1014 51 4000 1.03 100 12:32 07.11.2022
1135 Haze 32 1014 35 4000 1.03 30 10:46 07.11.2022
1136 Haze 32 1015 45 4000 0 0 09:19 07.11.2022
1137 Haze 29 1018 58 4000 1.03 20 06:55 07.11.2022
1138 Haze 19 1017 88 3000 1.03 260 02:20 07.11.2022
1139 Haze 20 1015 94 3000 1.03 40 23:49 06.11.2022
1140 Haze 21 1016 88 3000 0 0 21:43 06.11.2022
1141 Haze 21 1016 88 3000 0 0 21:18 06.11.2022
1142 Haze 22 1016 83 3000 0 0 19:57 06.11.2022
1143 Haze 22 1017 83 3000 0 0 19:28 06.11.2022
1144 Haze 23 1017 78 3000 1.03 100 18:20 06.11.2022
1145 Haze 23 1017 78 3000 1.03 100 17:45 06.11.2022
1146 Haze 23 1017 78 3000 0 0 17:19 06.11.2022
1147 Haze 24 1016 73 3000 0 0 16:19 06.11.2022
1148 Haze 25 1016 69 4000 1.03 310 15:20 06.11.2022
1149 Haze 32 1014 48 5000 0 0 12:47 06.11.2022
1150 Haze 33 1014 40 5000 1.03 150 10:58 06.11.2022
1151 Haze 32 1015 43 5000 1.03 270 09:52 06.11.2022
1152 Haze 31 1017 48 5000 2.06 280 07:44 06.11.2022
1153 Mist 21 1016 88 2500 0 0 23:25 05.11.2022
1154 Mist 22 1017 88 2500 0 0 20:46 05.11.2022
1155 Haze 22 1018 83 3000 0 0 18:38 05.11.2022
1156 Haze 23 1018 78 3000 1.03 340 16:40 05.11.2022
1157 Haze 26 1016 69 3000 1.03 140 14:43 05.11.2022
1158 Haze 29 1015 58 4000 0 0 13:40 05.11.2022
1159 Haze 32 1015 40 5000 1.03 220 11:49 05.11.2022
1160 Haze 32 1017 45 5000 1.54 250 08:59 05.11.2022
1161 Haze 31 1018 55 5000 1.03 60 07:23 05.11.2022
1162 Haze 28 1019 61 5000 1.03 60 06:54 05.11.2022
1163 Clear 19 1015 69 10000 0.97 18 00:37 05.11.2022
1164 Mist 19 1016 94 2500 0 0 23:27 04.11.2022
1165 Mist 20 1016 83 2500 0 0 20:44 04.11.2022
1166 Haze 21 1017 83 3000 0 0 19:31 04.11.2022
1167 Haze 22 1017 78 3000 0 0 17:39 04.11.2022
1168 Haze 24 1014 69 4000 1.03 80 14:25 04.11.2022
1169 Haze 32 1014 40 5000 1.03 200 12:28 04.11.2022
1170 Haze 32 1014 37 5000 1.54 200 11:45 04.11.2022
1171 Haze 31 1015 40 5000 1.03 50 09:25 04.11.2022
1172 Haze 31 1016 42 5000 1.03 240 08:19 04.11.2022
1173 Haze 27 1018 61 5000 1.03 50 05:51 04.11.2022
1174 Haze 18 1015 88 3000 0 0 00:39 04.11.2022
1175 Haze 19 1015 88 3000 1.03 320 21:18 03.11.2022
1176 Haze 19 1015 88 3000 0 0 20:44 03.11.2022
1177 Haze 20 1015 77 3000 0 0 19:41 03.11.2022
1178 Haze 22 1015 73 3000 0 0 18:18 03.11.2022
1179 Haze 22 1015 73 3000 1.54 320 16:54 03.11.2022
1180 Haze 23 1014 64 4000 1.03 120 14:56 03.11.2022
1181 Haze 28 1013 47 4000 1.03 110 13:23 03.11.2022
1182 Haze 30 1013 42 5000 1.54 120 12:30 03.11.2022
1183 Haze 31 1013 40 5000 2.06 120 11:28 03.11.2022
1184 Haze 30 1015 45 5000 1.03 30 07:45 03.11.2022
1185 Haze 20 1014 94 3000 1.03 340 21:44 02.11.2022
1186 Haze 19 1014 88 3000 0 0 20:51 02.11.2022
1187 Haze 19 1014 82 3000 0 0 20:23 02.11.2022
1188 Haze 22 1015 78 3000 1.03 320 17:58 02.11.2022
1189 Haze 23 1014 73 3000 1.54 330 16:25 02.11.2022
1190 Haze 23 1014 68 4000 0 0 15:25 02.11.2022
1191 Haze 23 1014 68 4000 0 0 15:25 02.11.2022
1192 Haze 28 1013 54 5000 1.54 110 12:48 02.11.2022
1193 Haze 29 1012 51 5000 1.54 80 11:58 02.11.2022
1194 Haze 29 1014 45 5000 1.54 50 09:27 02.11.2022
1195 Haze 28 1017 54 5000 1.54 50 06:48 02.11.2022
1196 Haze 20 1015 83 10000 2.48 9 01:23 02.11.2022
1197 Haze 21 1015 83 2500 1.03 340 22:20 01.11.2022
1198 Haze 21 1016 83 2500 1.54 320 21:42 01.11.2022
1199 Haze 20 1016 88 2500 1.54 320 20:27 01.11.2022
1200 Haze 21 1016 83 2500 1.03 320 19:57 01.11.2022
1201 Haze 21 1016 83 2500 1.03 320 19:39 01.11.2022
1202 Haze 21 1017 83 3000 0 0 17:36 01.11.2022
1203 Haze 22 1016 78 3000 0 0 16:23 01.11.2022
1204 Haze 25 1015 65 4000 0 0 14:33 01.11.2022
1205 Haze 29 1014 54 5000 0 0 12:31 01.11.2022
1206 Haze 29 1014 54 5000 0 0 11:38 01.11.2022
1207 Haze 29 1014 51 5000 1.03 40 11:20 01.11.2022
1208 Haze 29 1016 51 5000 3.09 100 08:46 01.11.2022
1209 Haze 28 1017 57 5000 1.54 130 07:46 01.11.2022
1210 Haze 28 1017 57 5000 2.06 60 07:26 01.11.2022
1211 Haze 28 1018 54 5000 2.06 100 06:44 01.11.2022
1212 Haze 21 1018 88 3000 1.54 350 03:57 01.11.2022
1213 Haze 20 1014 77 3000 1.54 350 22:22 31.10.2022
1214 Haze 20 1015 77 3000 0 0 21:26 31.10.2022
1215 Haze 20 1015 83 3000 1.54 320 19:56 31.10.2022
1216 Haze 19 1016 77 4000 1.54 330 18:28 31.10.2022
1217 Haze 20 1016 73 4000 0 0 16:43 31.10.2022
1218 Haze 24 1014 60 4000 1.54 110 13:49 31.10.2022
1219 Haze 28 1013 51 5000 0 0 11:57 31.10.2022
1220 Haze 28 1014 47 5000 2.57 100 09:28 31.10.2022
1221 Haze 26 1017 57 4000 1.03 330 05:39 31.10.2022
1222 Haze 17 1016 88 2500 1.03 330 02:30 31.10.2022
1223 Haze 19 1014 88 3000 0 0 23:19 30.10.2022
1224 Haze 19 1014 88 3000 1.03 330 21:44 30.10.2022
1225 Haze 18 1015 82 3000 0 0 20:37 30.10.2022
1226 Haze 21 1015 78 3000 1.03 340 18:40 30.10.2022
1227 Haze 23 1015 68 3000 0 0 16:18 30.10.2022
1228 Haze 24 1014 64 3000 0 0 14:22 30.10.2022
1229 Haze 26 1013 61 4000 1.03 100 13:21 30.10.2022
1230 Haze 29 1013 51 5000 1.03 100 11:47 30.10.2022
1231 Haze 30 1014 39 5000 2.57 120 09:40 30.10.2022
1232 Haze 30 1014 39 5000 2.06 70 08:39 30.10.2022
1233 Haze 23 1017 68 5000 1.54 350 04:30 30.10.2022
1234 Smoke 18 1014 94 3000 1.03 310 00:28 30.10.2022
1235 Smoke 19 1014 82 3000 1.03 140 23:45 29.10.2022
1236 Smoke 21 1015 83 3000 1.54 340 21:28 29.10.2022
1237 Haze 21 1015 78 3000 0 0 18:34 29.10.2022
1238 Haze 22 1015 73 3000 0 0 17:21 29.10.2022
1239 Haze 24 1014 64 4000 0 0 15:38 29.10.2022
1240 Haze 26 1014 57 4000 0 0 14:48 29.10.2022
1241 Haze 31 1013 42 5000 0 0 12:35 29.10.2022
1242 Haze 31 1013 35 5000 1.54 50 11:53 29.10.2022
1243 Haze 28 1017 54 5000 1.54 320 07:38 29.10.2022
1244 Haze 26 1017 65 5000 0 0 06:45 29.10.2022
1245 Haze 23 1017 78 5000 1.03 60 05:53 29.10.2022
1246 Haze 20 1013 83 3000 1.03 320 23:43 28.10.2022
1247 Haze 21 1014 78 3000 1.03 320 20:56 28.10.2022
1248 Haze 21 1015 78 3000 0 0 19:34 28.10.2022
1249 Haze 22 1015 73 3000 0 0 18:32 28.10.2022
1250 Haze 23 1014 64 3000 1.03 110 16:20 28.10.2022
1251 Haze 25 1013 57 4000 1.03 100 14:45 28.10.2022
1252 Haze 29 1013 45 5000 1.54 100 13:19 28.10.2022
1253 Haze 31 1013 35 5000 1.03 30 11:53 28.10.2022
1254 Haze 31 1013 35 5000 1.03 30 11:53 28.10.2022
1255 Haze 31 1013 33 5000 2.06 120 11:25 28.10.2022
1256 Haze 31 1014 42 5000 2.06 140 09:49 28.10.2022
1257 Haze 29 1016 48 5000 1.54 200 08:34 28.10.2022
1258 Haze 23 1017 88 5000 1.03 250 05:40 28.10.2022
1259 Haze 19 1014 88 3000 0 0 23:50 27.10.2022
1260 Haze 19 1014 82 3000 0 0 22:58 27.10.2022
1261 Haze 20 1015 83 3000 0 0 21:56 27.10.2022
1262 Haze 22 1015 78 3000 0 0 20:32 27.10.2022
1263 Haze 22 1016 73 4000 0 0 18:23 27.10.2022
1264 Haze 25 1014 61 4000 1.03 120 14:52 27.10.2022
1265 Haze 31 1014 42 5000 2.06 240 11:33 27.10.2022
1266 Haze 27 1017 61 5000 1.54 320 07:31 27.10.2022
1267 Haze 18 1014 88 2500 0 0 00:22 27.10.2022
1268 Haze 19 1014 88 2500 0 0 23:49 26.10.2022
1269 Haze 19 1015 82 2500 0 0 22:38 26.10.2022
1270 Haze 21 1015 78 2500 0 0 20:46 26.10.2022
1271 Haze 23 1016 68 3000 0 0 17:36 26.10.2022
1272 Haze 26 1014 57 3000 1.03 110 14:53 26.10.2022
1273 Haze 30 1014 42 5000 1.54 120 12:52 26.10.2022
1274 Haze 31 1014 42 5000 1.03 240 11:35 26.10.2022
1275 Haze 30 1015 48 5000 1.54 220 09:18 26.10.2022
1276 Haze 29 1016 51 5000 2.57 220 08:44 26.10.2022
1277 Haze 18 1014 94 3000 1.03 10 00:50 26.10.2022
1278 Haze 18 1014 94 3000 1.03 20 00:29 26.10.2022
1279 Haze 18 1014 94 3000 0 0 21:58 25.10.2022
1280 Haze 19 1014 88 3000 1.03 300 21:25 25.10.2022
1281 Haze 19 1014 82 3000 1.03 340 20:26 25.10.2022
1282 Haze 21 1015 73 3000 0 0 18:40 25.10.2022
1283 Haze 24 1012 60 4000 0 0 15:28 25.10.2022
1284 Haze 31 1011 33 5000 1.03 340 11:40 25.10.2022
1285 Haze 31 1011 33 5000 1.03 20 10:46 25.10.2022
1286 Haze 31 1012 33 5000 2.57 350 10:28 25.10.2022
1287 Haze 30 1013 37 5000 1.54 350 08:19 25.10.2022
1288 Haze 29 1013 42 5000 1.54 360 07:59 25.10.2022
1289 Haze 29 1013 42 5000 1.54 360 07:41 25.10.2022
1290 Haze 19 1013 82 3000 1.03 320 04:27 25.10.2022
1291 Haze 18 1012 77 3000 1.54 320 03:21 25.10.2022
1292 Haze 18 1010 88 2500 1.03 320 00:31 25.10.2022
1293 Haze 20 1011 77 2500 1.03 320 22:25 24.10.2022
1294 Haze 20 1012 77 2500 1.03 330 21:34 24.10.2022
1295 Haze 20 1012 77 2500 1.03 330 21:34 24.10.2022
1296 Haze 21 1012 73 2500 1.03 310 20:44 24.10.2022
1297 Clear 18 1011 66 10000 2.27 338 19:36 24.10.2022
1298 Haze 23 1012 64 3000 2.06 250 17:53 24.10.2022
1299 Haze 24 1011 60 3000 0 0 16:54 24.10.2022
1300 Haze 27 1010 50 4000 1.03 320 14:50 24.10.2022
1301 Haze 30 1009 39 5000 1.54 360 13:53 24.10.2022
1302 Haze 31 1009 40 5000 1.03 340 12:18 24.10.2022
1303 Haze 29 1012 39 5000 4.12 330 08:51 24.10.2022
1304 Smoke 20 1011 73 3000 2.06 330 00:55 24.10.2022
1305 Smoke 22 1013 68 3000 1.03 340 21:24 23.10.2022
1306 Smoke 21 1014 73 3000 1.03 320 19:53 23.10.2022
1307 Haze 24 1014 64 3000 0 0 18:25 23.10.2022
1308 Haze 24 1014 60 3000 0 0 17:27 23.10.2022
1309 Haze 26 1013 61 3000 1.03 10 15:22 23.10.2022
1310 Clear 30 1013 45 5000 2.57 0 13:24 23.10.2022
1311 Clear 31 1013 42 5000 2.57 40 11:21 23.10.2022
1312 Clear 30 1016 51 6000 1.54 70 08:59 23.10.2022
1313 Haze 19 1015 82 3000 1.03 340 00:33 23.10.2022
1314 Haze 20 1016 83 3000 0 0 22:32 22.10.2022
1315 Haze 20 1017 77 3000 0 0 21:42 22.10.2022
1316 Haze 22 1017 68 3000 1.03 320 20:55 22.10.2022
1317 Haze 24 1017 57 3000 1.03 20 19:45 22.10.2022
1318 Haze 24 1017 57 3000 1.03 360 19:24 22.10.2022
1319 Haze 25 1017 57 3000 1.03 40 17:37 22.10.2022
1320 Haze 25 1016 61 4000 1.03 10 15:57 22.10.2022
1321 Haze 27 1015 47 4000 1.03 40 14:42 22.10.2022
1322 Haze 29 1015 39 5000 1.03 50 13:45 22.10.2022
1323 Haze 31 1017 42 5000 1.54 80 09:59 22.10.2022
1324 Haze 31 1017 42 5000 1.54 80 09:36 22.10.2022
1325 Haze 29 1019 58 5000 2.06 70 07:45 22.10.2022
1326 Mist 19 1018 88 2500 1.54 330 02:59 22.10.2022
1327 Haze 20 1017 88 3000 1.54 330 23:49 21.10.2022
1328 Clear 18 1016 70 10000 2.59 12 21:35 21.10.2022
1329 Haze 23 1017 88 3000 1.54 350 20:57 21.10.2022
1330 Haze 21 1018 88 3000 0 0 19:26 21.10.2022
1331 Haze 23 1017 78 3000 0 0 16:51 21.10.2022
1332 Haze 28 1015 61 4000 1.54 90 13:57 21.10.2022
1333 Haze 29 1015 54 4000 1.54 100 12:57 21.10.2022
1334 Haze 30 1015 54 5000 1.54 70 10:59 21.10.2022
1335 Haze 30 1016 54 5000 1.54 100 09:49 21.10.2022
1336 Haze 29 1018 61 5000 1.54 110 08:38 21.10.2022
1337 Haze 28 1019 65 5000 2.57 110 06:46 21.10.2022
1338 Haze 23 1015 88 3000 1.03 40 00:28 21.10.2022
1339 Haze 23 1015 94 3000 0 0 22:23 20.10.2022
1340 Haze 23 1016 94 3000 0 0 20:35 20.10.2022
1341 Haze 24 1016 88 3000 0 0 19:33 20.10.2022
1342 Haze 26 1016 78 3000 1.03 40 17:52 20.10.2022
1343 Haze 27 1015 74 3000 1.03 40 16:56 20.10.2022
1344 Haze 30 1012 66 4000 1.54 90 12:36 20.10.2022
1345 Haze 31 1013 62 4000 1.54 130 12:18 20.10.2022
1346 Haze 31 1013 66 4000 2.06 110 10:59 20.10.2022
1347 Haze 31 1014 66 4000 2.57 120 10:27 20.10.2022
1348 Haze 29 1016 70 5000 2.06 80 07:45 20.10.2022
1349 Haze 24 1016 88 3000 1.03 40 04:58 20.10.2022
1350 Haze 23 1013 78 3000 0 0 00:58 20.10.2022
1351 Haze 23 1013 83 3000 0 0 22:45 19.10.2022
1352 Haze 24 1013 88 3000 0 0 21:55 19.10.2022
1353 Haze 25 1013 88 3000 0 0 20:52 19.10.2022
1354 Haze 25 1014 88 4000 0 0 18:36 19.10.2022
1355 Haze 25 1013 83 4000 0 0 17:37 19.10.2022
1356 Haze 27 1012 74 4000 1.03 90 15:23 19.10.2022
1357 Haze 31 1011 62 4000 1.03 10 12:49 19.10.2022
1358 Haze 30 1013 62 5000 1.54 60 09:33 19.10.2022
1359 Haze 30 1015 62 5000 1.54 80 08:28 19.10.2022
1360 Haze 24 1015 78 3000 1.03 20 04:56 19.10.2022
1361 Haze 24 1012 88 3000 1.03 20 00:59 19.10.2022
1362 Haze 25 1013 94 3000 1.03 20 22:53 18.10.2022
1363 Haze 25 1013 94 3000 1.03 50 21:37 18.10.2022
1364 Haze 25 1014 94 3000 1.03 50 20:44 18.10.2022
1365 Haze 26 1014 94 3000 0 0 19:28 18.10.2022
1366 Haze 26 1013 94 3000 0 0 17:31 18.10.2022
1367 Haze 27 1012 89 3000 1.03 310 16:20 18.10.2022
1368 Haze 29 1012 74 3000 1.54 320 14:19 18.10.2022
1369 Haze 30 1011 70 4000 2.06 330 12:30 18.10.2022
1370 Haze 30 1012 74 4000 1.54 350 11:20 18.10.2022
1371 Haze 29 1013 74 5000 1.54 70 09:27 18.10.2022
1372 Haze 29 1015 74 5000 1.54 100 07:43 18.10.2022
1373 Mist 23 1014 94 2500 1.03 10 01:57 18.10.2022
1374 Mist 23 1014 100 2000 1.03 20 21:50 17.10.2022
1375 Mist 23 1014 100 2000 2.06 310 20:50 17.10.2022
1376 Mist 23 1015 100 2000 1.03 20 20:30 17.10.2022
1377 Mist 23 1015 100 2000 1.03 20 20:30 17.10.2022
1378 Clouds 24 1015 94 2000 2.57 340 19:50 17.10.2022
1379 Rain 23 1015 100 2000 1.54 60 18:42 17.10.2022
1380 Thunderstorm 23 1014 94 2000 1.54 240 16:39 17.10.2022
1381 Thunderstorm 26 1013 94 3000 5.14 140 15:29 17.10.2022
1382 Haze 27 1012 94 4000 0 0 14:34 17.10.2022
1383 Haze 33 1012 66 5000 1.03 100 10:29 17.10.2022
1384 Haze 25 1016 94 3000 1.03 320 03:58 17.10.2022
1385 Haze 25 1013 94 3000 0 0 23:25 16.10.2022
1386 Haze 26 1014 89 3500 1.03 50 21:47 16.10.2022
1387 Haze 26 1015 89 3500 0 0 20:41 16.10.2022
1388 Haze 27 1015 89 3500 1.03 50 19:46 16.10.2022
1389 Haze 28 1015 89 3500 1.03 20 17:51 16.10.2022
1390 Haze 29 1014 79 3500 1.03 40 16:33 16.10.2022
1391 Haze 29 1014 79 4000 1.03 50 15:56 16.10.2022
1392 Haze 30 1012 74 5000 1.03 50 14:26 16.10.2022
1393 Haze 32 1011 66 5000 1.03 100 12:21 16.10.2022
1394 Haze 31 1013 70 5000 2.06 150 10:27 16.10.2022
1395 Haze 29 1015 79 5000 2.06 100 08:36 16.10.2022
1396 Haze 25 1011 65 3000 1.03 20 00:48 16.10.2022
1397 Haze 25 1012 65 3000 1.03 30 22:42 15.10.2022
1398 Haze 25 1012 73 3000 1.03 40 21:25 15.10.2022
1399 Haze 26 1012 73 3000 0 0 20:25 15.10.2022
1400 Haze 27 1012 78 3000 0 0 18:43 15.10.2022
1401 Haze 28 1011 74 3000 1.03 50 15:46 15.10.2022
1402 Clouds 26 1008 77 10000 2.46 30 14:24 15.10.2022
1403 Haze 31 1010 62 5000 2.06 50 11:54 15.10.2022
1404 Haze 31 1011 62 5000 1.54 40 10:31 15.10.2022
1405 Haze 30 1013 62 5000 2.06 50 08:31 15.10.2022
1406 Haze 22 1012 78 3000 0 0 02:35 15.10.2022
1407 Haze 23 1011 73 3000 1.03 30 23:31 14.10.2022
1408 Haze 23 1011 73 3000 1.03 30 23:31 14.10.2022
1409 Haze 24 1011 69 3000 1.03 30 22:23 14.10.2022
1410 Haze 25 1012 69 3000 1.03 30 21:28 14.10.2022
1411 Haze 26 1012 69 3000 1.03 30 19:44 14.10.2022
1412 Haze 27 1012 89 3500 0 0 16:26 14.10.2022
1413 Haze 30 1010 74 4000 2.06 50 13:27 14.10.2022
1414 Haze 31 1010 70 4000 1.03 50 12:18 14.10.2022
1415 Haze 30 1012 74 5000 1.54 60 09:31 14.10.2022
1416 Haze 28 1015 78 5000 1.54 50 06:55 14.10.2022
1417 Haze 27 1015 83 5000 2.06 40 06:18 14.10.2022
1418 Haze 26 1015 89 5000 1.54 40 05:42 14.10.2022
1419 Haze 24 1013 94 3000 1.03 40 03:44 14.10.2022
1420 Haze 25 1012 94 3000 0 0 23:54 13.10.2022
1421 Haze 25 1012 94 3000 1.03 330 22:22 13.10.2022
1422 Haze 25 1012 94 3000 1.03 10 21:25 13.10.2022
1423 Haze 25 1013 94 3000 0 0 19:43 13.10.2022
1424 Haze 25 1013 94 3000 1.03 10 19:25 13.10.2022
1425 Haze 25 1014 94 3000 0 0 18:42 13.10.2022
1426 Haze 25 1013 94 3000 0 0 16:50 13.10.2022
1427 Haze 25 1012 94 3000 0 0 15:45 13.10.2022
1428 Haze 25 1011 94 4000 1.03 120 14:18 13.10.2022
1429 Thunderstorm 24 1010 94 2500 1.03 200 12:49 13.10.2022
1430 Haze 30 1010 74 4000 1.03 40 11:35 13.10.2022
1431 Haze 31 1012 70 5000 1.54 50 09:40 13.10.2022
1432 Haze 29 1014 79 5000 2.88 49 07:40 13.10.2022
1433 Haze 28 1015 89 5000 1.03 60 06:40 13.10.2022
1434 Haze 25 1012 94 3000 1.03 350 01:48 13.10.2022
1435 Haze 25 1011 94 3000 0 0 00:53 13.10.2022
1436 Haze 25 1012 94 3000 0 0 22:46 12.10.2022
1437 Haze 26 1012 94 3000 1.03 110 22:28 12.10.2022
1438 Haze 26 1013 94 3000 0 0 21:21 12.10.2022
1439 Haze 26 1013 94 3000 0 0 20:52 12.10.2022
1440 Haze 26 1013 94 3000 0 0 19:29 12.10.2022
1441 Haze 26 1013 94 3000 0 0 18:21 12.10.2022
1442 Haze 26 1013 89 3000 1.03 350 17:47 12.10.2022
1443 Haze 27 1011 89 4000 0 0 15:35 12.10.2022
1444 Haze 29 1010 74 4000 1.54 160 13:55 12.10.2022
1445 Haze 30 1010 70 4000 1.03 180 12:34 12.10.2022
1446 Haze 27 1013 94 4000 0 0 09:40 12.10.2022
1447 Haze 26 1015 94 4000 2.57 130 07:42 12.10.2022
1448 Mist 25 1015 94 3000 2.06 70 06:55 12.10.2022
1449 Mist 25 1015 94 3000 2.06 70 06:37 12.10.2022
1450 Thunderstorm 23 1011 94 2000 1.03 110 00:58 12.10.2022
1451 Thunderstorm 23 1012 94 2000 3.09 270 21:59 11.10.2022
1452 Mist 25 1012 100 3000 1.03 50 20:38 11.10.2022
1453 Clouds 26 1013 94 2500 1.03 340 18:28 11.10.2022
1454 Thunderstorm 27 1011 94 3000 1.03 180 16:37 11.10.2022
1455 Haze 28 1010 83 4000 1.03 70 14:34 11.10.2022
1456 Haze 30 1008 79 4000 2.57 160 12:44 11.10.2022
1457 Haze 28 1011 94 4000 2.57 170 10:28 11.10.2022
1458 Haze 26 1012 100 3500 2.57 200 09:26 11.10.2022
1459 Rain 24 1014 100 1000 3.09 180 05:39 11.10.2022
1460 Mist 25 1012 94 2500 1.54 140 02:22 11.10.2022
1461 Haze 24 1012 100 3000 1.03 110 00:29 11.10.2022
1462 Haze 25 1012 94 3000 0 0 21:35 10.10.2022
1463 Rain 25 1013 94 3000 0 0 19:49 10.10.2022
1464 Haze 25 1013 100 3000 0 0 18:30 10.10.2022
1465 Rain 25 1012 100 2500 0 0 16:51 10.10.2022
1466 Rain 25 1011 94 2500 1.54 240 15:24 10.10.2022
1467 Clouds 26 1011 89 1800 2.06 150 12:54 10.10.2022
1468 Haze 31 1010 70 4000 2.57 160 11:56 10.10.2022
1469 Haze 30 1013 74 5000 1.03 20 08:45 10.10.2022
1470 Haze 26 1015 94 5000 1.54 140 05:42 10.10.2022
1471 Haze 25 1013 94 4000 1.03 130 03:48 10.10.2022
1472 Mist 24 1012 94 2500 1.03 320 00:31 10.10.2022
1473 Thunderstorm 24 1013 94 2000 1.54 320 22:37 09.10.2022
1474 Rain 24 1013 94 2000 1.03 110 22:18 09.10.2022
1475 Thunderstorm 24 1013 94 2000 3.09 150 21:21 09.10.2022
1476 Haze 27 1013 89 3000 0 0 20:20 09.10.2022
1477 Haze 27 1013 94 3000 1.03 60 19:37 09.10.2022
1478 Haze 28 1013 89 4000 1.03 100 18:43 09.10.2022
1479 Haze 28 1012 83 4000 1.03 70 16:56 09.10.2022
1480 Haze 28 1012 83 4000 1.03 70 16:33 09.10.2022
1481 Haze 29 1011 79 4000 1.03 110 15:38 09.10.2022
1482 Haze 31 1009 70 5000 1.03 100 14:31 09.10.2022
1483 Haze 32 1009 70 5000 1.54 100 13:23 09.10.2022
1484 Haze 31 1009 74 5000 2.06 120 12:22 09.10.2022
1485 Haze 32 1010 66 5000 1.54 130 10:48 09.10.2022
1486 Haze 30 1013 79 5000 1.03 120 08:30 09.10.2022
1487 Haze 30 1013 79 5000 1.03 120 08:30 09.10.2022
1488 Haze 30 1013 79 5000 1.03 120 08:30 09.10.2022
1489 Haze 26 1012 94 4000 1.03 110 03:38 09.10.2022
1490 Haze 24 1011 94 3000 1.03 90 02:50 09.10.2022
1491 Haze 25 1010 94 3000 0 0 00:34 09.10.2022
1492 Haze 26 1010 94 3000 1.54 110 22:56 08.10.2022
1493 Haze 25 1010 94 3000 1.03 100 21:50 08.10.2022
1494 Haze 26 1011 94 3000 1.03 120 20:27 08.10.2022
1495 Haze 27 1012 89 3000 1.03 300 18:53 08.10.2022
1496 Haze 28 1010 83 3000 1.03 130 16:38 08.10.2022
1497 Haze 29 1008 79 3000 1.03 130 14:54 08.10.2022
1498 Haze 31 1008 70 5000 2.57 160 13:25 08.10.2022
1499 Haze 31 1010 70 5000 1.54 150 10:39 08.10.2022
1500 Haze 31 1010 70 5000 1.54 150 10:21 08.10.2022
1501 Haze 30 1011 74 5000 2.57 160 08:48 08.10.2022
1502 Haze 25 1011 94 3000 1.54 120 03:53 08.10.2022
1503 Haze 25 1010 94 3000 1.03 100 00:37 08.10.2022
1504 Haze 25 1010 94 3000 1.03 100 23:21 07.10.2022
1505 Haze 26 1010 94 3000 1.03 100 22:49 07.10.2022
1506 Haze 26 1010 94 3000 0 0 21:29 07.10.2022
1507 Haze 26 1011 89 3000 1.03 150 19:34 07.10.2022
1508 Haze 26 1010 94 4000 0 0 17:47 07.10.2022
1509 Haze 26 1009 94 4000 1.03 120 16:41 07.10.2022
1510 Haze 27 1007 89 4000 1.54 120 14:59 07.10.2022
1511 Clouds 29 1006 74 3000 5.14 150 13:23 07.10.2022
1512 Haze 30 1008 74 5000 2.57 130 10:29 07.10.2022
1513 Haze 29 1009 79 5000 3.09 140 09:24 07.10.2022
1514 Haze 29 1010 79 5000 4.12 140 08:18 07.10.2022
1515 Mist 25 1008 94 2500 2.57 120 01:54 07.10.2022
1516 Haze 25 1008 100 3000 1.03 90 22:52 06.10.2022
1517 Haze 25 1008 100 3000 1.54 100 21:48 06.10.2022
1518 Haze 25 1008 100 3000 1.54 100 21:25 06.10.2022
1519 Haze 25 1009 100 3000 1.03 90 20:34 06.10.2022
1520 Haze 26 1009 94 3000 1.03 100 18:46 06.10.2022
1521 Haze 26 1009 94 3000 1.54 90 18:19 06.10.2022
1522 Haze 26 1007 94 3000 1.54 110 15:33 06.10.2022
1523 Rain 26 1005 83 2000 2.06 70 12:29 06.10.2022
1524 Haze 30 1009 79 5000 1.54 100 08:20 06.10.2022
1525 Mist 25 1008 94 2500 1.03 50 03:39 06.10.2022
1526 Mist 25 1006 94 2500 1.54 130 00:39 06.10.2022
1527 Mist 26 1007 94 2500 1.03 60 21:52 05.10.2022
1528 Mist 25 1008 100 2500 1.03 70 19:31 05.10.2022
1529 Mist 25 1008 94 2500 1.03 20 17:36 05.10.2022
1530 Thunderstorm 26 1007 94 2500 2.06 90 16:20 05.10.2022
1531 Thunderstorm 27 1006 94 2500 2.57 130 14:48 05.10.2022
1532 Mist 27 1006 94 2500 0 0 14:19 05.10.2022
1533 Mist 30 1005 84 3000 1.54 340 12:26 05.10.2022
1534 Haze 31 1007 74 2500 1.03 360 09:51 05.10.2022
1535 Haze 28 1009 83 2500 1.03 30 07:51 05.10.2022
1536 Haze 27 1010 89 3000 0 0 06:22 05.10.2022
1537 Haze 26 1009 94 3000 1.03 20 04:35 05.10.2022
1538 Haze 26 1007 89 3000 0 0 01:22 05.10.2022
1539 Haze 26 1007 89 3000 1.03 50 00:27 05.10.2022
1540 Haze 27 1007 83 3000 1.03 40 22:39 04.10.2022
1541 Haze 27 1009 83 3000 1.03 40 20:40 04.10.2022
1542 Haze 27 1009 78 3000 1.03 40 19:42 04.10.2022
1543 Haze 27 1009 78 3000 1.03 40 18:39 04.10.2022
1544 Haze 28 1009 74 3000 1.03 350 17:50 04.10.2022
1545 Haze 28 1008 74 3000 1.03 350 16:41 04.10.2022
1546 Haze 31 1006 58 4000 1.54 350 13:19 04.10.2022
1547 Haze 29 1008 70 4000 2.57 330 09:52 04.10.2022
1548 Haze 29 1010 70 5000 1.54 350 07:34 04.10.2022
1549 Haze 26 1008 73 3000 2.06 330 02:32 04.10.2022
1550 Haze 27 1007 74 3000 2.57 340 23:41 03.10.2022
1551 Haze 27 1008 74 3000 2.57 330 21:55 03.10.2022
1552 Haze 27 1008 74 3000 2.57 340 21:23 03.10.2022
1553 Haze 28 1008 69 3000 1.54 330 20:28 03.10.2022
1554 Haze 28 1009 69 4000 1.03 340 18:35 03.10.2022
1555 Haze 29 1008 65 4000 2.57 330 17:26 03.10.2022
1556 Haze 30 1007 58 4000 2.57 330 15:47 03.10.2022
1557 Clouds 32 1007 51 4000 1.54 360 14:20 03.10.2022
1558 Clouds 34 1006 43 5000 2.57 340 12:30 03.10.2022
1559 Clouds 34 1007 52 6000 2.06 10 10:40 03.10.2022
1560 Clouds 34 1007 49 6000 2.57 350 09:40 03.10.2022
1561 Clouds 31 1009 66 6000 3.09 330 07:27 03.10.2022
1562 Haze 26 1008 78 3000 2.57 320 03:34 03.10.2022
1563 Haze 27 1007 78 3000 4.63 330 22:39 02.10.2022
1564 Haze 28 1008 74 3000 2.57 330 20:52 02.10.2022
1565 Haze 28 1008 74 3000 2.57 320 19:28 02.10.2022
1566 Haze 29 1008 70 3000 1.54 330 17:54 02.10.2022
1567 Haze 29 1007 70 3000 2.57 320 16:48 02.10.2022
1568 Haze 31 1007 62 4000 2.06 330 16:26 02.10.2022
1569 Haze 32 1006 55 4000 1.03 350 14:53 02.10.2022
1570 Haze 34 1005 46 5000 4.12 320 13:45 02.10.2022
1571 Haze 34 1005 52 5000 4.12 330 12:30 02.10.2022
1572 Haze 34 1005 49 5000 5.14 330 11:41 02.10.2022
1573 Haze 35 1005 49 5000 2.06 20 11:21 02.10.2022
1574 Haze 33 1008 55 5000 3.6 350 09:29 02.10.2022
1575 Haze 32 1009 58 5000 3.6 340 07:41 02.10.2022
1576 Haze 25 1008 78 3000 2.57 320 03:52 02.10.2022
1577 Haze 25 1006 78 3000 3.09 320 00:51 02.10.2022
1578 Haze 25 1006 78 3000 3.09 320 00:31 02.10.2022
1579 Haze 26 1007 78 3000 3.6 320 22:53 01.10.2022
1580 Haze 26 1007 83 3000 0 0 20:54 01.10.2022
1581 Haze 27 1008 78 3000 1.54 320 18:51 01.10.2022
1582 Haze 28 1007 74 4000 0 0 16:42 01.10.2022
1583 Haze 31 1006 62 5000 0 0 14:43 01.10.2022
1584 Haze 33 1005 55 5000 1.03 40 13:35 01.10.2022
1585 Haze 33 1005 52 5000 1.54 30 12:33 01.10.2022
1586 Haze 33 1006 58 5000 1.54 330 11:21 01.10.2022
1587 Haze 34 1006 55 5000 2.06 340 10:38 01.10.2022
1588 Haze 34 1006 55 5000 2.06 340 10:20 01.10.2022
1589 Haze 34 1008 55 5000 1.54 60 08:59 01.10.2022
1590 Haze 32 1009 62 5000 1.54 330 07:30 01.10.2022
1591 Haze 25 1008 94 3000 1.54 320 03:36 01.10.2022
1592 Haze 26 1007 89 3000 1.54 310 01:22 01.10.2022
1593 Haze 26 1007 89 3000 1.03 330 22:56 30.09.2022
1594 Haze 26 1008 94 3000 1.03 320 21:44 30.09.2022
1595 Haze 27 1008 89 3000 1.54 320 20:45 30.09.2022
1596 Haze 27 1008 89 3000 2.06 320 20:19 30.09.2022
1597 Haze 28 1008 78 3000 1.03 320 17:41 30.09.2022
1598 Haze 29 1007 74 3000 0 0 16:29 30.09.2022
1599 Haze 31 1006 66 5000 1.03 30 14:21 30.09.2022
1600 Haze 33 1006 62 5000 1.54 50 12:24 30.09.2022
1601 Haze 33 1006 62 5000 1.03 40 11:48 30.09.2022
1602 Haze 33 1009 62 5000 1.54 100 08:38 30.09.2022
1603 Haze 30 1010 74 5000 2.06 360 06:29 30.09.2022
1604 Haze 24 1008 94 3000 2.06 320 02:45 30.09.2022
1605 Haze 26 1007 89 3000 0 0 23:47 29.09.2022
1606 Haze 26 1008 89 3000 0 0 21:29 29.09.2022
1607 Haze 26 1008 94 3000 0 0 20:59 29.09.2022
1608 Haze 27 1009 89 4000 0 0 18:45 29.09.2022
1609 Haze 28 1008 78 4000 0 0 17:32 29.09.2022
1610 Haze 28 1007 78 4000 0 0 16:28 29.09.2022
1611 Haze 29 1007 70 4000 0 0 15:36 29.09.2022
1612 Haze 31 1006 66 5000 1.03 60 14:54 29.09.2022
1613 Haze 33 1006 58 5000 1.03 20 11:48 29.09.2022
1614 Haze 30 1009 74 5000 2.06 60 07:26 29.09.2022
1615 Mist 25 1008 100 2500 1.03 360 02:52 29.09.2022
1616 Haze 25 1007 94 3000 2.06 320 23:56 28.09.2022
1617 Haze 25 1007 94 3000 1.54 320 23:19 28.09.2022
1618 Clouds 23 1006 86 10000 2.44 8 21:30 28.09.2022
1619 Clouds 23 1006 86 10000 2.44 8 21:30 28.09.2022
1620 Haze 25 1008 94 3000 1.03 340 20:31 28.09.2022
1621 Haze 25 1009 94 3000 0 0 18:42 28.09.2022
1622 Mist 26 1006 94 2500 1.03 90 15:34 28.09.2022
1623 Mist 26 1006 94 2500 1.54 150 13:28 28.09.2022
1624 Clouds 26 1006 83 2500 2.06 50 11:23 28.09.2022
1625 Haze 32 1007 70 5000 2.06 30 09:18 28.09.2022
1626 Haze 30 1009 84 5000 2.57 340 07:40 28.09.2022
1627 Haze 26 1009 100 5000 1.03 40 04:41 28.09.2022
1628 Mist 24 1007 94 2500 1.03 320 01:38 28.09.2022
1629 Mist 24 1007 94 2000 2.57 310 23:27 27.09.2022
1630 Clouds 24 1008 94 2000 2.06 320 21:47 27.09.2022
1631 Clouds 23 1009 94 2000 2.06 330 20:44 27.09.2022
1632 Thunderstorm 26 1010 78 3000 3.6 350 19:49 27.09.2022
1633 Thunderstorm 27 1009 83 3000 1.03 110 19:30 27.09.2022
1634 Haze 28 1009 89 3000 1.03 210 17:46 27.09.2022
1635 Haze 29 1008 79 4000 0 0 15:59 27.09.2022
1636 Haze 29 1007 79 5000 1.03 140 14:59 27.09.2022
1637 Haze 32 1006 66 5000 1.54 120 13:28 27.09.2022
1638 Haze 32 1006 66 5000 1.03 50 12:22 27.09.2022
1639 Haze 32 1008 66 5000 1.03 80 09:46 27.09.2022
1640 Clouds 28 1009 72 10000 2.35 21 07:28 27.09.2022
1641 Haze 25 1009 88 2500 1.03 300 02:51 27.09.2022
1642 Haze 25 1008 88 3000 0 0 01:35 27.09.2022
1643 Haze 26 1008 89 3500 1.03 310 23:38 26.09.2022
1644 Haze 26 1009 89 3500 1.03 50 23:18 26.09.2022
1645 Haze 27 1010 78 3500 1.03 40 20:47 26.09.2022
1646 Haze 27 1011 78 3500 1.03 20 19:34 26.09.2022
1647 Haze 28 1010 78 3500 1.03 350 18:34 26.09.2022
1648 Haze 29 1009 74 4000 2.57 330 16:41 26.09.2022
1649 Haze 31 1008 70 5000 2.57 330 14:41 26.09.2022
1650 Haze 33 1007 58 5000 1.03 360 11:35 26.09.2022
1651 Haze 32 1009 66 5000 1.03 50 10:41 26.09.2022
1652 Haze 32 1009 66 5000 1.03 50 10:21 26.09.2022
1653 Haze 32 1010 66 5000 1.54 30 09:55 26.09.2022
1654 Haze 31 1011 70 5000 1.54 60 09:24 26.09.2022
1655 Haze 31 1011 70 5000 1.54 60 08:57 26.09.2022
1656 Mist 24 1010 94 2500 1.54 300 02:57 26.09.2022
1657 Mist 25 1009 94 2500 1.03 310 00:35 26.09.2022
1658 Mist 25 1009 94 2500 0 0 22:59 25.09.2022
1659 Mist 25 1009 94 2500 0 0 21:41 25.09.2022
1660 Mist 25 1010 100 2500 0 0 20:49 25.09.2022
1661 Mist 26 1010 94 2500 2.06 330 19:43 25.09.2022
1662 Haze 26 1011 94 3000 1.54 310 18:43 25.09.2022
1663 Haze 26 1011 94 3000 1.03 330 18:20 25.09.2022
1664 Haze 26 1010 94 3000 0 0 16:49 25.09.2022
1665 Haze 27 1009 89 3000 1.03 40 15:45 25.09.2022
1666 Haze 29 1008 89 3000 0 0 14:29 25.09.2022
1667 Clouds 28 1007 89 3000 1.54 110 12:57 25.09.2022
1668 Haze 29 1009 79 4000 0 0 10:36 25.09.2022
1669 Haze 29 1011 74 4000 1.54 330 08:25 25.09.2022
1670 Haze 28 1011 83 3000 2.57 320 06:23 25.09.2022
1671 Haze 28 1011 83 3000 2.57 320 06:23 25.09.2022
1672 Haze 25 1008 94 3000 1.03 280 02:57 25.09.2022
1673 Haze 25 1008 100 3000 1.03 240 22:50 24.09.2022
1674 Haze 26 1008 94 3000 0 0 21:19 24.09.2022
1675 Haze 26 1009 94 3000 0 0 19:23 24.09.2022
1676 Haze 26 1009 94 3500 0 0 17:50 24.09.2022
1677 Haze 27 1008 89 3500 1.03 160 16:27 24.09.2022
1678 Haze 27 1007 89 3500 1.03 150 15:22 24.09.2022
1679 Clouds 27 1006 83 3500 1.54 340 13:35 24.09.2022
1680 Haze 28 1006 78 4000 2.06 340 12:51 24.09.2022
1681 Haze 28 1007 83 4000 3.6 340 11:21 24.09.2022
1682 Haze 30 1009 70 5000 2.57 300 09:46 24.09.2022
1683 Haze 30 1010 70 5000 3.6 300 08:45 24.09.2022
1684 Haze 29 1010 74 5000 4.12 310 07:38 24.09.2022
1685 Mist 25 1010 94 3000 1.03 230 04:46 24.09.2022
1686 Haze 23 1008 94 3000 1.54 230 02:24 24.09.2022
1687 Haze 23 1008 94 3000 1.03 220 22:29 23.09.2022
1688 Haze 23 1009 94 3000 1.03 220 21:28 23.09.2022
1689 Haze 23 1009 94 3000 1.54 210 20:56 23.09.2022
1690 Haze 24 1009 88 3000 0 0 20:20 23.09.2022
1691 Haze 24 1010 94 3000 1.54 310 18:27 23.09.2022
1692 Haze 29 1006 79 4000 4.12 250 13:45 23.09.2022
1693 Haze 30 1007 70 4000 2.57 260 10:45 23.09.2022
1694 Haze 29 1009 74 4000 3.09 280 09:29 23.09.2022
1695 Mist 25 1009 100 2500 2.06 240 04:59 23.09.2022
1696 Mist 25 1007 94 2000 1.54 210 00:31 23.09.2022
1697 Mist 25 1007 100 2000 1.03 240 23:21 22.09.2022
1698 Mist 25 1007 100 2000 1.03 230 22:26 22.09.2022
1699 Clouds 26 1008 94 2000 2.06 230 20:46 22.09.2022
1700 Mist 26 1009 94 2500 1.54 200 19:27 22.09.2022
1701 Mist 26 1007 94 3000 2.06 220 16:57 22.09.2022
1702 Mist 28 1006 89 2500 2.06 280 11:58 22.09.2022
1703 Drizzle 27 1007 94 2500 3.09 250 10:20 22.09.2022
1704 Clouds 26 1008 94 2500 2.06 210 08:39 22.09.2022
1705 Clouds 25 1008 94 2000 2.57 250 06:42 22.09.2022
1706 Mist 24 1006 100 3000 1.54 240 02:43 22.09.2022
1707 Mist 24 1005 94 3000 1.54 240 22:50 21.09.2022
1708 Rain 24 1006 94 3000 3.6 290 21:40 21.09.2022
1709 Clouds 24 1007 100 2000 3.6 280 19:36 21.09.2022
1710 Thunderstorm 27 1007 94 3000 5.14 320 17:47 21.09.2022
1711 Haze 27 1005 94 3000 1.54 230 16:22 21.09.2022
1712 Haze 27 1005 94 3000 1.54 230 16:22 21.09.2022
1713 Haze 28 1004 83 4000 1.54 270 13:57 21.09.2022
1714 Haze 29 1004 79 4000 3.09 280 12:41 21.09.2022
1715 Haze 29 1004 79 4000 4.12 290 11:28 21.09.2022
1716 Haze 29 1006 84 4000 2.57 280 09:47 21.09.2022
1717 Haze 28 1007 89 4000 2.06 290 08:53 21.09.2022
1718 Rain 26 1007 94 2500 2.06 280 06:22 21.09.2022
1719 Rain 25 1005 94 2500 2.06 320 02:45 21.09.2022
1720 Rain 25 1005 94 2500 3.09 320 02:23 21.09.2022
1721 Clouds 25 1005 94 3000 1.54 280 00:26 21.09.2022
1722 Rain 25 1005 94 3000 1.54 250 22:41 20.09.2022
1723 Rain 25 1007 94 3000 1.54 270 20:45 20.09.2022
1724 Haze 26 1006 89 3000 3.6 300 19:30 20.09.2022
1725 Haze 28 1005 89 3000 1.03 230 16:18 20.09.2022
1726 Haze 30 1003 79 3000 1.03 210 14:35 20.09.2022
1727 Thunderstorm 31 1002 66 3500 3.6 330 12:58 20.09.2022
1728 Haze 32 1006 70 5000 4.63 330 09:19 20.09.2022
1729 Haze 31 1007 74 5000 2.57 330 08:26 20.09.2022
1730 Haze 26 1007 94 4000 3.09 320 04:46 20.09.2022
1731 Haze 25 1006 94 3000 2.06 300 03:38 20.09.2022
1732 Mist 26 1006 94 2500 1.03 240 22:51 19.09.2022
1733 Haze 26 1007 94 3000 1.54 180 21:39 19.09.2022
1734 Haze 26 1007 94 3000 1.03 300 20:47 19.09.2022
1735 Haze 26 1007 94 3000 1.03 300 20:47 19.09.2022
1736 Haze 26 1007 94 3000 2.06 330 20:24 19.09.2022
1737 Haze 26 1008 94 3000 1.03 300 17:44 19.09.2022
1738 Haze 28 1005 83 4000 2.06 200 14:18 19.09.2022
1739 Rain 29 1005 79 5000 1.03 160 12:56 19.09.2022
1740 Haze 33 1006 66 5000 2.57 320 10:47 19.09.2022
1741 Haze 33 1008 66 5000 2.06 330 08:51 19.09.2022
1742 Haze 29 1008 84 4000 3.09 330 05:42 19.09.2022
1743 Haze 25 1007 94 3000 0 0 01:53 19.09.2022
1744 Haze 25 1007 94 3000 1.03 220 23:22 18.09.2022
1745 Haze 26 1008 89 3000 1.03 170 21:33 18.09.2022
1746 Haze 26 1008 94 3000 1.03 280 20:23 18.09.2022
1747 Haze 27 1009 89 3000 1.54 280 17:54 18.09.2022
1748 Haze 27 1009 83 3000 1.54 240 17:19 18.09.2022
1749 Haze 29 1007 79 3000 2.06 310 15:34 18.09.2022
1750 Haze 32 1006 70 3000 1.54 330 13:47 18.09.2022
1751 Haze 32 1005 70 4000 1.54 350 12:34 18.09.2022
1752 Haze 33 1007 66 4000 1.54 290 10:45 18.09.2022
1753 Mist 25 1009 100 2500 1.03 220 03:40 18.09.2022
1754 Mist 25 1007 94 2500 1.03 210 01:24 18.09.2022
1755 Clouds 23 1005 90 10000 2.35 299 00:21 18.09.2022
1756 Mist 26 1008 94 2500 1.03 280 21:36 17.09.2022
1757 Mist 26 1009 94 3000 1.03 320 19:40 17.09.2022
1758 Mist 27 1009 94 3000 1.54 290 18:46 17.09.2022
1759 Haze 26 1007 94 3000 0 0 15:51 17.09.2022
1760 Haze 30 1005 79 4000 2.06 200 13:38 17.09.2022
1761 Haze 29 1007 89 4000 2.06 220 10:56 17.09.2022
1762 Haze 28 1008 94 4000 2.57 180 08:34 17.09.2022
1763 Haze 27 1008 94 4000 2.06 310 06:24 17.09.2022
1764 Rain 23 1003 93 10000 3.24 281 23:57 16.09.2022
1765 Clouds 23 1003 92 10000 3.72 287 22:52 16.09.2022
1766 Clouds 25 1006 94 2500 0 0 20:59 16.09.2022
1767 Clouds 25 1006 94 2500 1.54 240 19:50 16.09.2022
1768 Clouds 25 1005 94 2500 3.6 240 16:30 16.09.2022
1769 Haze 27 1003 94 4000 2.06 200 14:53 16.09.2022
1770 Haze 30 1002 79 5000 4.12 220 13:42 16.09.2022
1771 Haze 31 1004 74 5000 4.12 230 10:50 16.09.2022
1772 Haze 28 1007 89 5000 5.14 240 08:19 16.09.2022
1773 Haze 26 1008 94 5000 2.57 220 06:48 16.09.2022
1774 Haze 26 1008 94 5000 3.09 220 06:25 16.09.2022
1775 Rain 25 1006 94 2500 2.57 210 02:37 16.09.2022
1776 Mist 25 1006 100 2000 1.54 220 22:20 15.09.2022
1777 Clouds 25 1007 100 2000 1.54 220 20:47 15.09.2022
1778 Mist 25 1008 94 2500 1.54 180 19:46 15.09.2022
1779 Thunderstorm 24 1008 100 2500 1.54 250 18:29 15.09.2022
1780 Thunderstorm 24 1008 94 2000 4.12 250 17:31 15.09.2022
1781 Thunderstorm 25 1006 88 2000 1.54 240 15:50 15.09.2022
1782 Haze 28 1005 94 5000 1.54 210 14:20 15.09.2022
1783 Haze 30 1006 74 5000 3.6 210 11:48 15.09.2022
1784 Haze 30 1008 74 5000 5.14 230 09:52 15.09.2022
1785 Haze 30 1009 74 5000 4.12 200 07:45 15.09.2022
1786 Clouds 25 1008 94 4000 2.06 190 03:49 15.09.2022
1787 Haze 25 1007 100 2500 2.06 210 23:32 14.09.2022
1788 Haze 26 1008 94 2500 1.03 180 20:48 14.09.2022
1789 Rain 25 1009 100 2500 2.06 280 19:33 14.09.2022
1790 Clouds 25 1008 100 2500 4.12 320 18:30 14.09.2022
1791 Thunderstorm 26 1007 100 2500 1.54 130 16:40 14.09.2022
1792 Clouds 26 1006 94 2500 1.03 320 15:29 14.09.2022
1793 Clouds 27 1005 89 2500 2.57 220 12:57 14.09.2022
1794 Clouds 28 1006 94 2500 2.57 210 10:47 14.09.2022
1795 Haze 28 1007 89 5000 2.06 210 08:41 14.09.2022
1796 Haze 28 1008 94 5000 5.14 220 06:50 14.09.2022
1797 Haze 27 1008 94 5000 5.14 220 06:31 14.09.2022
1798 Mist 25 1006 100 3000 3.6 210 03:21 14.09.2022
1799 Clouds 25 1005 100 2000 2.06 200 01:39 14.09.2022
1800 Clouds 23 1003 97 10000 3.4 216 01:19 14.09.2022
1801 Clouds 25 1005 100 2000 2.06 220 23:55 13.09.2022
1802 Clouds 25 1005 100 2000 2.06 220 23:37 13.09.2022
1803 Clouds 25 1005 100 2000 2.06 220 23:37 13.09.2022
1804 Clouds 25 1005 100 2000 2.06 220 23:19 13.09.2022
1805 Clouds 24 1005 100 2000 1.54 220 22:32 13.09.2022
1806 Clouds 24 1005 100 2000 2.57 180 21:40 13.09.2022
1807 Clouds 24 1006 94 10000 3.09 210 19:26 13.09.2022
1808 Clouds 26 1005 94 2500 0 0 16:45 13.09.2022
1809 Mist 26 1003 94 2500 0 0 15:38 13.09.2022
1810 Mist 27 1003 94 2500 2.57 180 13:50 13.09.2022
1811 Mist 27 1003 100 3000 2.57 230 11:34 13.09.2022
1812 Mist 26 1005 100 3000 2.57 200 08:20 13.09.2022
1813 Rain 25 1002 100 2000 1.03 210 02:58 13.09.2022
1814 Clouds 25 1001 100 2000 2.57 220 23:23 12.09.2022
1815 Clouds 25 1001 100 2000 2.57 230 22:45 12.09.2022
1816 Clouds 25 1001 100 2000 2.06 230 21:35 12.09.2022
1817 Rain 25 1002 100 2500 3.09 200 20:23 12.09.2022
1818 Rain 25 1002 100 2500 1.03 210 18:40 12.09.2022
1819 Rain 25 1000 100 2500 1.03 230 15:53 12.09.2022
1820 Haze 26 999 100 3000 1.54 230 12:57 12.09.2022
1821 Mist 26 1000 100 3000 2.06 220 10:34 12.09.2022
1822 Mist 25 1000 100 3000 0 0 08:58 12.09.2022
1823 Clouds 25 1000 100 1000 1.03 240 04:39 12.09.2022
1824 Mist 25 999 100 2500 2.06 280 02:25 12.09.2022
1825 Mist 25 1000 100 2500 1.54 270 22:46 11.09.2022
1826 Mist 25 1000 100 2500 1.54 280 21:30 11.09.2022
1827 Mist 25 1001 100 2500 1.03 280 20:44 11.09.2022
1828 Mist 25 1002 94 2500 2.06 310 19:39 11.09.2022
1829 Mist 25 1002 94 2500 2.06 310 19:19 11.09.2022
1830 Clouds 25 1001 94 2000 2.06 300 17:47 11.09.2022
1831 Clouds 25 1001 88 2000 0 0 15:51 11.09.2022
1832 Haze 30 999 79 4000 3.09 250 13:52 11.09.2022
1833 Haze 31 999 79 4000 1.03 60 11:35 11.09.2022
1834 Haze 31 1002 74 4000 1.03 40 08:25 11.09.2022
1835 Haze 29 1004 94 4000 1.03 40 05:49 11.09.2022
1836 Haze 27 1002 89 3000 1.03 340 00:23 11.09.2022
1837 Haze 27 1004 89 3000 2.57 80 22:23 10.09.2022
1838 Haze 27 1005 94 3000 2.57 320 20:35 10.09.2022
1839 Haze 27 1005 94 3000 2.57 340 19:44 10.09.2022
1840 Haze 28 1005 89 3000 2.57 330 19:25 10.09.2022
1841 Haze 27 1005 89 3000 1.54 330 17:51 10.09.2022
1842 Haze 29 1003 89 3000 2.06 340 15:37 10.09.2022
1843 Haze 30 1002 89 4000 0 0 13:55 10.09.2022
1844 Clouds 27 1002 89 3000 0 0 12:51 10.09.2022
1845 Haze 32 1005 70 5000 1.54 50 10:34 10.09.2022
1846 Haze 32 1007 70 5000 1.54 60 08:42 10.09.2022
1847 Haze 32 1007 70 5000 1.54 60 08:20 10.09.2022
1848 Haze 32 1007 70 5000 1.54 60 08:20 10.09.2022
1849 Haze 28 1007 89 4000 1.03 50 04:30 10.09.2022
1850 Haze 28 1007 83 3000 1.54 70 23:37 09.09.2022
1851 Haze 28 1007 83 3000 1.54 50 22:36 09.09.2022
1852 Haze 29 1008 79 3000 1.03 110 20:57 09.09.2022
1853 Haze 29 1007 79 3000 1.54 80 20:20 09.09.2022
1854 Haze 29 1007 84 3000 0 0 19:23 09.09.2022
1855 Haze 29 1007 84 4000 0 0 17:29 09.09.2022
1856 Haze 31 1006 74 5000 1.54 60 15:23 09.09.2022
1857 Haze 32 1004 70 5000 1.54 110 13:33 09.09.2022
1858 Haze 32 1005 74 5000 2.06 80 11:27 09.09.2022
1859 Haze 31 1009 79 5000 2.06 100 07:57 09.09.2022
1860 Haze 27 1008 94 3000 1.03 30 03:37 09.09.2022
1861 Mist 27 1007 94 2500 0 0 22:40 08.09.2022
1862 Mist 27 1007 94 2500 0 0 21:51 08.09.2022
1863 Mist 28 1008 94 2500 1.03 330 20:49 08.09.2022
1864 Mist 28 1008 94 2500 0 0 20:27 08.09.2022
1865 Mist 28 1008 89 2500 0 0 19:18 08.09.2022
1866 Mist 28 1008 89 2500 1.03 350 17:25 08.09.2022
1867 Mist 29 1007 89 2500 1.03 40 15:35 08.09.2022
1868 Mist 30 1005 79 3000 1.03 80 13:30 08.09.2022
1869 Rain 30 1005 79 3000 1.03 50 12:40 08.09.2022
1870 Clouds 30 1006 84 2500 2.06 130 11:22 08.09.2022
1871 Mist 31 1008 79 3000 1.54 80 09:26 08.09.2022
1872 Mist 29 1010 94 3000 1.54 40 06:53 08.09.2022
1873 Mist 26 1008 100 2000 1.03 130 03:23 08.09.2022
1874 Mist 26 1008 94 2000 1.03 130 02:36 08.09.2022
1875 Mist 26 1008 94 2500 0 0 02:18 08.09.2022
1876 Mist 26 1008 94 2500 0 0 22:56 07.09.2022
1877 Mist 25 1008 100 2500 0 0 21:44 07.09.2022
1878 Mist 25 1009 100 2500 0 0 21:21 07.09.2022
1879 Mist 25 1009 100 2500 1.03 180 20:22 07.09.2022
1880 Mist 26 1009 94 2500 0 0 18:41 07.09.2022
1881 Thunderstorm 25 1008 88 3000 1.54 350 15:51 07.09.2022
1882 Haze 33 1006 70 4000 2.06 70 10:51 07.09.2022
1883 Haze 33 1006 70 5000 1.54 80 10:32 07.09.2022
1884 Haze 31 1009 74 5000 1.54 340 07:46 07.09.2022
1885 Mist 27 1009 94 3000 1.54 360 04:59 07.09.2022
1886 Haze 25 1007 94 3000 1.54 280 00:26 07.09.2022
1887 Haze 26 1007 94 3000 1.03 20 21:48 06.09.2022
1888 Haze 27 1008 89 3000 1.03 20 21:27 06.09.2022
1889 Haze 26 1009 94 3000 2.06 310 19:23 06.09.2022
1890 Haze 26 1009 94 3000 1.54 330 18:27 06.09.2022
1891 Haze 27 1009 89 3000 1.54 330 17:23 06.09.2022
1892 Haze 28 1008 78 3000 1.54 340 16:40 06.09.2022
1893 Haze 29 1007 79 3000 1.54 340 15:23 06.09.2022
1894 Haze 30 1006 79 4000 1.54 270 13:46 06.09.2022
1895 Haze 30 1006 74 4000 3.09 300 13:26 06.09.2022
1896 Haze 30 1006 79 4000 2.06 260 12:37 06.09.2022
1897 Thunderstorm 29 1007 84 4000 3.09 200 10:46 06.09.2022
1898 Haze 31 1009 79 4000 1.54 120 08:54 06.09.2022
1899 Haze 30 1010 84 5000 1.54 110 07:51 06.09.2022
1900 Haze 26 1009 100 4000 0 0 04:48 06.09.2022
1901 Haze 25 1007 94 3000 0 0 23:52 05.09.2022
1902 Haze 25 1007 94 3000 0 0 22:40 05.09.2022
1903 Haze 25 1008 94 3000 0 0 20:58 05.09.2022
1904 Haze 25 1009 94 3000 1.03 260 19:50 05.09.2022
1905 Haze 25 1008 94 3000 1.03 170 18:49 05.09.2022
1906 Haze 25 1008 94 3000 0 0 18:22 05.09.2022
1907 Haze 25 1008 94 3000 1.54 310 17:31 05.09.2022
1908 Haze 25 1007 94 3000 1.54 260 15:52 05.09.2022
1909 Haze 27 1006 94 3000 1.54 210 13:39 05.09.2022
1910 Haze 27 1006 94 3000 0 0 12:29 05.09.2022
1911 Clouds 30 1008 74 3000 4.63 320 10:30 05.09.2022
1912 Haze 28 1011 94 4000 1.54 200 07:36 05.09.2022
1913 Mist 24 1008 94 3000 0 0 02:50 05.09.2022
1914 Mist 25 1008 94 3000 1.03 300 23:40 04.09.2022
1915 Mist 25 1008 94 3000 0 0 22:28 04.09.2022
1916 Mist 25 1009 94 3000 1.03 270 21:40 04.09.2022
1917 Haze 24 1010 94 3000 1.54 220 19:39 04.09.2022
1918 Haze 24 1009 94 3000 2.06 230 18:20 04.09.2022
1919 Haze 24 1008 94 3000 1.03 220 17:19 04.09.2022
1920 Haze 26 1007 94 3500 3.09 320 14:36 04.09.2022
1921 Haze 26 1007 94 4000 3.09 350 14:18 04.09.2022
1922 Haze 25 1006 94 3000 1.03 330 12:21 04.09.2022
1923 Clouds 24 1009 100 2500 2.06 240 10:47 04.09.2022
1924 Clouds 24 1012 94 2000 0 0 08:21 04.09.2022
1925 Rain 24 1010 100 3000 3.09 180 05:36 04.09.2022
1926 Haze 25 1006 94 3000 1.03 210 00:53 04.09.2022
1927 Haze 26 1007 94 3000 1.03 130 22:26 03.09.2022
1928 Haze 26 1008 94 3000 1.03 170 21:23 03.09.2022
1929 Haze 26 1008 94 3000 0 0 19:56 03.09.2022
1930 Haze 26 1008 94 3000 0 0 17:29 03.09.2022
1931 Haze 26 1008 89 3000 2.45 295 16:33 03.09.2022
1932 Haze 28 1006 78 4000 2.79 302 14:46 03.09.2022
1933 Haze 29 1006 74 4000 2.45 276 14:26 03.09.2022
1934 Haze 29 1006 84 4000 1.03 180 12:32 03.09.2022
1935 Haze 28 1007 78 4000 3.09 190 10:49 03.09.2022
1936 Haze 33 1009 70 5000 2.57 210 08:41 03.09.2022
1937 Haze 32 1010 74 5000 3.09 210 06:58 03.09.2022
1938 Haze 28 1010 94 3000 0 0 04:38 03.09.2022
1939 Haze 27 1009 89 3000 1.03 190 00:32 03.09.2022
1940 Haze 27 1008 94 3000 1.03 250 23:20 02.09.2022
1941 Haze 28 1010 89 3000 1.03 300 21:19 02.09.2022
1942 Haze 28 1010 89 3000 1.03 320 20:39 02.09.2022
1943 Haze 28 1010 94 3000 1.03 200 19:30 02.09.2022
1944 Haze 28 1010 89 3000 1.03 340 18:43 02.09.2022
1945 Haze 28 1010 89 3000 1.03 340 18:24 02.09.2022
1946 Haze 29 1009 84 3000 1.03 160 16:48 02.09.2022
1947 Haze 30 1008 74 3000 1.03 330 15:21 02.09.2022
1948 Clouds 31 1008 79 3000 1.03 90 12:39 02.09.2022
1949 Haze 34 1009 66 5000 1.54 200 10:22 02.09.2022
1950 Haze 33 1010 70 5000 2.06 130 09:41 02.09.2022
1951 Haze 30 1011 79 5000 1.54 210 07:36 02.09.2022
1952 Haze 31 1011 74 5000 2.06 170 06:40 02.09.2022
1953 Haze 25 1010 94 3000 1.03 330 02:55 02.09.2022
1954 Haze 26 1009 89 3000 0 0 22:35 01.09.2022
1955 Haze 26 1009 89 3000 0 0 21:44 01.09.2022
1956 Haze 27 1010 78 3000 2.57 10 21:25 01.09.2022
1957 Haze 27 1010 89 3000 3.09 330 20:44 01.09.2022
1958 Haze 28 1010 89 3000 0 0 18:54 01.09.2022
1959 Haze 29 1009 89 3000 1.54 200 17:33 01.09.2022
1960 Haze 30 1008 84 4000 1.03 100 15:59 01.09.2022
1961 Haze 33 1006 66 4000 0 0 14:33 01.09.2022
1962 Haze 34 1006 62 5000 1.54 200 12:58 01.09.2022
1963 Haze 32 1006 74 5000 1.54 230 11:53 01.09.2022
1964 Haze 32 1007 70 5000 2.57 200 11:31 01.09.2022
1965 Haze 32 1008 70 5000 1.54 180 10:23 01.09.2022
1966 Haze 27 1010 94 4000 1.54 350 07:51 01.09.2022
1967 Haze 29 1011 94 3000 3.09 210 06:22 01.09.2022
1968 Haze 25 1008 94 3000 0 0 01:32 01.09.2022
1969 Haze 25 1008 94 3000 0 0 01:32 01.09.2022
1970 Haze 25 1008 94 3000 0 0 01:32 01.09.2022
1971 Haze 25 1008 94 3000 1.03 190 23:29 31.08.2022
1972 Haze 26 1008 89 3000 2.57 330 21:32 31.08.2022
1973 Rain 27 1009 89 3000 5.14 310 19:50 31.08.2022
1974 Haze 28 1009 94 3000 1.54 130 18:18 31.08.2022
1975 Clouds 28 1007 89 2500 1.54 80 15:45 31.08.2022
1976 Haze 32 1006 70 3000 3.09 270 13:57 31.08.2022
1977 Haze 34 1006 62 3500 1.03 300 12:21 31.08.2022
1978 Haze 34 1007 62 3500 1.54 230 10:52 31.08.2022
1979 Haze 32 1010 70 3500 2.06 180 08:35 31.08.2022
1980 Mist 27 1010 100 1500 1.54 240 04:26 31.08.2022
1981 Mist 27 1008 94 2500 0 0 22:58 30.08.2022
1982 Haze 27 1009 94 3000 0 0 21:33 30.08.2022
1983 Haze 27 1009 94 3000 0 0 20:56 30.08.2022
1984 Haze 28 1010 89 3000 1.54 220 17:30 30.08.2022
1985 Haze 32 1008 70 5000 1.54 180 14:42 30.08.2022
1986 Haze 33 1008 66 5000 1.03 180 13:24 30.08.2022
1987 Haze 31 1009 74 5000 1.54 170 11:21 30.08.2022
1988 Haze 32 1009 70 5000 1.54 160 10:35 30.08.2022
1989 Haze 29 1011 84 5000 1.03 140 06:50 30.08.2022
1990 Haze 25 1009 94 3000 0 0 01:45 30.08.2022
1991 Haze 25 1009 94 3000 0 0 01:45 30.08.2022
1992 Haze 26 1008 89 3000 1.03 250 22:54 29.08.2022
1993 Rain 26 1009 89 3000 1.03 30 22:20 29.08.2022
1994 Haze 26 1010 89 3000 1.03 50 21:23 29.08.2022
1995 Haze 26 1010 89 3000 1.03 350 19:48 29.08.2022
1996 Thunderstorm 27 1011 83 3000 3.09 320 17:43 29.08.2022
1997 Thunderstorm 27 1010 89 3000 3.09 310 17:24 29.08.2022
1998 Haze 29 1008 79 3000 1.54 310 15:42 29.08.2022
1999 Haze 30 1008 79 4000 0 0 14:43 29.08.2022
2000 Haze 30 1007 79 4000 1.03 30 12:42 29.08.2022
2001 Haze 31 1008 74 4000 0 0 10:51 29.08.2022
2002 Haze 31 1009 74 5000 2.06 60 09:41 29.08.2022
2003 Haze 30 1010 79 5000 2.06 360 08:27 29.08.2022
2004 Haze 26 1008 94 3000 1.03 360 02:42 29.08.2022
2005 Haze 27 1007 89 3000 0 0 23:50 28.08.2022
2006 Haze 27 1007 89 3000 0 0 21:57 28.08.2022
2007 Haze 27 1007 89 3000 0 0 21:31 28.08.2022
2008 Haze 27 1008 89 3000 1.54 340 20:24 28.08.2022
2009 Haze 27 1008 89 3000 0 0 18:38 28.08.2022
2010 Haze 28 1008 83 3000 0 0 18:18 28.08.2022
2011 Haze 28 1007 83 3000 1.54 350 16:52 28.08.2022
2012 Haze 29 1006 79 3000 2.57 360 15:37 28.08.2022
2013 Haze 30 1005 70 3000 4.12 320 13:34 28.08.2022
2014 Haze 31 1005 70 3000 3.6 360 12:20 28.08.2022
2015 Haze 30 1006 79 3000 3.6 300 10:27 28.08.2022
2016 Haze 29 1008 79 3000 3.09 330 09:34 28.08.2022
2017 Rain 28 1009 83 2500 1.03 40 08:28 28.08.2022
2018 Haze 29 1009 74 3000 4.12 320 07:32 28.08.2022
2019 Haze 26 1006 83 4000 2.06 310 00:59 28.08.2022
2020 Haze 26 1006 83 4000 2.06 320 23:48 27.08.2022
2021 Haze 28 1007 74 4000 2.06 310 22:27 27.08.2022
2022 Haze 28 1007 74 4000 2.06 310 22:27 27.08.2022
2023 Haze 29 1008 74 4000 2.06 320 20:37 27.08.2022
2024 Haze 29 1008 74 4000 2.57 320 19:29 27.08.2022
2025 Haze 31 1005 66 4000 2.06 290 16:30 27.08.2022
2026 Haze 31 1005 66 4000 2.06 310 15:31 27.08.2022
2027 Haze 33 1004 58 4000 4.12 270 13:30 27.08.2022
2028 Haze 33 1004 62 5000 3.6 300 12:20 27.08.2022
2029 Haze 32 1006 66 5000 3.09 340 10:30 27.08.2022
2030 Haze 31 1007 66 5000 3.09 310 09:36 27.08.2022
2031 Haze 30 1008 74 5000 2.57 320 06:54 27.08.2022
2032 Haze 26 1006 89 3000 3.09 320 02:24 27.08.2022
2033 Haze 25 1006 94 3000 1.54 140 23:49 26.08.2022
2034 Haze 26 1007 89 3000 2.57 310 21:49 26.08.2022
2035 Haze 26 1008 94 3000 1.54 300 20:20 26.08.2022
2036 Haze 27 1007 83 4000 2.57 290 18:19 26.08.2022
2037 Haze 28 1006 83 4000 1.54 240 16:36 26.08.2022
2038 Haze 29 1006 74 4000 2.06 310 15:25 26.08.2022
2039 Haze 29 1005 79 4000 2.57 280 13:20 26.08.2022
2040 Haze 30 1006 79 4000 5.14 290 11:48 26.08.2022
2041 Haze 29 1006 84 4000 0 0 11:22 26.08.2022
2042 Haze 33 1007 62 5000 2.06 270 09:45 26.08.2022
2043 Haze 26 1008 94 3500 2.06 330 04:56 26.08.2022
2044 Haze 25 1006 94 3500 0 0 00:44 26.08.2022
2045 Haze 26 1007 89 3500 1.03 250 22:44 25.08.2022
2046 Haze 27 1007 83 3500 1.54 140 20:55 25.08.2022
2047 Haze 27 1008 83 3500 1.54 90 19:36 25.08.2022
2048 Haze 28 1008 74 4000 1.54 40 18:35 25.08.2022
2049 Haze 29 1007 70 4000 2.06 310 17:32 25.08.2022
2050 Haze 29 1006 70 4000 1.54 290 16:45 25.08.2022
2051 Haze 31 1005 62 4000 2.57 270 15:30 25.08.2022
2052 Haze 32 1005 62 5000 4.63 310 13:58 25.08.2022
2053 Haze 32 1006 66 5000 1.54 290 11:25 25.08.2022
2054 Haze 32 1006 66 5000 4.12 320 10:44 25.08.2022
2055 Haze 31 1008 70 5000 4.12 290 07:35 25.08.2022
2056 Haze 27 1008 89 4000 2.06 280 03:44 25.08.2022
2057 Haze 28 1006 83 4000 2.06 330 23:37 24.08.2022
2058 Haze 28 1006 89 4000 1.54 330 22:56 24.08.2022
2059 Haze 28 1006 89 4000 2.06 310 21:56 24.08.2022
2060 Haze 28 1007 89 4000 1.03 270 21:30 24.08.2022
2061 Haze 28 1008 89 4000 1.54 270 19:56 24.08.2022
2062 Haze 29 1008 79 4000 1.54 250 17:28 24.08.2022
2063 Haze 30 1006 70 4000 2.57 260 15:54 24.08.2022
2064 Haze 30 1006 70 4000 2.57 260 15:28 24.08.2022
2065 Haze 33 1005 62 5000 4.12 270 12:51 24.08.2022
2066 Haze 33 1006 62 5000 4.12 260 11:19 24.08.2022
2067 Haze 32 1008 66 5000 2.06 260 08:45 24.08.2022
2068 Haze 30 1009 79 5000 2.57 260 06:40 24.08.2022
2069 Haze 26 1007 94 3000 0 0 00:55 24.08.2022
2070 Haze 26 1007 94 4000 1.03 200 22:41 23.08.2022
2071 Haze 27 1007 89 4000 1.03 220 21:55 23.08.2022
2072 Haze 27 1007 89 4000 1.03 260 20:47 23.08.2022
2073 Haze 27 1008 89 4000 0 0 19:24 23.08.2022
2074 Haze 28 1007 89 4000 1.03 200 18:18 23.08.2022
2075 Haze 28 1006 83 4000 0 0 17:28 23.08.2022
2076 Haze 29 1005 74 4000 1.03 150 16:24 23.08.2022
2077 Haze 31 1004 70 5000 2.06 210 14:30 23.08.2022
2078 Haze 33 1004 62 5000 3.09 250 12:46 23.08.2022
2079 Haze 31 1004 70 5000 2.57 230 10:58 23.08.2022
2080 Haze 31 1005 70 5000 3.6 230 10:33 23.08.2022
2081 Haze 30 1005 74 5000 2.57 200 09:32 23.08.2022
2082 Haze 30 1006 79 5000 2.57 210 08:46 23.08.2022
2083 Haze 30 1006 79 5000 2.06 260 08:19 23.08.2022
2084 Haze 29 1006 79 5000 2.57 220 07:31 23.08.2022
2085 Haze 28 1006 89 5000 2.57 210 06:23 23.08.2022
2086 Haze 24 1004 100 3000 1.54 210 01:45 23.08.2022
2087 Haze 24 1003 94 3000 2.06 210 00:27 23.08.2022
2088 Haze 24 1003 94 3000 1.03 180 23:32 22.08.2022
2089 Haze 24 1003 94 3000 1.03 210 22:25 22.08.2022
2090 Haze 25 1004 88 3000 1.03 210 20:44 22.08.2022
2091 Haze 25 1005 88 3000 1.03 200 19:44 22.08.2022
2092 Haze 25 1004 88 3000 1.54 220 18:37 22.08.2022
2093 Haze 27 1003 78 4000 1.54 250 15:55 22.08.2022
2094 Haze 27 1002 78 4000 2.57 240 15:18 22.08.2022
2095 Haze 29 1001 74 5000 4.12 240 11:45 22.08.2022
2096 Haze 29 1002 79 4000 4.63 240 09:24 22.08.2022
2097 Haze 26 1002 94 2500 4.63 230 05:51 22.08.2022
2098 Haze 25 1000 94 3000 4.12 260 00:57 22.08.2022
2099 Haze 25 999 94 3000 4.63 240 00:36 22.08.2022
2100 Clouds 25 1000 94 3000 4.12 240 23:21 21.08.2022
2101 Clouds 25 1001 94 3000 3.6 240 21:55 21.08.2022
2102 Haze 25 1001 94 3000 3.09 240 21:19 21.08.2022
2103 Haze 27 1002 83 3000 2.57 240 19:58 21.08.2022
2104 Haze 27 1002 83 3000 3.6 250 18:36 21.08.2022
2105 Haze 26 1001 89 3000 3.6 250 16:48 21.08.2022
2106 Haze 26 1001 94 3000 3.09 250 15:52 21.08.2022
2107 Haze 26 1000 94 3000 4.63 260 14:51 21.08.2022
2108 Rain 26 1000 89 3000 3.09 260 13:50 21.08.2022
2109 Haze 27 1001 89 3000 5.66 260 12:55 21.08.2022
2110 Haze 28 1001 83 3000 3.6 270 10:40 21.08.2022
2111 Haze 28 1003 89 3000 4.12 270 08:57 21.08.2022
2112 Haze 28 1003 89 3000 4.12 270 08:39 21.08.2022
2113 Haze 27 1003 94 3000 4.12 270 08:18 21.08.2022
2114 Mist 26 1004 94 1800 3.09 270 06:33 21.08.2022
2115 Mist 25 1002 94 2000 4.12 300 01:47 21.08.2022
2116 Haze 26 1002 89 4000 2.06 280 23:32 20.08.2022
2117 Haze 26 1003 89 4000 4.12 300 21:55 20.08.2022
2118 Haze 26 1003 83 4000 2.57 300 20:51 20.08.2022
2119 Haze 26 1004 78 4000 2.57 290 19:42 20.08.2022
2120 Haze 26 1004 78 4000 3.6 320 18:48 20.08.2022
2121 Haze 26 1004 83 4000 2.57 290 18:26 20.08.2022
2122 Haze 26 1003 78 4000 4.12 290 17:21 20.08.2022
2123 Haze 28 1003 83 4000 3.6 270 15:57 20.08.2022
2124 Haze 29 1003 79 4000 2.57 280 14:20 20.08.2022
2125 Rain 30 1003 74 5000 5.14 300 11:56 20.08.2022
2126 Haze 30 1003 74 5000 5.14 300 11:36 20.08.2022
2127 Haze 31 1005 74 5000 6.17 320 09:20 20.08.2022
2128 Haze 29 1006 79 5000 5.14 300 07:18 20.08.2022
2129 Rain 27 1007 89 5000 3.6 300 04:42 20.08.2022
2130 Haze 27 1004 89 4000 2.57 290 00:57 20.08.2022
2131 Haze 27 1004 89 4000 2.06 280 23:26 19.08.2022
2132 Haze 27 1005 89 4000 1.03 260 22:44 19.08.2022
2133 Haze 27 1006 89 4000 2.06 320 20:47 19.08.2022
2134 Haze 28 1007 83 4000 1.54 320 18:59 19.08.2022
2135 Haze 28 1007 83 4000 1.54 320 18:59 19.08.2022
2136 Haze 30 1005 74 5000 2.57 310 15:58 19.08.2022
2137 Haze 32 1004 66 5000 4.12 320 13:42 19.08.2022
2138 Haze 32 1005 66 5000 6.17 340 11:50 19.08.2022
2139 Haze 32 1006 66 5000 5.14 330 10:31 19.08.2022
2140 Haze 31 1007 70 5000 4.63 310 08:31 19.08.2022
2141 Haze 27 1006 83 4000 3.6 300 03:39 19.08.2022
2142 Haze 27 1004 89 3000 4.63 300 00:38 19.08.2022
2143 Haze 27 1004 89 3000 4.63 300 00:19 19.08.2022
2144 Haze 27 1005 94 3000 1.54 300 22:56 18.08.2022
2145 Haze 27 1006 94 3000 1.54 310 22:22 18.08.2022
2146 Haze 27 1006 94 3000 1.03 280 21:47 18.08.2022
2147 Haze 28 1007 89 3000 1.54 270 20:45 18.08.2022
2148 Haze 28 1007 89 4000 1.54 300 19:34 18.08.2022
2149 Haze 28 1007 89 4000 2.06 270 18:34 18.08.2022
2150 Haze 28 1006 83 4000 1.54 260 17:32 18.08.2022
2151 Haze 30 1005 74 4000 1.54 270 15:50 18.08.2022
2152 Haze 31 1004 74 5000 3.6 290 14:21 18.08.2022
2153 Haze 32 1004 70 5000 1.54 300 13:42 18.08.2022
2154 Haze 33 1005 62 5000 3.6 250 12:27 18.08.2022
2155 Haze 33 1006 66 5000 4.12 280 10:51 18.08.2022
2156 Haze 31 1006 70 5000 4.12 300 09:42 18.08.2022
2157 Haze 31 1008 70 5000 3.6 280 07:26 18.08.2022
2158 Haze 28 1008 89 5000 3.09 270 05:30 18.08.2022
2159 Haze 26 1006 94 3500 1.54 310 00:23 18.08.2022
2160 Haze 27 1007 89 3500 1.54 270 22:20 17.08.2022
2161 Haze 27 1008 94 3500 1.54 270 20:21 17.08.2022
2162 Haze 28 1008 89 3500 2.06 280 19:33 17.08.2022
2163 Haze 28 1008 89 3500 2.06 280 19:33 17.08.2022
2164 Haze 28 1008 83 4000 1.54 280 18:21 17.08.2022
2165 Haze 29 1007 79 4000 1.54 270 16:50 17.08.2022
2166 Haze 30 1006 74 5000 1.54 240 15:31 17.08.2022
2167 Haze 31 1005 74 5000 2.57 240 14:18 17.08.2022
2168 Haze 31 1006 74 5000 2.57 210 11:45 17.08.2022
2169 Haze 32 1007 70 5000 3.6 230 10:25 17.08.2022
2170 Haze 32 1007 70 5000 3.6 230 10:25 17.08.2022
2171 Haze 31 1009 74 5000 4.12 220 08:25 17.08.2022
2172 Haze 26 1009 94 4000 3.6 210 04:20 17.08.2022
2173 Haze 26 1007 94 3000 1.03 220 00:40 17.08.2022
2174 Haze 26 1008 94 3000 1.03 230 22:50 16.08.2022
2175 Haze 26 1008 94 3000 0 0 20:59 16.08.2022
2176 Haze 26 1008 94 3000 1.54 150 19:55 16.08.2022
2177 Haze 26 1008 94 3000 1.03 130 19:22 16.08.2022
2178 Haze 26 1007 94 3000 1.03 120 17:54 16.08.2022
2179 Haze 26 1007 94 3000 1.03 120 17:54 16.08.2022
2180 Haze 27 1007 89 3000 1.54 160 16:35 16.08.2022
2181 Haze 27 1006 89 3000 1.03 280 15:39 16.08.2022
2182 Haze 27 1006 94 3000 1.54 170 14:43 16.08.2022
2183 Clouds 29 1005 84 3000 2.06 230 14:25 16.08.2022
2184 Haze 29 1006 79 5000 4.12 190 11:39 16.08.2022
2185 Haze 29 1007 79 5000 4.12 210 09:58 16.08.2022
2186 Haze 28 1007 83 5000 5.14 170 08:48 16.08.2022
2187 Haze 28 1007 83 5000 6.17 190 08:19 16.08.2022
2188 Haze 25 1007 100 3000 4.12 180 05:18 16.08.2022
2189 Clouds 24 1005 94 2500 4.12 200 22:56 15.08.2022
2190 Clouds 24 1005 100 2500 3.09 200 21:56 15.08.2022
2191 Clouds 24 1005 100 2500 3.09 200 21:36 15.08.2022
2192 Clouds 24 1005 100 2500 4.12 220 20:29 15.08.2022
2193 Rain 24 1005 94 2500 4.63 230 18:46 15.08.2022
2194 Rain 24 1004 94 2500 4.12 240 17:47 15.08.2022
2195 Rain 25 1003 94 2500 3.09 230 16:22 15.08.2022
2196 Clouds 25 1002 94 3000 3.09 230 14:31 15.08.2022
2197 Rain 25 1002 100 3000 4.12 240 12:54 15.08.2022
2198 Clouds 25 1003 100 3000 4.12 240 10:23 15.08.2022
2199 Clouds 25 1003 100 3000 4.63 240 08:52 15.08.2022
2200 Rain 24 1003 100 3000 3.6 240 06:34 15.08.2022
2201 Rain 24 1001 100 2500 4.12 250 03:34 15.08.2022
2202 Clouds 25 1001 100 2000 4.12 260 23:24 14.08.2022
2203 Clouds 25 1002 94 2000 3.6 250 21:43 14.08.2022
2204 Rain 25 1003 94 2000 3.09 280 20:33 14.08.2022
2205 Rain 25 1004 94 2000 2.57 260 19:36 14.08.2022
2206 Rain 25 1003 94 2000 4.12 250 18:21 14.08.2022
2207 Rain 25 1003 94 2000 2.57 250 17:27 14.08.2022
2208 Rain 25 1003 100 2500 2.57 260 16:22 14.08.2022
2209 Rain 25 1003 100 2500 1.54 230 14:39 14.08.2022
2210 Rain 25 1003 100 2500 2.06 250 13:50 14.08.2022
2211 Rain 25 1003 94 2500 2.06 240 13:26 14.08.2022
2212 Rain 25 1003 94 2500 2.57 260 12:35 14.08.2022
2213 Rain 25 1003 94 2500 4.12 270 11:22 14.08.2022
2214 Rain 25 1005 100 2500 2.06 270 08:56 14.08.2022
2215 Rain 25 1005 100 2500 3.6 280 06:27 14.08.2022
2216 Rain 25 1004 100 3000 3.09 270 04:47 14.08.2022
2217 Rain 25 1003 94 3000 1.03 250 01:35 14.08.2022
2218 Haze 25 1004 94 3000 1.54 240 22:56 13.08.2022
2219 Haze 25 1004 100 3000 1.54 220 21:59 13.08.2022
2220 Haze 25 1004 94 3000 2.06 250 20:49 13.08.2022
2221 Haze 25 1004 94 3000 2.06 270 19:47 13.08.2022
2222 Haze 25 1005 94 3000 1.54 260 18:47 13.08.2022
2223 Clouds 25 1004 94 2500 4.12 310 16:23 13.08.2022
2224 Haze 29 1002 84 4000 1.54 280 14:41 13.08.2022
2225 Haze 29 1002 79 4000 2.06 260 13:48 13.08.2022
2226 Haze 29 1002 79 4000 2.06 270 13:25 13.08.2022
2227 Haze 30 1003 74 5000 2.57 280 11:27 13.08.2022
2228 Haze 30 1004 74 5000 4.63 270 09:23 13.08.2022
2229 Haze 28 1005 83 5000 5.14 250 06:44 13.08.2022
2230 Haze 26 1003 94 3000 1.54 250 01:36 13.08.2022
2231 Haze 26 1003 89 3000 2.06 240 23:25 12.08.2022
2232 Haze 27 1004 89 4000 6.17 250 21:35 12.08.2022
2233 Haze 27 1004 94 4000 0 0 19:47 12.08.2022
2234 Haze 27 1004 94 4000 0 0 19:22 12.08.2022
2235 Haze 27 1004 89 4000 2.06 220 17:59 12.08.2022
2236 Haze 29 1003 84 4000 1.54 240 16:25 12.08.2022
2237 Haze 30 1002 74 4000 4.12 230 14:50 12.08.2022
2238 Haze 32 1001 70 4000 5.14 240 13:30 12.08.2022
2239 Haze 31 1002 79 4000 4.12 210 11:40 12.08.2022
2240 Haze 30 1004 79 5000 3.09 250 08:50 12.08.2022
2241 Haze 29 1004 84 5000 4.12 270 07:45 12.08.2022
2242 Haze 26 1004 94 3000 2.06 240 04:55 12.08.2022
2243 Haze 26 1001 94 3000 2.06 200 00:31 12.08.2022
2244 Haze 26 1001 94 3000 2.06 200 23:52 11.08.2022
2245 Haze 26 1001 94 3000 1.54 200 22:42 11.08.2022
2246 Clouds 26 1002 94 3000 2.06 190 21:52 11.08.2022
2247 Clouds 26 1002 94 3000 1.54 190 21:23 11.08.2022
2248 Haze 26 1002 94 3000 1.54 180 20:30 11.08.2022
2249 Haze 26 1003 100 3000 1.54 170 19:33 11.08.2022
2250 Clouds 26 1002 94 2500 0 0 18:41 11.08.2022
2251 Haze 26 1002 94 3000 1.03 260 16:46 11.08.2022
2252 Clouds 26 1000 94 3000 2.06 200 15:42 11.08.2022
2253 Clouds 26 1000 94 3000 2.06 200 15:42 11.08.2022
2254 Clouds 27 1000 94 3000 2.57 180 14:20 11.08.2022
2255 Haze 27 1000 89 4000 2.57 210 11:51 11.08.2022
2256 Haze 27 1001 89 4000 2.06 220 08:34 11.08.2022
2257 Haze 26 1000 94 4000 4.12 240 05:44 11.08.2022
2258 Mist 24 998 100 2500 3.09 210 02:26 11.08.2022
2259 Mist 25 998 94 2500 3.09 220 22:55 10.08.2022
2260 Clouds 25 998 100 2500 3.6 230 21:45 10.08.2022
2261 Clouds 25 998 100 2500 3.6 210 20:56 10.08.2022
2262 Clouds 25 999 100 2500 3.09 220 19:58 10.08.2022
2263 Clouds 25 998 100 2500 2.57 220 18:45 10.08.2022
2264 Clouds 25 998 100 3000 2.57 210 17:20 10.08.2022
2265 Rain 25 995 100 3000 5.14 250 13:49 10.08.2022
2266 Rain 25 995 100 3000 5.14 250 12:50 10.08.2022
2267 Haze 26 996 94 3000 3.6 240 10:21 10.08.2022
2268 Haze 25 996 100 3000 4.12 250 08:37 10.08.2022
2269 Clouds 25 997 100 3000 3.09 240 07:21 10.08.2022
2270 Rain 25 996 94 2000 4.63 240 04:49 10.08.2022
2271 Rain 25 995 94 2000 3.09 260 00:49 10.08.2022
2272 Rain 25 995 94 2000 3.09 260 23:25 09.08.2022
2273 Rain 26 997 94 2000 2.06 210 21:37 09.08.2022
2274 Clouds 26 997 94 2500 2.06 210 20:42 09.08.2022
2275 Rain 26 997 94 2500 1.54 240 18:56 09.08.2022
2276 Thunderstorm 26 997 100 2500 3.6 270 17:31 09.08.2022
2277 Thunderstorm 26 997 100 2500 3.6 260 16:43 09.08.2022
2278 Rain 26 997 94 3000 2.06 240 15:59 09.08.2022
2279 Haze 28 996 89 4000 3.09 250 14:30 09.08.2022
2280 Haze 27 996 100 4000 4.12 250 10:45 09.08.2022
2281 Rain 25 998 94 2000 4.12 260 08:51 09.08.2022
2282 Haze 26 998 94 3000 2.57 310 07:54 09.08.2022
2283 Thunderstorm 25 999 100 1500 2.57 280 04:43 09.08.2022
2284 Mist 26 997 100 2500 2.06 250 23:58 08.08.2022
2285 Clouds 26 998 100 2500 1.54 270 22:58 08.08.2022
2286 Clouds 26 998 100 2500 1.54 270 22:38 08.08.2022
2287 Clouds 27 998 94 2500 0 0 21:40 08.08.2022
2288 Clouds 27 999 94 2500 0 0 19:58 08.08.2022
2289 Mist 27 999 94 3000 0 0 19:31 08.08.2022
2290 Mist 26 998 94 3000 1.54 290 17:47 08.08.2022
2291 Clouds 26 997 94 1000 2.57 190 15:47 08.08.2022
2292 Haze 28 996 89 3000 3.09 240 14:45 08.08.2022
2293 Haze 31 996 74 4000 1.54 40 12:29 08.08.2022
2294 Haze 30 997 89 4000 1.03 50 10:25 08.08.2022
2295 Haze 27 998 100 4000 1.03 30 07:49 08.08.2022
2296 Mist 25 998 94 2500 3.09 310 03:39 08.08.2022
2297 Thunderstorm 25 997 94 2500 3.09 290 22:52 07.08.2022
2298 Thunderstorm 25 998 94 2500 2.06 260 21:41 07.08.2022
2299 Thunderstorm 24 1000 100 2500 2.06 210 20:54 07.08.2022
2300 Rain 24 1001 100 1500 3.6 280 20:18 07.08.2022
2301 Thunderstorm 25 1001 94 2000 3.6 250 19:50 07.08.2022
2302 Thunderstorm 26 1001 94 2500 2.06 250 18:40 07.08.2022
2303 Mist 27 1000 94 2500 1.03 330 17:18 07.08.2022
2304 Mist 27 999 89 2500 1.54 220 16:38 07.08.2022
2305 Rain 27 998 94 3000 1.03 240 15:24 07.08.2022
2306 Thunderstorm 26 998 94 2500 2.06 80 13:44 07.08.2022
2307 Clouds 29 998 74 2500 5.14 10 12:18 07.08.2022
2308 Haze 33 998 70 5000 2.06 300 10:35 07.08.2022
2309 Haze 30 1001 84 5000 1.03 300 08:26 07.08.2022
2310 Haze 25 1001 94 3000 1.03 120 04:26 07.08.2022
2311 Mist 25 999 100 1800 1.54 330 01:50 07.08.2022
2312 Rain 26 1002 94 2000 0 0 22:28 06.08.2022
2313 Rain 26 1003 94 2000 1.03 150 21:28 06.08.2022
2314 Thunderstorm 26 1002 94 2500 1.54 200 19:42 06.08.2022
2315 Thunderstorm 26 1002 94 3000 3.09 150 18:33 06.08.2022
2316 Rain 26 1001 94 3000 2.57 220 17:39 06.08.2022
2317 Clouds 25 1001 94 3000 4.63 160 15:21 06.08.2022
2318 Thunderstorm 30 998 79 3000 3.6 150 13:50 06.08.2022
2319 Haze 34 998 62 5000 2.06 320 12:19 06.08.2022
2320 Haze 32 1000 70 5000 1.03 230 10:37 06.08.2022
2321 Haze 32 1002 74 5000 1.54 230 09:21 06.08.2022
2322 Haze 26 1003 94 4000 0 0 03:55 06.08.2022
2323 Clouds 25 1002 100 2500 2.06 300 23:56 05.08.2022
2324 Clouds 26 1003 94 2500 3.09 290 22:33 05.08.2022
2325 Thunderstorm 28 1003 89 2500 2.57 220 20:20 05.08.2022
2326 Haze 29 1003 84 3000 1.03 190 18:47 05.08.2022
2327 Haze 29 1003 84 3000 1.54 140 18:27 05.08.2022
2328 Thunderstorm 30 1002 79 2500 2.57 110 16:50 05.08.2022
2329 Haze 31 1000 74 2500 1.03 120 15:23 05.08.2022
2330 Clouds 31 1000 79 2500 0 0 14:33 05.08.2022
2331 Haze 32 999 74 3000 0 0 13:25 05.08.2022
2332 Haze 32 999 74 3000 0 0 12:44 05.08.2022
2333 Haze 33 1001 70 4000 2.06 140 10:55 05.08.2022
2334 Haze 30 1004 79 4000 2.06 90 08:36 05.08.2022
2335 Haze 29 1004 89 4000 1.03 80 07:28 05.08.2022
2336 Mist 26 1003 94 2000 1.03 190 01:46 05.08.2022
2337 Mist 26 1003 94 2000 0 0 22:33 04.08.2022
2338 Mist 26 1004 94 2000 0 0 21:27 04.08.2022
2339 Mist 26 1005 94 2000 1.54 310 20:45 04.08.2022
2340 Mist 26 1005 94 2000 1.03 260 19:49 04.08.2022
2341 Mist 27 1005 94 2000 0 0 18:51 04.08.2022
2342 Mist 27 1004 94 2000 0 0 18:32 04.08.2022
2343 Clouds 25 1002 94 2500 2.57 40 14:39 04.08.2022
2344 Thunderstorm 29 1002 89 2000 2.57 310 13:22 04.08.2022
2345 Rain 32 1000 62 10000 1.93 72 11:37 04.08.2022
2346 Mist 30 1005 84 2000 1.54 160 07:56 04.08.2022
2347 Rain 30 1005 89 2000 1.03 200 07:26 04.08.2022
2348 Haze 27 1004 89 2500 0 0 02:38 04.08.2022
2349 Haze 27 1004 94 2500 0 0 23:49 03.08.2022
2350 Haze 27 1004 94 2500 0 0 23:27 03.08.2022
2351 Haze 27 1005 94 2500 0 0 21:26 03.08.2022
2352 Haze 28 1006 89 2500 0 0 19:56 03.08.2022
2353 Haze 28 1006 89 2500 0 0 18:40 03.08.2022
2354 Haze 28 1004 89 2500 1.03 220 16:27 03.08.2022
2355 Haze 29 1003 84 2500 1.54 310 15:47 03.08.2022
2356 Haze 29 1002 84 2500 2.57 260 13:24 03.08.2022
2357 Haze 34 1004 66 4000 1.54 110 09:51 03.08.2022
2358 Haze 32 1005 74 5000 1.54 60 06:29 03.08.2022
2359 Haze 28 1004 89 3000 2.06 330 04:21 03.08.2022
2360 Haze 27 1004 94 3000 2.06 330 02:25 03.08.2022
2361 Haze 28 1003 89 3000 2.06 310 23:54 02.08.2022
2362 Haze 28 1005 89 3000 1.03 70 21:59 02.08.2022
2363 Haze 28 1005 89 3000 1.03 90 21:40 02.08.2022
2364 Haze 29 1005 79 3000 0 0 20:20 02.08.2022
2365 Haze 30 1004 79 4000 1.54 280 16:51 02.08.2022
2366 Rain 32 1002 66 5000 1.03 210 13:54 02.08.2022
2367 Haze 33 1004 62 5000 2.06 240 10:34 02.08.2022
2368 Haze 32 1006 66 5000 3.09 310 08:36 02.08.2022
2369 Haze 31 1006 70 5000 3.09 310 07:51 02.08.2022
2370 Haze 28 1006 89 3000 2.06 320 04:56 02.08.2022
2371 Haze 26 1005 94 3000 0 0 02:30 02.08.2022
2372 Haze 27 1005 89 3000 1.54 290 23:25 01.08.2022
2373 Haze 27 1005 89 3000 2.06 320 21:42 01.08.2022
2374 Haze 28 1006 83 3500 2.57 320 20:19 01.08.2022
2375 Haze 29 1005 84 3500 1.54 320 18:55 01.08.2022
2376 Rain 30 1005 79 3500 1.54 260 16:58 01.08.2022
2377 Haze 30 1005 79 3500 1.54 260 16:39 01.08.2022
2378 Haze 31 1004 74 4000 0 0 15:44 01.08.2022
2379 Haze 32 1003 66 4000 1.54 310 14:45 01.08.2022
2380 Haze 33 1003 62 5000 2.57 300 13:32 01.08.2022
2381 Haze 33 1004 58 5000 3.09 300 11:18 01.08.2022
2382 Haze 32 1007 66 5000 2.57 270 08:55 01.08.2022
2383 Haze 32 1007 66 5000 4.63 330 07:23 01.08.2022
2384 Haze 28 1007 89 3000 4.04 319 04:32 01.08.2022
2385 Clouds 26 1003 84 10000 2.29 314 01:23 01.08.2022
2386 Haze 28 1005 89 3000 1.54 320 22:44 31.07.2022
2387 Haze 28 1006 89 3000 1.54 300 22:25 31.07.2022
2388 Haze 29 1006 89 3000 1.03 270 20:28 31.07.2022
2389 Haze 29 1006 79 3000 0 0 18:40 31.07.2022
2390 Haze 31 1004 70 4000 1.54 300 16:55 31.07.2022
2391 Haze 33 1003 58 5000 2.06 300 14:37 31.07.2022
2392 Haze 34 1003 59 5000 2.57 290 12:58 31.07.2022
2393 Haze 33 1004 66 5000 3.6 270 11:38 31.07.2022
2394 Haze 32 1007 70 5000 3.09 290 08:46 31.07.2022
2395 Haze 28 1007 89 4000 3.09 300 05:20 31.07.2022
2396 Haze 25 1005 100 3000 1.54 290 01:21 31.07.2022
2397 Haze 26 1006 94 3000 1.03 300 22:46 30.07.2022
2398 Haze 26 1006 94 3000 1.03 280 21:50 30.07.2022
2399 Haze 26 1007 94 3000 1.03 240 21:32 30.07.2022
2400 Haze 26 1007 94 3000 1.03 270 20:28 30.07.2022
2401 Haze 26 1007 94 3000 1.03 270 19:42 30.07.2022
2402 Haze 27 1007 89 3000 2.06 220 17:53 30.07.2022
2403 Haze 28 1006 89 3000 1.54 210 16:38 30.07.2022
2404 Haze 29 1005 89 3000 1.54 300 15:30 30.07.2022
2405 Haze 29 1005 89 3000 1.54 180 13:23 30.07.2022
2406 Haze 29 1006 89 3000 1.03 120 12:22 30.07.2022
2407 Haze 27 1007 89 3000 1.03 60 10:45 30.07.2022
2408 Clouds 26 1008 89 3000 1.54 360 09:59 30.07.2022
2409 Clouds 27 1009 78 1000 6.17 300 08:54 30.07.2022
2410 Haze 29 1010 94 4000 1.54 150 06:55 30.07.2022
2411 Mist 25 1008 94 1800 1.03 130 02:33 30.07.2022
2412 Rain 26 1008 94 3000 1.03 120 23:30 29.07.2022
2413 Mist 26 1009 94 3000 1.54 230 21:37 29.07.2022
2414 Mist 26 1009 94 3000 1.54 240 20:50 29.07.2022
2415 Mist 26 1010 100 3000 1.54 220 19:45 29.07.2022
2416 Mist 27 1008 94 2500 1.03 120 16:59 29.07.2022
2417 Rain 27 1007 94 2500 0 0 14:38 29.07.2022
2418 Clouds 27 1007 94 2500 1.03 30 12:41 29.07.2022
2419 Haze 32 1010 70 3000 2.57 280 08:52 29.07.2022
2420 Haze 31 1010 74 3000 1.54 240 08:23 29.07.2022
2421 Mist 28 1011 94 2500 0 0 05:19 29.07.2022
2422 Haze 26 1009 94 3000 1.54 300 23:59 28.07.2022
2423 Haze 27 1010 89 3000 1.03 160 21:39 28.07.2022
2424 Haze 27 1010 89 3000 1.03 40 20:52 28.07.2022
2425 Haze 27 1010 94 3000 1.03 330 20:18 28.07.2022
2426 Haze 27 1011 94 3000 1.03 110 19:40 28.07.2022
2427 Haze 28 1010 83 3000 1.03 110 17:46 28.07.2022
2428 Haze 28 1010 83 3000 1.03 40 17:23 28.07.2022
2429 Haze 28 1009 83 3000 1.03 40 16:41 28.07.2022
2430 Haze 32 1007 74 4000 2.57 190 13:57 28.07.2022
2431 Haze 31 1008 79 4000 2.57 180 12:40 28.07.2022
2432 Haze 31 1011 79 5000 2.57 330 08:49 28.07.2022
2433 Haze 28 1011 94 4000 1.03 320 05:41 28.07.2022
2434 Haze 28 1011 94 3000 3.09 330 05:20 28.07.2022
2435 Mist 25 1009 94 2000 0 0 23:20 27.07.2022
2436 Haze 26 1010 94 3000 0 0 21:31 27.07.2022
2437 Haze 26 1010 94 3000 0 0 21:31 27.07.2022
2438 Haze 26 1010 94 3000 0 0 19:53 27.07.2022
2439 Haze 26 1010 94 3000 0 0 19:20 27.07.2022
2440 Haze 27 1008 94 3000 0 0 16:31 27.07.2022
2441 Haze 27 1008 94 3000 1.54 320 15:51 27.07.2022
2442 Haze 28 1007 89 3000 1.54 310 14:41 27.07.2022
2443 Haze 28 1007 89 3000 1.54 270 13:34 27.07.2022
2444 Haze 30 1009 84 3000 1.03 20 09:29 27.07.2022
2445 Haze 27 1010 100 3000 1.54 300 07:47 27.07.2022
2446 Clouds 25 1010 100 2000 1.54 220 04:53 27.07.2022
2447 Haze 25 1007 94 3000 2.06 320 23:21 26.07.2022
2448 Mist 25 1008 100 3000 1.54 280 21:49 26.07.2022
2449 Rain 25 1009 94 3000 1.03 240 20:49 26.07.2022
2450 Clouds 25 1010 100 2500 1.54 210 19:22 26.07.2022
2451 Clouds 25 1010 100 2000 1.03 200 18:40 26.07.2022
2452 Clouds 25 1009 94 2000 0 0 17:47 26.07.2022
2453 Clouds 25 1008 94 2000 2.06 180 15:43 26.07.2022
2454 Thunderstorm 26 1007 94 2500 3.09 180 14:38 26.07.2022
2455 Haze 29 1007 79 4000 3.6 300 12:25 26.07.2022
2456 Haze 27 1009 94 4000 3.09 310 09:59 26.07.2022
2457 Haze 27 1010 94 4000 3.09 320 08:23 26.07.2022
2458 Mist 25 1008 94 2000 1.03 210 01:52 26.07.2022
2459 Rain 25 1008 94 2000 1.54 220 00:19 26.07.2022
2460 Rain 25 1006 90 10000 2.07 189 22:40 25.07.2022
2461 Haze 26 1009 94 3000 1.03 260 21:43 25.07.2022
2462 Haze 26 1009 94 3000 1.03 260 20:43 25.07.2022
2463 Haze 26 1009 94 3000 2.06 300 19:55 25.07.2022
2464 Haze 26 1009 94 3000 2.06 280 19:24 25.07.2022
2465 Haze 26 1008 94 3000 1.54 280 17:35 25.07.2022
2466 Haze 26 1007 94 3000 1.54 220 16:40 25.07.2022
2467 Haze 29 1005 84 4000 3.09 240 12:58 25.07.2022
2468 Haze 29 1006 79 3000 2.06 260 10:47 25.07.2022
2469 Haze 27 1008 94 3000 4.12 270 07:29 25.07.2022
2470 Haze 25 1005 94 3000 2.06 250 23:57 24.07.2022
2471 Haze 25 1005 94 3000 2.06 250 23:22 24.07.2022
2472 Haze 25 1005 100 3000 2.06 250 22:41 24.07.2022
2473 Haze 25 1006 100 3000 1.03 210 21:30 24.07.2022
2474 Haze 26 1006 94 3000 1.54 210 20:57 24.07.2022
2475 Haze 26 1006 94 3000 1.03 210 20:32 24.07.2022
2476 Haze 26 1006 94 3000 1.03 260 18:59 24.07.2022
2477 Haze 26 1005 94 3000 1.54 230 16:53 24.07.2022
2478 Mist 26 1004 94 2500 2.06 230 15:53 24.07.2022
2479 Mist 26 1003 100 2500 2.57 230 14:40 24.07.2022
2480 Clouds 27 1003 94 2500 2.06 240 13:43 24.07.2022
2481 Clouds 26 1003 94 2000 2.57 240 12:19 24.07.2022
2482 Clouds 26 1004 94 2000 2.57 220 11:28 24.07.2022
2483 Clouds 25 1005 100 2000 2.57 240 09:33 24.07.2022
2484 Clouds 25 1005 100 1200 3.6 250 07:53 24.07.2022
2485 Rain 25 1005 100 2000 2.57 240 06:38 24.07.2022
2486 Mist 25 1003 94 3000 1.03 220 02:33 24.07.2022
2487 Mist 25 1003 94 3000 1.54 220 22:37 23.07.2022
2488 Clouds 25 1004 100 3000 1.54 240 20:47 23.07.2022
2489 Rain 25 1004 100 3000 2.06 250 18:55 23.07.2022
2490 Clouds 25 1004 94 3000 1.54 270 17:48 23.07.2022
2491 Rain 25 1004 94 3000 2.06 260 17:24 23.07.2022
2492 Clouds 25 1003 94 2500 2.57 240 15:51 23.07.2022
2493 Clouds 25 1003 94 2500 2.57 250 15:21 23.07.2022
2494 Clouds 25 1002 94 2500 2.57 250 14:47 23.07.2022
2495 Rain 26 1002 94 2500 2.57 220 13:53 23.07.2022
2496 Haze 27 1002 94 2500 5.14 270 11:46 23.07.2022
2497 Rain 26 1003 100 2500 2.57 270 10:28 23.07.2022
2498 Clouds 26 1004 100 2500 3.6 250 09:26 23.07.2022
2499 Clouds 26 1004 94 2000 1.03 230 05:58 23.07.2022
2500 Mist 25 1003 100 2500 1.54 270 02:54 23.07.2022
2501 Rain 26 1003 94 3000 1.54 260 23:57 22.07.2022
2502 Rain 26 1004 94 3000 1.03 240 21:18 22.07.2022
2503 Rain 26 1006 94 3000 1.54 300 19:55 22.07.2022
2504 Rain 25 1004 90 10000 4.38 294 18:36 22.07.2022
2505 Haze 27 1005 89 3000 2.57 280 17:37 22.07.2022
2506 Haze 29 1004 79 4000 5.14 300 15:26 22.07.2022
2507 Haze 30 1003 74 4000 4.63 300 12:23 22.07.2022
2508 Haze 30 1005 79 4000 4.63 310 09:45 22.07.2022
2509 Haze 30 1006 79 4000 4.12 280 09:19 22.07.2022
2510 Haze 29 1007 84 4000 3.09 310 07:23 22.07.2022
2511 Mist 26 1006 94 3000 2.57 280 04:18 22.07.2022
2512 Haze 26 1005 94 3000 1.54 250 22:56 21.07.2022
2513 Haze 26 1006 94 3000 1.54 260 21:35 21.07.2022
2514 Haze 27 1007 94 4000 1.54 300 19:31 21.07.2022
2515 Haze 27 1007 89 4000 2.57 300 18:29 21.07.2022
2516 Rain 27 1006 89 4000 2.06 250 17:20 21.07.2022
2517 Haze 29 1005 79 4000 3.09 290 15:39 21.07.2022
2518 Haze 29 1005 79 4000 3.6 290 14:44 21.07.2022
2519 Haze 29 1004 79 4000 5.14 300 12:54 21.07.2022
2520 Haze 29 1005 79 4000 5.66 290 11:23 21.07.2022
2521 Haze 29 1006 79 4000 4.12 280 09:42 21.07.2022
2522 Haze 29 1006 84 4000 4.12 300 08:52 21.07.2022
2523 Haze 29 1006 84 4000 3.6 270 07:50 21.07.2022
2524 Haze 27 1006 94 4000 3.6 240 06:25 21.07.2022
2525 Haze 25 1004 100 3000 1.03 220 01:54 21.07.2022
2526 Haze 26 1005 94 3000 1.54 220 22:22 20.07.2022
2527 Haze 26 1005 94 3000 1.54 220 21:42 20.07.2022
2528 Haze 26 1006 94 3000 1.03 200 20:39 20.07.2022
2529 Haze 26 1006 94 3000 1.03 180 19:43 20.07.2022
2530 Haze 26 1006 94 3000 1.54 230 18:52 20.07.2022
2531 Haze 26 1006 94 3000 1.03 200 18:29 20.07.2022
2532 Haze 27 1005 89 3000 1.54 230 16:46 20.07.2022
2533 Haze 27 1004 89 3000 2.06 250 15:32 20.07.2022
2534 Clouds 26 1003 84 10000 2.53 287 14:32 20.07.2022
2535 Haze 28 1004 89 3500 3.09 270 12:34 20.07.2022
2536 Haze 27 1006 94 3500 2.57 270 10:24 20.07.2022
2537 Mist 25 1006 94 3000 2.57 220 04:50 20.07.2022
2538 Mist 25 1004 94 3000 1.54 200 00:54 20.07.2022
2539 Mist 25 1004 94 3000 1.54 200 00:25 20.07.2022
2540 Mist 25 1005 94 3000 1.54 230 22:34 19.07.2022
2541 Mist 25 1005 94 3000 1.54 220 21:53 19.07.2022
2542 Mist 25 1006 94 3000 1.54 220 20:48 19.07.2022
2543 Mist 25 1006 94 3000 2.06 220 19:22 19.07.2022
2544 Mist 25 1006 94 3000 1.54 230 18:35 19.07.2022
2545 Mist 25 1005 94 3000 1.54 250 17:51 19.07.2022
2546 Mist 25 1004 94 3000 1.54 250 15:21 19.07.2022
2547 Haze 25 1004 94 3000 3.6 240 12:27 19.07.2022
2548 Haze 24 1005 100 3000 3.09 240 11:32 19.07.2022
2549 Clouds 24 1006 94 2500 4.12 240 09:51 19.07.2022
2550 Clouds 24 1006 94 2500 4.12 250 08:42 19.07.2022
2551 Clouds 24 1006 100 2500 4.12 240 07:19 19.07.2022
2552 Clouds 24 1006 94 2500 2.57 230 05:50 19.07.2022
2553 Clouds 24 1005 94 2500 2.57 230 05:18 19.07.2022
2554 Drizzle 23 1003 100 2000 3.09 210 02:33 19.07.2022
2555 Haze 24 1003 94 3000 2.57 220 23:50 18.07.2022
2556 Haze 24 1003 94 3000 2.57 230 23:19 18.07.2022
2557 Haze 24 1003 94 3000 3.09 250 22:23 18.07.2022
2558 Haze 24 1004 94 3000 3.09 230 20:57 18.07.2022
2559 Haze 25 1004 94 3000 3.6 240 19:52 18.07.2022
2560 Haze 25 1003 94 3000 4.12 250 17:53 18.07.2022
2561 Clouds 24 1002 94 2000 3.6 240 16:28 18.07.2022
2562 Clouds 24 1001 100 2000 3.6 250 15:19 18.07.2022
2563 Haze 25 1000 94 3000 5.14 250 13:26 18.07.2022
2564 Clouds 25 1001 94 2500 4.12 270 11:31 18.07.2022
2565 Clouds 25 1001 94 1800 3.09 240 09:53 18.07.2022
2566 Mist 26 1001 94 4000 2.06 240 07:48 18.07.2022
2567 Clouds 26 1000 94 1500 1.03 350 02:51 18.07.2022
2568 Clouds 25 1000 100 1800 2.06 300 22:55 17.07.2022
2569 Clouds 25 1000 94 1500 2.06 300 22:28 17.07.2022
2570 Clouds 25 1001 94 1800 5.14 300 21:26 17.07.2022
2571 Clouds 25 1001 100 1500 5.14 310 20:44 17.07.2022
2572 Clouds 26 1002 94 1800 5.14 300 19:49 17.07.2022
2573 Mist 26 1002 94 2000 3.6 310 19:20 17.07.2022
2574 Thunderstorm 26 1002 94 1500 4.63 300 17:39 17.07.2022
2575 Rain 26 1001 94 1800 4.63 310 16:53 17.07.2022
2576 Rain 27 1001 94 500 3.6 300 16:27 17.07.2022
2577 Clouds 27 1001 94 2000 2.57 270 15:34 17.07.2022
2578 Rain 27 1001 94 2500 3.09 270 13:47 17.07.2022
2579 Clouds 26 1001 100 2000 5.14 290 12:40 17.07.2022
2580 Rain 27 1002 94 3000 4.12 320 10:18 17.07.2022
2581 Rain 27 1004 94 3000 2.06 290 06:58 17.07.2022
2582 Haze 27 1002 94 3000 1.54 250 02:34 17.07.2022
2583 Haze 28 1002 94 3000 1.03 250 23:23 16.07.2022
2584 Haze 28 1003 94 3000 1.03 260 21:59 16.07.2022
2585 Haze 28 1004 94 3000 1.03 20 20:28 16.07.2022
2586 Clouds 29 1004 89 3000 1.03 220 18:43 16.07.2022
2587 Clouds 29 1003 89 3500 1.03 40 17:25 16.07.2022
2588 Thunderstorm 30 1001 79 4000 1.54 180 15:50 16.07.2022
2589 Haze 31 1001 74 4000 1.03 350 11:55 16.07.2022
2590 Haze 30 1002 79 4000 2.06 260 09:41 16.07.2022
2591 Haze 30 1003 79 4000 2.57 250 09:22 16.07.2022
2592 Haze 29 1003 89 4000 2.57 280 08:35 16.07.2022
2593 Mist 27 1003 94 3000 2.57 240 06:57 16.07.2022
2594 Mist 25 1002 94 3000 1.03 210 03:32 16.07.2022
2595 Mist 25 1001 100 2500 1.54 230 23:54 15.07.2022
2596 Mist 25 1001 100 2500 1.54 220 22:46 15.07.2022
2597 Mist 26 1002 94 2500 0 0 21:52 15.07.2022
2598 Mist 26 1002 94 2000 1.54 240 20:35 15.07.2022
2599 Thunderstorm 25 1002 100 3000 0 0 18:46 15.07.2022
2600 Clouds 26 1002 94 2000 2.06 290 17:51 15.07.2022
2601 Haze 27 1000 94 4000 2.06 160 16:23 15.07.2022
2602 Haze 28 999 89 3000 2.57 290 13:48 15.07.2022
2603 Haze 30 999 84 4000 3.6 260 12:22 15.07.2022
2604 Haze 28 1000 94 4000 3.09 260 10:51 15.07.2022
2605 Clouds 26 1000 94 3000 1.54 210 07:47 15.07.2022
2606 Rain 25 998 100 2000 2.06 290 02:47 15.07.2022
2607 Mist 25 997 100 2500 1.54 280 00:39 15.07.2022
2608 Clouds 25 998 100 2500 1.03 290 22:54 14.07.2022
2609 Haze 25 998 94 2500 1.54 300 21:57 14.07.2022
2610 Haze 25 998 94 2500 1.03 270 21:32 14.07.2022
2611 Rain 25 998 100 2500 1.03 250 20:46 14.07.2022
2612 Rain 25 998 100 2500 1.03 260 20:28 14.07.2022
2613 Rain 25 998 100 2500 2.06 200 19:58 14.07.2022
2614 Rain 26 997 94 2500 1.54 270 16:23 14.07.2022
2615 Rain 26 996 94 2500 2.06 270 15:54 14.07.2022
2616 Rain 26 996 94 2500 2.06 270 14:44 14.07.2022
2617 Thunderstorm 26 996 94 2000 2.06 210 13:33 14.07.2022
2618 Clouds 25 997 100 1500 3.09 200 12:19 14.07.2022
2619 Thunderstorm 26 997 94 1000 1.03 270 11:25 14.07.2022
2620 Rain 26 997 94 3000 3.09 200 10:39 14.07.2022
2621 Drizzle 28 997 89 4000 3.09 310 08:22 14.07.2022
2622 Mist 26 997 94 3000 3.09 310 03:36 14.07.2022
2623 Mist 26 996 94 3000 2.57 310 00:55 14.07.2022
2624 Mist 25 996 100 3000 2.06 300 23:41 13.07.2022
2625 Mist 26 996 94 3000 3.09 320 22:27 13.07.2022
2626 Mist 26 997 94 3000 3.6 310 21:32 13.07.2022
2627 Mist 26 997 94 3000 3.6 320 20:38 13.07.2022
2628 Mist 26 997 94 3000 3.6 310 17:59 13.07.2022
2629 Mist 27 996 94 3000 3.6 310 17:20 13.07.2022
2630 Mist 26 996 100 3000 3.09 310 15:59 13.07.2022
2631 Mist 27 995 94 3000 4.12 290 13:45 13.07.2022
2632 Rain 27 996 94 3000 2.57 280 11:24 13.07.2022
2633 Rain 27 996 100 3000 3.09 300 10:40 13.07.2022
2634 Rain 27 997 100 3000 4.12 300 09:28 13.07.2022
2635 Haze 26 998 100 4000 1.03 320 08:21 13.07.2022
2636 Thunderstorm 25 998 94 2500 4.12 310 04:36 13.07.2022
2637 Thunderstorm 26 997 94 2500 2.57 320 00:25 13.07.2022
2638 Thunderstorm 26 997 94 2500 4.12 310 22:28 12.07.2022
2639 Rain 26 998 94 2500 3.6 310 21:45 12.07.2022
2640 Rain 26 999 94 2500 5.14 310 20:44 12.07.2022
2641 Thunderstorm 26 1000 94 2000 1.54 180 19:45 12.07.2022
2642 Thunderstorm 26 999 94 3000 4.63 310 18:25 12.07.2022
2643 Rain 26 998 94 3000 5.66 300 16:20 12.07.2022
2644 Rain 28 998 94 2500 4.12 300 14:31 12.07.2022
2645 Haze 29 997 89 3000 5.14 280 13:34 12.07.2022
2646 Haze 27 998 94 3000 3.6 270 11:48 12.07.2022
2647 Clouds 27 999 89 3000 3.6 320 10:25 12.07.2022
2648 Haze 29 1001 89 4000 4.63 310 08:40 12.07.2022
2649 Haze 29 1001 89 4000 5.66 320 07:47 12.07.2022
2650 Mist 28 1001 89 3000 4.12 310 05:45 12.07.2022
2651 Mist 26 1001 94 3000 4.12 300 04:46 12.07.2022
2652 Mist 26 1000 94 3000 3.6 320 00:20 12.07.2022
2653 Rain 26 1000 94 3000 2.57 290 22:39 11.07.2022
2654 Mist 26 1002 94 3000 1.54 280 20:56 11.07.2022
2655 Mist 25 1002 100 3000 1.54 260 20:32 11.07.2022
2656 Mist 25 1002 100 3000 1.54 280 18:50 11.07.2022
2657 Mist 25 1002 100 3000 2.57 300 18:28 11.07.2022
2658 Mist 26 1001 94 3000 2.57 270 16:26 11.07.2022
2659 Mist 26 1000 94 3000 2.06 250 15:23 11.07.2022
2660 Thunderstorm 25 1000 100 4812 7.72 300 12:42 11.07.2022
2661 Thunderstorm 28 1000 83 3000 1.54 230 11:23 11.07.2022
2662 Haze 30 1001 79 5000 3.6 280 09:55 11.07.2022
2663 Haze 28 1001 83 5000 2.57 300 09:25 11.07.2022
2664 Haze 28 1002 83 5000 6.17 310 08:30 11.07.2022
2665 Haze 25 1000 94 2500 2.57 290 00:56 11.07.2022
2666 Haze 25 1000 94 2500 4.12 290 23:54 10.07.2022
2667 Haze 25 1001 94 2500 2.57 290 22:45 10.07.2022
2668 Clouds 25 1001 94 2500 4.12 290 20:55 10.07.2022
2669 Clouds 25 1001 94 2500 4.12 290 20:34 10.07.2022
2670 Clouds 25 1002 100 2000 3.6 280 19:29 10.07.2022
2671 Clouds 25 1002 100 900 5.14 270 18:23 10.07.2022
2672 Clouds 25 1001 100 2000 5.14 170 17:20 10.07.2022
2673 Thunderstorm 25 1000 100 2000 2.57 200 16:21 10.07.2022
2674 Clouds 25 1000 94 2000 2.57 290 14:44 10.07.2022
2675 Thunderstorm 26 999 94 2000 2.57 310 13:29 10.07.2022
2676 Thunderstorm 27 998 94 2000 0 0 11:39 10.07.2022
2677 Thunderstorm 32 999 70 5000 4.63 320 09:45 10.07.2022
2678 Haze 31 1000 74 5000 3.6 320 08:43 10.07.2022
2679 Haze 29 1001 89 5000 2.57 340 06:39 10.07.2022
2680 Mist 25 999 100 3000 2.06 290 23:50 09.07.2022
2681 Mist 25 999 100 3000 3.09 310 22:26 09.07.2022
2682 Mist 25 999 100 3000 3.09 310 22:26 09.07.2022
2683 Thunderstorm 25 1000 94 3000 4.12 320 21:41 09.07.2022
2684 Thunderstorm 26 1001 94 2500 2.57 330 19:44 09.07.2022
2685 Mist 26 1000 94 2500 1.54 300 18:28 09.07.2022
2686 Rain 26 999 94 3000 3.09 300 17:32 09.07.2022
2687 Clouds 25 999 100 3000 2.57 310 16:34 09.07.2022
2688 Rain 26 999 94 3000 1.03 230 15:39 09.07.2022
2689 Rain 26 999 94 3000 2.57 280 14:23 09.07.2022
2690 Clouds 26 998 94 3000 2.57 220 13:48 09.07.2022
2691 Clouds 26 998 94 3000 0 0 11:54 09.07.2022
2692 Haze 29 999 94 4000 3.09 340 10:27 09.07.2022
2693 Clouds 28 999 94 4000 2.57 330 09:56 09.07.2022
2694 Haze 31 1001 74 5000 6.17 330 07:44 09.07.2022
2695 Haze 28 1000 89 5000 4.12 320 04:45 09.07.2022
2696 Haze 26 999 94 3000 2.06 300 23:43 08.07.2022
2697 Haze 27 1000 94 3000 1.03 260 22:34 08.07.2022
2698 Haze 27 1001 94 3000 2.06 300 21:27 08.07.2022
2699 Haze 27 1001 94 3000 1.03 300 20:38 08.07.2022
2700 Haze 27 1001 94 3000 2.06 280 19:38 08.07.2022
2701 Haze 27 1002 94 3000 1.54 280 17:50 08.07.2022
2702 Haze 28 1001 94 3000 1.54 240 16:33 08.07.2022
2703 Thunderstorm 28 1000 94 3000 2.06 320 14:50 08.07.2022
2704 Thunderstorm 28 1000 94 3000 1.54 330 12:42 08.07.2022
2705 Clouds 28 1002 94 2500 3.09 320 10:52 08.07.2022
2706 Clouds 28 1002 94 2500 2.06 270 09:58 08.07.2022
2707 Clouds 27 1003 94 2500 1.54 350 07:53 08.07.2022
2708 Haze 27 1003 94 3000 4.63 320 05:37 08.07.2022
2709 Mist 26 1002 94 3000 1.03 270 00:41 08.07.2022
2710 Mist 26 1002 100 2500 1.54 280 22:52 07.07.2022
2711 Mist 26 1003 100 2500 1.03 200 21:48 07.07.2022
2712 Rain 26 1004 100 2500 0 0 19:35 07.07.2022
2713 Mist 26 1004 94 2500 0 0 17:50 07.07.2022
2714 Mist 26 1003 94 2000 0 0 16:23 07.07.2022
2715 Clouds 26 1002 94 2000 2.06 280 14:21 07.07.2022
2716 Thunderstorm 26 1002 94 2000 1.54 140 12:43 07.07.2022
2717 Thunderstorm 25 1003 100 1000 2.57 150 12:23 07.07.2022
2718 Clouds 33 999 58 10000 3.35 257 11:33 07.07.2022
2719 Clouds 26 1003 94 1200 4.63 200 10:45 07.07.2022
2720 Clouds 28 1003 89 2500 2.06 160 10:27 07.07.2022
2721 Clouds 29 1004 84 3000 2.06 200 09:22 07.07.2022
2722 Haze 28 1005 89 4000 2.06 270 05:57 07.07.2022
2723 Rain 26 1001 83 10000 1.59 235 00:18 07.07.2022
2724 Rain 26 1001 83 10000 1.59 235 23:36 06.07.2022
2725 Haze 26 1003 94 3000 1.03 310 23:18 06.07.2022
2726 Haze 26 1003 94 3000 1.03 310 22:47 06.07.2022
2727 Haze 26 1003 94 3000 1.03 310 22:47 06.07.2022
2728 Haze 27 1003 89 3000 1.03 250 22:28 06.07.2022
2729 Haze 27 1004 89 3000 1.03 290 20:19 06.07.2022
2730 Haze 27 1004 94 3000 1.03 330 18:48 06.07.2022
2731 Mist 28 1003 89 2500 1.03 20 16:58 06.07.2022
2732 Mist 28 1002 89 2500 1.54 310 15:44 06.07.2022
2733 Haze 29 1001 84 4000 2.57 310 12:44 06.07.2022
2734 Rain 29 1001 89 4000 2.06 200 11:49 06.07.2022
2735 Rain 29 1002 84 4000 2.06 180 10:33 06.07.2022
2736 Haze 29 1003 79 4000 1.54 230 08:43 06.07.2022
2737 Haze 28 1003 94 4000 1.54 260 07:39 06.07.2022
2738 Haze 27 1003 94 3000 1.54 240 05:37 06.07.2022
2739 Haze 27 1001 94 3000 0 0 22:49 05.07.2022
2740 Haze 27 1001 89 3000 1.03 240 22:27 05.07.2022
2741 Haze 27 1002 94 3000 1.03 200 20:42 05.07.2022
2742 Haze 27 1002 94 3000 1.54 200 19:44 05.07.2022
2743 Haze 28 1002 89 3000 1.03 180 19:26 05.07.2022
2744 Haze 28 1000 89 3000 1.54 170 17:48 05.07.2022
2745 Haze 28 999 83 3000 1.54 230 16:57 05.07.2022
2746 Haze 29 999 79 5000 2.06 240 15:38 05.07.2022
2747 Haze 30 999 74 5000 2.06 230 14:33 05.07.2022
2748 Haze 30 998 79 5000 2.57 220 12:48 05.07.2022
2749 Haze 30 999 79 5000 3.6 240 11:52 05.07.2022
2750 Haze 29 999 84 5000 3.6 220 10:42 05.07.2022
2751 Haze 29 1000 84 4000 3.6 210 09:24 05.07.2022
2752 Haze 27 1000 94 4000 3.09 250 07:52 05.07.2022
2753 Clouds 26 1000 94 4000 2.06 270 05:45 05.07.2022
2754 Clouds 25 1000 94 3000 3.09 220 04:25 05.07.2022
2755 Rain 25 999 100 2000 1.54 210 00:37 05.07.2022
2756 Thunderstorm 25 999 100 2500 1.54 240 23:34 04.07.2022
2757 Thunderstorm 25 999 100 2500 1.54 240 22:47 04.07.2022
2758 Rain 26 1000 94 2500 2.57 220 21:46 04.07.2022
2759 Clouds 26 1001 100 2500 2.57 230 20:53 04.07.2022
2760 Clouds 26 1001 100 2500 2.57 230 20:34 04.07.2022
2761 Rain 26 1001 100 2500 2.57 230 19:55 04.07.2022
2762 Rain 26 1001 100 2500 2.57 230 19:35 04.07.2022
2763 Thunderstorm 26 1001 94 2500 2.06 230 17:58 04.07.2022
2764 Thunderstorm 26 1000 94 1500 1.54 210 15:58 04.07.2022
2765 Thunderstorm 26 999 94 2000 2.06 190 15:33 04.07.2022
2766 Rain 27 999 89 2000 2.06 240 13:29 04.07.2022
2767 Thunderstorm 27 1000 94 2000 1.03 320 12:21 04.07.2022
2768 Haze 29 1000 79 4000 4.12 280 10:34 04.07.2022
2769 Haze 29 1002 79 4000 4.12 290 09:41 04.07.2022
2770 Haze 27 1003 94 3000 3.09 250 07:33 04.07.2022
2771 Mist 26 1002 94 3000 2.06 270 04:48 04.07.2022
2772 Mist 26 1001 94 3000 2.06 280 00:36 04.07.2022
2773 Rain 27 1002 94 3000 1.54 280 22:59 03.07.2022
2774 Mist 27 1003 94 1500 1.54 230 20:58 03.07.2022
2775 Mist 27 1003 94 2500 1.54 230 20:31 03.07.2022
2776 Haze 27 1003 94 3000 1.03 200 19:27 03.07.2022
2777 Haze 27 1002 94 3000 1.03 200 18:43 03.07.2022
2778 Rain 27 1001 94 3000 1.03 220 17:43 03.07.2022
2779 Haze 27 1001 94 3000 0 0 15:51 03.07.2022
2780 Haze 27 1000 94 3000 1.03 260 14:59 03.07.2022
2781 Haze 27 1000 94 3000 1.54 270 14:18 03.07.2022
2782 Rain 27 1000 94 3000 1.54 170 13:48 03.07.2022
2783 Rain 28 999 77 10000 4.02 255 12:33 03.07.2022
2784 Clouds 25 1001 94 2500 2.57 330 11:28 03.07.2022
2785 Thunderstorm 27 1003 89 1500 4.12 320 10:38 03.07.2022
2786 Clouds 29 1003 89 2000 3.6 250 09:31 03.07.2022
2787 Haze 28 1003 94 4000 3.09 220 07:35 03.07.2022
2788 Drizzle 25 1001 100 2500 1.03 210 02:49 03.07.2022
2789 Haze 25 1001 100 3000 1.54 150 00:20 03.07.2022
2790 Haze 25 1002 100 3000 1.03 210 22:33 02.07.2022
2791 Haze 26 1002 94 3000 1.03 200 20:50 02.07.2022
2792 Haze 26 1002 94 2500 2.06 190 19:52 02.07.2022
2793 Clouds 26 1002 94 2500 2.06 200 19:20 02.07.2022
2794 Clouds 27 1002 89 2500 1.03 200 17:41 02.07.2022
2795 Thunderstorm 27 1001 89 2500 1.03 140 16:48 02.07.2022
2796 Rain 31 998 63 10000 2.7 286 13:51 02.07.2022
2797 Haze 32 1000 66 4000 2.57 310 12:19 02.07.2022
2798 Haze 32 1000 70 5000 4.63 270 10:54 02.07.2022
2799 Haze 32 1001 70 5000 5.14 310 10:33 02.07.2022
2800 Haze 32 1002 70 5000 5.14 290 08:54 02.07.2022
2801 Haze 31 1002 74 5000 4.12 270 08:19 02.07.2022
2802 Haze 29 1003 79 5000 3.6 300 06:51 02.07.2022
2803 Haze 26 1001 94 3000 1.03 200 00:55 02.07.2022
2804 Rain 27 1002 89 2500 0 0 23:31 01.07.2022
2805 Rain 26 1002 94 2500 1.54 330 22:40 01.07.2022
2806 Rain 27 1003 89 2500 0 0 21:40 01.07.2022
2807 Clouds 27 1003 94 2000 0 0 20:59 01.07.2022
2808 Rain 28 1004 89 2000 2.57 320 20:37 01.07.2022
2809 Clouds 28 1004 89 3000 1.03 340 19:41 01.07.2022
2810 Rain 29 1003 84 4000 0 0 17:52 01.07.2022
2811 Haze 29 1001 79 5000 2.06 180 15:26 01.07.2022
2812 Haze 30 1000 79 5000 1.54 210 13:54 01.07.2022
2813 Haze 30 1000 79 5000 1.54 210 13:54 01.07.2022
2814 Haze 29 1001 74 5000 4.12 300 11:49 01.07.2022
2815 Haze 33 1002 66 5000 3.09 200 10:20 01.07.2022
2816 Haze 31 1004 74 5000 1.03 190 08:46 01.07.2022
2817 Haze 25 1003 94 4000 2.06 180 02:49 01.07.2022
2818 Haze 26 1003 94 3000 1.03 180 00:25 01.07.2022
2819 Rain 26 1003 94 3000 0 0 22:54 30.06.2022
2820 Haze 26 1003 94 3000 0 0 22:33 30.06.2022
2821 Haze 26 1003 94 3000 1.54 220 21:59 30.06.2022
2822 Haze 26 1003 94 3000 1.54 220 21:34 30.06.2022
2823 Haze 26 1004 94 3000 1.03 340 20:22 30.06.2022
2824 Haze 26 1004 94 3000 1.54 210 19:53 30.06.2022
2825 Haze 26 1004 94 3000 1.54 210 19:18 30.06.2022
2826 Haze 26 1004 94 3000 1.03 160 18:34 30.06.2022
2827 Haze 26 1004 94 3000 1.03 180 17:38 30.06.2022
2828 Haze 27 1003 89 3000 1.03 170 16:48 30.06.2022
2829 Rain 25 1001 94 3000 2.06 180 14:47 30.06.2022
2830 Thunderstorm 25 1000 94 3000 2.57 150 13:30 30.06.2022
2831 Thunderstorm 26 1001 94 2000 2.06 130 12:34 30.06.2022
2832 Thunderstorm 26 1001 89 2000 4.12 220 11:28 30.06.2022
2833 Haze 33 1002 66 4000 4.12 320 09:53 30.06.2022
2834 Haze 33 1003 66 5000 2.06 340 09:31 30.06.2022
2835 Haze 31 1003 74 5000 2.57 260 07:41 30.06.2022
2836 Haze 29 1003 79 4000 2.06 220 05:47 30.06.2022
2837 Clouds 27 999 80 10000 2.59 305 00:31 30.06.2022
2838 Rain 27 1002 89 3000 1.54 230 23:19 29.06.2022
2839 Haze 27 1002 89 3000 1.54 170 22:38 29.06.2022
2840 Haze 27 1003 89 3000 1.03 230 21:34 29.06.2022
2841 Haze 28 1004 78 3000 1.54 40 20:33 29.06.2022
2842 Haze 28 1003 78 3000 1.54 190 19:36 29.06.2022
2843 Haze 29 1003 79 3000 2.06 130 17:42 29.06.2022
2844 Haze 30 1002 74 3000 1.54 110 16:36 29.06.2022
2845 Haze 31 1000 74 3000 1.03 20 14:56 29.06.2022
2846 Thunderstorm 30 1001 74 3000 2.06 290 12:39 29.06.2022
2847 Clouds 30 1002 70 2500 5.14 230 10:37 29.06.2022
2848 Haze 34 1002 62 5000 2.57 250 09:32 29.06.2022
2849 Haze 33 1004 66 5000 3.6 290 07:39 29.06.2022
2850 Haze 30 1003 79 4000 2.06 280 04:51 29.06.2022
2851 Haze 28 1001 83 3000 1.03 170 00:57 29.06.2022
2852 Haze 28 1001 83 3000 1.03 170 00:35 29.06.2022
2853 Haze 28 1002 83 3000 1.54 120 22:53 28.06.2022
2854 Haze 28 1003 83 3000 1.54 220 22:24 28.06.2022
2855 Haze 29 1003 79 3000 1.54 220 21:54 28.06.2022
2856 Haze 29 1003 79 3000 1.03 180 21:32 28.06.2022
2857 Haze 30 1003 74 4000 1.54 320 20:34 28.06.2022
2858 Haze 30 1004 74 4000 1.03 350 19:33 28.06.2022
2859 Haze 30 1004 74 4000 1.03 350 19:33 28.06.2022
2860 Haze 31 1004 70 4000 0 0 18:45 28.06.2022
2861 Haze 31 1004 70 4000 0 0 18:45 28.06.2022
2862 Haze 31 1004 70 4000 2.06 340 17:39 28.06.2022
2863 Haze 33 1002 62 4000 1.54 200 15:57 28.06.2022
2864 Haze 34 1001 59 4000 2.06 180 15:21 28.06.2022
2865 Haze 34 1001 59 4000 2.06 230 14:20 28.06.2022
2866 Haze 34 1001 59 4000 3.09 230 13:50 28.06.2022
2867 Haze 34 1001 62 4000 2.57 210 12:54 28.06.2022
2868 Haze 33 1004 66 5000 2.57 220 10:57 28.06.2022
2869 Haze 32 1005 70 5000 2.57 250 09:25 28.06.2022
2870 Haze 31 1005 74 5000 3.09 250 08:43 28.06.2022
2871 Haze 30 1005 79 5000 2.06 240 07:26 28.06.2022
2872 Haze 28 1005 83 5000 3.6 220 05:58 28.06.2022
2873 Haze 27 1004 89 3000 0 0 23:59 27.06.2022
2874 Haze 27 1004 89 3000 1.54 310 23:36 27.06.2022
2875 Haze 27 1004 89 3000 1.54 280 22:51 27.06.2022
2876 Haze 27 1005 89 3000 1.03 230 21:33 27.06.2022
2877 Haze 27 1006 89 3000 1.54 130 20:44 27.06.2022
2878 Haze 28 1006 89 4000 1.54 270 18:58 27.06.2022
2879 Haze 28 1005 83 4000 1.03 210 18:19 27.06.2022
2880 Haze 29 1004 79 4000 1.03 130 16:19 27.06.2022
2881 Haze 30 1003 74 4000 2.06 200 14:44 27.06.2022
2882 Haze 30 1003 79 4000 3.09 240 13:25 27.06.2022
2883 Haze 29 1003 84 4000 4.12 230 12:52 27.06.2022
2884 Clouds 30 1004 70 2000 4.63 120 10:22 27.06.2022
2885 Haze 33 1005 62 4000 2.06 220 08:47 27.06.2022
2886 Haze 32 1005 70 4000 2.57 300 07:59 27.06.2022
2887 Haze 30 1006 79 4000 1.54 200 06:38 27.06.2022
2888 Haze 28 1004 83 3000 0 0 02:23 27.06.2022
2889 Haze 28 1004 78 3000 1.54 160 23:49 26.06.2022
2890 Haze 29 1004 74 3000 1.03 210 21:58 26.06.2022
2891 Haze 28 1004 78 3500 1.03 180 20:34 26.06.2022
2892 Haze 29 1005 74 3500 1.03 150 19:23 26.06.2022
2893 Haze 30 1004 70 3500 1.54 180 18:24 26.06.2022
2894 Haze 31 1002 70 4000 2.57 150 15:53 26.06.2022
2895 Haze 32 1001 66 4000 3.09 220 14:34 26.06.2022
2896 Haze 32 1001 66 4000 3.09 200 13:30 26.06.2022
2897 Haze 31 1001 70 4000 3.6 190 12:52 26.06.2022
2898 Haze 31 1002 70 4000 3.6 180 11:21 26.06.2022
2899 Haze 30 1003 74 4000 2.57 180 10:23 26.06.2022
2900 Haze 29 1004 79 4000 3.09 200 08:45 26.06.2022
2901 Haze 29 1004 74 4000 3.09 220 07:23 26.06.2022
2902 Haze 27 1001 78 3000 1.54 210 00:48 26.06.2022
2903 Haze 27 1001 78 3000 1.54 210 00:20 26.06.2022
2904 Haze 28 1001 74 3000 0 0 23:33 25.06.2022
2905 Haze 28 1001 74 3000 0 0 23:33 25.06.2022
2906 Haze 28 1001 74 3000 0 0 22:51 25.06.2022
2907 Haze 28 1001 74 3000 1.03 210 22:25 25.06.2022
2908 Haze 28 1002 74 3000 1.03 180 21:22 25.06.2022
2909 Haze 28 1001 74 3000 2.57 230 20:59 25.06.2022
2910 Haze 29 1002 70 3000 3.09 220 20:25 25.06.2022
2911 Haze 29 1002 74 3000 2.06 160 18:42 25.06.2022
2912 Haze 31 1001 66 3000 1.54 180 17:28 25.06.2022
2913 Haze 31 1001 66 3000 2.57 160 16:31 25.06.2022
2914 Haze 32 1000 58 4000 2.06 180 14:47 25.06.2022
2915 Haze 33 1000 58 4000 1.54 180 12:51 25.06.2022
2916 Haze 33 999 58 4000 2.57 210 12:32 25.06.2022
2917 Haze 30 1003 74 3500 2.57 190 09:40 25.06.2022
2918 Rain 29 1004 70 3500 2.06 170 08:56 25.06.2022
2919 Haze 28 1004 74 3000 2.57 150 08:28 25.06.2022
2920 Haze 28 1004 78 3000 1.54 50 06:46 25.06.2022
2921 Haze 24 1002 94 3000 1.03 40 01:53 25.06.2022
2922 Haze 25 1000 88 3000 1.54 270 00:20 25.06.2022
2923 Clouds 25 1003 88 3000 1.03 20 22:29 24.06.2022
2924 Thunderstorm 25 1006 88 3000 2.57 50 21:28 24.06.2022
2925 Thunderstorm 25 1006 88 3000 2.57 10 20:24 24.06.2022
2926 Thunderstorm 25 1006 88 3000 5.14 290 19:43 24.06.2022
2927 Thunderstorm 24 1006 83 3000 7.72 300 19:18 24.06.2022
2928 Haze 25 1007 78 3000 7.72 330 18:46 24.06.2022
2929 Haze 30 1005 70 3000 4.12 280 18:28 24.06.2022
2930 Haze 32 1003 62 3000 3.09 200 16:48 24.06.2022
2931 Haze 33 1002 62 3000 3.09 160 14:58 24.06.2022
2932 Haze 33 1001 62 3000 3.09 150 14:24 24.06.2022
2933 Haze 33 1001 62 3000 2.06 170 13:46 24.06.2022
2934 Haze 32 1003 66 4000 2.06 220 11:42 24.06.2022
2935 Haze 32 1003 66 4000 2.06 210 10:39 24.06.2022
2936 Haze 33 1005 58 5000 2.06 240 09:42 24.06.2022
2937 Haze 33 1005 58 5000 2.06 20 08:54 24.06.2022
2938 Haze 32 1005 62 5000 2.57 340 08:19 24.06.2022
2939 Haze 31 1007 66 5000 1.03 0 06:44 24.06.2022
2940 Haze 30 1007 70 5000 1.54 340 06:25 24.06.2022
2941 Haze 28 1007 89 4000 1.03 200 04:50 24.06.2022
2942 Haze 27 1004 89 3000 2.06 220 23:43 23.06.2022
2943 Haze 27 1005 89 3000 1.03 300 22:43 23.06.2022
2944 Haze 27 1006 89 3000 1.03 300 21:22 23.06.2022
2945 Haze 27 1006 89 3000 1.54 230 20:37 23.06.2022
2946 Haze 27 1007 89 3000 1.54 230 19:53 23.06.2022
2947 Haze 27 1007 83 3000 1.54 150 18:27 23.06.2022
2948 Haze 27 1007 83 3000 1.03 10 17:34 23.06.2022
2949 Haze 26 1006 78 3000 1.03 120 16:26 23.06.2022
2950 Haze 28 1006 78 3000 1.54 90 15:26 23.06.2022
2951 Haze 28 1006 78 3000 1.54 90 15:26 23.06.2022
2952 Haze 28 1005 74 3000 1.03 50 14:34 23.06.2022
2953 Haze 30 1006 66 3000 1.54 340 11:41 23.06.2022
2954 Thunderstorm 29 1004 70 3000 4.12 20 10:40 23.06.2022
2955 Haze 35 1005 46 5000 1.54 330 09:19 23.06.2022
2956 Haze 31 1007 66 5000 1.03 10 04:43 23.06.2022
2957 Haze 27 1005 78 3000 1.54 160 00:27 23.06.2022
2958 Haze 27 1005 78 3000 0 0 23:49 22.06.2022
2959 Haze 27 1005 74 3000 1.03 120 22:53 22.06.2022
2960 Haze 28 1006 65 3000 1.03 330 21:28 22.06.2022
2961 Haze 28 1007 65 3000 1.54 340 20:48 22.06.2022
2962 Haze 29 1007 61 3000 1.03 340 20:18 22.06.2022
2963 Haze 30 1006 62 3000 1.54 350 18:57 22.06.2022
2964 Haze 30 1005 62 3000 2.06 140 17:31 22.06.2022
2965 Haze 31 1005 58 3000 2.06 140 16:40 22.06.2022
2966 Haze 33 1004 52 4000 3.6 120 15:28 22.06.2022
2967 Haze 34 1002 52 4000 3.6 90 14:40 22.06.2022
2968 Haze 34 1002 55 4000 3.6 150 13:45 22.06.2022
2969 Haze 34 1002 55 4000 3.6 140 13:23 22.06.2022
2970 Haze 34 1003 49 4000 1.03 310 11:50 22.06.2022
2971 Haze 33 1003 58 3000 1.54 330 10:58 22.06.2022
2972 Haze 33 1003 58 3000 1.54 330 10:58 22.06.2022
2973 Haze 33 1004 55 3000 1.54 280 10:20 22.06.2022
2974 Haze 32 1006 62 5000 0 0 08:48 22.06.2022
2975 Haze 27 1006 83 4000 0 0 05:59 22.06.2022
2976 Haze 24 1003 94 3000 1.54 100 01:50 22.06.2022
2977 Haze 24 1003 94 3000 1.03 20 00:39 22.06.2022
2978 Haze 24 1003 94 3000 0 0 22:37 21.06.2022
2979 Haze 25 1005 88 3000 0 0 20:39 21.06.2022
2980 Haze 25 1004 83 3000 1.54 210 18:53 21.06.2022
2981 Haze 25 1003 83 3000 1.54 140 17:42 21.06.2022
2982 Haze 23 1002 94 3000 2.06 110 15:21 21.06.2022
2983 Thunderstorm 25 1001 88 2000 1.54 110 11:55 21.06.2022
2984 Thunderstorm 27 1002 78 2000 3.6 110 10:20 21.06.2022
2985 Haze 31 1003 70 4000 2.06 340 08:51 21.06.2022
2986 Haze 30 1003 89 4000 2.06 180 07:35 21.06.2022
2987 Haze 24 1003 94 2500 3.09 180 03:21 21.06.2022
2988 Haze 24 1003 94 2500 1.54 140 23:27 20.06.2022
2989 Haze 24 1003 94 2500 1.03 240 21:59 20.06.2022
2990 Clouds 24 1004 94 2500 1.03 140 21:32 20.06.2022
2991 Thunderstorm 24 1005 94 1800 3.6 100 19:57 20.06.2022
2992 Thunderstorm 23 1004 94 1800 2.06 120 18:56 20.06.2022
2993 Rain 24 1004 88 2000 5.14 140 18:24 20.06.2022
2994 Thunderstorm 25 1004 94 1800 3.6 150 17:41 20.06.2022
2995 Thunderstorm 30 1002 74 3000 3.09 120 16:21 20.06.2022
2996 Haze 31 1001 70 4000 2.06 70 14:29 20.06.2022
2997 Haze 32 1002 62 4000 2.06 100 11:47 20.06.2022
2998 Haze 33 1004 62 5000 2.06 170 09:55 20.06.2022
2999 Haze 32 1005 66 5000 2.06 210 08:45 20.06.2022
3000 Haze 30 1006 74 5000 1.54 220 07:35 20.06.2022
3001 Haze 27 1006 78 5000 2.57 210 04:30 20.06.2022
3002 Haze 27 1004 78 3000 2.06 320 01:32 20.06.2022
3003 Haze 27 1004 78 3000 2.57 300 23:48 19.06.2022
3004 Haze 28 1004 74 3000 1.03 200 22:19 19.06.2022
3005 Haze 28 1006 78 3000 1.54 260 21:42 19.06.2022
3006 Haze 27 1005 78 3000 1.03 210 20:49 19.06.2022
3007 Haze 27 1006 83 3000 1.54 230 19:49 19.06.2022
3008 Haze 28 1006 78 3000 1.54 240 19:24 19.06.2022
3009 Haze 28 1006 74 3000 1.03 270 18:32 19.06.2022
3010 Thunderstorm 29 1005 70 3000 3.6 200 17:42 19.06.2022
3011 Haze 32 1005 66 3000 1.54 130 16:47 19.06.2022
3012 Haze 33 1004 62 4000 1.03 80 16:23 19.06.2022
3013 Haze 33 1004 58 4000 2.57 160 15:29 19.06.2022
3014 Haze 34 1003 55 4000 4.12 160 14:41 19.06.2022
3015 Haze 34 1003 59 4000 2.06 120 13:52 19.06.2022
3016 Haze 33 1004 62 4000 2.06 270 12:19 19.06.2022
3017 Haze 32 1006 62 4000 1.03 90 10:52 19.06.2022
3018 Haze 28 1008 74 4000 2.06 360 08:55 19.06.2022
3019 Haze 27 1008 78 4000 2.06 10 08:31 19.06.2022
3020 Haze 25 1008 94 3000 2.06 340 06:54 19.06.2022
3021 Thunderstorm 24 1006 94 2000 4.12 320 03:38 19.06.2022
3022 Clouds 25 1005 94 3000 0 0 00:28 19.06.2022
3023 Haze 25 1006 94 3000 1.03 270 23:59 18.06.2022
3024 Haze 25 1006 94 3000 1.03 270 23:34 18.06.2022
3025 Haze 25 1006 94 3000 1.03 150 22:23 18.06.2022
3026 Rain 26 1007 89 3000 1.03 120 20:51 18.06.2022
3027 Rain 26 1007 89 3000 2.06 120 20:18 18.06.2022
3028 Haze 26 1007 89 3000 2.06 100 18:57 18.06.2022
3029 Haze 26 1007 89 3000 2.06 100 18:38 18.06.2022
3030 Thunderstorm 28 1007 83 3000 3.6 150 17:29 18.06.2022
3031 Haze 28 1005 78 4000 1.03 290 15:57 18.06.2022
3032 Rain 29 1004 84 4000 1.54 10 14:54 18.06.2022
3033 Haze 29 1004 84 4000 1.03 50 14:35 18.06.2022
3034 Thunderstorm 29 1004 70 4000 6.17 330 12:30 18.06.2022
3035 Haze 35 1004 55 4000 3.09 190 11:25 18.06.2022
3036 Haze 35 1005 55 4000 3.6 190 09:46 18.06.2022
3037 Haze 34 1007 59 4000 4.63 190 08:59 18.06.2022
3038 Haze 31 1008 74 4000 4.63 210 07:34 18.06.2022
3039 Haze 31 1008 74 4000 4.63 210 07:34 18.06.2022
3040 Haze 29 1008 17 4000 2.57 190 05:58 18.06.2022
3041 Haze 27 1006 83 3000 4.12 140 02:51 18.06.2022
3042 Rain 27 1005 83 3000 0 0 01:21 18.06.2022
3043 Haze 27 1005 83 3000 1.03 180 00:32 18.06.2022
3044 Rain 27 1005 83 3000 0 0 23:40 17.06.2022
3045 Haze 27 1005 83 3000 1.03 100 22:33 17.06.2022
3046 Haze 28 1007 78 3000 1.03 160 20:29 17.06.2022
3047 Haze 28 1007 78 3000 1.54 180 19:24 17.06.2022
3048 Haze 28 1006 83 3000 1.03 120 18:19 17.06.2022
3049 Clouds 27 1005 83 3000 1.54 130 16:50 17.06.2022
3050 Clouds 28 1005 78 3000 0 0 16:25 17.06.2022
3051 Haze 31 1005 62 3000 3.6 220 15:41 17.06.2022
3052 Haze 35 1003 49 4000 2.06 280 14:24 17.06.2022
3053 Haze 35 1003 49 4000 3.09 210 13:59 17.06.2022
3054 Haze 35 1003 49 4000 3.09 210 13:39 17.06.2022
3055 Haze 35 1003 55 4000 3.6 180 12:29 17.06.2022
3056 Haze 35 1004 55 4000 2.06 200 11:55 17.06.2022
3057 Haze 35 1004 55 4000 2.06 200 11:34 17.06.2022
3058 Haze 33 1006 62 4000 3.09 200 09:46 17.06.2022
3059 Haze 31 1007 70 4000 2.57 200 08:26 17.06.2022
3060 Haze 30 1008 74 3500 2.57 230 06:50 17.06.2022
3061 Haze 28 1007 83 3000 2.06 310 04:19 17.06.2022
3062 Haze 27 1006 89 3000 2.06 220 01:56 17.06.2022
3063 Haze 27 1005 89 3000 1.03 240 23:47 16.06.2022
3064 Haze 27 1005 83 3000 2.06 180 22:42 16.06.2022
3065 Haze 27 1006 89 3000 2.57 180 21:22 16.06.2022
3066 Haze 27 1006 89 3000 1.54 180 20:55 16.06.2022
3067 Haze 28 1007 83 3000 1.03 170 20:35 16.06.2022
3068 Haze 28 1007 83 3000 2.06 210 19:41 16.06.2022
3069 Haze 28 1007 83 3000 1.03 180 18:24 16.06.2022
3070 Haze 28 1006 89 3000 1.03 140 17:43 16.06.2022
3071 Haze 28 1006 83 3000 1.54 200 16:35 16.06.2022
3072 Haze 29 1004 79 3000 0 0 15:22 16.06.2022
3073 Haze 28 1004 83 3500 1.54 300 14:37 16.06.2022
3074 Haze 27 1004 83 3500 1.03 260 13:20 16.06.2022
3075 Thunderstorm 27 1005 83 3000 1.54 190 12:36 16.06.2022
3076 Thunderstorm 27 1005 83 2500 2.06 190 11:49 16.06.2022
3077 Clouds 37 1002 36 10000 4.13 279 10:54 16.06.2022
3078 Clouds 27 1007 89 3000 4.12 270 09:43 16.06.2022
3079 Thunderstorm 31 1007 70 5000 1.54 130 09:21 16.06.2022
3080 Haze 32 1007 62 5000 2.06 270 08:28 16.06.2022
3081 Haze 31 1007 70 5000 3.09 300 07:24 16.06.2022
3082 Haze 27 1007 89 5000 2.57 290 04:42 16.06.2022
3083 Haze 26 1006 89 3000 0 0 02:19 16.06.2022
3084 Haze 26 1006 89 3000 1.54 70 01:34 16.06.2022
3085 Haze 26 1006 89 3000 1.54 70 01:34 16.06.2022
3086 Haze 26 1006 94 3000 1.54 130 00:39 16.06.2022
3087 Haze 26 1006 89 3000 1.54 180 23:33 15.06.2022
3088 Haze 27 1006 89 3000 2.57 150 22:35 15.06.2022
3089 Haze 27 1007 89 3000 1.03 90 21:21 15.06.2022
3090 Haze 27 1007 89 3000 0 0 20:38 15.06.2022
3091 Haze 27 1007 89 3000 0 0 20:19 15.06.2022
3092 Haze 27 1007 83 3000 1.03 220 19:19 15.06.2022
3093 Haze 27 1006 83 3000 1.54 120 17:55 15.06.2022
3094 Rain 27 1005 83 3000 1.54 120 16:55 15.06.2022
3095 Haze 27 1004 89 4000 2.57 200 15:36 15.06.2022
3096 Rain 27 1004 89 4000 1.03 110 13:44 15.06.2022
3097 Clouds 27 1004 78 3000 2.06 330 12:54 15.06.2022
3098 Clouds 31 1004 62 4000 7.72 330 11:52 15.06.2022
3099 Haze 38 1004 44 4000 5.14 300 10:24 15.06.2022
3100 Haze 37 1004 47 4000 3.6 140 09:39 15.06.2022
3101 Haze 36 1007 49 5000 4.12 300 08:30 15.06.2022
3102 Haze 34 1007 55 5000 4.63 330 06:33 15.06.2022
3103 Haze 30 1006 70 4000 1.54 180 03:59 15.06.2022
3104 Haze 29 1004 70 3000 2.3 228 01:54 15.06.2022
3105 Haze 29 1004 70 3000 0 0 00:50 15.06.2022
3106 Haze 30 1004 66 3000 2.57 300 23:39 14.06.2022
3107 Rain 30 1004 66 3000 2.57 300 23:18 14.06.2022
3108 Haze 30 1005 66 3000 2.06 270 22:18 14.06.2022
3109 Haze 30 1005 66 3000 2.57 280 21:33 14.06.2022
3110 Haze 30 1006 62 3000 2.57 270 20:48 14.06.2022
3111 Haze 30 1006 62 3500 2.06 270 20:28 14.06.2022
3112 Haze 30 1006 66 3500 2.57 270 18:56 14.06.2022
3113 Thunderstorm 31 1006 62 3500 4.12 310 17:40 14.06.2022
3114 Haze 31 1006 62 3500 4.63 300 16:43 14.06.2022
3115 Haze 32 1005 58 4000 2.57 260 15:50 14.06.2022
3116 Haze 31 1003 62 4000 4.12 210 15:22 14.06.2022
3117 Haze 31 1003 62 4000 5.66 170 14:30 14.06.2022
3118 Haze 38 1003 39 4000 4.12 230 13:40 14.06.2022
3119 Haze 35 1003 49 4000 3.09 240 12:30 14.06.2022
3120 Haze 34 1004 49 4000 7.2 240 11:31 14.06.2022
3121 Haze 39 1004 39 4000 2.06 60 10:44 14.06.2022
3122 Haze 38 1005 41 5000 3.6 290 09:48 14.06.2022
3123 Haze 38 1007 41 5000 3.6 320 08:46 14.06.2022
3124 Haze 36 1008 46 5000 4.12 280 07:31 14.06.2022
3125 Haze 32 1008 55 5000 1.54 230 04:44 14.06.2022
3126 Haze 30 1006 62 3000 1.03 290 02:49 14.06.2022
3127 Haze 30 1005 62 3000 1.03 270 00:28 14.06.2022
3128 Haze 31 1005 58 3000 1.54 290 23:21 13.06.2022
3129 Haze 30 1005 66 3000 2.57 210 22:25 13.06.2022
3130 Haze 31 1005 62 3000 1.03 310 21:48 13.06.2022
3131 Haze 32 1006 62 3000 2.06 260 20:23 13.06.2022
3132 Haze 32 1006 62 3000 1.03 170 19:34 13.06.2022
3133 Haze 32 1005 66 3000 2.57 310 17:57 13.06.2022
3134 Haze 31 1005 66 3000 1.03 280 17:36 13.06.2022
3135 Haze 31 1005 66 3000 1.03 180 16:39 13.06.2022
3136 Haze 36 1004 46 4000 2.06 320 15:20 13.06.2022
3137 Haze 38 1003 39 5000 3.6 310 14:41 13.06.2022
3138 Haze 39 1003 37 5000 2.06 250 13:41 13.06.2022
3139 Haze 39 1004 39 5000 3.6 320 12:30 13.06.2022
3140 Haze 37 1005 41 5000 1.54 250 11:25 13.06.2022
3141 Haze 37 1006 44 5000 3.09 280 10:26 13.06.2022
3142 Haze 36 1007 49 5000 3.09 330 09:23 13.06.2022
3143 Haze 35 1009 49 5000 3.09 290 07:34 13.06.2022
3144 Haze 33 1009 58 5000 3.09 320 05:39 13.06.2022
3145 Haze 28 1007 69 3000 1.03 210 02:47 13.06.2022
3146 Haze 29 1006 65 3000 1.54 220 01:37 13.06.2022
3147 Haze 29 1006 65 3000 1.03 160 00:18 13.06.2022
3148 Haze 30 1006 62 3000 1.54 310 23:24 12.06.2022
3149 Clouds 31 1004 56 10000 2.31 203 22:22 12.06.2022
3150 Haze 30 1006 62 3000 1.03 220 21:20 12.06.2022
3151 Haze 29 1007 65 3000 1.03 220 20:27 12.06.2022
3152 Haze 31 1007 62 3000 1.03 20 19:30 12.06.2022
3153 Haze 31 1006 62 3000 1.54 330 17:51 12.06.2022
3154 Haze 31 1005 58 3000 4.63 320 16:24 12.06.2022
3155 Haze 32 1003 55 4000 2.57 310 14:57 12.06.2022
3156 Haze 33 1003 52 4000 1.54 220 14:21 12.06.2022
3157 Haze 33 1003 52 4000 2.06 300 13:51 12.06.2022
3158 Thunderstorm 36 1003 46 4000 4.12 170 12:37 12.06.2022
3159 Haze 36 1002 49 5000 4.12 180 11:39 12.06.2022
3160 Haze 33 1005 58 5000 3.6 180 10:22 12.06.2022
3161 Haze 33 1006 55 5000 1.54 210 08:55 12.06.2022
3162 Haze 33 1006 55 5000 1.54 210 08:36 12.06.2022
3163 Haze 31 1007 62 5000 1.54 300 07:32 12.06.2022
3164 Haze 27 1007 74 4000 2.57 220 04:45 12.06.2022
3165 Haze 27 1006 74 3000 3.09 180 02:53 12.06.2022
3166 Haze 28 1006 69 3000 2.57 180 01:39 12.06.2022
3167 Haze 29 1005 65 3000 2.06 300 00:58 12.06.2022
3168 Rain 29 1005 65 3000 2.06 320 00:20 12.06.2022
3169 Haze 29 1005 65 3000 2.06 320 00:20 12.06.2022
3170 Haze 28 1005 61 3000 1.03 130 23:44 11.06.2022
3171 Clouds 31 1002 51 10000 5.18 259 22:38 11.06.2022
3172 Haze 29 1006 65 3000 2.57 280 21:52 11.06.2022
3173 Haze 29 1006 65 3000 5.14 300 20:36 11.06.2022
3174 Haze 29 1006 65 3000 4.12 310 19:46 11.06.2022
3175 Haze 29 1006 65 3000 3.09 270 19:19 11.06.2022
3176 Haze 30 1006 66 3000 5.14 240 18:33 11.06.2022
3177 Haze 30 1006 62 3000 5.14 240 17:50 11.06.2022
3178 Haze 31 1005 55 3000 2.57 240 17:26 11.06.2022
3179 Haze 31 1004 58 3000 2.57 190 16:52 11.06.2022
3180 Haze 31 1004 62 3000 2.06 140 16:26 11.06.2022
3181 Haze 32 1004 55 3000 3.09 110 15:28 11.06.2022
3182 Clouds 28 1002 69 3000 6.17 220 13:53 11.06.2022
3183 Thunderstorm 40 1001 33 4000 2.06 290 12:37 11.06.2022
3184 Haze 40 1003 35 5000 4.63 330 10:46 11.06.2022
3185 Haze 38 1004 39 5000 3.6 300 09:48 11.06.2022
3186 Haze 37 1005 41 5000 4.12 230 08:51 11.06.2022
3187 Haze 35 1006 46 5000 4.12 230 06:47 11.06.2022
3188 Haze 35 1006 46 5000 5.14 220 06:25 11.06.2022
3189 Haze 31 1005 58 4000 3.6 210 04:23 11.06.2022
3190 Haze 30 1004 58 3000 1.54 180 01:52 11.06.2022
3191 Haze 30 1004 58 3000 1.54 180 01:27 11.06.2022
3192 Haze 30 1004 58 3000 2.57 300 23:34 10.06.2022
3193 Haze 30 1004 58 3000 2.57 230 22:31 10.06.2022
3194 Haze 30 1004 58 3000 3.09 210 21:50 10.06.2022
3195 Haze 31 1004 55 3000 4.12 210 20:40 10.06.2022
3196 Haze 31 1005 55 3000 4.63 200 20:21 10.06.2022
3197 Haze 31 1005 55 3000 4.63 200 20:21 10.06.2022
3198 Haze 31 1005 55 3500 4.63 200 19:19 10.06.2022
3199 Haze 32 1005 51 3500 5.66 190 18:55 10.06.2022
3200 Haze 34 1004 43 3500 3.75 227 17:55 10.06.2022
3201 Haze 34 1003 43 3500 1.54 240 17:32 10.06.2022
3202 Haze 34 1003 43 3500 2.57 330 16:36 10.06.2022
3203 Haze 35 1002 41 4000 4.12 330 15:40 10.06.2022
3204 Haze 37 1002 36 4000 6.17 320 14:29 10.06.2022
3205 Haze 38 1001 37 4000 7.72 320 13:20 10.06.2022
3206 Haze 39 1001 32 5000 3.09 210 11:59 10.06.2022
3207 Haze 41 1001 29 5000 4.63 350 10:59 10.06.2022
3208 Haze 40 1002 33 5000 4.12 30 10:24 10.06.2022
3209 Haze 39 1004 39 5000 2.06 350 08:58 10.06.2022
3210 Haze 36 1005 44 5000 5.14 300 07:50 10.06.2022
3211 Haze 36 1005 46 5000 5.14 300 06:47 10.06.2022
3212 Haze 35 1005 46 5000 6.17 300 06:28 10.06.2022
3213 Haze 32 1005 55 5000 2.57 300 04:55 10.06.2022
3214 Haze 31 1003 55 3000 1.03 310 02:31 10.06.2022
3215 Haze 31 1003 51 3000 1.03 250 01:36 10.06.2022
3216 Haze 32 1002 48 3000 1.54 240 23:58 09.06.2022
3217 Haze 32 1002 51 3000 1.03 180 22:30 09.06.2022
3218 Haze 32 1003 51 3000 2.57 220 21:43 09.06.2022
3219 Haze 32 1003 51 3000 2.57 300 21:24 09.06.2022
3220 Haze 32 1003 51 3000 3.09 290 20:36 09.06.2022
3221 Haze 33 1004 49 3000 3.09 290 19:41 09.06.2022
3222 Haze 33 1004 49 3000 2.06 310 18:36 09.06.2022
3223 Haze 34 1003 46 3000 2.57 330 17:28 09.06.2022
3224 Haze 36 1002 41 3000 1.54 310 16:28 09.06.2022
3225 Haze 37 1001 36 4000 4.12 330 14:45 09.06.2022
3226 Haze 37 1000 34 4000 1.54 160 14:24 09.06.2022
3227 Clouds 36 1000 38 3000 5.14 330 13:30 09.06.2022
3228 Thunderstorm 41 1000 26 3000 5.14 330 12:50 09.06.2022
3229 Haze 41 1001 29 5000 2.06 280 11:20 09.06.2022
3230 Haze 41 1002 31 5000 5.14 300 09:55 09.06.2022
3231 Haze 41 1002 31 5000 5.14 300 09:55 09.06.2022
3232 Haze 41 1002 31 5000 5.14 300 09:36 09.06.2022
3233 Haze 39 1004 37 5000 3.09 280 08:27 09.06.2022
3234 Haze 38 1005 39 5000 7.72 310 07:23 09.06.2022
3235 Haze 34 1003 43 3000 4.12 270 03:28 09.06.2022
3236 Haze 33 1001 38 3000 1.54 230 23:55 08.06.2022
3237 Haze 34 1001 36 3000 2.06 220 22:59 08.06.2022
3238 Haze 35 1001 34 3000 2.06 210 22:27 08.06.2022
3239 Haze 36 1001 32 3000 3.09 310 21:59 08.06.2022
3240 Haze 35 1001 34 3000 3.09 310 21:31 08.06.2022
3241 Haze 36 1002 32 3000 3.6 300 20:24 08.06.2022
3242 Haze 36 1002 32 3500 3.09 300 19:39 08.06.2022
3243 Haze 37 1002 30 3500 3.09 300 18:48 08.06.2022
3244 Haze 37 1001 28 3500 3.09 270 17:35 08.06.2022
3245 Haze 39 1000 24 4000 1.54 220 15:52 08.06.2022
3246 Haze 40 1000 21 5000 2.57 330 14:18 08.06.2022
3247 Clouds 37 1000 34 4000 5.14 280 12:46 08.06.2022
3248 Haze 43 1000 20 4000 3.09 360 11:35 08.06.2022
3249 Haze 43 1001 19 5000 2.57 360 10:37 08.06.2022
3250 Haze 43 1002 22 5000 2.06 310 09:28 08.06.2022
3251 Haze 42 1003 24 5000 3.09 340 08:49 08.06.2022
3252 Haze 40 1004 29 5000 9.26 320 06:43 08.06.2022
3253 Haze 35 1004 38 5000 10.29 320 04:35 08.06.2022
3254 Haze 34 1001 31 3000 5.14 310 00:56 08.06.2022
3255 Haze 35 1001 26 3000 5.14 310 23:31 07.06.2022
3256 Haze 36 1002 24 3000 6.17 320 22:50 07.06.2022
3257 Haze 36 1002 24 3000 5.14 310 22:31 07.06.2022
3258 Haze 35 1002 24 3000 2.57 300 21:35 07.06.2022
3259 Haze 36 1002 23 3000 1.03 170 20:59 07.06.2022
3260 Haze 37 1002 22 3000 2.06 300 20:33 07.06.2022
3261 Haze 37 1002 23 3000 2.06 320 19:48 07.06.2022
3262 Haze 38 1002 22 3000 3.6 330 18:24 07.06.2022
3263 Haze 39 1001 21 4000 2.57 320 17:27 07.06.2022
3264 Haze 39 1001 21 4000 2.57 320 16:43 07.06.2022
3265 Haze 41 1001 20 4000 3.09 310 15:56 07.06.2022
3266 Haze 43 1000 18 5000 5.14 310 15:26 07.06.2022
3267 Haze 43 1000 17 5000 4.12 300 14:52 07.06.2022
3268 Haze 43 1000 18 5000 4.12 300 14:32 07.06.2022
3269 Haze 44 1000 17 5000 4.12 340 13:32 07.06.2022
3270 Haze 44 1000 17 5000 1.54 310 12:52 07.06.2022
3271 Haze 44 1001 17 5000 3.6 280 11:48 07.06.2022
3272 Haze 43 1001 18 5000 3.09 330 10:27 07.06.2022
3273 Haze 43 1002 17 5000 2.57 350 08:51 07.06.2022
3274 Haze 41 1003 20 5000 4.12 340 07:34 07.06.2022
3275 Haze 39 1004 22 5000 3.6 330 06:22 07.06.2022
3276 Haze 34 1003 29 4000 5.14 330 03:32 07.06.2022
3277 Haze 31 1001 35 3000 1.03 320 00:45 07.06.2022
3278 Haze 32 1002 33 3000 1.03 260 23:41 06.06.2022
3279 Haze 33 1002 31 3000 1.54 240 22:53 06.06.2022
3280 Haze 33 1002 31 3000 1.03 130 21:57 06.06.2022
3281 Haze 35 1002 28 3000 1.03 180 20:42 06.06.2022
3282 Haze 36 1002 26 3500 3.09 320 19:24 06.06.2022
3283 Haze 37 1002 25 3500 2.57 300 18:48 06.06.2022
3284 Haze 38 1002 23 3500 1.54 280 17:57 06.06.2022
3285 Haze 38 1001 23 3500 1.03 350 16:55 06.06.2022
3286 Haze 40 1001 20 4000 1.03 340 15:52 06.06.2022
3287 Haze 42 1000 16 5000 2.06 270 14:59 06.06.2022
3288 Haze 43 1000 17 5000 2.06 280 14:18 06.06.2022
3289 Haze 43 1000 15 5000 2.57 280 13:20 06.06.2022
3290 Haze 43 1001 17 5000 1.03 80 12:34 06.06.2022
3291 Haze 43 1001 17 5000 2.06 70 11:47 06.06.2022
3292 Haze 43 1003 17 5000 1.03 60 09:53 06.06.2022
3293 Haze 43 1003 17 5000 1.54 160 08:57 06.06.2022
3294 Haze 42 1003 17 5000 1.54 60 08:28 06.06.2022
3295 Haze 41 1004 20 5000 5.19 346 07:19 06.06.2022
3296 Haze 37 1004 23 4000 1.03 190 04:38 06.06.2022
3297 Haze 35 1001 28 3000 4.63 310 01:53 06.06.2022
3298 Haze 36 1001 26 3000 4.63 310 00:57 06.06.2022
3299 Haze 36 1001 26 3000 4.63 310 00:34 06.06.2022
3300 Haze 36 1001 28 3000 2.57 310 22:59 05.06.2022
3301 Haze 36 1001 30 3000 3.6 320 22:21 05.06.2022
3302 Haze 35 1002 29 3000 1.54 240 20:24 05.06.2022
3303 Haze 37 1002 26 3000 2.57 260 19:23 05.06.2022
3304 Haze 38 1002 25 3000 3.09 240 18:18 05.06.2022
3305 Haze 39 1001 24 3000 2.57 220 17:38 05.06.2022
3306 Haze 38 1001 28 3000 3.09 210 17:20 05.06.2022
3307 Haze 39 1001 27 3000 3.09 180 16:47 05.06.2022
3308 Haze 40 1000 20 5000 1.54 260 15:25 05.06.2022
3309 Haze 43 1000 14 5000 2.06 320 14:21 05.06.2022
3310 Haze 44 1000 16 5000 3.09 280 11:58 05.06.2022
3311 Haze 44 1001 17 5000 1.54 260 10:45 05.06.2022
3312 Haze 44 1002 17 5000 1.54 160 10:24 05.06.2022
3313 Haze 44 1002 16 5000 2.06 300 09:33 05.06.2022
3314 Haze 42 1004 17 5000 2.06 320 08:23 05.06.2022
3315 Haze 40 1004 21 5000 4.12 330 06:23 05.06.2022
3316 Haze 38 1004 23 4000 7.2 320 05:19 05.06.2022
3317 Haze 34 1003 36 3000 4.12 320 02:43 05.06.2022
3318 Haze 35 1002 34 3000 2.06 280 01:23 05.06.2022
3319 Haze 35 1002 34 3000 2.06 280 01:23 05.06.2022
3320 Haze 36 1002 32 3000 4.12 230 22:51 04.06.2022
3321 Haze 36 1002 30 3000 1.54 240 21:30 04.06.2022
3322 Haze 38 1003 27 3500 2.06 300 19:27 04.06.2022
3323 Haze 40 1001 22 3500 2.06 300 16:48 04.06.2022
3324 Haze 40 1001 22 4000 3.09 290 16:20 04.06.2022
3325 Haze 40 1001 22 4000 2.57 300 15:39 04.06.2022
3326 Haze 42 1000 19 4000 3.6 280 13:59 04.06.2022
3327 Haze 43 1001 18 5000 1.54 280 11:41 04.06.2022
3328 Haze 44 1001 18 5000 3.6 230 10:54 04.06.2022
3329 Haze 43 1002 19 5000 3.6 260 09:56 04.06.2022
3330 Haze 42 1003 20 5000 3.6 290 09:38 04.06.2022
3331 Haze 40 1004 25 5000 3.09 300 08:38 04.06.2022
3332 Haze 36 1004 30 5000 2.57 280 06:32 04.06.2022
3333 Haze 35 1003 29 4000 5.14 310 03:57 04.06.2022
3334 Haze 36 1001 23 3000 4.63 310 00:22 04.06.2022
3335 Haze 37 1001 25 3000 3.6 320 22:57 03.06.2022
3336 Haze 35 1002 29 3000 1.03 230 21:53 03.06.2022
3337 Haze 37 1002 26 3000 1.54 150 20:40 03.06.2022
3338 Haze 38 1002 25 3000 2.06 310 19:37 03.06.2022
3339 Haze 40 1001 21 3000 1.54 310 16:58 03.06.2022
3340 Haze 41 1000 20 5000 2.06 260 15:57 03.06.2022
3341 Haze 43 1000 18 5000 1.03 50 14:42 03.06.2022
3342 Haze 45 1000 16 5000 3.6 230 12:21 03.06.2022
3343 Haze 44 1002 17 5000 2.57 310 09:57 03.06.2022
3344 Haze 43 1002 18 5000 4.63 120 09:29 03.06.2022
3345 Haze 43 1002 18 5000 4.63 120 09:29 03.06.2022
3346 Haze 42 1003 20 5000 3.6 350 07:47 03.06.2022
3347 Haze 41 1003 20 5000 4.12 10 07:19 03.06.2022
3348 Haze 40 1004 22 5000 4.63 320 06:29 03.06.2022
3349 Haze 35 1003 26 4000 6.17 300 03:52 03.06.2022
3350 Haze 33 1001 29 3000 2.57 330 23:53 02.06.2022
3351 Haze 34 1001 29 3000 1.03 340 22:33 02.06.2022
3352 Haze 36 1002 26 3000 2.06 300 20:56 02.06.2022
3353 Haze 38 1002 23 3500 2.06 320 19:58 02.06.2022
3354 Haze 38 1002 23 3500 2.06 320 19:39 02.06.2022
3355 Haze 39 1002 22 3500 2.57 330 18:51 02.06.2022
3356 Haze 39 1001 25 4000 0 0 16:30 02.06.2022
3357 Haze 40 1000 24 4000 0 0 15:47 02.06.2022
3358 Haze 43 1000 18 5000 1.54 320 13:31 02.06.2022
3359 Haze 44 1000 18 5000 2.06 330 12:49 02.06.2022
3360 Haze 44 1001 17 5000 2.57 290 10:45 02.06.2022
3361 Haze 42 1003 20 5000 1.54 50 09:30 02.06.2022
3362 Haze 42 1003 20 5000 2.57 20 08:45 02.06.2022
3363 Haze 42 1003 20 5000 2.57 350 08:23 02.06.2022
3364 Haze 39 1004 24 5000 5.66 330 06:21 02.06.2022
3365 Haze 34 1004 36 4000 4.12 310 03:51 02.06.2022
3366 Haze 32 1003 40 3000 3.09 300 01:33 02.06.2022
3367 Haze 32 1003 35 3000 3.09 290 23:22 01.06.2022
3368 Haze 33 1003 33 3000 1.54 310 22:18 01.06.2022
3369 Haze 34 1003 31 3000 2.57 200 21:24 01.06.2022
3370 Haze 35 1003 29 3000 3.6 300 20:39 01.06.2022
3371 Haze 34 1003 29 3000 1.03 20 19:52 01.06.2022
3372 Haze 36 1003 26 3000 0 0 18:41 01.06.2022
3373 Haze 38 1002 22 3000 1.03 50 16:58 01.06.2022
3374 Haze 40 1001 21 3000 1.54 10 15:45 01.06.2022
3375 Haze 42 1000 17 4000 1.03 70 14:49 01.06.2022
3376 Haze 43 1000 17 4000 2.06 10 13:26 01.06.2022
3377 Haze 43 1001 18 5000 1.03 20 10:48 01.06.2022
3378 Haze 42 1003 20 5000 2.57 40 09:29 01.06.2022
3379 Haze 41 1004 20 5000 3.09 300 08:19 01.06.2022
3380 Haze 40 1004 27 5000 4.12 330 07:20 01.06.2022
3381 Haze 35 1004 38 5000 4.12 280 04:41 01.06.2022
3382 Haze 31 1002 48 3000 1.03 320 23:50 31.05.2022
3383 Haze 31 1003 48 3000 0 0 22:41 31.05.2022
3384 Haze 31 1003 45 3000 0 0 22:22 31.05.2022
3385 Haze 32 1003 43 3000 0 0 21:39 31.05.2022
3386 Haze 33 1003 40 3000 0 0 20:44 31.05.2022
3387 Haze 34 1003 40 3500 1.54 260 19:31 31.05.2022
3388 Haze 34 1003 40 3500 2.57 250 18:26 31.05.2022
3389 Haze 34 1003 40 3500 3.09 250 17:37 31.05.2022
3390 Haze 35 1002 38 4000 2.06 240 15:46 31.05.2022
3391 Haze 35 1002 38 4000 2.57 220 15:22 31.05.2022
3392 Haze 39 1001 27 4000 2.06 170 12:41 31.05.2022
3393 Haze 39 1001 27 4000 2.06 170 12:18 31.05.2022
3394 Haze 41 1001 27 5000 1.54 360 10:25 31.05.2022
3395 Haze 39 1004 35 5000 4.12 320 07:46 31.05.2022
3396 Haze 37 1005 39 5000 6.17 290 06:19 31.05.2022
3397 Haze 32 1004 45 4000 2.57 310 03:49 31.05.2022
3398 Haze 31 1003 48 3000 0 0 23:45 30.05.2022
3399 Haze 32 1003 45 3000 0.27 131 23:23 30.05.2022
3400 Haze 32 1003 45 3000 1.54 270 22:33 30.05.2022
3401 Haze 32 1003 45 3000 1.03 250 21:40 30.05.2022
3402 Haze 33 1004 43 3000 1.54 320 20:51 30.05.2022
3403 Haze 33 1004 43 3000 2.95 229 19:43 30.05.2022
3404 Haze 35 1004 38 3000 2.57 310 17:53 30.05.2022
3405 Haze 35 1003 38 3000 1.03 60 17:21 30.05.2022
3406 Haze 35 1002 41 3000 3.09 70 15:54 30.05.2022
3407 Haze 42 1000 21 5000 1.54 320 13:26 30.05.2022
3408 Haze 42 1002 23 5000 2.06 280 11:40 30.05.2022
3409 Haze 40 1003 29 5000 2.57 300 09:45 30.05.2022
3410 Haze 37 1005 36 5000 4.12 290 07:34 30.05.2022
3411 Haze 36 1006 44 5000 6.17 300 05:54 30.05.2022
3412 Haze 34 1006 46 5000 4.12 330 04:46 30.05.2022
3413 Haze 30 1003 51 3000 1.54 250 00:18 30.05.2022
3414 Haze 33 1003 43 3000 1.03 320 22:40 29.05.2022
3415 Haze 32 1004 45 3000 1.03 210 21:44 29.05.2022
3416 Haze 35 1004 41 3000 1.03 60 20:21 29.05.2022
3417 Haze 36 1004 38 3000 2.57 10 19:28 29.05.2022
3418 Haze 37 1003 34 3500 3.6 320 17:56 29.05.2022
3419 Haze 38 1002 37 4000 5.14 320 16:20 29.05.2022
3420 Haze 39 1002 32 5000 5.66 320 15:41 29.05.2022
3421 Haze 40 1001 29 5000 4.63 300 14:54 29.05.2022
3422 Haze 41 1001 27 5000 5.14 240 12:33 29.05.2022
3423 Haze 41 1002 27 5000 4.12 320 11:19 29.05.2022
3424 Haze 40 1004 29 5000 6.17 290 09:54 29.05.2022
3425 Haze 38 1005 37 5000 5.14 260 07:55 29.05.2022
3426 Haze 34 1005 46 4000 4.63 280 04:58 29.05.2022
3427 Haze 34 1005 46 4000 4.63 280 04:33 29.05.2022
3428 Haze 32 1003 43 4000 5.14 310 01:23 29.05.2022
3429 Haze 31 1003 42 4000 1.03 320 23:47 28.05.2022
3430 Haze 31 1003 42 4000 1.03 320 23:19 28.05.2022
3431 Haze 32 1003 40 4000 1.54 270 21:52 28.05.2022
3432 Haze 32 1003 40 4000 1.03 220 20:53 28.05.2022
3433 Haze 35 1004 34 4000 1.03 20 19:20 28.05.2022
3434 Haze 35 1003 29 4000 2.06 290 18:23 28.05.2022
3435 Haze 37 1002 26 4000 2.06 270 17:32 28.05.2022
3436 Haze 39 1001 22 4000 2.06 300 15:49 28.05.2022
3437 Haze 40 1001 22 4000 3.6 300 15:20 28.05.2022
3438 Haze 41 1001 26 5000 4.12 310 13:29 28.05.2022
3439 Haze 41 1001 27 5000 4.12 330 12:42 28.05.2022
3440 Haze 40 1002 27 5000 3.6 340 11:37 28.05.2022
3441 Haze 40 1003 25 5000 4.12 320 10:38 28.05.2022
3442 Haze 40 1004 25 5000 5.66 270 09:54 28.05.2022
3443 Haze 38 1005 32 5000 5.14 280 08:21 28.05.2022
3444 Haze 36 1006 41 5000 6.17 290 06:33 28.05.2022
3445 Haze 33 1006 49 4000 5.14 310 04:43 28.05.2022
3446 Haze 31 1003 42 3000 3.6 280 01:46 28.05.2022
3447 Haze 32 1003 35 3000 4.63 330 23:55 27.05.2022
3448 Haze 33 1003 33 3000 3.6 300 22:38 27.05.2022
3449 Haze 33 1003 29 3000 2.57 300 21:22 27.05.2022
3450 Haze 34 1004 26 3000 3.09 300 20:42 27.05.2022
3451 Haze 34 1004 26 3000 3.09 300 20:18 27.05.2022
3452 Haze 36 1004 21 3000 4.12 280 19:36 27.05.2022
3453 Haze 36 1004 21 3000 4.12 280 19:18 27.05.2022
3454 Haze 36 1002 24 4000 2.57 230 16:43 27.05.2022
3455 Haze 39 1001 21 4000 3.09 270 15:47 27.05.2022
3456 Haze 41 1001 18 5000 5.66 280 14:46 27.05.2022
3457 Haze 42 1001 16 5000 5.66 270 13:36 27.05.2022
3458 Haze 41 1003 22 5000 4.63 250 11:48 27.05.2022
3459 Haze 41 1003 24 5000 4.63 290 11:26 27.05.2022
3460 Haze 39 1005 30 5000 3.09 270 10:35 27.05.2022
3461 Haze 38 1005 34 5000 3.6 200 09:42 27.05.2022
3462 Haze 37 1006 36 5000 2.06 280 08:48 27.05.2022
3463 Haze 34 1008 46 5000 3.09 200 06:58 27.05.2022
3464 Haze 27 1006 65 3000 1.03 140 02:57 27.05.2022
3465 Haze 27 1005 65 3000 1.03 80 00:54 27.05.2022
3466 Haze 29 1006 61 3000 1.03 80 22:53 26.05.2022
3467 Haze 29 1005 61 3000 2.57 210 21:45 26.05.2022
3468 Haze 29 1005 61 3000 2.06 200 20:59 26.05.2022
3469 Haze 32 1006 45 3000 3.6 190 19:29 26.05.2022
3470 Haze 33 1005 46 3000 1.54 210 18:24 26.05.2022
3471 Haze 34 1004 40 3000 0 0 16:58 26.05.2022
3472 Haze 35 1003 41 4000 1.54 40 15:49 26.05.2022
3473 Haze 35 1003 38 4000 2.57 200 15:18 26.05.2022
3474 Haze 37 1002 36 4000 4.12 230 13:45 26.05.2022
3475 Haze 39 1004 35 4000 2.57 330 11:38 26.05.2022
3476 Haze 39 1005 35 4000 4.63 330 10:37 26.05.2022
3477 Haze 39 1006 32 5000 2.57 340 09:37 26.05.2022
3478 Haze 38 1007 37 5000 4.63 300 08:38 26.05.2022
3479 Haze 31 1009 55 5000 2.06 210 05:24 26.05.2022
3480 Haze 27 1007 69 3000 3.09 290 01:24 26.05.2022
3481 Haze 28 1007 65 3000 3.6 350 23:40 25.05.2022
3482 Haze 26 1007 83 3000 3.09 320 22:30 25.05.2022
3483 Haze 26 1007 83 3000 1.03 300 21:33 25.05.2022
3484 Haze 27 1008 74 3000 2.06 230 20:38 25.05.2022
3485 Clouds 37 1003 18 10000 2.52 22 19:31 25.05.2022
3486 Clouds 38 1003 17 10000 2.91 16 17:47 25.05.2022
3487 Clouds 39 1002 15 10000 3.24 345 16:40 25.05.2022
3488 Clouds 34 1006 38 3000 1.03 100 15:58 25.05.2022
3489 Haze 36 1004 32 4000 2.57 80 14:56 25.05.2022
3490 Haze 37 1004 34 4000 2.57 60 14:33 25.05.2022
3491 Haze 37 1003 34 4000 2.06 50 13:58 25.05.2022
3492 Haze 39 1004 29 5000 1.54 350 12:45 25.05.2022
3493 Haze 39 1005 27 5000 3.09 210 10:58 25.05.2022
3494 Haze 39 1006 29 5000 1.54 260 10:20 25.05.2022
3495 Clear 40 1004 19 10000 1.13 200 08:41 25.05.2022
3496 Clear 38 1006 23 10000 2.9 319 07:23 25.05.2022
3497 Clear 38 1006 23 10000 2.9 319 07:23 25.05.2022
3498 Haze 33 1009 49 5000 2.06 290 05:18 25.05.2022
3499 Haze 28 1006 65 3000 2.06 320 00:28 25.05.2022
3500 Haze 28 1006 65 3000 1.54 200 23:47 24.05.2022
3501 Haze 29 1006 65 3000 1.54 320 22:39 24.05.2022
3502 Haze 30 1007 58 3000 0 0 21:43 24.05.2022
3503 Haze 30 1007 58 3000 0 0 21:21 24.05.2022
3504 Haze 30 1007 58 4000 1.03 10 20:30 24.05.2022
3505 Haze 30 1007 58 4000 1.54 20 18:56 24.05.2022
3506 Haze 31 1005 55 4000 1.54 180 16:58 24.05.2022
3507 Haze 31 1005 55 4000 2.06 110 16:28 24.05.2022
3508 Haze 33 1004 49 4000 1.54 130 15:18 24.05.2022
3509 Haze 33 1004 46 4000 2.06 110 14:25 24.05.2022
3510 Clouds 40 999 19 10000 3.43 306 13:18 24.05.2022
3511 Haze 38 1003 39 5000 1.03 310 11:40 24.05.2022
3512 Haze 37 1005 41 5000 1.54 340 09:46 24.05.2022
3513 Haze 35 1006 46 5000 2.06 330 08:50 24.05.2022
3514 Haze 33 1007 49 5000 1.03 200 06:58 24.05.2022
3515 Haze 30 1007 54 5000 1.54 40 04:59 24.05.2022
3516 Haze 29 1004 58 3000 2.06 50 02:42 24.05.2022
3517 Haze 29 1003 58 3000 2.57 10 01:43 24.05.2022
3518 Haze 30 1001 54 3000 1.54 30 23:43 23.05.2022
3519 Haze 30 1002 58 3000 2.06 10 21:59 23.05.2022
3520 Haze 30 1002 58 3000 2.06 10 21:41 23.05.2022
3521 Haze 30 1002 58 3000 2.06 40 20:42 23.05.2022
3522 Haze 31 1002 55 3000 2.06 40 19:33 23.05.2022
3523 Haze 32 1002 48 3000 2.06 30 18:59 23.05.2022
3524 Haze 32 1002 48 3000 2.06 30 18:37 23.05.2022
3525 Haze 36 1000 32 3000 1.54 220 17:55 23.05.2022
3526 Haze 38 999 28 4000 3.09 240 15:47 23.05.2022
3527 Haze 40 998 27 5000 5.14 230 13:44 23.05.2022
3528 Haze 40 999 29 5000 4.63 240 11:36 23.05.2022
3529 Haze 40 1000 33 5000 5.66 280 10:43 23.05.2022
3530 Haze 39 1001 35 5000 4.12 240 09:40 23.05.2022
3531 Haze 37 1002 41 5000 4.12 280 08:38 23.05.2022
3532 Haze 35 1003 49 5000 6.17 310 06:47 23.05.2022
3533 Haze 35 1003 46 5000 6.69 290 06:23 23.05.2022
3534 Haze 32 1001 51 3000 3.6 300 02:35 23.05.2022
3535 Haze 31 1000 51 3000 2.57 310 01:46 23.05.2022
3536 Clouds 32 997 39 10000 6.4 296 00:44 23.05.2022
3537 Haze 32 999 33 3000 2.57 310 22:47 22.05.2022
3538 Haze 32 999 33 3000 2.57 310 22:18 22.05.2022
3539 Haze 32 999 31 3000 1.03 290 21:49 22.05.2022
3540 Haze 33 999 29 3000 2.06 320 20:40 22.05.2022
3541 Haze 33 999 29 3000 2.06 320 20:19 22.05.2022
3542 Haze 34 999 26 3000 2.06 300 18:58 22.05.2022
3543 Haze 36 999 23 3000 1.54 300 18:31 22.05.2022
3544 Haze 36 998 23 3000 2.06 300 17:51 22.05.2022
3545 Haze 37 998 22 3000 3.09 300 16:51 22.05.2022
3546 Haze 41 997 17 5000 5.14 310 14:56 22.05.2022
3547 Haze 41 997 17 5000 5.14 310 14:35 22.05.2022
3548 Haze 40 997 24 5000 7.2 320 12:54 22.05.2022
3549 Haze 41 998 26 5000 4.12 260 11:53 22.05.2022
3550 Haze 40 999 29 5000 4.12 290 10:29 22.05.2022
3551 Haze 39 1001 32 5000 4.12 310 09:19 22.05.2022
3552 Haze 37 1002 39 5000 2.57 300 07:34 22.05.2022
3553 Haze 35 1002 38 5000 6.17 290 06:41 22.05.2022
3554 Haze 32 1001 43 4000 4.12 280 03:25 22.05.2022
3555 Haze 33 1000 40 3000 3.09 300 00:48 22.05.2022
3556 Haze 33 1000 40 3000 4.12 280 23:56 21.05.2022
3557 Haze 33 1000 40 3000 5.14 300 23:22 21.05.2022
3558 Haze 35 1000 34 3000 4.12 290 21:59 21.05.2022
3559 Haze 35 1000 31 3000 2.57 290 21:30 21.05.2022
3560 Haze 36 1000 30 3000 2.57 270 20:29 21.05.2022
3561 Haze 36 1000 28 3500 2.06 280 19:43 21.05.2022
3562 Haze 37 1000 30 3500 2.57 300 18:45 21.05.2022
3563 Haze 39 999 30 3500 2.06 230 16:57 21.05.2022
3564 Haze 42 998 24 5000 5.14 280 14:39 21.05.2022
3565 Haze 42 998 26 5000 5.14 300 13:55 21.05.2022
3566 Haze 42 998 24 5000 3.09 300 13:19 21.05.2022
3567 Haze 43 999 23 5000 5.66 320 12:38 21.05.2022
3568 Haze 43 1000 23 5000 5.66 310 11:20 21.05.2022
3569 Haze 41 1001 29 5000 3.6 310 09:57 21.05.2022
3570 Haze 40 1002 31 5000 6.17 320 08:59 21.05.2022
3571 Haze 39 1003 32 5000 6.17 320 08:37 21.05.2022
3572 Clear 37 1003 25 10000 5.97 295 05:52 21.05.2022
3573 Haze 32 1002 51 4000 3.09 210 01:41 21.05.2022
3574 Haze 33 1002 49 4000 2.57 210 23:32 20.05.2022
3575 Haze 32 1002 48 4000 2.06 220 22:29 20.05.2022
3576 Haze 33 1003 49 4000 1.03 200 21:55 20.05.2022
3577 Haze 33 1003 49 4000 1.03 200 21:19 20.05.2022
3578 Haze 33 1003 49 4000 1.03 270 20:45 20.05.2022
3579 Haze 34 1003 46 4000 1.03 180 19:45 20.05.2022
3580 Haze 35 1003 46 4000 1.54 220 18:49 20.05.2022
3581 Haze 36 1002 44 4000 2.57 180 17:48 20.05.2022
3582 Haze 37 1002 41 4000 2.06 190 16:22 20.05.2022
3583 Haze 37 1001 41 4000 2.57 200 15:53 20.05.2022
3584 Haze 40 1001 37 4000 4.12 180 14:32 20.05.2022
3585 Haze 40 1001 35 4000 2.57 170 13:59 20.05.2022
3586 Haze 40 1002 37 5000 2.57 120 11:51 20.05.2022
3587 Haze 40 1003 39 5000 1.54 130 10:34 20.05.2022
3588 Haze 38 1005 47 5000 3.09 210 08:59 20.05.2022
3589 Haze 37 1006 49 5000 3.09 210 07:42 20.05.2022
3590 Haze 35 1007 55 5000 2.06 220 06:39 20.05.2022
3591 Haze 34 1007 59 5000 4.12 200 05:39 20.05.2022
3592 Haze 31 1005 62 3000 2.06 180 01:18 20.05.2022
3593 Haze 31 1004 58 3000 1.03 210 23:31 19.05.2022
3594 Haze 31 1004 62 3000 1.54 270 22:34 19.05.2022
3595 Haze 31 1005 62 3000 1.54 70 21:49 19.05.2022
3596 Haze 31 1005 62 3000 1.54 70 21:49 19.05.2022
3597 Haze 31 1005 62 3000 1.54 70 21:23 19.05.2022
3598 Haze 33 1005 55 3000 1.03 240 20:43 19.05.2022
3599 Haze 33 1005 55 3000 1.54 260 19:54 19.05.2022
3600 Haze 33 1004 55 3000 1.54 220 18:58 19.05.2022
3601 Haze 34 1004 52 3000 1.54 170 17:35 19.05.2022
3602 Haze 35 1002 49 4000 4.12 180 15:34 19.05.2022
3603 Haze 36 1002 46 4000 5.14 180 14:35 19.05.2022
3604 Haze 38 1002 39 4000 4.12 160 13:59 19.05.2022
3605 Haze 39 1003 37 4000 4.12 180 11:52 19.05.2022
3606 Haze 38 1005 39 4000 4.12 120 10:25 19.05.2022
3607 Haze 35 1008 43 4000 3.09 190 08:33 19.05.2022
3608 Haze 34 1008 43 5000 1.03 290 06:57 19.05.2022
3609 Haze 27 1007 74 3000 3.6 190 02:59 19.05.2022
3610 Thunderstorm 27 1006 65 3000 3.6 140 00:56 19.05.2022
3611 Thunderstorm 26 1008 73 3000 6.17 50 23:00 18.05.2022
3612 Thunderstorm 27 1007 65 3000 6.17 30 22:40 18.05.2022
3613 Haze 31 1007 55 3000 7.2 340 21:32 18.05.2022
3614 Haze 31 1006 55 3000 1.54 120 20:55 18.05.2022
3615 Haze 31 1006 55 3000 2.57 140 20:19 18.05.2022
3616 Haze 33 1006 46 3000 4.12 120 18:46 18.05.2022
3617 Haze 35 1004 34 3000 1.54 130 17:41 18.05.2022
3618 Haze 36 1003 32 3000 2.06 130 17:23 18.05.2022
3619 Haze 36 1003 30 3000 3.6 140 16:36 18.05.2022
3620 Haze 38 1003 32 4000 1.54 80 15:42 18.05.2022
3621 Haze 38 1003 32 4000 1.54 80 15:19 18.05.2022
3622 Haze 39 1001 35 4000 2.06 110 13:48 18.05.2022
3623 Haze 40 1001 33 4000 2.57 130 12:53 18.05.2022
3624 Haze 41 1002 31 4000 1.54 40 11:47 18.05.2022
3625 Haze 41 1003 31 4000 1.54 250 11:29 18.05.2022
3626 Haze 40 1004 35 4000 1.54 200 09:59 18.05.2022
3627 Haze 38 1006 39 4000 3.6 210 07:56 18.05.2022
3628 Haze 37 1006 44 4000 3.6 190 06:50 18.05.2022
3629 Haze 33 1004 55 3000 2.06 200 02:44 18.05.2022
3630 Haze 34 1003 52 3000 2.06 190 00:31 18.05.2022
3631 Haze 35 1003 49 3000 2.06 190 22:57 17.05.2022
3632 Haze 35 1004 49 3000 2.06 170 21:21 17.05.2022
3633 Haze 36 1004 46 3000 2.06 170 20:30 17.05.2022
3634 Haze 36 1004 44 3000 2.57 200 19:29 17.05.2022
3635 Haze 38 1002 28 3000 1.54 130 17:53 17.05.2022
3636 Haze 38 1002 27 3000 2.06 140 17:22 17.05.2022
3637 Haze 38 1001 22 4000 1.03 100 16:34 17.05.2022
3638 Haze 40 1000 21 5000 1.54 90 15:33 17.05.2022
3639 Haze 43 1000 17 5000 1.03 40 14:31 17.05.2022
3640 Haze 43 1000 17 5000 2.57 120 13:38 17.05.2022
3641 Haze 43 1001 17 5000 1.54 80 12:23 17.05.2022
3642 Haze 41 1003 21 5000 1.54 90 09:53 17.05.2022
3643 Haze 41 1004 21 5000 1.54 60 08:44 17.05.2022
3644 Haze 39 1005 27 5000 1.03 90 07:18 17.05.2022
3645 Haze 33 1005 52 5000 1.03 160 04:28 17.05.2022
3646 Haze 31 1003 55 3000 1.54 310 00:47 17.05.2022
3647 Haze 33 1004 52 3000 1.54 170 22:44 16.05.2022
3648 Haze 33 1004 52 3000 1.54 170 22:18 16.05.2022
3649 Haze 31 1004 42 3000 1.54 190 20:49 16.05.2022
3650 Haze 33 1004 33 3000 0 0 19:59 16.05.2022
3651 Haze 34 1003 33 3000 1.03 340 18:32 16.05.2022
3652 Haze 36 1002 34 3000 1.03 90 16:28 16.05.2022
3653 Haze 39 1001 29 4000 1.03 80 14:42 16.05.2022
3654 Haze 39 1002 29 4000 2.06 60 13:26 16.05.2022
3655 Haze 37 1004 34 4000 2.06 340 11:34 16.05.2022
3656 Haze 37 1005 36 5000 3.6 280 10:24 16.05.2022
3657 Haze 36 1008 44 5000 5.14 190 07:34 16.05.2022
3658 Haze 32 1008 55 4000 6.69 180 05:40 16.05.2022
3659 Haze 33 1005 46 3000 5.14 140 23:59 15.05.2022
3660 Haze 34 1004 46 3000 5.14 130 22:36 15.05.2022
3661 Haze 37 1005 32 3000 1.54 120 21:48 15.05.2022
3662 Haze 37 1005 32 3000 1.54 120 21:21 15.05.2022
3663 Haze 38 1005 30 3000 2.06 340 20:34 15.05.2022
3664 Haze 39 1003 27 3000 3.09 350 17:56 15.05.2022
3665 Haze 40 1003 25 3000 5.14 320 16:36 15.05.2022
3666 Haze 44 1000 19 5000 2.06 240 14:18 15.05.2022
3667 Haze 45 1000 19 5000 2.06 320 13:27 15.05.2022
3668 Haze 44 1002 20 5000 2.06 230 11:55 15.05.2022
3669 Haze 43 1003 23 5000 3.09 320 10:35 15.05.2022
3670 Haze 42 1005 26 5000 3.6 310 08:52 15.05.2022
3671 Haze 39 1005 30 5000 5.66 310 06:59 15.05.2022
3672 Haze 39 1005 30 5000 5.66 310 06:39 15.05.2022
3673 Haze 33 1003 33 3000 1.54 230 02:24 15.05.2022
3674 Haze 37 1002 39 3000 3.6 180 23:56 14.05.2022
3675 Haze 37 1002 39 3000 3.6 180 23:34 14.05.2022
3676 Haze 37 1002 39 3000 2.57 200 21:45 14.05.2022
3677 Haze 37 1003 39 3000 2.06 200 21:19 14.05.2022
3678 Haze 38 1003 39 3000 2.06 180 19:40 14.05.2022
3679 Haze 38 1003 39 3000 2.06 180 19:40 14.05.2022
3680 Haze 38 1003 39 3000 2.06 160 19:20 14.05.2022
3681 Haze 38 1003 34 3000 1.54 120 18:47 14.05.2022
3682 Haze 39 1002 30 3000 1.03 50 17:36 14.05.2022
3683 Haze 40 1000 24 5000 1.03 100 15:55 14.05.2022
3684 Haze 44 1000 19 5000 0 0 14:37 14.05.2022
3685 Haze 45 1000 16 5000 1.54 300 12:51 14.05.2022
3686 Haze 45 1000 17 5000 1.54 10 11:37 14.05.2022
3687 Haze 43 1002 22 5000 1.03 0 10:24 14.05.2022
3688 Haze 43 1002 22 5000 2.57 230 09:56 14.05.2022
3689 Haze 42 1003 24 5000 2.57 220 08:59 14.05.2022
3690 Haze 40 1004 27 5000 1.54 140 07:21 14.05.2022
3691 Haze 33 1003 52 4000 2.06 220 03:41 14.05.2022
3692 Haze 33 1001 46 3000 1.03 90 00:21 14.05.2022
3693 Haze 34 1000 43 3000 3.09 210 23:23 13.05.2022
3694 Haze 34 1000 46 3000 1.03 250 22:52 13.05.2022
3695 Haze 34 1000 49 3000 2.06 220 22:20 13.05.2022
3696 Haze 35 1001 49 3000 3.09 180 20:56 13.05.2022
3697 Haze 36 1001 44 3000 2.57 180 20:28 13.05.2022
3698 Haze 35 1001 41 3000 2.57 180 19:40 13.05.2022
3699 Haze 36 1001 36 3500 1.54 130 18:41 13.05.2022
3700 Haze 37 1000 34 3500 1.54 120 17:29 13.05.2022
3701 Haze 38 1000 32 4000 1.54 80 16:23 13.05.2022
3702 Haze 41 999 29 4000 1.54 50 15:43 13.05.2022
3703 Haze 43 998 26 5000 2.06 40 13:57 13.05.2022
3704 Haze 42 999 29 5000 3.09 190 12:33 13.05.2022
3705 Haze 42 1000 29 5000 2.06 220 11:29 13.05.2022
3706 Haze 39 1003 39 5000 2.57 300 09:43 13.05.2022
3707 Haze 39 1003 39 5000 2.57 300 09:43 13.05.2022
3708 Haze 39 1003 39 5000 5.14 270 08:50 13.05.2022
3709 Haze 37 1004 44 5000 3.09 210 07:49 13.05.2022
3710 Haze 36 1005 46 5000 4.12 200 06:35 13.05.2022
3711 Haze 32 1005 55 4000 2.06 190 04:22 13.05.2022
3712 Haze 30 1003 62 3000 0 0 00:40 13.05.2022
3713 Haze 31 1002 58 3000 0 0 22:46 12.05.2022
3714 Haze 31 1002 62 3000 1.54 290 21:59 12.05.2022
3715 Haze 32 1001 58 3000 0 0 20:38 12.05.2022
3716 Haze 32 1002 51 3000 1.03 360 19:23 12.05.2022
3717 Haze 33 1002 52 3000 1.54 100 17:59 12.05.2022
3718 Clouds 32 1003 51 2000 2.06 240 16:27 12.05.2022
3719 Haze 34 1001 46 2000 5.14 40 14:47 12.05.2022
3720 Haze 41 999 29 4000 1.54 100 13:47 12.05.2022
3721 Haze 41 1001 35 4000 1.03 80 11:23 12.05.2022
3722 Haze 39 1003 39 5000 3.09 180 09:37 12.05.2022
3723 Haze 38 1004 44 5000 1.03 230 08:51 12.05.2022
3724 Haze 36 1005 46 5000 1.54 280 07:41 12.05.2022
3725 Haze 36 1005 46 5000 2.06 160 06:39 12.05.2022
3726 Haze 32 1005 58 3000 3.09 170 02:59 12.05.2022
3727 Haze 32 1003 55 3000 1.54 190 00:39 12.05.2022
3728 Haze 33 1003 49 3000 2.06 140 22:39 11.05.2022
3729 Haze 33 1003 49 3000 2.06 120 21:52 11.05.2022
3730 Haze 33 1003 49 3000 1.03 140 21:24 11.05.2022
3731 Haze 35 1003 43 3000 1.03 110 19:36 11.05.2022
3732 Haze 37 1002 41 4000 4.12 120 16:59 11.05.2022
3733 Haze 39 1000 37 4000 2.57 130 15:50 11.05.2022
3734 Haze 40 1000 33 5000 1.54 100 14:39 11.05.2022
3735 Haze 41 999 31 5000 1.54 80 14:19 11.05.2022
3736 Haze 41 1000 29 5000 2.57 70 11:54 11.05.2022
3737 Haze 41 1001 31 5000 2.57 80 11:30 11.05.2022
3738 Haze 38 1004 39 5000 1.54 60 08:55 11.05.2022
3739 Haze 35 1005 49 5000 1.54 90 05:45 11.05.2022
3740 Haze 31 1002 55 3000 2.06 90 01:23 11.05.2022
3741 Haze 33 1002 46 3000 2.06 80 22:32 10.05.2022
3742 Haze 34 1002 43 3000 1.03 60 21:58 10.05.2022
3743 Haze 34 1002 43 3000 1.03 60 20:58 10.05.2022
3744 Haze 35 1002 41 3000 1.54 70 20:19 10.05.2022
3745 Haze 36 1003 36 3000 1.03 80 18:35 10.05.2022
3746 Haze 36 1002 38 3000 1.03 90 17:37 10.05.2022
3747 Haze 38 1001 34 4000 2.57 90 15:43 10.05.2022
3748 Haze 42 999 26 5000 2.06 50 12:48 10.05.2022
3749 Haze 43 999 20 5000 4.12 70 11:52 10.05.2022
3750 Haze 43 1000 20 5000 5.14 80 11:21 10.05.2022
3751 Haze 42 1000 21 5000 3.09 350 10:54 10.05.2022
3752 Haze 41 1002 24 5000 4.12 340 09:27 10.05.2022
3753 Haze 38 1004 37 5000 1.54 110 07:32 10.05.2022
3754 Haze 33 1004 40 4000 2.57 70 04:34 10.05.2022
3755 Haze 31 1003 33 3000 1.03 20 01:36 10.05.2022
3756 Haze 33 1002 29 3000 1.03 50 23:37 09.05.2022
3757 Haze 34 1002 27 3000 1.54 50 22:29 09.05.2022
3758 Haze 36 1002 24 3000 2.06 40 21:21 09.05.2022
3759 Haze 35 1003 29 3000 1.03 340 19:52 09.05.2022
3760 Haze 36 1002 28 3500 1.03 40 17:59 09.05.2022
3761 Haze 36 1001 24 3500 1.03 60 16:49 09.05.2022
3762 Haze 39 1000 21 4000 1.54 90 15:53 09.05.2022
3763 Haze 40 1000 20 4000 2.06 90 15:31 09.05.2022
3764 Haze 42 999 17 4000 2.06 100 14:33 09.05.2022
3765 Haze 42 999 17 4000 2.06 110 13:51 09.05.2022
3766 Haze 42 1000 17 5000 3.6 310 12:30 09.05.2022
3767 Haze 42 1001 19 5000 2.06 40 11:43 09.05.2022
3768 Haze 42 1001 20 5000 2.06 60 10:45 09.05.2022
3769 Haze 42 1003 20 5000 2.06 10 09:39 09.05.2022
3770 Haze 39 1005 30 5000 2.06 50 07:56 09.05.2022
3771 Haze 33 1005 33 3000 3.09 120 04:33 09.05.2022
3772 Haze 33 1005 33 3000 3.09 120 04:33 09.05.2022
3773 Haze 33 1005 33 3000 3.09 120 04:33 09.05.2022
3774 Haze 31 1002 33 3000 1.03 260 00:21 09.05.2022
3775 Haze 30 1002 37 3000 0 0 22:57 08.05.2022
3776 Haze 32 1002 29 3000 0 0 22:27 08.05.2022
3777 Haze 33 1003 29 3000 0 0 20:41 08.05.2022
3778 Haze 34 1003 27 3000 0 0 19:53 08.05.2022
3779 Haze 35 1003 26 3000 0 0 18:59 08.05.2022
3780 Haze 35 1003 26 3000 0 0 18:24 08.05.2022
3781 Haze 37 1003 23 3000 0 0 17:21 08.05.2022
3782 Haze 39 1001 21 4000 1.03 330 15:43 08.05.2022
3783 Haze 39 1001 19 4000 0 0 15:20 08.05.2022
3784 Haze 42 1001 17 4000 1.03 100 12:41 08.05.2022
3785 Haze 42 1004 19 5000 1.03 340 10:34 08.05.2022
3786 Haze 41 1005 16 5000 2.06 130 09:59 08.05.2022
3787 Haze 41 1005 18 5000 2.06 80 09:33 08.05.2022
3788 Haze 38 1007 28 5000 2.06 80 07:33 08.05.2022
3789 Haze 31 1007 42 4000 1.03 330 04:24 08.05.2022
3790 Haze 28 1007 54 3000 1.03 260 03:19 08.05.2022
3791 Haze 31 1005 45 3000 1.03 350 00:29 08.05.2022
3792 Haze 31 1005 42 3000 1.03 350 23:53 07.05.2022
3793 Haze 31 1005 48 3000 0 0 22:57 07.05.2022
3794 Haze 31 1005 48 3000 1.03 340 22:33 07.05.2022
3795 Haze 31 1005 45 3000 1.03 320 21:43 07.05.2022
3796 Haze 31 1006 48 3000 1.03 320 20:55 07.05.2022
3797 Haze 32 1006 45 3000 1.54 320 19:58 07.05.2022
3798 Haze 33 1006 43 3000 1.03 210 17:43 07.05.2022
3799 Haze 36 1005 32 4000 1.03 60 15:53 07.05.2022
3800 Haze 37 1004 30 4000 2.57 60 14:20 07.05.2022
3801 Haze 41 1005 24 5000 1.54 50 10:57 07.05.2022
3802 Haze 40 1007 27 5000 2.06 100 09:22 07.05.2022
3803 Haze 38 1008 37 5000 1.03 70 07:52 07.05.2022
3804 Haze 36 1009 41 5000 1.54 20 06:43 07.05.2022
3805 Haze 33 1009 43 5000 1.54 80 04:59 07.05.2022
3806 Haze 30 1007 45 3000 1.03 110 02:21 07.05.2022
3807 Haze 31 1006 42 3000 0 0 23:38 06.05.2022
3808 Haze 31 1006 45 3000 0 0 22:31 06.05.2022
3809 Haze 31 1006 37 3000 0 0 21:43 06.05.2022
3810 Haze 31 1007 37 3000 0 0 20:35 06.05.2022
3811 Haze 34 1007 31 3000 2.06 120 19:31 06.05.2022
3812 Haze 35 1006 29 3000 2.06 120 19:00 06.05.2022
3813 Haze 35 1006 26 3000 2.06 100 18:19 06.05.2022
3814 Haze 37 1004 19 3000 1.03 40 16:44 06.05.2022
3815 Haze 39 1003 18 4000 1.54 360 15:41 06.05.2022
3816 Haze 41 1003 16 5000 2.57 320 14:53 06.05.2022
3817 Haze 42 1003 14 5000 2.57 260 12:56 06.05.2022
3818 Haze 42 1003 14 5000 2.57 260 12:37 06.05.2022
3819 Haze 43 1004 14 5000 4.12 320 11:42 06.05.2022
3820 Haze 42 1006 15 5000 2.06 300 10:30 06.05.2022
3821 Haze 42 1006 14 5000 2.06 330 09:45 06.05.2022
3822 Haze 41 1007 17 5000 3.6 320 08:27 06.05.2022
3823 Haze 38 1008 22 5000 3.6 350 06:46 06.05.2022
3824 Haze 35 1008 26 4000 4.12 310 04:53 06.05.2022
3825 Haze 27 1007 34 3000 0 0 02:47 06.05.2022
3826 Haze 28 1005 32 3000 0 0 00:19 06.05.2022
3827 Haze 29 1006 28 3000 2.06 320 21:56 05.05.2022
3828 Haze 30 1006 26 3000 1.03 250 21:19 05.05.2022
3829 Haze 36 1006 21 3000 2.06 340 19:53 05.05.2022
3830 Haze 34 1006 24 3000 3.6 320 18:26 05.05.2022
3831 Haze 37 1004 20 4000 2.57 310 16:20 05.05.2022
3832 Haze 41 1003 16 5000 5.14 300 14:49 05.05.2022
3833 Haze 42 1004 15 5000 4.63 300 13:22 05.05.2022
3834 Haze 42 1004 16 5000 3.6 300 12:25 05.05.2022
3835 Haze 41 1005 20 5000 1.54 200 10:37 05.05.2022
3836 Haze 41 1007 22 5000 2.57 90 09:39 05.05.2022
3837 Haze 38 1009 23 5000 3.09 10 07:34 05.05.2022
3838 Haze 28 1008 61 3000 0 0 03:00 05.05.2022
3839 Haze 30 1007 54 3000 2.06 230 01:50 05.05.2022
3840 Haze 30 1007 54 3000 2.06 230 01:22 05.05.2022
3841 Haze 31 1007 55 4000 1.54 180 23:34 04.05.2022
3842 Haze 31 1007 51 4000 2.06 180 22:27 04.05.2022
3843 Haze 32 1008 51 4000 1.54 170 21:49 04.05.2022
3844 Haze 32 1008 51 4000 1.54 170 21:26 04.05.2022
3845 Haze 32 1008 51 4000 1.54 170 21:26 04.05.2022
3846 Haze 33 1008 49 4000 2.06 180 20:22 04.05.2022
3847 Haze 34 1008 46 4000 2.06 180 19:51 04.05.2022
3848 Haze 35 1007 43 4000 2.57 180 18:51 04.05.2022
3849 Haze 35 1007 43 4000 3.09 170 18:21 04.05.2022
3850 Haze 36 1006 38 4000 3.09 180 17:29 04.05.2022
3851 Haze 39 1005 24 4000 1.54 330 15:38 04.05.2022
3852 Haze 41 1004 21 4000 1.54 260 14:59 04.05.2022
3853 Haze 42 1004 20 4000 0 0 14:20 04.05.2022
3854 Haze 42 1005 20 5000 1.03 330 13:18 04.05.2022
3855 Haze 42 1006 23 5000 1.54 40 12:29 04.05.2022
3856 Haze 41 1007 24 5000 1.54 40 10:40 04.05.2022
3857 Haze 40 1008 24 5000 1.54 20 09:38 04.05.2022
3858 Haze 38 1010 32 5000 3.6 280 08:33 04.05.2022
3859 Haze 32 1010 51 5000 4.12 240 05:50 04.05.2022
3860 Haze 27 1009 65 3000 3.09 180 02:49 04.05.2022
3861 Haze 29 1006 51 3000 1.54 300 23:41 03.05.2022
3862 Haze 30 1006 48 3000 1.54 240 22:20 03.05.2022
3863 Haze 31 1006 42 3000 2.06 220 21:36 03.05.2022
3864 Haze 31 1006 42 3000 2.06 250 20:52 03.05.2022
3865 Haze 32 1007 40 3000 1.03 200 19:44 03.05.2022
3866 Haze 34 1006 36 3000 0 0 18:50 03.05.2022
3867 Thunderstorm 37 1005 26 3000 5.14 270 17:38 03.05.2022
3868 Clouds 36 1006 28 3000 3.6 270 16:35 03.05.2022
3869 Haze 39 1004 24 3000 6.17 330 14:51 03.05.2022
3870 Haze 43 1003 19 5000 1.03 30 12:47 03.05.2022
3871 Haze 43 1003 20 5000 2.06 10 12:25 03.05.2022
3872 Haze 43 1003 20 5000 2.06 10 12:25 03.05.2022
3873 Haze 43 1004 20 5000 3.09 80 10:52 03.05.2022
3874 Haze 41 1007 22 5000 2.2 333 08:58 03.05.2022
3875 Haze 39 1008 24 5000 2.57 20 06:46 03.05.2022
3876 Haze 35 1007 31 4000 1.54 330 04:58 03.05.2022
3877 Haze 29 1004 42 3000 0 0 23:44 02.05.2022
3878 Haze 30 1004 37 3000 0 0 22:34 02.05.2022
3879 Haze 30 1004 37 3000 0 0 21:49 02.05.2022
3880 Haze 32 1004 35 3000 0 0 20:50 02.05.2022
3881 Haze 36 1004 30 3000 0 0 18:35 02.05.2022
3882 Haze 36 1004 30 3000 1.03 350 17:44 02.05.2022
3883 Haze 36 1003 34 3000 1.54 340 16:50 02.05.2022
3884 Haze 37 1002 30 4000 0 0 15:56 02.05.2022
3885 Haze 39 1002 27 4000 0 0 15:19 02.05.2022
3886 Haze 39 1002 25 5000 5.14 250 13:48 02.05.2022
3887 Haze 43 1002 19 5000 4.63 330 12:18 02.05.2022
3888 Haze 41 1003 22 5000 3.09 360 10:20 02.05.2022
3889 Haze 40 1005 24 5000 4.63 290 08:46 02.05.2022
3890 Haze 39 1006 27 5000 2.06 170 07:39 02.05.2022
3891 Haze 33 1003 35 3000 5.14 310 01:58 02.05.2022
3892 Haze 32 1003 35 3000 4.12 320 00:23 02.05.2022
3893 Haze 32 1003 35 3000 2.57 320 23:46 01.05.2022
3894 Haze 34 1003 31 3000 1.54 280 21:56 01.05.2022
3895 Clouds 35 1000 20 10000 2.82 234 20:50 01.05.2022
3896 Haze 35 1003 29 3000 2.57 280 19:46 01.05.2022
3897 Haze 36 1003 28 3000 3.09 300 18:53 01.05.2022
3898 Haze 36 1003 30 3000 3.09 270 17:57 01.05.2022
3899 Haze 37 1002 26 3000 3.09 290 16:46 01.05.2022
3900 Haze 37 1002 26 3000 3.6 290 16:23 01.05.2022
3901 Haze 39 1001 22 4000 4.12 270 15:22 01.05.2022
3902 Haze 43 1000 14 5000 2.57 210 13:23 01.05.2022
3903 Haze 43 1002 14 5000 2.57 230 10:46 01.05.2022
3904 Haze 41 1005 18 5000 2.57 220 08:51 01.05.2022
3905 Haze 38 1006 28 5000 4.12 280 06:53 01.05.2022
3906 Haze 29 1004 28 4000 1.54 300 02:51 01.05.2022
3907 Haze 31 1003 27 4000 1.03 330 22:52 30.04.2022
3908 Haze 33 1003 24 4000 1.03 340 21:35 30.04.2022
3909 Haze 35 1004 21 4000 3.09 310 20:24 30.04.2022
3910 Haze 35 1004 23 4000 3.6 310 19:33 30.04.2022
3911 Haze 37 1004 20 4000 1.54 280 17:38 30.04.2022
3912 Haze 39 1003 16 4000 2.06 280 16:30 30.04.2022
3913 Haze 41 1002 14 4000 4.12 280 15:19 30.04.2022
3914 Haze 43 1002 14 5000 3.09 270 14:31 30.04.2022
3915 Haze 43 1003 14 5000 4.12 260 12:28 30.04.2022
3916 Haze 44 1004 12 5000 4.12 270 11:32 30.04.2022
3917 Haze 44 1005 13 5000 3.09 250 10:30 30.04.2022
3918 Haze 42 1007 16 5000 1.54 270 08:34 30.04.2022
3919 Haze 37 1008 22 4000 4.12 330 05:19 30.04.2022
3920 Haze 31 1004 23 3000 1.03 10 00:35 30.04.2022
3921 Haze 31 1005 22 3000 2.57 200 23:29 29.04.2022
3922 Haze 28 1005 30 3000 1.54 130 22:29 29.04.2022
3923 Haze 31 1005 23 3000 1.03 170 21:26 29.04.2022
3924 Haze 32 1005 22 3000 1.54 320 20:36 29.04.2022
3925 Haze 34 1006 18 3000 2.57 320 19:33 29.04.2022
3926 Haze 36 1006 17 3000 2.06 320 17:38 29.04.2022
3927 Haze 37 1005 18 4000 2.06 310 16:43 29.04.2022
3928 Haze 42 1004 12 5000 3.09 330 14:38 29.04.2022
3929 Haze 42 1004 12 5000 3.09 330 14:38 29.04.2022
3930 Haze 42 1004 12 5000 3.09 330 14:38 29.04.2022
3931 Haze 43 1004 12 5000 3.6 320 13:59 29.04.2022
3932 Haze 44 1004 10 5000 4.63 330 12:41 29.04.2022
3933 Haze 44 1006 11 5000 3.09 300 10:56 29.04.2022
3934 Haze 41 1009 16 5000 4.12 330 07:58 29.04.2022
3935 Haze 41 1010 16 5000 5.14 330 07:26 29.04.2022
3936 Haze 39 1010 19 5000 3.6 300 06:33 29.04.2022
3937 Haze 28 1009 39 3000 1.54 270 02:50 29.04.2022
3938 Haze 30 1008 32 3000 1.54 240 00:18 29.04.2022
3939 Haze 30 1008 35 3000 1.03 200 23:26 28.04.2022
3940 Haze 31 1008 33 3000 0 0 22:37 28.04.2022
3941 Haze 32 1008 29 3000 0 0 21:44 28.04.2022
3942 Haze 33 1009 29 3000 0 0 20:49 28.04.2022
3943 Haze 34 1009 27 3000 1.03 250 19:57 28.04.2022
3944 Haze 34 1009 27 3000 1.03 250 19:38 28.04.2022
3945 Haze 35 1009 26 3000 1.03 250 19:19 28.04.2022
3946 Haze 35 1007 21 3000 0 0 17:55 28.04.2022
3947 Haze 35 1007 20 3000 0 0 16:58 28.04.2022
3948 Haze 36 1006 19 4000 0 0 16:21 28.04.2022
3949 Haze 38 1006 19 4000 1.03 330 15:49 28.04.2022
3950 Haze 39 1006 16 4000 1.03 110 15:18 28.04.2022
3951 Haze 43 1005 11 5000 1.54 120 13:42 28.04.2022
3952 Haze 44 1005 11 5000 1.03 100 12:30 28.04.2022
3953 Haze 44 1005 11 5000 1.03 100 12:30 28.04.2022
3954 Haze 44 1006 10 5000 2.06 80 11:37 28.04.2022
3955 Haze 43 1007 12 5000 2.57 40 10:27 28.04.2022
3956 Haze 43 1008 13 5000 2.06 50 09:50 28.04.2022
3957 Haze 40 1010 17 5000 2.06 330 07:42 28.04.2022
3958 Haze 39 1010 17 5000 2.06 220 06:51 28.04.2022
3959 Haze 37 1010 22 5000 1.03 340 05:53 28.04.2022
3960 Haze 32 1009 33 4000 1.54 240 04:43 28.04.2022
3961 Haze 25 1008 38 3000 1.03 170 02:41 28.04.2022
3962 Haze 29 1006 28 3000 1.54 320 23:32 27.04.2022
3963 Haze 30 1007 26 3000 2.57 300 22:20 27.04.2022
3964 Haze 30 1007 26 3000 1.54 320 21:46 27.04.2022
3965 Haze 31 1008 23 3000 1.54 250 20:45 27.04.2022
3966 Haze 33 1008 22 3000 1.03 350 19:57 27.04.2022
3967 Haze 33 1008 21 3000 2.06 220 19:36 27.04.2022
3968 Haze 35 1008 18 3000 1.03 210 18:41 27.04.2022
3969 Haze 36 1007 19 3000 1.54 100 18:20 27.04.2022
3970 Haze 38 1005 18 4000 1.54 350 16:18 27.04.2022
3971 Haze 44 1004 10 5000 5.14 310 13:18 27.04.2022
3972 Haze 44 1005 10 5000 1.54 210 11:25 27.04.2022
3973 Haze 44 1006 11 5000 3.6 100 10:45 27.04.2022
3974 Haze 42 1009 14 5000 1.03 170 08:22 27.04.2022
3975 Haze 40 1010 16 5000 1.03 30 06:41 27.04.2022
3976 Haze 27 1008 36 3000 1.03 170 02:31 27.04.2022
3977 Haze 29 1007 32 3000 1.03 310 01:21 27.04.2022
3978 Haze 30 1007 30 3000 1.03 330 00:27 27.04.2022
3979 Haze 30 1007 28 3000 1.03 340 23:24 26.04.2022
3980 Haze 30 1007 28 3000 1.54 320 22:45 26.04.2022
3981 Haze 30 1007 28 3000 0 0 21:59 26.04.2022
3982 Haze 30 1007 28 3000 0 0 21:19 26.04.2022
3983 Haze 31 1008 27 3000 0 0 20:37 26.04.2022
3984 Haze 32 1008 25 3000 0 0 19:45 26.04.2022
3985 Haze 33 1008 25 3000 0 0 19:26 26.04.2022
3986 Haze 36 1008 20 3000 0 0 18:31 26.04.2022
3987 Haze 35 1007 21 3000 0 0 17:38 26.04.2022
3988 Haze 42 1005 14 4000 2.57 290 14:59 26.04.2022
3989 Haze 43 1005 14 5000 2.06 300 13:40 26.04.2022
3990 Haze 43 1005 14 5000 0 0 12:47 26.04.2022
3991 Haze 42 1006 14 5000 2.57 360 11:20 26.04.2022
3992 Haze 42 1007 14 5000 2.57 100 10:30 26.04.2022
3993 Haze 40 1009 17 5000 2.06 60 08:32 26.04.2022
3994 Haze 33 1009 29 4000 1.03 310 04:39 26.04.2022
3995 Haze 28 1008 39 3000 0 0 03:25 26.04.2022
3996 Haze 29 1007 32 4000 1.54 300 00:46 26.04.2022
3997 Haze 30 1006 30 4000 2.06 320 23:48 25.04.2022
3998 Haze 31 1007 29 4000 1.03 350 21:49 25.04.2022
3999 Haze 31 1008 27 4000 1.03 300 20:49 25.04.2022
4000 Haze 32 1008 25 4000 1.03 320 19:39 25.04.2022
4001 Haze 36 1008 20 4000 1.03 350 18:25 25.04.2022
4002 Haze 36 1007 20 4000 1.03 330 17:39 25.04.2022
4003 Haze 38 1005 17 4000 2.06 320 15:51 25.04.2022
4004 Haze 40 1005 14 4000 2.06 320 15:18 25.04.2022
4005 Haze 42 1004 12 5000 6.17 320 13:59 25.04.2022
4006 Haze 43 1005 12 5000 2.57 50 12:40 25.04.2022
4007 Clear 43 1007 13 6000 3.09 340 10:29 25.04.2022
4008 Clear 42 1008 13 6000 1.54 360 09:23 25.04.2022
4009 Haze 40 1009 15 5000 4.12 350 07:19 25.04.2022
4010 Haze 36 1009 20 5000 4.12 340 05:53 25.04.2022
4011 Haze 26 1006 41 3000 1.03 240 01:24 25.04.2022
4012 Haze 28 1006 39 3000 0 0 23:54 24.04.2022
4013 Haze 30 1007 35 3000 0 0 22:53 24.04.2022
4014 Haze 30 1007 35 3000 0 0 22:32 24.04.2022
4015 Haze 30 1007 35 3000 0 0 22:32 24.04.2022
4016 Haze 31 1007 33 3000 0 0 21:54 24.04.2022
4017 Haze 31 1007 33 3000 0 0 21:20 24.04.2022
4018 Haze 32 1008 31 3000 0 0 20:38 24.04.2022
4019 Haze 33 1008 29 3000 1.03 150 19:50 24.04.2022
4020 Haze 34 1008 27 3000 3.09 190 18:28 24.04.2022
4021 Haze 34 1007 26 3000 1.03 320 17:40 24.04.2022
4022 Haze 34 1007 26 3000 1.03 320 17:19 24.04.2022
4023 Haze 35 1007 24 3000 2.06 320 16:48 24.04.2022
4024 Haze 35 1006 24 3000 0 0 16:20 24.04.2022
4025 Haze 38 1005 20 4000 1.03 200 15:31 24.04.2022
4026 Haze 38 1005 20 4000 1.03 200 15:31 24.04.2022
4027 Haze 41 1005 17 5000 2.06 250 14:19 24.04.2022
4028 Haze 41 1006 16 5000 2.57 290 13:26 24.04.2022
4029 Haze 41 1006 16 5000 3.6 330 12:35 24.04.2022
4030 Haze 42 1007 16 5000 1.54 330 11:34 24.04.2022
4031 Haze 40 1008 18 5000 3.6 330 10:27 24.04.2022
4032 Haze 40 1010 22 5000 4.12 310 09:29 24.04.2022
4033 Haze 35 1011 34 5000 4.63 300 06:46 24.04.2022
4034 Haze 30 1010 42 3000 3.09 330 03:57 24.04.2022
4035 Haze 28 1009 47 3000 2.06 310 01:38 24.04.2022
4036 Haze 28 1009 47 3000 2.06 310 01:38 24.04.2022
4037 Haze 30 1008 42 3000 1.03 230 00:29 24.04.2022
4038 Haze 31 1008 45 3000 1.03 280 23:44 23.04.2022
4039 Haze 31 1008 45 3000 1.03 280 23:21 23.04.2022
4040 Haze 30 1009 51 3000 1.03 280 21:51 23.04.2022
4041 Haze 30 1009 51 3000 1.03 280 21:33 23.04.2022
4042 Haze 30 1010 48 3000 1.54 250 20:45 23.04.2022
4043 Haze 30 1010 48 3000 1.54 250 20:45 23.04.2022
4044 Haze 30 1010 48 3000 1.54 250 19:46 23.04.2022
4045 Haze 30 1010 48 3000 1.03 210 19:19 23.04.2022
4046 Haze 31 1010 48 3000 1.54 220 18:49 23.04.2022
4047 Haze 31 1009 48 3000 1.03 200 17:51 23.04.2022
4048 Haze 30 1009 51 3000 1.54 210 17:20 23.04.2022
4049 Haze 32 1008 45 3000 2.57 200 16:40 23.04.2022
4050 Haze 35 1007 36 4000 2.57 150 14:57 23.04.2022
4051 Haze 35 1007 38 3000 1.03 200 12:35 23.04.2022
4052 Haze 40 1009 29 5000 1.54 20 10:43 23.04.2022
4053 Haze 39 1010 35 5000 1.03 90 09:30 23.04.2022
4054 Haze 34 1012 49 5000 3.09 240 06:29 23.04.2022
4055 Haze 30 1011 62 3000 1.03 10 03:54 23.04.2022
4056 Haze 28 1009 61 3000 0 0 00:53 23.04.2022
4057 Haze 29 1009 58 3000 0 0 23:29 22.04.2022
4058 Haze 30 1009 58 3000 0 0 22:19 22.04.2022
4059 Haze 31 1010 55 3000 0 0 21:41 22.04.2022
4060 Haze 31 1010 55 3000 1.03 160 20:45 22.04.2022
4061 Haze 31 1010 55 3000 1.03 160 20:25 22.04.2022
4062 Haze 32 1010 51 3000 2.57 180 19:18 22.04.2022
4063 Haze 33 1010 49 3000 2.57 180 18:36 22.04.2022
4064 Haze 33 1010 43 3000 2.06 150 17:39 22.04.2022
4065 Haze 35 1008 36 3000 1.54 110 16:32 22.04.2022
4066 Haze 36 1008 34 4000 1.54 100 15:32 22.04.2022
4067 Haze 37 1008 32 5000 1.54 130 14:43 22.04.2022
4068 Haze 39 1008 29 5000 2.06 40 13:43 22.04.2022
4069 Haze 39 1008 27 5000 2.57 50 12:57 22.04.2022
4070 Haze 39 1008 27 5000 2.06 120 11:43 22.04.2022
4071 Haze 39 1008 29 5000 2.06 120 11:20 22.04.2022
4072 Haze 38 1009 30 5000 1.54 80 10:47 22.04.2022
4073 Haze 38 1010 30 5000 2.06 60 10:27 22.04.2022
4074 Haze 38 1010 32 5000 2.57 50 09:42 22.04.2022
4075 Haze 37 1011 36 5000 2.06 70 08:49 22.04.2022
4076 Haze 34 1013 43 5000 2.06 90 06:56 22.04.2022
4077 Haze 29 1009 42 3000 1.54 110 01:49 22.04.2022
4078 Haze 30 1009 35 3000 1.54 80 23:49 21.04.2022
4079 Haze 32 1009 31 3000 1.03 360 22:52 21.04.2022
4080 Haze 33 1008 29 3000 2.57 350 21:56 21.04.2022
4081 Haze 34 1008 27 3000 4.63 360 20:34 21.04.2022
4082 Haze 34 1008 27 3000 5.14 360 19:51 21.04.2022
4083 Haze 36 1008 24 3000 6.85 350 18:34 21.04.2022
4084 Haze 36 1008 24 3000 5.14 360 17:47 21.04.2022
4085 Haze 39 1005 21 4000 4.12 350 16:24 21.04.2022
4086 Haze 40 1004 22 4000 1.54 20 15:19 21.04.2022
4087 Haze 42 1003 16 4000 1.54 320 14:31 21.04.2022
4088 Haze 42 1003 16 4000 2.06 330 13:22 21.04.2022
4089 Haze 42 1004 16 4000 2.06 10 12:29 21.04.2022
4090 Haze 42 1005 16 5000 1.54 20 10:19 21.04.2022
4091 Haze 40 1007 18 5000 2.06 120 08:50 21.04.2022
4092 Haze 38 1008 22 5000 1.54 360 06:46 21.04.2022
4093 Haze 31 1007 29 4000 2.06 290 04:34 21.04.2022
4094 Haze 30 1007 30 3000 1.54 310 03:23 21.04.2022
4095 Haze 30 1007 28 3000 1.03 320 02:45 21.04.2022
4096 Haze 30 1007 28 3000 1.03 320 02:45 21.04.2022
4097 Haze 34 1006 26 3000 1.03 40 00:35 21.04.2022
4098 Haze 32 1006 27 3000 0 0 23:46 20.04.2022
4099 Haze 32 1006 27 3000 0 0 23:21 20.04.2022
4100 Haze 33 1006 27 3000 0 0 22:45 20.04.2022
4101 Haze 32 1006 31 3000 0 0 21:57 20.04.2022
4102 Haze 32 1006 31 3000 0 0 21:23 20.04.2022
4103 Haze 32 1007 31 3000 0 0 20:22 20.04.2022
4104 Haze 32 1007 31 3000 0 0 19:51 20.04.2022
4105 Haze 33 1007 29 3000 0 0 18:52 20.04.2022
4106 Haze 35 1006 26 3000 0 0 17:53 20.04.2022
4107 Haze 36 1006 24 3000 1.03 120 16:40 20.04.2022
4108 Haze 38 1005 22 4000 1.03 90 15:50 20.04.2022
4109 Haze 43 1004 15 5000 2.06 110 13:41 20.04.2022
4110 Haze 43 1005 15 5000 1.54 270 11:43 20.04.2022
4111 Haze 43 1006 15 5000 2.57 80 10:53 20.04.2022
4112 Haze 42 1007 17 5000 2.57 40 09:45 20.04.2022
4113 Haze 41 1009 17 5000 2.57 10 08:54 20.04.2022
4114 Haze 41 1009 17 5000 3.6 10 08:20 20.04.2022
4115 Haze 41 1009 17 5000 3.6 10 08:20 20.04.2022
4116 Haze 38 1010 20 5000 3.09 340 06:49 20.04.2022
4117 Haze 31 1009 29 4000 1.03 90 03:33 20.04.2022
4118 Haze 30 1007 28 3000 3.09 320 00:22 20.04.2022
4119 Clouds 32 1005 17 10000 0.63 290 23:31 19.04.2022
4120 Haze 31 1008 27 3000 1.54 310 22:24 19.04.2022
4121 Haze 31 1008 27 3000 2.57 300 21:55 19.04.2022
4122 Haze 33 1009 24 3000 2.06 320 21:19 19.04.2022
4123 Haze 33 1009 25 3000 2.06 330 20:37 19.04.2022
4124 Haze 33 1009 25 3000 2.06 330 20:37 19.04.2022
4125 Haze 34 1009 24 3000 2.06 330 19:43 19.04.2022
4126 Haze 34 1009 22 3000 1.54 300 18:46 19.04.2022
4127 Haze 34 1009 22 3000 1.54 300 18:46 19.04.2022
4128 Haze 36 1008 21 4000 2.57 320 17:27 19.04.2022
4129 Haze 37 1008 20 4000 2.57 320 16:43 19.04.2022
4130 Haze 36 1008 21 4000 2.06 320 16:21 19.04.2022
4131 Haze 41 1007 16 5000 1.54 50 14:48 19.04.2022
4132 Haze 42 1006 14 5000 1.03 100 13:34 19.04.2022
4133 Haze 43 1007 13 5000 1.03 40 12:50 19.04.2022
4134 Haze 43 1007 14 5000 2.06 50 11:39 19.04.2022
4135 Haze 42 1010 16 5000 2.06 340 09:57 19.04.2022
4136 Haze 41 1011 17 5000 1.54 30 08:43 19.04.2022
4137 Haze 30 1011 37 4000 2.06 220 04:41 19.04.2022
4138 Haze 28 1010 32 4000 1.03 230 03:19 19.04.2022
4139 Haze 31 1008 29 4000 2.06 320 00:27 19.04.2022
4140 Haze 30 1008 30 4000 0 0 23:25 18.04.2022
4141 Haze 29 1009 32 4000 0 0 21:29 18.04.2022
4142 Haze 32 1009 25 4000 0 0 20:53 18.04.2022
4143 Haze 32 1009 25 4000 0 0 20:27 18.04.2022
4144 Haze 33 1009 24 4000 0 0 19:42 18.04.2022
4145 Haze 33 1009 24 4000 1.03 100 18:53 18.04.2022
4146 Haze 34 1008 21 4000 1.03 220 17:53 18.04.2022
4147 Haze 35 1008 20 4000 0 0 17:28 18.04.2022
4148 Haze 35 1007 21 4000 0 0 16:44 18.04.2022
4149 Haze 36 1007 20 4000 0 0 15:54 18.04.2022
4150 Haze 42 1006 14 5000 2.06 230 14:42 18.04.2022
4151 Haze 42 1006 14 5000 2.06 230 14:42 18.04.2022
4152 Haze 43 1006 14 5000 3.6 300 13:31 18.04.2022
4153 Haze 42 1006 14 5000 1.54 320 12:28 18.04.2022
4154 Haze 42 1007 13 5000 1.54 280 11:27 18.04.2022
4155 Haze 42 1008 15 5000 3.09 220 10:29 18.04.2022
4156 Haze 40 1009 18 5000 1.54 60 09:30 18.04.2022
4157 Haze 39 1010 19 5000 1.54 320 07:35 18.04.2022
4158 Haze 31 1010 48 4000 2.57 210 04:40 18.04.2022
4159 Haze 29 1007 32 4000 1.03 160 23:42 17.04.2022
4160 Haze 29 1007 34 4000 2.06 230 22:40 17.04.2022
4161 Haze 30 1007 32 4000 1.03 250 21:42 17.04.2022
4162 Haze 30 1007 32 4000 1.03 250 21:21 17.04.2022
4163 Haze 32 1008 29 4000 1.03 310 20:32 17.04.2022
4164 Haze 30 1008 26 4000 1.54 140 19:21 17.04.2022
4165 Haze 35 1006 20 4000 1.03 290 17:43 17.04.2022
4166 Haze 37 1005 18 4000 2.06 220 15:39 17.04.2022
4167 Haze 40 1004 14 4000 2.06 200 14:54 17.04.2022
4168 Haze 41 1004 13 5000 3.09 210 13:47 17.04.2022
4169 Haze 42 1004 14 5000 2.57 250 12:58 17.04.2022
4170 Haze 42 1004 14 5000 1.54 350 11:53 17.04.2022
4171 Haze 42 1005 13 5000 1.54 100 10:46 17.04.2022
4172 Haze 41 1006 14 5000 2.06 340 10:27 17.04.2022
4173 Haze 40 1007 17 5000 2.57 160 09:28 17.04.2022
4174 Haze 39 1007 17 5000 2.06 120 08:42 17.04.2022
4175 Haze 37 1008 20 5000 2.57 90 07:00 17.04.2022
4176 Haze 27 1007 32 4000 1.54 250 03:53 17.04.2022
4177 Haze 25 1005 33 3000 0 0 00:55 17.04.2022
4178 Haze 26 1005 34 3000 0 0 23:50 16.04.2022
4179 Haze 28 1005 32 3000 0 0 22:27 16.04.2022
4180 Haze 28 1005 28 3000 0 0 21:29 16.04.2022
4181 Haze 31 1006 23 3000 1.54 280 19:57 16.04.2022
4182 Haze 32 1005 20 3000 2.06 310 18:55 16.04.2022
4183 Haze 32 1004 23 3000 0 0 17:40 16.04.2022
4184 Haze 34 1003 20 4000 0 0 16:34 16.04.2022
4185 Haze 39 1003 14 5000 2.57 320 15:40 16.04.2022
4186 Haze 40 1002 14 5000 2.57 310 14:51 16.04.2022
4187 Haze 41 1002 12 5000 5.14 320 13:57 16.04.2022
4188 Haze 42 1002 12 5000 4.12 280 13:26 16.04.2022
4189 Haze 42 1003 12 5000 5.14 270 12:18 16.04.2022
4190 Haze 42 1004 13 5000 3.09 300 10:49 16.04.2022
4191 Haze 42 1005 13 5000 2.06 280 09:43 16.04.2022
4192 Haze 40 1007 17 5000 3.09 80 08:57 16.04.2022
4193 Haze 38 1008 20 5000 2.06 150 07:32 16.04.2022
4194 Haze 37 1008 20 5000 2.57 320 06:46 16.04.2022
4195 Haze 23 1005 38 3000 1.54 150 01:59 16.04.2022
4196 Haze 27 1004 29 3000 0 0 00:23 16.04.2022
4197 Haze 27 1005 32 3000 0 0 22:57 15.04.2022
4198 Haze 27 1005 32 3000 0 0 22:31 15.04.2022
4199 Haze 28 1006 30 3000 1.54 160 21:47 15.04.2022
4200 Haze 30 1006 26 3000 1.54 330 20:56 15.04.2022
4201 Haze 29 1006 28 3000 1.03 320 19:59 15.04.2022
4202 Haze 31 1006 25 3000 1.03 320 19:39 15.04.2022
4203 Haze 31 1006 25 3000 0 0 18:46 15.04.2022
4204 Haze 32 1006 23 3000 1.03 270 18:24 15.04.2022
4205 Haze 33 1005 22 3000 1.03 230 17:32 15.04.2022
4206 Haze 34 1004 22 4000 1.54 330 16:26 15.04.2022
4207 Haze 35 1004 21 4000 1.03 310 15:59 15.04.2022
4208 Haze 38 1003 17 5000 1.54 240 14:44 15.04.2022
4209 Haze 41 1003 15 5000 4.12 200 13:34 15.04.2022
4210 Haze 41 1003 15 5000 2.06 230 12:40 15.04.2022
4211 Haze 41 1004 15 5000 4.63 260 11:55 15.04.2022
4212 Haze 41 1005 15 5000 4.12 290 10:58 15.04.2022
4213 Haze 41 1005 15 5000 4.12 290 10:40 15.04.2022
4214 Haze 40 1006 16 5000 2.57 250 09:41 15.04.2022
4215 Haze 40 1007 16 5000 2.06 270 09:19 15.04.2022
4216 Haze 38 1008 18 5000 3.09 320 07:24 15.04.2022
4217 Haze 34 1009 29 4000 1.03 340 05:58 15.04.2022
4218 Haze 25 1007 61 3000 0 0 02:34 15.04.2022
4219 Haze 30 1005 51 3000 2.57 210 23:30 14.04.2022
4220 Haze 30 1006 51 3000 2.57 220 22:47 14.04.2022
4221 Haze 28 1006 47 3000 1.03 230 22:29 14.04.2022
4222 Haze 29 1006 48 3000 1.03 250 21:57 14.04.2022
4223 Haze 29 1006 48 3000 0 0 20:35 14.04.2022
4224 Haze 32 1006 40 3000 1.03 340 19:22 14.04.2022
4225 Haze 32 1006 40 3000 0 0 18:18 14.04.2022
4226 Haze 33 1006 38 3000 1.03 180 17:28 14.04.2022
4227 Haze 35 1005 34 4000 1.03 130 16:33 14.04.2022
4228 Haze 38 1004 28 5000 3.09 180 14:28 14.04.2022
4229 Haze 38 1004 28 5000 2.57 180 13:39 14.04.2022
4230 Haze 39 1004 25 5000 2.57 210 12:51 14.04.2022
4231 Haze 40 1005 24 5000 1.54 90 12:30 14.04.2022
4232 Haze 39 1005 24 5000 2.06 110 11:24 14.04.2022
4233 Haze 39 1006 24 5000 1.03 80 10:41 14.04.2022
4234 Haze 39 1007 25 5000 1.03 80 09:57 14.04.2022
4235 Haze 37 1008 30 5000 1.54 270 08:44 14.04.2022
4236 Haze 34 1009 43 5000 2.57 220 06:51 14.04.2022
4237 Haze 27 1007 54 4000 1.03 140 02:53 14.04.2022
4238 Haze 31 1006 40 4000 2.06 220 22:56 13.04.2022
4239 Haze 31 1006 40 4000 2.06 220 22:19 13.04.2022
4240 Haze 31 1006 40 4000 1.54 260 21:34 13.04.2022
4241 Haze 31 1007 40 4000 1.54 280 20:22 13.04.2022
4242 Haze 31 1007 40 4000 1.54 270 19:32 13.04.2022
4243 Haze 32 1007 40 4000 3.09 190 18:20 13.04.2022
4244 Haze 34 1006 38 4000 4.12 180 17:24 13.04.2022
4245 Haze 34 1006 38 3000 5.14 200 16:34 13.04.2022
4246 Dust 37 1005 32 2500 5.14 200 15:38 13.04.2022
4247 Haze 40 1004 27 4000 1.03 30 14:50 13.04.2022
4248 Haze 41 1003 26 4000 1.54 50 14:19 13.04.2022
4249 Haze 41 1003 26 5000 1.54 150 13:19 13.04.2022
4250 Haze 41 1004 24 5000 2.06 210 12:25 13.04.2022
4251 Haze 41 1004 24 5000 2.06 210 12:25 13.04.2022
4252 Haze 41 1005 24 5000 2.57 200 10:49 13.04.2022
4253 Haze 40 1006 29 5000 2.57 200 09:41 13.04.2022
4254 Haze 39 1007 30 5000 3.6 170 08:42 13.04.2022
4255 Haze 36 1009 38 5000 4.12 200 06:51 13.04.2022
4256 Haze 35 1009 43 5000 3.09 220 06:25 13.04.2022
4257 Haze 33 1009 49 5000 2.57 170 05:20 13.04.2022
4258 Haze 30 1005 58 3000 1.54 130 00:21 13.04.2022
4259 Haze 31 1005 55 3000 0 0 23:29 12.04.2022
4260 Haze 31 1006 55 3000 0 0 22:18 12.04.2022
4261 Haze 32 1006 51 3000 0 0 21:18 12.04.2022
4262 Haze 32 1006 48 3000 0 0 20:41 12.04.2022
4263 Haze 33 1007 46 3000 0 0 19:48 12.04.2022
4264 Haze 33 1007 46 3000 0 0 19:30 12.04.2022
4265 Haze 35 1007 36 3000 2.06 130 18:26 12.04.2022
4266 Haze 34 1006 38 3000 0 0 17:23 12.04.2022
4267 Haze 35 1005 34 4000 0 0 16:22 12.04.2022
4268 Haze 37 1005 30 4000 0 0 15:29 12.04.2022
4269 Haze 41 1004 24 4000 1.03 250 14:21 12.04.2022
4270 Haze 41 1004 24 4000 1.54 300 13:29 12.04.2022
4271 Haze 41 1004 24 5000 1.54 170 12:52 12.04.2022
4272 Haze 40 1005 27 5000 2.57 190 11:46 12.04.2022
4273 Haze 40 1006 29 5000 3.09 230 10:35 12.04.2022
4274 Haze 39 1008 30 5000 2.57 150 09:18 12.04.2022
4275 Haze 36 1009 38 5000 3.6 250 07:55 12.04.2022
4276 Haze 33 1009 49 4000 2.57 210 05:50 12.04.2022
4277 Haze 31 1009 55 4000 2.57 160 04:55 12.04.2022
4278 Haze 30 1006 54 3000 1.03 220 23:53 11.04.2022
4279 Haze 31 1007 51 3000 1.54 230 22:44 11.04.2022
4280 Haze 31 1007 51 3000 1.03 240 21:37 11.04.2022
4281 Haze 33 1007 49 3000 1.03 210 20:55 11.04.2022
4282 Haze 33 1007 46 3000 1.54 200 20:28 11.04.2022
4283 Haze 33 1008 43 3000 1.54 250 19:42 11.04.2022
4284 Haze 34 1008 40 3000 1.54 150 19:18 11.04.2022
4285 Haze 34 1007 36 3000 1.54 140 18:41 11.04.2022
4286 Haze 35 1007 29 3000 2.06 130 17:56 11.04.2022
4287 Haze 35 1006 29 3000 1.54 130 16:54 11.04.2022
4288 Haze 38 1005 23 4000 1.54 100 15:45 11.04.2022
4289 Clouds 42 1001 9 10000 2.39 199 13:59 11.04.2022
4290 Haze 41 1005 22 5000 1.54 60 12:47 11.04.2022
4291 Haze 41 1005 24 5000 1.54 180 12:29 11.04.2022
4292 Haze 41 1006 22 5000 2.06 180 11:30 11.04.2022
4293 Haze 40 1007 27 5000 1.54 270 10:21 11.04.2022
4294 Haze 38 1009 32 5000 1.03 130 08:50 11.04.2022
4295 Haze 33 1010 49 4000 4.12 200 05:38 11.04.2022
4296 Haze 30 1007 51 4000 1.03 70 00:57 11.04.2022
4297 Haze 31 1007 45 4000 2.06 190 22:33 10.04.2022
4298 Haze 32 1007 45 4000 3.09 220 21:54 10.04.2022
4299 Haze 32 1007 45 4000 3.09 220 21:26 10.04.2022
4300 Haze 33 1008 43 4000 1.54 230 20:25 10.04.2022
4301 Haze 33 1008 40 4000 2.06 180 19:37 10.04.2022
4302 Haze 34 1008 38 4000 1.03 200 18:50 10.04.2022
4303 Haze 35 1008 38 4000 3.09 160 18:30 10.04.2022
4304 Haze 35 1007 36 4000 1.54 150 17:49 10.04.2022
4305 Haze 35 1006 34 4000 1.03 160 16:59 10.04.2022
4306 Haze 37 1006 32 4000 1.03 140 15:41 10.04.2022
4307 Haze 39 1005 29 4000 1.54 180 14:49 10.04.2022
4308 Haze 40 1005 27 5000 2.57 170 13:45 10.04.2022
4309 Haze 41 1006 29 5000 1.54 290 12:32 10.04.2022
4310 Haze 41 1006 29 5000 1.54 180 11:44 10.04.2022
4311 Haze 41 1006 27 5000 3.09 180 11:20 10.04.2022
4312 Haze 40 1007 29 5000 4.12 210 10:34 10.04.2022
4313 Haze 39 1008 32 5000 2.06 240 09:41 10.04.2022
4314 Haze 38 1010 34 5000 4.12 230 08:40 10.04.2022
4315 Haze 37 1010 36 5000 3.6 220 08:18 10.04.2022
4316 Haze 35 1011 43 5000 4.12 220 06:59 10.04.2022
4317 Haze 28 1009 65 4000 1.54 160 03:40 10.04.2022
4318 Haze 27 1008 61 3000 1.54 170 02:19 10.04.2022
4319 Haze 30 1007 54 4000 1.54 220 23:53 09.04.2022
4320 Haze 31 1007 51 4000 2.57 190 22:56 09.04.2022
4321 Haze 31 1007 51 4000 2.57 190 22:38 09.04.2022
4322 Haze 32 1008 48 4000 2.57 190 21:23 09.04.2022
4323 Haze 32 1008 45 4000 1.03 190 20:30 09.04.2022
4324 Haze 33 1008 43 4000 1.03 190 19:57 09.04.2022
4325 Haze 33 1008 43 4000 1.03 190 19:39 09.04.2022
4326 Haze 34 1008 38 4000 2.57 130 18:23 09.04.2022
4327 Haze 34 1008 38 4000 1.03 130 17:49 09.04.2022
4328 Haze 35 1007 34 4000 1.54 150 16:56 09.04.2022
4329 Haze 35 1007 34 4000 1.54 150 16:38 09.04.2022
4330 Haze 36 1007 32 5000 1.03 140 15:49 09.04.2022
4331 Haze 36 1007 32 5000 1.03 140 15:49 09.04.2022
4332 Haze 36 1007 32 5000 1.03 140 15:49 09.04.2022
4333 Haze 38 1006 28 5000 1.54 170 15:25 09.04.2022
4334 Haze 39 1006 27 5000 3.09 220 14:25 09.04.2022
4335 Haze 40 1006 25 5000 1.54 110 13:26 09.04.2022
4336 Haze 40 1006 25 5000 2.06 60 12:53 09.04.2022
4337 Haze 40 1007 29 5000 2.57 260 11:44 09.04.2022
4338 Haze 40 1008 33 5000 3.09 210 10:51 09.04.2022
4339 Haze 39 1008 35 5000 3.09 220 10:18 09.04.2022
4340 Haze 38 1009 37 5000 4.12 200 09:22 09.04.2022
4341 Haze 36 1011 41 5000 4.12 170 07:49 09.04.2022
4342 Haze 27 1010 61 3000 1.03 120 03:57 09.04.2022
4343 Haze 29 1009 58 3000 2.06 190 00:33 09.04.2022
4344 Haze 30 1008 51 3000 1.03 190 23:20 08.04.2022
4345 Haze 30 1009 45 3000 2.57 160 21:43 08.04.2022
4346 Haze 30 1009 45 3000 2.06 140 20:43 08.04.2022
4347 Haze 31 1010 45 3000 1.03 130 19:46 08.04.2022
4348 Haze 32 1010 43 3000 1.03 120 18:42 08.04.2022
4349 Haze 33 1010 40 3000 1.03 120 18:18 08.04.2022
4350 Haze 33 1009 40 3000 1.03 80 17:27 08.04.2022
4351 Haze 34 1009 40 4000 2.57 106 16:52 08.04.2022
4352 Haze 35 1009 36 4000 2.57 150 16:22 08.04.2022
4353 Haze 37 1008 32 4000 2.06 160 15:28 08.04.2022
4354 Haze 38 1007 32 4000 3.6 160 14:44 08.04.2022
4355 Haze 39 1007 30 5000 4.12 160 13:55 08.04.2022
4356 Haze 39 1007 30 5000 3.09 190 13:30 08.04.2022
4357 Haze 39 1007 32 5000 3.6 190 12:42 08.04.2022
4358 Haze 39 1009 32 5000 4.63 230 10:56 08.04.2022
4359 Haze 37 1011 36 5000 4.12 150 09:41 08.04.2022
4360 Haze 38 1011 34 5000 4.63 170 08:59 08.04.2022
4361 Haze 36 1012 38 5000 4.12 210 07:42 08.04.2022
4362 Haze 35 1013 38 4000 2.06 200 06:44 08.04.2022
4363 Haze 30 1011 51 3000 1.03 140 02:37 08.04.2022
4364 Haze 32 1009 45 3000 3.09 240 00:28 08.04.2022
4365 Haze 31 1009 45 3000 2.57 210 23:42 07.04.2022
4366 Clouds 33 1010 43 3000 1.54 320 22:41 07.04.2022
4367 Clouds 33 1010 43 3000 2.57 320 22:22 07.04.2022
4368 Haze 32 1010 45 3000 0 0 21:56 07.04.2022
4369 Haze 32 1010 43 3000 0 0 21:23 07.04.2022
4370 Haze 32 1011 45 3500 0 0 20:42 07.04.2022
4371 Haze 34 1011 43 3500 1.54 110 18:58 07.04.2022
4372 Haze 35 1010 41 4000 1.54 120 17:28 07.04.2022
4373 Haze 36 1010 38 4000 1.54 120 16:45 07.04.2022
4374 Haze 36 1010 36 4000 2.06 120 16:25 07.04.2022
4375 Haze 35 1009 36 4000 1.54 120 15:39 07.04.2022
4376 Haze 39 1008 27 4000 2.06 230 13:52 07.04.2022
4377 Haze 40 1008 27 4000 3.09 140 13:23 07.04.2022
4378 Haze 40 1009 27 4000 2.57 100 11:49 07.04.2022
4379 Haze 39 1011 30 4000 1.54 240 10:40 07.04.2022
4380 Haze 36 1013 38 4000 3.09 180 08:40 07.04.2022
4381 Haze 34 1014 46 3000 2.57 140 06:58 07.04.2022
4382 Haze 29 1013 61 3000 1.03 70 04:26 07.04.2022
4383 Haze 28 1012 57 3000 1.03 290 02:29 07.04.2022
4384 Haze 29 1010 54 3000 1.03 150 00:42 07.04.2022
4385 Haze 29 1011 54 3000 1.03 90 23:21 06.04.2022
4386 Haze 30 1011 48 3000 1.54 310 22:44 06.04.2022
4387 Haze 31 1011 45 3000 0 0 21:47 06.04.2022
4388 Haze 32 1011 43 3000 1.03 280 20:43 06.04.2022
4389 Haze 33 1011 38 3000 1.54 200 19:59 06.04.2022
4390 Haze 33 1011 38 3000 1.03 130 19:19 06.04.2022
4391 Haze 34 1011 36 3000 1.54 120 18:47 06.04.2022
4392 Haze 35 1011 36 3000 1.54 140 17:35 06.04.2022
4393 Haze 36 1010 36 3000 2.06 130 16:39 06.04.2022
4394 Haze 37 1009 30 4000 1.54 110 15:57 06.04.2022
4395 Haze 37 1009 30 4000 1.54 110 15:39 06.04.2022
4396 Haze 41 1009 21 5000 1.03 10 13:31 06.04.2022
4397 Haze 41 1009 24 5000 2.06 270 12:28 06.04.2022
4398 Haze 40 1011 29 5000 2.06 240 10:57 06.04.2022
4399 Haze 40 1011 27 5000 2.06 200 10:32 06.04.2022
4400 Haze 39 1012 35 5000 3.09 220 09:43 06.04.2022
4401 Haze 38 1013 37 5000 3.09 160 08:39 06.04.2022
4402 Haze 36 1014 44 5000 2.57 190 07:57 06.04.2022
4403 Haze 31 1015 62 4000 2.06 120 05:23 06.04.2022
4404 Haze 29 1012 54 4000 1.54 80 23:58 05.04.2022
4405 Haze 29 1012 54 4000 1.54 80 23:33 05.04.2022
4406 Haze 30 1012 51 4000 1.03 240 21:48 05.04.2022
4407 Haze 30 1012 51 4000 1.03 240 21:48 05.04.2022
4408 Haze 30 1012 48 4000 1.03 80 20:54 05.04.2022
4409 Haze 30 1012 51 4000 1.03 360 20:23 05.04.2022
4410 Haze 33 1011 43 4000 1.54 110 18:26 05.04.2022
4411 Haze 33 1011 40 4000 1.54 110 17:20 05.04.2022
4412 Haze 34 1011 38 4000 1.54 130 16:41 05.04.2022
4413 Haze 36 1010 24 4000 2.06 120 15:49 05.04.2022
4414 Haze 37 1010 22 4000 2.06 120 15:29 05.04.2022
4415 Haze 41 1009 17 4000 1.54 100 13:42 05.04.2022
4416 Haze 41 1010 17 5000 2.06 270 11:51 05.04.2022
4417 Haze 41 1011 20 5000 2.57 50 11:33 05.04.2022
4418 Haze 41 1011 20 5000 2.57 60 10:57 05.04.2022
4419 Haze 39 1013 24 5000 2.06 310 09:31 05.04.2022
4420 Haze 37 1014 39 5000 2.06 270 08:22 05.04.2022
4421 Haze 27 1012 61 3000 0 0 02:58 05.04.2022
4422 Haze 29 1010 54 3000 0 0 23:22 04.04.2022
4423 Haze 30 1011 51 3000 0 0 22:32 04.04.2022
4424 Haze 30 1011 51 3000 0 0 21:43 04.04.2022
4425 Haze 30 1011 51 3000 0 0 21:18 04.04.2022
4426 Haze 31 1011 48 3000 0 0 20:46 04.04.2022
4427 Haze 32 1011 43 3000 2.06 330 19:27 04.04.2022
4428 Haze 32 1011 43 3000 1.03 320 18:40 04.04.2022
4429 Haze 34 1010 36 3000 1.03 160 17:19 04.04.2022
4430 Haze 35 1009 34 3000 1.03 120 16:27 04.04.2022
4431 Haze 37 1009 28 4000 1.54 140 15:33 04.04.2022
4432 Haze 39 1008 22 4000 1.54 140 14:46 04.04.2022
4433 Haze 41 1008 16 4000 1.54 150 13:59 04.04.2022
4434 Haze 41 1008 16 4000 1.03 80 12:58 04.04.2022
4435 Haze 41 1009 17 5000 3.09 100 11:29 04.04.2022
4436 Haze 40 1010 17 5000 1.54 330 09:53 04.04.2022
4437 Haze 33 1012 46 3000 1.54 170 05:34 04.04.2022
4438 Haze 28 1010 57 3000 1.03 90 02:51 04.04.2022
4439 Haze 31 1008 48 3000 1.03 320 22:54 03.04.2022
4440 Haze 30 1009 51 3000 1.54 330 21:59 03.04.2022
4441 Haze 31 1009 48 3000 1.54 280 21:27 03.04.2022
4442 Haze 31 1009 51 3000 1.54 310 20:30 03.04.2022
4443 Haze 31 1009 48 3500 1.03 350 18:46 03.04.2022
4444 Haze 33 1009 43 3500 1.03 60 17:55 03.04.2022
4445 Haze 33 1009 43 3500 1.03 60 17:35 03.04.2022
4446 Haze 33 1009 43 4000 1.54 150 16:49 03.04.2022
4447 Haze 35 1008 38 4000 2.06 110 15:46 03.04.2022
4448 Haze 38 1007 32 4000 2.06 110 14:25 03.04.2022
4449 Haze 40 1007 27 4000 1.54 80 12:59 03.04.2022
4450 Haze 40 1008 24 5000 1.54 40 11:50 03.04.2022
4451 Haze 39 1010 37 5000 1.03 30 09:57 03.04.2022
4452 Haze 37 1011 41 5000 2.57 210 08:57 03.04.2022
4453 Clear 35 1011 16 10000 3.04 161 05:45 03.04.2022
4454 Clear 28 1009 21 10000 1.58 358 02:55 03.04.2022
4455 Haze 29 1009 58 3000 1.54 100 23:48 02.04.2022
4456 Haze 29 1010 54 3000 0 0 22:44 02.04.2022
4457 Haze 30 1010 54 3000 2.57 310 21:56 02.04.2022
4458 Haze 30 1010 54 3000 2.57 310 21:20 02.04.2022
4459 Haze 30 1010 54 3000 0 0 20:36 02.04.2022
4460 Haze 32 1010 35 3000 2.06 240 18:47 02.04.2022
4461 Haze 33 1010 33 3000 1.03 150 18:19 02.04.2022
4462 Haze 34 1009 31 3000 2.06 130 17:23 02.04.2022
4463 Haze 36 1009 28 4000 1.54 140 15:44 02.04.2022
4464 Haze 37 1008 26 4000 1.54 100 15:19 02.04.2022
4465 Haze 40 1008 20 4000 1.54 150 14:31 02.04.2022
4466 Haze 41 1008 18 5000 1.54 100 13:34 02.04.2022
4467 Haze 41 1008 18 5000 1.54 50 12:21 02.04.2022
4468 Haze 40 1010 25 5000 1.54 160 10:31 02.04.2022
4469 Haze 35 1013 36 5000 2.06 140 07:52 02.04.2022
4470 Haze 28 1012 57 3000 1.54 120 04:59 02.04.2022
4471 Haze 24 1010 60 3000 0 0 02:37 02.04.2022
4472 Haze 27 1008 50 4000 1.54 260 23:54 01.04.2022
4473 Haze 29 1009 45 4000 1.54 320 22:47 01.04.2022
4474 Haze 30 1009 42 4000 1.54 240 21:22 01.04.2022
4475 Haze 30 1010 39 4000 1.54 240 20:46 01.04.2022
4476 Haze 31 1010 33 4000 1.54 280 19:45 01.04.2022
4477 Haze 31 1010 33 4000 2.57 190 19:26 01.04.2022
4478 Haze 31 1009 29 4000 2.57 180 18:37 01.04.2022
4479 Haze 31 1009 23 4000 0 0 17:38 01.04.2022
4480 Haze 36 1007 17 4000 1.03 130 15:46 01.04.2022
4481 Haze 39 1006 15 5000 1.54 170 14:53 01.04.2022
4482 Haze 42 1006 12 5000 1.03 150 13:40 01.04.2022
4483 Haze 42 1006 12 5000 3.09 200 13:20 01.04.2022
4484 Haze 42 1006 12 5000 3.09 220 12:24 01.04.2022
4485 Haze 42 1008 13 5000 2.57 310 10:50 01.04.2022
4486 Haze 41 1009 14 5000 1.54 80 09:39 01.04.2022
4487 Haze 37 1011 16 5000 1.54 360 07:31 01.04.2022
4488 Haze 29 1010 28 4000 0 0 04:59 01.04.2022
4489 Haze 29 1010 28 4000 0 0 04:39 01.04.2022
4490 Haze 24 1008 35 3000 0 0 03:18 01.04.2022
4491 Haze 23 1007 35 3000 0 0 01:34 01.04.2022
4492 Haze 29 1007 24 3000 0 0 22:31 31.03.2022
4493 Haze 29 1008 24 3000 0 0 21:40 31.03.2022
4494 Haze 29 1009 24 3000 0 0 20:51 31.03.2022
4495 Haze 29 1009 24 3000 0 0 20:28 31.03.2022
4496 Haze 29 1009 32 3000 0 0 19:29 31.03.2022
4497 Haze 31 1009 23 3000 0 0 18:33 31.03.2022
4498 Haze 34 1007 18 3000 1.03 120 16:47 31.03.2022
4499 Haze 36 1007 19 3000 1.54 330 15:55 31.03.2022
4500 Haze 37 1007 16 4000 1.03 140 15:26 31.03.2022
4501 Haze 39 1006 15 4000 1.54 190 14:44 31.03.2022
4502 Haze 42 1006 12 4000 2.06 140 13:28 31.03.2022
4503 Haze 42 1007 13 4000 1.54 300 11:30 31.03.2022
4504 Haze 41 1008 13 4000 1.54 40 10:22 31.03.2022
4505 Haze 41 1009 14 4000 2.57 90 09:39 31.03.2022
4506 Haze 37 1011 19 4000 2.06 100 07:48 31.03.2022
4507 Haze 28 1007 26 3000 1.54 340 01:37 31.03.2022
4508 Haze 28 1007 28 3000 1.54 320 23:23 30.03.2022
4509 Haze 31 1008 22 3000 2.06 340 21:54 30.03.2022
4510 Haze 30 1008 25 3000 3.09 310 21:27 30.03.2022
4511 Haze 28 1008 30 3000 0 0 20:32 30.03.2022
4512 Haze 30 1009 28 3000 2.57 300 19:47 30.03.2022
4513 Haze 31 1009 27 3000 1.03 30 18:41 30.03.2022
4514 Haze 31 1009 27 3000 1.03 30 18:41 30.03.2022
4515 Haze 29 1008 26 3000 0 0 17:50 30.03.2022
4516 Haze 32 1007 23 3000 0 0 16:58 30.03.2022
4517 Haze 33 1007 21 3000 1.03 320 16:39 30.03.2022
4518 Haze 37 1006 16 4000 1.03 340 15:38 30.03.2022
4519 Haze 41 1006 12 4000 2.06 340 14:22 30.03.2022
4520 Haze 42 1006 12 5000 3.09 300 13:20 30.03.2022
4521 Haze 41 1006 12 5000 3.09 240 11:55 30.03.2022
4522 Haze 41 1007 13 5000 2.57 300 10:38 30.03.2022
4523 Haze 40 1009 13 5000 3.09 360 09:28 30.03.2022
4524 Haze 39 1010 16 5000 2.06 20 07:59 30.03.2022
4525 Haze 32 1010 23 4000 2.57 320 05:41 30.03.2022
4526 Haze 31 1010 23 4000 2.57 320 04:54 30.03.2022
4527 Haze 27 1007 24 3000 2.57 330 00:43 30.03.2022
4528 Haze 27 1007 24 3000 1.03 300 22:35 29.03.2022
4529 Haze 28 1008 23 4000 1.03 300 21:46 29.03.2022
4530 Haze 28 1008 24 4000 1.03 300 20:55 29.03.2022
4531 Haze 28 1008 24 4000 1.03 300 20:24 29.03.2022
4532 Haze 30 1009 23 4000 1.03 340 18:57 29.03.2022
4533 Haze 30 1009 23 4000 1.03 340 18:36 29.03.2022
4534 Haze 32 1008 20 4000 1.03 340 17:37 29.03.2022
4535 Haze 33 1008 21 4000 1.03 320 16:58 29.03.2022
4536 Haze 33 1008 21 4000 1.03 320 16:58 29.03.2022
4537 Haze 35 1007 18 3000 1.03 350 15:58 29.03.2022
4538 Haze 39 1006 15 5000 2.06 330 14:53 29.03.2022
4539 Haze 40 1006 13 5000 4.12 320 14:22 29.03.2022
4540 Haze 41 1006 13 5000 2.57 310 12:57 29.03.2022
4541 Haze 41 1007 13 5000 2.57 320 11:45 29.03.2022
4542 Haze 41 1007 13 5000 4.63 290 10:58 29.03.2022
4543 Haze 41 1008 14 5000 3.6 320 09:49 29.03.2022
4544 Haze 39 1010 14 5000 4.12 350 08:20 29.03.2022
4545 Haze 32 1011 23 4000 2.57 330 05:35 29.03.2022
4546 Haze 26 1008 34 3000 1.54 330 00:50 29.03.2022
4547 Haze 25 1009 33 3000 0 0 23:24 28.03.2022
4548 Haze 25 1009 33 3000 0 0 22:54 28.03.2022
4549 Haze 26 1009 31 3000 0 0 22:26 28.03.2022
4550 Haze 26 1010 34 3000 0 0 20:58 28.03.2022
4551 Haze 27 1010 29 3000 0 0 20:23 28.03.2022
4552 Haze 28 1010 28 3000 0 0 19:45 28.03.2022
4553 Haze 29 1010 28 3000 0 0 19:27 28.03.2022
4554 Haze 30 1010 25 3000 0 0 18:40 28.03.2022
4555 Haze 31 1010 25 3000 0 0 17:39 28.03.2022
4556 Haze 34 1009 18 3000 1.54 320 16:21 28.03.2022
4557 Haze 39 1008 15 4000 2.57 290 14:47 28.03.2022
4558 Haze 40 1007 12 4000 3.09 290 14:21 28.03.2022
4559 Haze 41 1008 11 5000 4.12 310 12:24 28.03.2022
4560 Haze 41 1008 12 5000 5.14 320 11:31 28.03.2022
4561 Haze 40 1010 13 5000 5.14 320 09:43 28.03.2022
4562 Haze 39 1012 14 5000 3.09 250 09:19 28.03.2022
4563 Haze 39 1012 16 5000 1.54 120 08:22 28.03.2022
4564 Haze 37 1013 19 5000 1.03 80 07:28 28.03.2022
4565 Haze 22 1012 40 3000 0 0 03:44 28.03.2022
4566 Haze 25 1011 38 3000 0 0 23:30 27.03.2022
4567 Haze 24 1011 38 3000 1.03 270 22:24 27.03.2022
4568 Haze 24 1012 41 3000 1.03 300 21:42 27.03.2022
4569 Haze 24 1012 38 3000 1.03 130 20:57 27.03.2022
4570 Haze 26 1012 34 3000 1.03 160 19:48 27.03.2022
4571 Haze 28 1012 30 3000 1.54 330 19:24 27.03.2022
4572 Haze 29 1012 28 3000 1.03 20 18:27 27.03.2022
4573 Haze 32 1011 22 3000 1.03 40 17:39 27.03.2022
4574 Haze 33 1010 19 3000 1.03 40 16:28 27.03.2022
4575 Haze 37 1009 15 4000 1.54 350 15:21 27.03.2022
4576 Haze 39 1009 14 4000 1.03 30 13:55 27.03.2022
4577 Haze 40 1009 11 5000 6.17 330 12:24 27.03.2022
4578 Haze 39 1011 16 5000 2.57 350 10:53 27.03.2022
4579 Haze 38 1013 17 4000 2.06 100 08:43 27.03.2022
4580 Haze 33 1014 27 4000 1.54 140 05:54 27.03.2022
4581 Haze 26 1010 38 3000 1.54 360 00:48 27.03.2022
4582 Haze 25 1010 41 3000 1.03 10 23:40 26.03.2022
4583 Haze 28 1010 36 3000 1.54 10 22:36 26.03.2022
4584 Haze 27 1011 39 3000 1.03 320 21:33 26.03.2022
4585 Haze 28 1012 34 3000 0 0 20:20 26.03.2022
4586 Haze 29 1012 34 3000 0 0 19:21 26.03.2022
4587 Haze 32 1012 27 3000 1.54 280 17:51 26.03.2022
4588 Haze 32 1011 27 3000 0 0 17:30 26.03.2022
4589 Haze 32 1011 27 3000 2.06 210 16:27 26.03.2022
4590 Haze 34 1009 24 3000 1.54 200 14:57 26.03.2022
4591 Haze 37 1009 22 3000 2.06 200 13:52 26.03.2022
4592 Haze 39 1008 18 4000 1.54 100 12:47 26.03.2022
4593 Haze 40 1008 17 4000 1.03 60 11:29 26.03.2022
4594 Haze 39 1009 17 4000 2.06 90 10:18 26.03.2022
4595 Haze 38 1012 18 4000 1.03 80 08:33 26.03.2022
4596 Haze 33 1013 43 3000 1.54 270 05:54 26.03.2022
4597 Haze 28 1012 44 3000 0 0 03:59 26.03.2022
4598 Haze 29 1008 37 3000 0 0 23:51 25.03.2022
4599 Haze 29 1009 37 3000 1.03 170 21:35 25.03.2022
4600 Haze 29 1009 37 3000 1.03 170 21:35 25.03.2022
4601 Haze 32 1009 29 3000 1.03 330 20:46 25.03.2022
4602 Haze 31 1010 33 3000 2.57 330 19:28 25.03.2022
4603 Haze 32 1010 31 3000 2.06 340 18:47 25.03.2022
4604 Haze 33 1010 35 3000 2.06 220 17:37 25.03.2022
4605 Haze 33 1008 43 3000 0 0 16:41 25.03.2022
4606 Haze 33 1008 46 3000 1.03 150 15:56 25.03.2022
4607 Haze 37 1007 36 4000 1.03 60 13:58 25.03.2022
4608 Haze 39 1006 32 4000 1.03 100 12:32 25.03.2022
4609 Haze 37 1007 39 4000 1.03 270 09:52 25.03.2022
4610 Haze 37 1008 39 3000 3.09 270 09:26 25.03.2022
4611 Haze 35 1010 46 3000 5.14 210 07:51 25.03.2022
4612 Haze 34 1010 49 3000 4.12 230 07:23 25.03.2022
4613 Haze 31 1010 62 3000 4.12 200 05:23 25.03.2022
4614 Haze 28 1007 51 2500 1.03 260 00:33 25.03.2022
4615 Haze 30 1007 45 2500 1.03 180 22:30 24.03.2022
4616 Haze 31 1008 42 2500 5.14 150 21:34 24.03.2022
4617 Haze 30 1008 45 2500 0 0 19:50 24.03.2022
4618 Haze 31 1008 37 2500 2.06 210 18:54 24.03.2022
4619 Haze 32 1008 35 2500 0 0 17:39 24.03.2022
4620 Haze 33 1008 35 2500 1.54 140 16:54 24.03.2022
4621 Haze 33 1007 33 2500 1.54 130 15:19 24.03.2022
4622 Haze 34 1006 31 2500 1.54 180 14:41 24.03.2022
4623 Haze 37 1006 26 3000 3.6 180 13:54 24.03.2022
4624 Haze 38 1005 25 3000 4.12 170 12:39 24.03.2022
4625 Haze 39 1005 25 3000 3.6 170 11:31 24.03.2022
4626 Haze 38 1007 30 3500 4.63 200 09:36 24.03.2022
4627 Haze 37 1008 30 3500 2.06 180 08:40 24.03.2022
4628 Haze 33 1010 35 3000 2.06 140 06:19 24.03.2022
4629 Haze 25 1008 47 3000 3.09 180 01:28 24.03.2022
4630 Haze 26 1007 41 3000 1.03 90 22:29 23.03.2022
4631 Haze 26 1008 41 3000 1.03 30 21:25 23.03.2022
4632 Haze 26 1008 41 3000 1.03 30 20:47 23.03.2022
4633 Haze 28 1008 39 3000 1.54 30 19:40 23.03.2022
4634 Haze 27 1008 36 3000 1.03 270 18:22 23.03.2022
4635 Haze 29 1008 32 3000 1.03 50 17:31 23.03.2022
4636 Haze 30 1007 28 3000 0 0 16:18 23.03.2022
4637 Haze 30 1007 28 3000 0 0 16:18 23.03.2022
4638 Haze 32 1006 25 4000 1.03 100 14:49 23.03.2022
4639 Haze 36 1006 23 4000 1.03 90 13:34 23.03.2022
4640 Haze 39 1006 18 4000 1.54 40 11:38 23.03.2022
4641 Haze 39 1009 19 4000 4.12 100 08:51 23.03.2022
4642 Haze 35 1011 26 4000 2.57 120 06:29 23.03.2022
4643 Haze 28 1011 34 3000 1.03 40 03:52 23.03.2022
4644 Haze 24 1008 38 3000 1.03 340 00:28 23.03.2022
4645 Haze 24 1008 38 3000 1.03 340 00:28 23.03.2022
4646 Haze 24 1008 35 3000 1.03 240 21:56 22.03.2022
4647 Haze 26 1009 36 3000 1.03 350 21:26 22.03.2022
4648 Haze 26 1009 31 3000 1.03 10 20:30 22.03.2022
4649 Haze 29 1009 30 3000 1.03 320 19:31 22.03.2022
4650 Haze 30 1009 30 3000 1.54 10 18:54 22.03.2022
4651 Haze 30 1009 30 3000 1.54 330 17:44 22.03.2022
4652 Haze 31 1009 29 3000 0 0 17:18 22.03.2022
4653 Haze 32 1008 23 3000 1.03 80 15:49 22.03.2022
4654 Haze 33 1007 21 3000 1.03 360 15:21 22.03.2022
4655 Haze 34 1007 21 3000 1.03 360 14:45 22.03.2022
4656 Haze 36 1006 19 4000 1.54 360 14:24 22.03.2022
4657 Haze 39 1006 15 5000 2.06 10 12:40 22.03.2022
4658 Haze 39 1006 16 5000 2.57 10 11:26 22.03.2022
4659 Haze 39 1008 16 5000 1.03 30 09:52 22.03.2022
4660 Haze 37 1011 20 4000 2.06 30 07:44 22.03.2022
4661 Haze 30 1011 37 3000 0 0 04:29 22.03.2022
4662 Haze 25 1010 47 3000 1.03 290 02:52 22.03.2022
4663 Haze 23 1008 53 3000 0 0 23:19 21.03.2022
4664 Haze 25 1008 47 3000 1.03 230 21:47 21.03.2022
4665 Haze 25 1008 47 3000 0 0 20:45 21.03.2022
4666 Haze 25 1008 47 3000 0 0 20:24 21.03.2022
4667 Haze 27 1009 41 3000 1.03 310 19:48 21.03.2022
4668 Haze 28 1009 42 3000 0 0 19:22 21.03.2022
4669 Haze 29 1009 39 3000 3.09 320 17:36 21.03.2022
4670 Haze 30 1008 37 3000 0 0 16:59 21.03.2022
4671 Haze 30 1008 37 3000 0 0 16:35 21.03.2022
4672 Haze 31 1007 33 3000 0 0 15:44 21.03.2022
4673 Haze 34 1006 27 3000 1.54 50 14:45 21.03.2022
4674 Haze 36 1006 26 3000 1.03 50 13:20 21.03.2022
4675 Haze 39 1006 24 3500 1.54 80 11:59 21.03.2022
4676 Haze 39 1006 19 3500 1.54 10 11:34 21.03.2022
4677 Haze 39 1007 25 3000 1.03 60 09:53 21.03.2022
4678 Haze 36 1010 32 3500 2.06 350 07:53 21.03.2022
4679 Haze 34 1010 31 4000 2.06 100 06:29 21.03.2022
4680 Haze 25 1008 57 3000 1.54 100 02:23 21.03.2022
4681 Haze 25 1007 57 3000 1.54 320 22:57 20.03.2022
4682 Haze 25 1007 57 3000 1.54 320 22:29 20.03.2022
4683 Haze 25 1007 53 3000 1.03 180 21:40 20.03.2022
4684 Haze 26 1007 53 3000 1.03 330 20:56 20.03.2022
4685 Haze 26 1007 53 3000 1.03 330 20:36 20.03.2022
4686 Haze 26 1007 53 3000 1.03 120 19:55 20.03.2022
4687 Haze 28 1008 47 3000 1.03 120 19:24 20.03.2022
4688 Haze 30 1007 42 3000 1.03 300 17:49 20.03.2022
4689 Haze 31 1007 40 3000 0 0 17:27 20.03.2022
4690 Haze 32 1007 40 3000 1.03 270 16:38 20.03.2022
4691 Haze 33 1005 33 3000 0 0 14:50 20.03.2022
4692 Haze 34 1005 36 4000 1.54 60 13:39 20.03.2022
4693 Haze 37 1005 32 4000 2.06 20 12:20 20.03.2022
4694 Haze 39 1005 27 5000 1.54 90 10:28 20.03.2022
4695 Haze 37 1007 36 5000 2.06 100 08:26 20.03.2022
4696 Haze 34 1008 49 5000 1.54 110 06:39 20.03.2022
4697 Haze 25 1008 69 3000 1.03 130 03:25 20.03.2022
4698 Haze 24 1006 64 3000 1.03 140 00:54 20.03.2022
4699 Haze 24 1006 64 3000 1.03 140 00:34 20.03.2022
4700 Haze 27 1006 61 3000 0 0 22:39 19.03.2022
4701 Haze 27 1006 57 3000 0 0 21:27 19.03.2022
4702 Haze 29 1006 51 3000 1.03 150 19:39 19.03.2022
4703 Haze 29 1006 51 3000 1.03 110 18:44 19.03.2022
4704 Haze 32 1007 45 3000 2.06 110 17:55 19.03.2022
4705 Haze 32 1006 45 3000 2.06 130 17:33 19.03.2022
4706 Haze 32 1005 45 3000 1.03 120 15:40 19.03.2022
4707 Haze 34 1004 31 4000 1.54 90 14:19 19.03.2022
4708 Haze 39 1003 16 5000 3.09 300 12:56 19.03.2022
4709 Haze 40 1003 18 5000 2.57 300 12:37 19.03.2022
4710 Haze 39 1003 25 5000 1.54 330 11:46 19.03.2022
4711 Haze 38 1006 28 5000 4.12 200 09:31 19.03.2022
4712 Haze 32 1010 51 5000 3.09 170 05:44 19.03.2022
4713 Haze 23 1008 56 3000 0 0 02:34 19.03.2022
4714 Haze 25 1006 50 3000 1.54 320 00:32 19.03.2022
4715 Haze 25 1006 50 3000 1.03 360 22:59 18.03.2022
4716 Haze 25 1006 50 3000 1.03 360 22:22 18.03.2022
4717 Haze 25 1006 50 3000 1.03 360 22:22 18.03.2022
4718 Haze 25 1007 50 3000 1.03 310 20:40 18.03.2022
4719 Haze 27 1007 47 3000 0 0 19:45 18.03.2022
4720 Haze 27 1007 47 3000 0 0 19:18 18.03.2022
4721 Haze 32 1007 35 3000 1.54 10 16:59 18.03.2022
4722 Haze 33 1006 33 4000 1.54 340 16:34 18.03.2022
4723 Haze 34 1005 31 4000 1.03 60 14:29 18.03.2022
4724 Haze 37 1004 26 4000 1.03 60 13:41 18.03.2022
4725 Haze 39 1004 22 5000 2.57 80 11:43 18.03.2022
4726 Haze 39 1005 22 5000 2.57 50 10:27 18.03.2022
4727 Haze 38 1007 22 5000 1.03 340 08:50 18.03.2022
4728 Haze 36 1009 28 5000 2.06 110 07:26 18.03.2022
4729 Haze 33 1010 33 4000 1.54 90 05:20 18.03.2022
4730 Haze 25 1007 41 3000 1.54 320 01:51 18.03.2022
4731 Haze 26 1007 38 3000 0 0 00:20 18.03.2022
4732 Haze 29 1006 34 3000 2.06 340 22:54 17.03.2022
4733 Haze 29 1006 34 3000 2.06 340 22:20 17.03.2022
4734 Haze 29 1007 37 3000 1.03 360 21:31 17.03.2022
4735 Haze 29 1007 34 3000 0 0 20:54 17.03.2022
4736 Haze 29 1007 34 3000 0 0 20:20 17.03.2022
4737 Haze 31 1008 29 3000 1.03 350 19:38 17.03.2022
4738 Haze 32 1008 27 3000 1.54 360 18:53 17.03.2022
4739 Haze 32 1008 27 3000 1.54 330 17:41 17.03.2022
4740 Haze 34 1007 24 3000 1.54 360 16:20 17.03.2022
4741 Haze 34 1007 24 4000 1.54 350 15:43 17.03.2022
4742 Haze 34 1006 24 4000 2.06 350 15:18 17.03.2022
4743 Haze 38 1005 19 4000 1.54 10 13:47 17.03.2022
4744 Haze 40 1004 16 5000 3.6 340 12:47 17.03.2022
4745 Haze 41 1005 15 5000 3.6 310 11:36 17.03.2022
4746 Haze 41 1005 15 5000 7.72 320 10:44 17.03.2022
4747 Haze 40 1007 17 5000 3.09 320 09:37 17.03.2022
4748 Haze 39 1008 18 5000 4.63 310 08:19 17.03.2022
4749 Haze 35 1011 26 5000 1.54 350 05:53 17.03.2022
4750 Haze 32 1010 31 4000 1.03 360 04:40 17.03.2022
4751 Haze 21 1007 46 3000 1.03 160 00:27 17.03.2022
4752 Haze 25 1007 36 3000 1.03 300 22:56 16.03.2022
4753 Haze 25 1007 36 3000 1.03 300 22:36 16.03.2022
4754 Haze 24 1007 38 3000 1.03 320 21:56 16.03.2022
4755 Haze 26 1008 34 3000 1.03 320 20:40 16.03.2022
4756 Haze 28 1008 30 3000 1.03 320 19:23 16.03.2022
4757 Haze 28 1008 30 3000 1.03 340 18:42 16.03.2022
4758 Haze 29 1008 28 3000 1.03 320 17:49 16.03.2022
4759 Haze 29 1008 28 3000 0 0 17:31 16.03.2022
4760 Haze 30 1008 26 3000 1.03 330 16:21 16.03.2022
4761 Haze 35 1006 23 4000 1.54 340 14:50 16.03.2022
4762 Haze 39 1006 17 5000 2.57 330 13:36 16.03.2022
4763 Haze 40 1005 15 5000 3.09 350 12:55 16.03.2022
4764 Haze 40 1006 16 5000 5.14 340 11:23 16.03.2022
4765 Haze 40 1006 17 5000 5.14 340 10:32 16.03.2022
4766 Haze 40 1007 17 5000 3.6 320 09:56 16.03.2022
4767 Haze 39 1009 19 5000 2.57 20 07:43 16.03.2022
4768 Haze 24 1009 43 3000 1.03 330 02:45 16.03.2022
4769 Haze 26 1008 38 3000 0 0 22:55 15.03.2022
4770 Haze 26 1008 38 3000 0 0 22:35 15.03.2022
4771 Haze 27 1009 36 3000 1.03 300 20:55 15.03.2022
4772 Haze 29 1009 32 3000 1.54 330 19:37 15.03.2022
4773 Haze 30 1010 30 3000 1.54 340 17:46 15.03.2022
4774 Haze 32 1009 29 3000 1.03 10 16:38 15.03.2022
4775 Haze 34 1008 26 4000 1.03 10 15:38 15.03.2022
4776 Haze 35 1008 24 4000 1.03 360 14:53 15.03.2022
4777 Haze 37 1007 22 5000 1.54 40 13:56 15.03.2022
4778 Haze 38 1007 20 5000 1.54 10 13:21 15.03.2022
4779 Haze 39 1006 19 5000 4.12 330 11:32 15.03.2022
4780 Haze 39 1007 21 5000 4.12 360 10:22 15.03.2022
4781 Haze 39 1009 21 5000 4.12 340 08:53 15.03.2022
4782 Haze 38 1010 20 5000 3.09 340 08:21 15.03.2022
4783 Haze 37 1011 23 5000 2.06 340 07:36 15.03.2022
4784 Haze 35 1013 26 5000 2.06 340 05:55 15.03.2022
4785 Haze 22 1010 49 3000 1.03 330 00:25 15.03.2022
4786 Haze 24 1010 46 3000 0 0 23:27 14.03.2022
4787 Haze 24 1011 46 3000 0 0 22:44 14.03.2022
4788 Haze 24 1011 46 3000 1.54 320 21:51 14.03.2022
4789 Haze 25 1012 44 3000 0 0 20:55 14.03.2022
4790 Haze 24 1012 46 3000 1.54 320 20:24 14.03.2022
4791 Haze 25 1013 44 3000 1.54 320 19:22 14.03.2022
4792 Haze 29 1013 37 3000 0 0 17:55 14.03.2022
4793 Haze 28 1013 36 3000 1.03 350 17:33 14.03.2022
4794 Haze 29 1012 32 3000 1.03 100 16:27 14.03.2022
4795 Haze 31 1010 29 4000 1.03 110 14:42 14.03.2022
4796 Haze 37 1010 19 5000 1.03 90 12:55 14.03.2022
4797 Haze 37 1010 18 5000 2.57 100 10:57 14.03.2022
4798 Haze 36 1011 17 5000 3.6 330 09:56 14.03.2022
4799 Haze 36 1012 19 5000 2.57 330 09:23 14.03.2022
4800 Haze 36 1013 19 5000 2.06 100 08:57 14.03.2022
4801 Haze 36 1013 19 5000 1.03 320 08:20 14.03.2022
4802 Haze 31 1016 30 5000 1.54 330 05:46 14.03.2022
4803 Haze 19 1014 48 3000 1.03 300 02:51 14.03.2022
4804 Haze 21 1013 43 3000 1.54 330 01:33 14.03.2022
4805 Haze 21 1012 46 3000 1.54 340 23:25 13.03.2022
4806 Haze 22 1013 49 3000 2.57 320 21:40 13.03.2022
4807 Haze 22 1013 49 3000 2.57 320 21:19 13.03.2022
4808 Haze 20 1013 49 3000 0 0 20:43 13.03.2022
4809 Haze 20 1013 49 3000 0 0 20:20 13.03.2022
4810 Haze 25 1013 41 3000 0 0 19:40 13.03.2022
4811 Haze 25 1013 38 3000 1.03 20 19:19 13.03.2022
4812 Haze 24 1013 38 3000 1.03 230 18:40 13.03.2022
4813 Haze 25 1013 38 3000 5.14 310 17:47 13.03.2022
4814 Haze 26 1013 36 3000 0 0 17:22 13.03.2022
4815 Haze 28 1013 32 4000 1.03 330 16:43 13.03.2022
4816 Haze 28 1013 30 4000 0 0 16:20 13.03.2022
4817 Haze 29 1012 28 4000 1.03 90 15:33 13.03.2022
4818 Haze 34 1011 22 5000 1.03 60 13:53 13.03.2022
4819 Haze 35 1011 20 5000 1.03 50 13:19 13.03.2022
4820 Haze 36 1011 19 5000 1.03 30 12:19 13.03.2022
4821 Haze 36 1011 17 5000 2.06 310 11:36 13.03.2022
4822 Haze 35 1011 17 5000 1.54 10 10:48 13.03.2022
4823 Haze 35 1011 17 5000 1.54 10 10:48 13.03.2022
4824 Haze 35 1012 17 5000 1.54 100 10:25 13.03.2022
4825 Haze 35 1012 18 5000 3.09 340 09:41 13.03.2022
4826 Haze 35 1012 18 5000 3.09 340 09:41 13.03.2022
4827 Haze 34 1013 22 5000 2.06 20 08:47 13.03.2022
4828 Haze 34 1015 22 5000 1.54 100 07:47 13.03.2022
4829 Haze 30 1016 32 5000 2.06 340 05:42 13.03.2022
4830 Haze 20 1014 49 3000 0 0 02:50 13.03.2022
4831 Haze 21 1012 46 3000 1.03 240 00:20 13.03.2022
4832 Haze 20 1012 45 3000 1.03 320 22:37 12.03.2022
4833 Haze 24 1013 41 3000 1.03 310 20:54 12.03.2022
4834 Haze 24 1013 38 3000 1.03 340 19:50 12.03.2022
4835 Haze 26 1013 34 3000 1.03 30 19:32 12.03.2022
4836 Haze 27 1013 36 3000 1.03 20 18:27 12.03.2022
4837 Haze 28 1012 32 3000 1.03 360 17:34 12.03.2022
4838 Haze 30 1012 30 3000 1.03 360 16:24 12.03.2022
4839 Haze 29 1011 32 4000 1.03 360 15:24 12.03.2022
4840 Haze 30 1011 30 4000 1.03 10 14:40 12.03.2022
4841 Haze 35 1010 21 5000 2.57 310 13:32 12.03.2022
4842 Haze 35 1010 24 5000 2.57 340 11:56 12.03.2022
4843 Haze 35 1010 24 5000 2.57 340 11:38 12.03.2022
4844 Haze 35 1011 24 5000 1.03 300 10:58 12.03.2022
4845 Haze 35 1011 24 5000 1.03 300 10:58 12.03.2022
4846 Haze 34 1011 27 5000 2.06 10 09:45 12.03.2022
4847 Haze 34 1013 27 5000 2.06 10 08:56 12.03.2022
4848 Haze 32 1015 31 5000 2.57 50 07:20 12.03.2022
4849 Haze 20 1014 60 3000 1.03 140 02:36 12.03.2022
4850 Haze 21 1012 56 3000 1.03 10 23:56 11.03.2022
4851 Haze 24 1012 50 3000 1.03 10 23:18 11.03.2022
4852 Haze 24 1012 53 3000 1.03 330 21:35 11.03.2022
4853 Haze 24 1012 53 3000 1.03 330 20:55 11.03.2022
4854 Haze 23 1012 53 3000 1.03 310 20:29 11.03.2022
4855 Haze 26 1013 47 3000 1.03 30 19:42 11.03.2022
4856 Haze 26 1013 47 3000 1.03 30 19:22 11.03.2022
4857 Haze 24 1013 53 3000 1.03 290 17:30 11.03.2022
4858 Haze 24 1012 53 3000 0 0 16:27 11.03.2022
4859 Haze 25 1012 50 3000 1.03 300 15:53 11.03.2022
4860 Haze 28 1011 39 3000 2.57 60 14:19 11.03.2022
4861 Haze 34 1010 29 3000 4.12 360 12:44 11.03.2022
4862 Haze 35 1010 28 4000 1.54 30 12:20 11.03.2022
4863 Haze 35 1010 26 4000 3.09 280 11:43 11.03.2022
4864 Haze 35 1012 28 5000 2.06 30 09:40 11.03.2022
4865 Haze 35 1013 28 5000 1.03 90 08:47 11.03.2022
4866 Haze 32 1014 33 5000 2.06 50 07:53 11.03.2022
4867 Haze 32 1015 37 5000 2.06 120 07:28 11.03.2022
4868 Haze 30 1015 42 5000 2.06 60 05:42 11.03.2022
4869 Haze 22 1013 56 3000 0 0 02:56 11.03.2022
4870 Haze 24 1012 57 3000 1.03 330 22:56 10.03.2022
4871 Haze 24 1012 57 3000 1.03 330 22:28 10.03.2022
4872 Haze 24 1013 53 3000 1.54 310 21:27 10.03.2022
4873 Haze 26 1013 50 3000 1.54 170 20:45 10.03.2022
4874 Haze 28 1013 44 3000 1.03 60 19:23 10.03.2022
4875 Haze 28 1013 44 3000 1.03 50 18:39 10.03.2022
4876 Haze 28 1013 39 3000 1.54 50 16:54 10.03.2022
4877 Haze 29 1012 37 3000 1.54 80 15:41 10.03.2022
4878 Haze 31 1011 33 4000 1.03 210 14:23 10.03.2022
4879 Haze 35 1010 26 5000 2.57 230 12:46 10.03.2022
4880 Haze 35 1010 26 5000 3.09 250 11:37 10.03.2022
4881 Haze 35 1012 28 5000 1.03 300 10:19 10.03.2022
4882 Haze 34 1013 31 5000 1.03 140 08:48 10.03.2022
4883 Haze 29 1015 42 5000 2.06 20 05:50 10.03.2022
4884 Haze 24 1014 57 4000 1.03 20 03:33 10.03.2022
4885 Haze 24 1012 53 3000 1.03 30 00:23 10.03.2022
4886 Haze 27 1012 44 3000 2.57 340 22:43 09.03.2022
4887 Haze 27 1012 44 3000 2.57 340 21:48 09.03.2022
4888 Haze 25 1012 47 3000 2.57 330 20:53 09.03.2022
4889 Haze 25 1013 44 3000 2.06 330 19:23 09.03.2022
4890 Haze 28 1014 36 3000 2.06 330 17:57 09.03.2022
4891 Haze 29 1014 34 3000 4.12 290 17:23 09.03.2022
4892 Haze 28 1012 39 4000 0 0 15:41 09.03.2022
4893 Haze 30 1012 32 4000 1.54 80 14:24 09.03.2022
4894 Haze 32 1012 29 4000 1.54 50 13:50 09.03.2022
4895 Haze 34 1011 26 5000 1.54 20 12:25 09.03.2022
4896 Haze 35 1011 24 5000 2.06 50 11:48 09.03.2022
4897 Haze 35 1012 26 5000 1.54 60 10:55 09.03.2022
4898 Haze 33 1014 27 5000 1.54 160 09:28 09.03.2022
4899 Haze 34 1014 26 5000 1.54 360 08:44 09.03.2022
4900 Haze 29 1017 37 4000 1.03 40 05:56 09.03.2022
4901 Haze 23 1013 46 3000 1.03 360 00:58 09.03.2022
4902 Haze 23 1013 46 3000 1.03 10 23:46 08.03.2022
4903 Haze 22 1013 49 3000 1.03 340 22:45 08.03.2022
4904 Haze 23 1013 46 3000 1.54 320 21:46 08.03.2022
4905 Haze 23 1013 46 3000 1.54 320 21:19 08.03.2022
4906 Haze 24 1013 46 3000 1.03 10 20:18 08.03.2022
4907 Haze 26 1014 41 3000 1.03 30 18:55 08.03.2022
4908 Haze 27 1014 41 3000 1.03 40 17:58 08.03.2022
4909 Haze 27 1014 39 3000 1.03 10 16:37 08.03.2022
4910 Haze 30 1013 32 4000 3.09 350 14:24 08.03.2022
4911 Haze 34 1012 27 4000 3.09 330 13:22 08.03.2022
4912 Haze 34 1012 24 5000 0 0 12:19 08.03.2022
4913 Haze 35 1012 23 5000 1.54 100 11:41 08.03.2022
4914 Haze 34 1013 26 5000 2.57 170 10:27 08.03.2022
4915 Haze 32 1015 33 5000 2.06 130 08:30 08.03.2022
4916 Haze 29 1016 32 5000 2.06 80 05:48 08.03.2022
4917 Haze 21 1014 60 2500 1.03 360 01:48 08.03.2022
4918 Haze 23 1013 53 3000 0 0 22:24 07.03.2022
4919 Haze 23 1014 56 3000 0 0 21:35 07.03.2022
4920 Haze 23 1014 53 3000 0 0 20:54 07.03.2022
4921 Haze 23 1014 53 3000 0 0 20:22 07.03.2022
4922 Haze 25 1014 47 3000 0 0 19:38 07.03.2022
4923 Haze 25 1014 44 3000 1.54 310 18:47 07.03.2022
4924 Haze 26 1014 41 3000 1.03 310 17:54 07.03.2022
4925 Haze 27 1014 39 3000 1.03 110 16:56 07.03.2022
4926 Haze 28 1014 36 3000 1.54 100 16:30 07.03.2022
4927 Haze 30 1013 35 4000 1.54 110 14:31 07.03.2022
4928 Haze 33 1012 19 5000 1.54 50 12:33 07.03.2022
4929 Haze 34 1012 18 5000 1.54 10 10:39 07.03.2022
4930 Haze 34 1013 18 5000 1.54 90 09:47 07.03.2022
4931 Haze 30 1016 35 5000 2.06 120 06:20 07.03.2022
4932 Haze 21 1013 49 3000 2.06 360 00:23 07.03.2022
4933 Haze 23 1013 43 3000 1.03 20 23:35 06.03.2022
4934 Haze 23 1013 46 3000 1.54 30 22:57 06.03.2022
4935 Haze 23 1013 46 3000 1.54 30 22:19 06.03.2022
4936 Haze 24 1014 43 3000 1.54 50 20:50 06.03.2022
4937 Haze 24 1014 43 3000 1.54 50 20:23 06.03.2022
4938 Haze 24 1014 43 3000 1.54 50 19:23 06.03.2022
4939 Haze 23 1015 49 3000 1.03 60 18:25 06.03.2022
4940 Haze 23 1015 49 3000 1.03 60 18:25 06.03.2022
4941 Haze 25 1014 41 3000 1.54 100 17:21 06.03.2022
4942 Haze 25 1014 44 3000 1.54 100 16:42 06.03.2022
4943 Haze 27 1014 39 3000 2.06 110 15:54 06.03.2022
4944 Haze 27 1013 39 3000 1.54 100 14:49 06.03.2022
4945 Haze 29 1013 34 4000 1.03 100 14:31 06.03.2022
4946 Haze 32 1012 27 4000 1.03 50 13:30 06.03.2022
4947 Haze 32 1012 25 5000 2.06 60 12:35 06.03.2022
4948 Haze 33 1012 22 5000 2.57 10 11:18 06.03.2022
4949 Haze 32 1013 23 5000 2.57 90 10:27 06.03.2022
4950 Haze 31 1015 25 5000 2.06 80 08:30 06.03.2022
4951 Haze 30 1015 26 5000 2.06 100 07:35 06.03.2022
4952 Haze 27 1017 32 5000 2.57 100 05:40 06.03.2022
4953 Haze 21 1013 49 3000 0 0 00:51 06.03.2022
4954 Haze 21 1013 49 3000 0 0 00:30 06.03.2022
4955 Haze 21 1012 49 3000 1.03 340 23:21 05.03.2022
4956 Haze 20 1013 60 3000 0 0 22:47 05.03.2022
4957 Haze 24 1013 46 3000 0 0 21:46 05.03.2022
4958 Haze 24 1013 46 3000 0 0 21:21 05.03.2022
4959 Haze 26 1014 44 3000 1.03 30 19:26 05.03.2022
4960 Haze 26 1014 47 3000 1.03 40 18:53 05.03.2022
4961 Haze 27 1014 47 3000 1.54 20 17:53 05.03.2022
4962 Haze 27 1013 44 3000 1.03 90 16:32 05.03.2022
4963 Haze 27 1013 47 3000 1.03 130 15:31 05.03.2022
4964 Haze 28 1012 42 3000 1.03 80 14:44 05.03.2022
4965 Haze 29 1012 37 3000 1.03 90 14:26 05.03.2022
4966 Haze 32 1012 31 3000 1.03 80 13:20 05.03.2022
4967 Haze 32 1012 31 4000 1.03 80 11:46 05.03.2022
4968 Haze 33 1012 29 4000 1.54 90 11:18 05.03.2022
4969 Haze 32 1014 29 5000 2.06 60 09:59 05.03.2022
4970 Haze 31 1015 33 5000 2.06 60 08:59 05.03.2022
4971 Haze 30 1016 35 5000 2.57 80 07:37 05.03.2022
4972 Haze 27 1017 44 4000 2.57 100 05:42 05.03.2022
4973 Haze 20 1015 77 2500 1.03 310 02:20 05.03.2022
4974 Haze 21 1013 73 2500 1.03 330 23:36 04.03.2022
4975 Haze 24 1013 53 2500 1.03 20 22:42 04.03.2022
4976 Thunderstorm 24 1014 57 2500 2.06 40 21:47 04.03.2022
4977 Thunderstorm 24 1014 57 2500 3.09 40 20:51 04.03.2022
4978 Thunderstorm 23 1015 64 2500 2.06 20 20:21 04.03.2022
4979 Thunderstorm 26 1015 44 2500 4.12 320 19:35 04.03.2022
4980 Haze 26 1015 44 2500 6.17 310 18:37 04.03.2022
4981 Haze 27 1015 41 2500 4.12 60 17:30 04.03.2022
4982 Thunderstorm 27 1015 41 2500 3.09 50 16:43 04.03.2022
4983 Thunderstorm 29 1013 39 2500 1.54 50 15:28 04.03.2022
4984 Haze 30 1013 37 3000 1.54 110 14:19 04.03.2022
4985 Haze 31 1012 33 4000 2.06 110 13:24 04.03.2022
4986 Haze 33 1012 29 4000 2.06 100 11:40 04.03.2022
4987 Haze 33 1013 27 4000 2.57 130 10:42 04.03.2022
4988 Haze 33 1015 27 5000 2.06 120 09:28 04.03.2022
4989 Haze 32 1016 31 5000 1.54 100 08:31 04.03.2022
4990 Haze 31 1017 33 5000 2.06 100 07:23 04.03.2022
4991 Haze 23 1016 60 3000 0 0 03:43 04.03.2022
4992 Haze 18 1014 77 3000 1.03 330 00:22 04.03.2022
4993 Haze 21 1015 60 3000 1.03 100 22:21 03.03.2022
4994 Haze 22 1015 56 3000 1.03 90 21:39 03.03.2022
4995 Haze 22 1015 56 3000 1.03 60 20:59 03.03.2022
4996 Haze 23 1016 56 3000 1.03 10 19:48 03.03.2022
4997 Haze 23 1017 56 3000 1.03 10 18:49 03.03.2022
4998 Haze 25 1017 50 3000 2.06 350 17:46 03.03.2022
4999 Haze 25 1016 50 3000 1.03 40 17:26 03.03.2022
5000 Haze 27 1015 44 3000 1.03 30 15:47 03.03.2022
5001 Haze 26 1014 50 3000 1.03 80 14:53 03.03.2022
5002 Haze 28 1014 42 3000 1.03 40 14:32 03.03.2022
5003 Haze 29 1014 37 3000 1.03 50 12:52 03.03.2022
5004 Haze 29 1013 39 3000 2.57 230 11:39 03.03.2022
5005 Haze 31 1014 30 5000 2.06 80 10:40 03.03.2022
5006 Haze 33 1015 27 5000 2.06 110 08:45 03.03.2022
5007 Haze 31 1017 33 5000 3.6 150 07:25 03.03.2022
5008 Haze 29 1018 34 5000 2.06 110 06:33 03.03.2022
5009 Haze 21 1014 60 3000 1.03 360 01:21 03.03.2022
5010 Haze 23 1014 49 3000 1.03 20 23:28 02.03.2022
5011 Clouds 22 1012 30 10000 2.84 39 22:49 02.03.2022
5012 Haze 23 1015 46 3000 1.03 20 21:25 02.03.2022
5013 Haze 23 1015 49 3000 1.03 20 20:40 02.03.2022
5014 Haze 25 1015 44 3000 1.54 20 19:56 02.03.2022
5015 Haze 25 1015 44 3000 1.54 20 19:56 02.03.2022
5016 Haze 25 1015 44 3000 1.54 40 19:33 02.03.2022
5017 Haze 26 1016 41 3000 2.06 30 18:44 02.03.2022
5018 Haze 26 1016 47 3000 2.57 10 17:57 02.03.2022
5019 Haze 25 1015 47 3000 1.03 70 17:21 02.03.2022
5020 Haze 25 1015 47 3000 1.03 180 16:42 02.03.2022
5021 Haze 29 1013 34 3000 1.03 40 14:43 02.03.2022
5022 Haze 31 1013 29 4000 1.03 90 13:24 02.03.2022
5023 Haze 32 1013 27 4000 1.03 90 12:42 02.03.2022
5024 Haze 33 1013 25 5000 1.03 50 11:40 02.03.2022
5025 Haze 33 1013 27 5000 1.03 20 11:21 02.03.2022
5026 Clear 34 1011 15 10000 1.33 354 09:41 02.03.2022
5027 Haze 32 1016 33 5000 1.54 20 08:54 02.03.2022
5028 Haze 30 1018 37 5000 1.54 160 07:28 02.03.2022
5029 Haze 29 1018 39 5000 2.06 60 06:40 02.03.2022
5030 Haze 20 1015 64 3000 1.54 330 01:32 02.03.2022
5031 Haze 21 1015 60 4000 1.03 320 23:47 01.03.2022
5032 Haze 22 1015 60 4000 1.03 330 22:45 01.03.2022
5033 Haze 23 1015 56 4000 1.54 330 21:58 01.03.2022
5034 Haze 23 1015 56 4000 1.54 330 21:24 01.03.2022
5035 Haze 25 1016 50 4000 1.54 30 20:30 01.03.2022
5036 Haze 25 1016 50 4000 1.54 30 20:30 01.03.2022
5037 Haze 25 1016 50 4000 1.54 30 20:30 01.03.2022
5038 Haze 25 1016 50 4000 1.54 30 20:30 01.03.2022
5039 Haze 25 1016 53 4000 1.54 30 19:38 01.03.2022
5040 Haze 25 1016 53 4000 1.54 30 18:49 01.03.2022
5041 Haze 26 1016 44 4000 1.03 30 18:20 01.03.2022
5042 Haze 26 1016 44 4000 1.03 40 17:22 01.03.2022
5043 Haze 26 1015 41 4000 1.03 110 16:33 01.03.2022
5044 Haze 27 1015 41 4000 1.54 90 15:38 01.03.2022
5045 Haze 39 1014 18 4000 1.54 100 14:35 01.03.2022
5046 Haze 30 1013 30 4000 1.03 90 13:52 01.03.2022
5047 Haze 32 1013 27 4000 1.03 80 13:24 01.03.2022
5048 Haze 33 1013 19 5000 1.03 170 12:32 01.03.2022
5049 Haze 33 1014 21 5000 1.54 50 10:34 01.03.2022
5050 Haze 32 1016 25 5000 1.54 160 08:42 01.03.2022
5051 Haze 30 1017 32 5000 1.54 150 07:52 01.03.2022
5052 Haze 27 1019 41 4000 1.54 100 05:54 01.03.2022
5053 Haze 21 1016 60 3000 1.03 50 02:33 01.03.2022
5054 Haze 21 1015 60 3000 1.03 350 00:34 01.03.2022
5055 Haze 21 1015 60 3000 0 0 23:30 28.02.2022
5056 Haze 22 1015 56 3000 1.03 340 22:18 28.02.2022
5057 Haze 22 1015 56 3000 1.03 50 21:25 28.02.2022
5058 Haze 25 1016 44 3000 1.54 50 19:55 28.02.2022
5059 Haze 25 1016 44 3000 1.54 50 19:33 28.02.2022
5060 Haze 25 1016 44 3000 1.54 60 18:40 28.02.2022
5061 Haze 25 1015 41 3000 1.03 50 17:30 28.02.2022
5062 Haze 26 1014 38 4000 1.03 120 16:33 28.02.2022
5063 Haze 27 1014 34 4000 1.54 120 15:23 28.02.2022
5064 Haze 29 1013 30 4000 1.03 130 14:31 28.02.2022
5065 Haze 30 1013 26 4000 1.54 180 13:47 28.02.2022
5066 Haze 32 1013 23 5000 2.06 170 12:41 28.02.2022
5067 Haze 33 1013 22 5000 2.06 240 11:57 28.02.2022
5068 Haze 33 1013 22 5000 3.09 170 10:48 28.02.2022
5069 Haze 32 1014 23 5000 2.06 200 10:20 28.02.2022
5070 Haze 32 1015 25 5000 2.06 200 09:32 28.02.2022
5071 Haze 31 1016 29 5000 2.57 220 08:29 28.02.2022
5072 Haze 30 1017 32 5000 2.57 200 07:28 28.02.2022
5073 Haze 25 1018 57 5000 2.06 120 04:55 28.02.2022
5074 Haze 24 1018 60 4000 0 0 04:26 28.02.2022
5075 Haze 20 1015 68 3000 1.03 70 23:42 27.02.2022
5076 Haze 22 1015 60 3000 0 0 22:34 27.02.2022
5077 Haze 22 1015 56 3000 0 0 21:51 27.02.2022
5078 Haze 25 1015 47 3000 0 0 20:59 27.02.2022
5079 Haze 25 1015 47 3000 0 0 20:28 27.02.2022
5080 Haze 25 1015 47 3000 0 0 19:57 27.02.2022
5081 Haze 25 1015 47 3000 0 0 19:27 27.02.2022
5082 Haze 24 1015 46 3000 1.03 220 18:47 27.02.2022
5083 Haze 24 1015 46 3000 1.03 240 17:56 27.02.2022
5084 Haze 26 1015 41 3000 1.54 130 16:54 27.02.2022
5085 Haze 26 1015 38 3000 1.54 120 16:21 27.02.2022
5086 Haze 32 1013 23 5000 2.57 170 13:34 27.02.2022
5087 Haze 33 1013 21 5000 3.09 210 12:33 27.02.2022
5088 Haze 32 1014 23 5000 2.57 160 10:59 27.02.2022
5089 Haze 33 1014 22 5000 4.63 220 10:20 27.02.2022
5090 Haze 32 1015 23 5000 3.09 200 09:50 27.02.2022
5091 Haze 32 1016 23 5000 3.6 200 09:20 27.02.2022
5092 Haze 31 1017 29 5000 2.57 200 08:20 27.02.2022
5093 Haze 31 1017 29 5000 2.57 200 08:20 27.02.2022
5094 Haze 28 1019 42 4000 1.54 120 05:38 27.02.2022
5095 Mist 18 1017 94 2500 1.03 40 02:35 27.02.2022
5096 Haze 20 1014 73 3000 0 0 23:30 26.02.2022
5097 Haze 20 1014 73 3000 0 0 23:30 26.02.2022
5098 Clouds 25 1012 31 10000 0.88 260 22:31 26.02.2022
5099 Haze 20 1015 68 3000 0 0 21:18 26.02.2022
5100 Haze 22 1015 64 3000 1.03 330 20:27 26.02.2022
5101 Haze 23 1016 60 3000 1.03 320 19:50 26.02.2022
5102 Haze 24 1016 53 3000 1.54 300 19:29 26.02.2022
5103 Haze 25 1016 50 3000 1.54 140 17:52 26.02.2022
5104 Haze 25 1016 50 3000 1.54 150 17:29 26.02.2022
5105 Haze 26 1016 44 3000 1.54 160 16:19 26.02.2022
5106 Haze 26 1015 44 3000 1.03 160 15:25 26.02.2022
5107 Haze 27 1015 41 3000 2.06 180 14:56 26.02.2022
5108 Haze 28 1014 36 4000 2.06 180 14:38 26.02.2022
5109 Haze 31 1014 29 4000 3.09 200 13:27 26.02.2022
5110 Haze 32 1014 27 5000 3.09 180 12:51 26.02.2022
5111 Haze 32 1014 29 5000 3.6 210 11:29 26.02.2022
5112 Haze 32 1014 29 5000 3.6 160 10:55 26.02.2022
5113 Haze 31 1016 35 5000 2.57 170 09:18 26.02.2022
5114 Haze 29 1018 37 5000 1.54 130 07:57 26.02.2022
5115 Haze 29 1018 37 5000 1.54 130 07:57 26.02.2022
5116 Haze 18 1017 68 3000 1.03 0 02:53 26.02.2022
5117 Haze 19 1014 55 4000 1.03 40 23:32 25.02.2022
5118 Haze 21 1015 56 4000 1.03 10 21:49 25.02.2022
5119 Haze 21 1015 56 4000 1.03 10 21:29 25.02.2022
5120 Haze 21 1015 52 4000 1.03 360 20:33 25.02.2022
5121 Haze 21 1015 52 4000 0 0 19:41 25.02.2022
5122 Haze 23 1015 46 4000 0 0 17:35 25.02.2022
5123 Haze 24 1015 43 4000 1.54 110 16:45 25.02.2022
5124 Haze 25 1015 38 4000 1.03 80 15:48 25.02.2022
5125 Haze 26 1014 36 4000 1.54 100 15:23 25.02.2022
5126 Haze 27 1014 34 4000 1.03 90 14:45 25.02.2022
5127 Haze 27 1014 34 4000 1.54 100 14:18 25.02.2022
5128 Haze 30 1014 26 5000 2.06 120 13:20 25.02.2022
5129 Haze 32 1014 22 5000 1.54 140 11:30 25.02.2022
5130 Haze 31 1014 22 5000 2.57 110 10:54 25.02.2022
5131 Haze 31 1015 22 5000 1.54 30 10:23 25.02.2022
5132 Haze 31 1015 20 5000 1.54 340 09:35 25.02.2022
5133 Haze 29 1018 30 5000 2.06 110 07:44 25.02.2022
5134 Haze 28 1019 32 5000 2.57 60 06:19 25.02.2022
5135 Haze 27 1019 34 4000 2.57 60 05:36 25.02.2022
5136 Haze 21 1015 52 3000 1.03 350 00:30 25.02.2022
5137 Haze 21 1015 60 3000 1.03 320 22:29 24.02.2022
5138 Haze 21 1015 64 3000 1.03 20 21:43 24.02.2022
5139 Haze 21 1015 64 3000 1.03 20 21:43 24.02.2022
5140 Haze 21 1015 64 3000 1.03 20 21:21 24.02.2022
5141 Haze 21 1015 60 3000 1.03 150 20:42 24.02.2022
5142 Haze 25 1016 47 3000 1.54 230 19:19 24.02.2022
5143 Haze 27 1016 41 3000 2.57 260 18:20 24.02.2022
5144 Haze 25 1016 47 3000 2.57 280 17:46 24.02.2022
5145 Haze 26 1015 47 3000 1.54 240 16:56 24.02.2022
5146 Haze 26 1015 44 3000 1.54 210 16:25 24.02.2022
5147 Haze 26 1015 44 3000 1.54 210 16:25 24.02.2022
5148 Haze 29 1014 39 4000 2.57 200 15:30 24.02.2022
5149 Haze 29 1014 39 4000 2.57 180 14:37 24.02.2022
5150 Haze 31 1013 35 4000 2.57 200 13:45 24.02.2022
5151 Haze 32 1013 31 4000 4.12 200 13:27 24.02.2022
5152 Haze 34 1014 27 5000 4.12 250 10:48 24.02.2022
5153 Haze 33 1015 31 5000 2.57 290 09:41 24.02.2022
5154 Haze 32 1016 33 5000 4.12 200 08:42 24.02.2022
5155 Haze 29 1018 42 5000 5.14 230 06:25 24.02.2022
5156 Haze 28 1019 47 5000 4.12 230 05:36 24.02.2022
5157 Haze 20 1015 73 3000 1.03 340 00:30 24.02.2022
5158 Haze 21 1015 68 3000 0 0 21:56 23.02.2022
5159 Haze 23 1016 60 3000 0 0 20:33 23.02.2022
5160 Haze 23 1016 60 3000 0 0 19:56 23.02.2022
5161 Haze 24 1016 57 3000 1.03 130 18:59 23.02.2022
5162 Haze 25 1016 53 3000 1.03 130 17:47 23.02.2022
5163 Haze 27 1015 47 3000 1.54 100 15:47 23.02.2022
5164 Haze 31 1014 30 4000 1.54 150 13:36 23.02.2022
5165 Haze 34 1013 21 5000 1.54 200 12:29 23.02.2022
5166 Haze 34 1014 26 5000 1.54 260 10:55 23.02.2022
5167 Haze 33 1014 25 5000 3.09 270 09:38 23.02.2022
5168 Haze 31 1016 29 5000 2.57 130 08:36 23.02.2022
5169 Haze 30 1017 30 5000 4.12 180 07:25 23.02.2022
5170 Haze 14 1015 72 3000 1.03 340 02:22 23.02.2022
5171 Haze 16 1014 63 3000 1.03 340 23:50 22.02.2022
5172 Haze 16 1014 63 3000 1.03 340 23:31 22.02.2022
5173 Haze 16 1014 63 3000 1.03 340 22:28 22.02.2022
5174 Haze 19 1015 52 3000 1.03 340 21:40 22.02.2022
5175 Haze 19 1015 52 3000 1.03 340 21:19 22.02.2022
5176 Haze 20 1015 40 3000 1.03 40 20:31 22.02.2022
5177 Haze 18 1015 52 3000 1.03 90 19:54 22.02.2022
5178 Haze 19 1015 48 3000 0 0 19:33 22.02.2022
5179 Haze 20 1015 45 3000 0 0 18:35 22.02.2022
5180 Haze 20 1015 42 3000 1.03 100 17:27 22.02.2022
5181 Haze 21 1014 37 3000 1.54 100 16:55 22.02.2022
5182 Haze 23 1014 35 3000 1.03 90 16:20 22.02.2022
5183 Haze 25 1013 27 3000 1.54 90 15:21 22.02.2022
5184 Haze 27 1013 24 3000 1.03 80 14:19 22.02.2022
5185 Haze 33 1012 17 5000 2.06 100 11:38 22.02.2022
5186 Haze 32 1013 18 5000 3.09 130 09:44 22.02.2022
5187 Haze 29 1016 26 5000 1.54 70 07:29 22.02.2022
5188 Haze 28 1016 28 5000 2.06 110 06:54 22.02.2022
5189 Haze 14 1014 54 3000 1.54 300 02:49 22.02.2022
5190 Haze 15 1012 51 3000 1.03 340 23:18 21.02.2022
5191 Haze 17 1012 48 3000 1.03 330 21:56 21.02.2022
5192 Haze 17 1013 48 3000 1.03 330 20:52 21.02.2022
5193 Haze 19 1013 42 4000 0 0 18:47 21.02.2022
5194 Haze 19 1013 42 4000 0 0 18:19 21.02.2022
5195 Haze 23 1012 53 4000 0 0 15:49 21.02.2022
5196 Haze 29 1010 37 5000 1.03 30 14:23 21.02.2022
5197 Haze 31 1010 33 5000 1.54 360 13:31 21.02.2022
5198 Haze 31 1009 30 5000 2.06 10 12:41 21.02.2022
5199 Haze 32 1009 29 5000 2.57 330 12:20 21.02.2022
5200 Haze 31 1010 29 5000 4.12 330 10:27 21.02.2022
5201 Haze 28 1013 26 5000 3.09 330 06:25 21.02.2022
5202 Haze 17 1010 45 3000 1.03 340 00:35 21.02.2022
5203 Haze 15 1010 55 3000 1.03 40 22:32 20.02.2022
5204 Haze 15 1011 63 3000 1.03 180 21:43 20.02.2022
5205 Haze 15 1011 63 3000 1.03 180 21:21 20.02.2022
5206 Haze 17 1011 45 3000 1.03 290 20:43 20.02.2022
5207 Haze 19 1011 42 3000 1.03 320 19:48 20.02.2022
5208 Haze 21 1012 37 3000 1.54 330 18:55 20.02.2022
5209 Haze 21 1012 37 3000 1.54 330 18:34 20.02.2022
5210 Haze 21 1012 37 3000 1.54 330 17:55 20.02.2022
5211 Haze 21 1011 37 3000 1.54 320 16:59 20.02.2022
5212 Haze 25 1010 29 4000 1.03 20 14:55 20.02.2022
5213 Haze 29 1009 18 5000 2.57 330 13:58 20.02.2022
5214 Haze 30 1009 21 5000 5.14 310 12:42 20.02.2022
5215 Haze 31 1009 19 5000 5.14 330 11:30 20.02.2022
5216 Haze 31 1009 22 5000 5.14 300 10:20 20.02.2022
5217 Haze 30 1010 32 5000 5.14 330 09:24 20.02.2022
5218 Mist 19 1011 100 2000 2.06 330 02:54 20.02.2022
5219 Mist 19 1010 100 2000 2.06 330 00:31 20.02.2022
5220 Mist 19 1010 100 2500 1.03 350 23:30 19.02.2022
5221 Haze 19 1011 100 2500 0 0 22:23 19.02.2022
5222 Haze 20 1011 100 2500 0 0 21:45 19.02.2022
5223 -273 0 0 0 0 0 20:24 19.02.2022
5224 Haze 20 1012 100 2500 0 0 20:24 19.02.2022
5225 Haze 21 1013 78 2500 1.03 180 19:34 19.02.2022
5226 Haze 22 1013 73 3000 1.03 40 18:38 19.02.2022
5227 Haze 22 1013 78 3000 1.03 40 17:37 19.02.2022
5228 Haze 23 1013 73 3000 1.03 40 16:44 19.02.2022
5229 Haze 25 1012 61 3000 1.54 20 15:20 19.02.2022
5230 Haze 26 1012 53 3000 1.03 70 14:52 19.02.2022
5231 Haze 28 1011 47 3000 1.54 140 13:47 19.02.2022
5232 Haze 29 1011 42 3500 1.54 200 11:40 19.02.2022
5233 Haze 30 1013 42 3500 2.06 220 10:30 19.02.2022
5234 Haze 28 1015 44 3500 3.6 220 08:31 19.02.2022
5235 Haze 25 1017 53 3000 1.54 100 06:30 19.02.2022
5236 Mist 18 1012 100 2000 0 0 23:45 18.02.2022
5237 Mist 19 1013 94 2000 1.03 40 21:54 18.02.2022
5238 Haze 19 1014 100 2500 0 0 20:57 18.02.2022
5239 Haze 20 1014 94 2500 0 0 19:54 18.02.2022
5240 Haze 21 1014 88 2500 0 0 18:50 18.02.2022
5241 Haze 20 1014 83 2500 0 0 18:22 18.02.2022
5242 Haze 20 1014 83 2500 1.03 50 17:55 18.02.2022
5243 Haze 21 1013 83 2500 1.03 80 15:22 18.02.2022
5244 Haze 24 1012 64 2500 1.54 90 13:55 18.02.2022
5245 Haze 25 1012 57 2500 1.54 80 12:55 18.02.2022
5246 Haze 25 1012 57 2500 1.54 80 12:36 18.02.2022
5247 Haze 26 1012 53 2500 1.54 110 11:29 18.02.2022
5248 Haze 25 1013 53 2500 2.06 70 10:23 18.02.2022
5249 Haze 23 1016 53 2500 1.03 50 06:57 18.02.2022
5250 Haze 21 1016 64 2500 1.54 30 05:40 18.02.2022
5251 Mist 18 1011 100 2000 1.03 20 23:34 17.02.2022
5252 Mist 18 1012 100 2000 1.54 10 21:46 17.02.2022
5253 Mist 18 1012 100 2000 1.54 10 21:20 17.02.2022
5254 Mist 18 1012 100 2500 0 0 20:38 17.02.2022
5255 Mist 18 1012 100 2500 0 0 19:49 17.02.2022
5256 Mist 18 1012 100 2500 0 0 18:44 17.02.2022
5257 Mist 19 1012 94 2500 0 0 17:50 17.02.2022
5258 Mist 19 1012 94 2500 0 0 16:29 17.02.2022
5259 Haze 19 1011 88 2500 0 0 15:32 17.02.2022
5260 Haze 20 1011 73 2500 1.03 60 14:26 17.02.2022
5261 Haze 23 1010 60 2500 2.06 60 12:38 17.02.2022
5262 Mist 23 1011 68 2500 1.54 60 11:23 17.02.2022
5263 Mist 23 1011 68 2500 1.54 60 11:23 17.02.2022
5264 Clouds 30 1008 27 10000 1.78 151 08:52 17.02.2022
5265 Mist 18 1010 94 2000 1.03 30 01:45 17.02.2022
5266 Clouds 18 1010 94 2500 1.54 10 23:21 16.02.2022
5267 Clouds 19 1011 100 2500 1.54 50 21:40 16.02.2022
5268 Haze 22 1010 68 3000 1.54 320 19:47 16.02.2022
5269 Haze 23 1010 64 3000 1.03 20 18:38 16.02.2022
5270 Haze 22 1010 68 3000 1.03 20 17:53 16.02.2022
5271 Haze 22 1009 73 3000 0 0 15:38 16.02.2022
5272 Haze 23 1008 64 3000 1.03 110 14:59 16.02.2022
5273 Haze 25 1007 57 3000 1.03 130 12:59 16.02.2022
5274 Haze 25 1007 61 3000 1.03 70 11:58 16.02.2022
5275 Haze 23 1008 88 3000 1.03 70 11:24 16.02.2022
5276 Clouds 23 1009 68 1500 6.17 320 10:33 16.02.2022
5277 Haze 27 1013 39 5000 2.06 90 07:21 16.02.2022
5278 Haze 24 1013 43 4000 2.06 90 05:20 16.02.2022
5279 Haze 18 1011 68 3000 0 0 23:44 15.02.2022
5280 Haze 19 1011 63 3000 1.03 20 22:28 15.02.2022
5281 Haze 20 1012 64 3000 1.03 10 21:46 15.02.2022
5282 Haze 20 1012 64 3000 1.03 10 21:27 15.02.2022
5283 Haze 20 1012 60 3000 1.03 310 20:55 15.02.2022
5284 Haze 19 1012 63 3000 1.03 250 19:57 15.02.2022
5285 Haze 20 1012 60 3000 1.03 90 18:52 15.02.2022
5286 Haze 20 1012 60 3000 1.03 90 18:20 15.02.2022
5287 Haze 21 1012 56 3000 1.54 110 17:48 15.02.2022
5288 Haze 23 1012 53 3000 1.03 100 16:32 15.02.2022
5289 Haze 24 1011 46 4000 2.06 100 15:22 15.02.2022
5290 Haze 29 1010 26 4000 3.09 160 13:26 15.02.2022
5291 Haze 29 1010 28 4000 3.09 150 11:57 15.02.2022
5292 Haze 29 1010 26 4000 1.54 100 10:58 15.02.2022
5293 Haze 29 1012 24 4000 3.09 130 09:28 15.02.2022
5294 Haze 25 1015 36 4000 2.57 150 06:50 15.02.2022
5295 Haze 16 1014 72 2500 0 0 02:36 15.02.2022
5296 Clear 19 1011 33 10000 2.46 79 22:25 14.02.2022
5297 Haze 19 1013 52 3000 1.54 40 21:27 14.02.2022
5298 Haze 20 1013 49 3000 1.03 30 20:24 14.02.2022
5299 Haze 20 1013 45 3000 1.54 100 19:30 14.02.2022
5300 Haze 18 1013 55 3000 1.03 140 18:27 14.02.2022
5301 Haze 19 1013 52 3000 1.03 240 17:58 14.02.2022
5302 Haze 20 1013 49 3000 2.06 100 17:24 14.02.2022
5303 Haze 23 1012 40 3000 1.03 100 15:59 14.02.2022
5304 Haze 26 1011 29 4000 1.03 70 13:44 14.02.2022
5305 Haze 28 1011 26 5000 1.03 50 13:23 14.02.2022
5306 Haze 30 1011 21 5000 1.54 50 12:32 14.02.2022
5307 Haze 30 1011 20 5000 1.54 150 11:54 14.02.2022
5308 Haze 30 1012 21 5000 2.57 340 10:31 14.02.2022
5309 Haze 28 1014 26 5000 1.03 210 08:37 14.02.2022
5310 Haze 26 1015 29 5000 2.57 150 07:27 14.02.2022
5311 Haze 15 1012 63 3000 1.03 300 23:41 13.02.2022
5312 Haze 16 1013 63 4000 1.54 20 22:42 13.02.2022
5313 Haze 16 1013 63 4000 1.54 20 22:23 13.02.2022
5314 Haze 16 1013 63 4000 0 0 21:28 13.02.2022
5315 Haze 19 1014 48 4000 1.03 10 20:32 13.02.2022
5316 Haze 17 1014 55 4000 2.06 350 19:24 13.02.2022
5317 Haze 17 1014 55 4000 0 0 18:42 13.02.2022
5318 Haze 18 1014 52 4000 1.54 110 17:54 13.02.2022
5319 Haze 22 1013 37 4000 1.54 70 15:54 13.02.2022
5320 Haze 22 1013 37 4000 1.54 70 15:54 13.02.2022
5321 Haze 23 1012 38 4000 1.54 80 14:58 13.02.2022
5322 Haze 26 1011 29 5000 1.54 110 13:59 13.02.2022
5323 Haze 29 1011 21 5000 1.03 70 12:50 13.02.2022
5324 Haze 29 1011 21 5000 1.54 30 11:26 13.02.2022
5325 Haze 28 1012 23 5000 2.06 0 10:30 13.02.2022
5326 Haze 28 1013 32 5000 3.09 90 09:41 13.02.2022
5327 Haze 25 1016 38 5000 4.12 150 07:19 13.02.2022
5328 Haze 12 1013 71 3000 1.54 320 00:35 13.02.2022
5329 Haze 13 1014 67 3000 1.03 340 23:39 12.02.2022
5330 Haze 16 1014 55 3000 1.54 20 22:33 12.02.2022
5331 Haze 16 1014 55 3000 1.54 20 21:20 12.02.2022
5332 Haze 14 1015 62 3000 0 0 20:32 12.02.2022
5333 Haze 16 1015 55 3000 1.03 30 19:21 12.02.2022
5334 Haze 17 1015 51 3000 1.03 330 18:52 12.02.2022
5335 Haze 17 1015 51 3000 1.03 330 18:34 12.02.2022
5336 Haze 18 1015 42 3000 1.03 130 16:56 12.02.2022
5337 Haze 18 1015 42 3000 1.03 120 16:25 12.02.2022
5338 Haze 19 1014 37 3000 1.03 120 15:50 12.02.2022
5339 Haze 23 1013 38 4000 1.54 120 14:31 12.02.2022
5340 Haze 28 1013 26 5000 1.54 30 12:55 12.02.2022
5341 Haze 28 1014 24 5000 1.03 20 10:40 12.02.2022
5342 Haze 27 1015 22 5000 2.06 160 09:39 12.02.2022
5343 Haze 26 1016 24 5000 1.54 330 08:50 12.02.2022
5344 Haze 25 1017 25 5000 2.57 40 07:53 12.02.2022
5345 Haze 21 1019 35 5000 3.09 60 05:33 12.02.2022
5346 Haze 13 1018 62 3000 1.03 10 03:32 12.02.2022
5347 Haze 13 1017 62 3000 1.03 10 02:18 12.02.2022
5348 Haze 12 1016 66 3000 0 0 22:28 11.02.2022
5349 Haze 14 1017 58 3000 1.03 320 21:47 11.02.2022
5350 Haze 14 1017 54 3000 1.03 320 20:40 11.02.2022
5351 Haze 14 1018 54 3000 1.03 320 19:40 11.02.2022
5352 Haze 14 1018 54 3000 1.03 320 19:20 11.02.2022
5353 Haze 16 1017 48 3000 1.03 80 17:48 11.02.2022
5354 Haze 17 1017 45 3000 1.03 150 17:22 11.02.2022
5355 Haze 20 1016 34 4000 1.03 60 15:56 11.02.2022
5356 Haze 21 1015 30 4000 1.54 50 14:43 11.02.2022
5357 Haze 22 1015 28 5000 2.06 50 14:20 11.02.2022
5358 Haze 24 1015 25 5000 1.54 40 13:52 11.02.2022
5359 Haze 24 1015 25 5000 1.54 40 13:34 11.02.2022
5360 Haze 26 1014 22 5000 2.06 340 11:32 11.02.2022
5361 Haze 25 1016 27 5000 3.6 340 09:45 11.02.2022
5362 Haze 24 1018 31 4000 1.54 40 08:40 11.02.2022
5363 Haze 24 1018 31 4000 1.54 40 08:22 11.02.2022
5364 Haze 21 1020 37 4000 1.54 10 06:33 11.02.2022
5365 Haze 15 1017 67 2500 1.54 60 02:26 11.02.2022
5366 Haze 16 1016 72 3000 1.54 320 00:47 11.02.2022
5367 Haze 17 1017 67 3000 2.57 20 22:45 10.02.2022
5368 Haze 18 1017 63 3000 2.57 10 21:45 10.02.2022
5369 Haze 18 1017 59 3000 2.06 40 20:54 10.02.2022
5370 Haze 19 1017 55 3000 1.54 20 20:29 10.02.2022
5371 Haze 19 1017 55 3000 1.54 30 19:25 10.02.2022
5372 Haze 20 1018 52 3000 1.54 30 18:43 10.02.2022
5373 Haze 21 1017 49 3500 2.06 60 17:26 10.02.2022
5374 Haze 21 1017 49 3500 2.06 50 16:50 10.02.2022
5375 Haze 23 1016 46 4000 3.09 60 15:47 10.02.2022
5376 Haze 23 1016 46 4000 2.06 60 15:28 10.02.2022
5377 Haze 23 1015 46 4000 1.54 80 14:46 10.02.2022
5378 Haze 24 1015 41 4000 1.54 60 14:23 10.02.2022
5379 Haze 26 1014 36 4000 1.03 60 13:21 10.02.2022
5380 Haze 27 1014 29 5000 1.03 20 12:23 10.02.2022
5381 Haze 28 1014 30 5000 1.54 350 11:33 10.02.2022
5382 Haze 28 1014 30 5000 1.54 30 10:35 10.02.2022
5383 Haze 27 1015 32 5000 1.54 80 09:49 10.02.2022
5384 Haze 27 1016 32 5000 3.09 100 08:53 10.02.2022
5385 Haze 25 1018 44 5000 2.57 80 06:42 10.02.2022
5386 Haze 19 1017 68 3000 1.54 10 03:39 10.02.2022
5387 Haze 19 1015 72 3000 2.57 350 01:18 10.02.2022
5388 Haze 19 1014 72 3000 4.12 20 00:42 10.02.2022
5389 Haze 19 1014 72 3000 4.12 20 00:23 10.02.2022
5390 Haze 20 1014 83 3000 2.57 20 22:57 09.02.2022
5391 Haze 20 1014 83 3000 2.57 20 22:33 09.02.2022
5392 Haze 21 1014 100 3000 0 0 21:48 09.02.2022
5393 Haze 21 1014 100 3000 0 0 21:28 09.02.2022
5394 Haze 22 1014 73 3000 1.03 40 20:45 09.02.2022
5395 Haze 22 1014 73 3000 1.03 40 20:23 09.02.2022
5396 Haze 23 1014 60 3000 1.03 20 19:42 09.02.2022
5397 Haze 24 1015 53 3000 2.06 310 18:55 09.02.2022
5398 Haze 24 1014 64 3000 3.6 310 17:24 09.02.2022
5399 Haze 24 1014 69 3000 1.54 140 16:25 09.02.2022
5400 Haze 25 1013 61 4000 1.54 130 15:26 09.02.2022
5401 Haze 28 1011 51 4000 3.09 170 13:32 09.02.2022
5402 Haze 29 1011 48 4000 4.63 160 11:52 09.02.2022
5403 Haze 29 1011 48 4000 4.63 180 10:35 09.02.2022
5404 Haze 28 1012 51 4000 4.63 170 09:53 09.02.2022
5405 Haze 28 1013 51 5000 4.12 190 09:22 09.02.2022
5406 Haze 27 1013 54 5000 3.09 180 08:46 09.02.2022
5407 Haze 25 1015 57 4000 2.06 160 06:52 09.02.2022
5408 Haze 22 1015 56 2500 1.03 30 04:36 09.02.2022
5409 Haze 19 1015 68 2500 1.03 310 03:49 09.02.2022
5410 Haze 19 1012 63 3000 2.06 320 23:45 08.02.2022
5411 Haze 19 1012 63 3000 2.06 320 23:19 08.02.2022
5412 Haze 19 1012 63 3000 2.06 320 23:19 08.02.2022
5413 Haze 19 1012 63 3000 1.03 320 22:38 08.02.2022
5414 Haze 19 1012 63 3000 1.03 320 22:38 08.02.2022
5415 Haze 19 1012 63 3000 1.03 320 22:20 08.02.2022
5416 Haze 20 1013 60 3000 0 0 21:22 08.02.2022
5417 Haze 21 1013 56 3000 0 0 20:58 08.02.2022
5418 Haze 21 1013 56 3000 0 0 20:37 08.02.2022
5419 Haze 21 1013 56 3000 0 0 20:37 08.02.2022
5420 Haze 22 1014 53 3000 2.06 130 19:28 08.02.2022
5421 Haze 22 1014 49 3500 1.54 130 18:24 08.02.2022
5422 Haze 23 1014 43 3500 2.06 110 17:30 08.02.2022
5423 Haze 23 1013 43 3500 1.54 110 15:47 08.02.2022
5424 Haze 24 1013 41 4000 2.06 90 14:58 08.02.2022
5425 Haze 26 1012 36 4000 1.54 100 13:48 08.02.2022
5426 Haze 29 1011 30 5000 2.06 70 12:24 08.02.2022
5427 Haze 30 1012 28 5000 2.06 110 10:49 08.02.2022
5428 Haze 29 1013 28 5000 1.03 90 09:48 08.02.2022
5429 Haze 28 1014 30 5000 3.6 110 08:38 08.02.2022
5430 Haze 25 1017 33 5000 1.54 110 06:24 08.02.2022
5431 Haze 21 1017 46 5000 1.03 20 04:40 08.02.2022
5432 Haze 19 1017 52 4000 1.54 360 04:22 08.02.2022
5433 Haze 16 1016 67 4000 0 0 03:36 08.02.2022
5434 Haze 14 1016 77 3000 1.03 310 03:18 08.02.2022
5435 Haze 15 1015 67 3000 0 0 02:59 08.02.2022
5436 Haze 15 1015 67 3000 0 0 02:36 08.02.2022
5437 Haze 15 1015 72 3000 1.03 10 02:18 08.02.2022
5438 Haze 15 1015 67 3000 1.54 340 01:44 08.02.2022
5439 Haze 14 1014 72 3000 0 0 01:25 08.02.2022
5440 Haze 15 1014 67 3000 1.03 340 00:55 08.02.2022
5441 Haze 14 1014 72 3000 0 0 00:19 08.02.2022
5442 Haze 16 1014 72 3000 1.03 10 23:43 07.02.2022
5443 Haze 16 1014 72 3000 1.03 10 23:18 07.02.2022
5444 Haze 17 1015 67 3000 0 0 22:59 07.02.2022
5445 Haze 17 1015 67 3000 0 0 22:18 07.02.2022
5446 Haze 17 1015 67 3000 0 0 21:49 07.02.2022
5447 Haze 17 1015 67 3000 0 0 21:27 07.02.2022
5448 Haze 19 1016 55 3000 0 0 20:41 07.02.2022
5449 Haze 19 1016 55 3000 0 0 20:18 07.02.2022
5450 Haze 19 1016 55 3000 0 0 19:46 07.02.2022
5451 Haze 19 1016 52 3000 0 0 18:24 07.02.2022
5452 Haze 21 1015 46 3000 1.03 120 16:53 07.02.2022
5453 Haze 22 1015 43 3000 1.54 130 16:21 07.02.2022
5454 Haze 23 1015 40 4000 2.06 130 15:48 07.02.2022
5455 Haze 28 1013 30 5000 0 0 13:39 07.02.2022
5456 Haze 28 1013 30 5000 0 0 13:21 07.02.2022
5457 Haze 30 1013 21 5000 4.12 320 11:58 07.02.2022
5458 Haze 30 1013 21 5000 4.12 320 11:37 07.02.2022
5459 Haze 30 1014 21 5000 1.54 110 10:53 07.02.2022
5460 Haze 29 1014 23 5000 1.54 340 10:32 07.02.2022
5461 Haze 29 1015 21 5000 1.54 280 09:53 07.02.2022
5462 Haze 29 1015 23 5000 3.6 320 09:18 07.02.2022
5463 Haze 28 1016 28 5000 2.06 110 08:43 07.02.2022
5464 Haze 25 1018 31 5000 2.06 350 07:26 07.02.2022
5465 Haze 25 1018 31 5000 2.06 350 06:34 07.02.2022
5466 Haze 15 1018 77 3000 1.03 290 03:49 07.02.2022
5467 Mist 13 1015 82 3000 0 0 00:47 07.02.2022
5468 Mist 13 1015 88 3000 0 0 23:49 06.02.2022
5469 Mist 13 1015 82 3000 1.03 350 22:55 06.02.2022
5470 Haze 13 1015 76 3000 1.03 320 22:34 06.02.2022
5471 Haze 13 1016 76 3000 0 0 21:36 06.02.2022
5472 Haze 15 1017 72 3000 0 0 20:56 06.02.2022
5473 Haze 15 1017 72 3000 0 0 20:36 06.02.2022
5474 Haze 16 1017 72 3000 1.03 340 19:45 06.02.2022
5475 Haze 16 1017 77 3500 1.03 340 18:48 06.02.2022
5476 Haze 17 1017 77 3500 1.54 130 17:58 06.02.2022
5477 Haze 17 1017 77 3500 1.03 40 17:26 06.02.2022
5478 Haze 18 1017 72 3500 1.03 350 16:48 06.02.2022
5479 Haze 18 1016 45 3500 0 0 15:50 06.02.2022
5480 Haze 21 1016 64 4000 1.03 80 15:27 06.02.2022
5481 Haze 22 1015 60 4000 1.03 110 14:50 06.02.2022
5482 Haze 24 1015 50 4000 1.54 100 13:51 06.02.2022
5483 Haze 27 1014 41 4000 1.03 90 13:20 06.02.2022
5484 Haze 28 1014 39 5000 1.54 100 11:39 06.02.2022
5485 Haze 28 1015 42 5000 1.54 120 10:31 06.02.2022
5486 Haze 28 1015 42 5000 1.54 120 10:31 06.02.2022
5487 Haze 27 1016 41 5000 2.06 90 09:25 06.02.2022
5488 Haze 26 1017 41 5000 1.54 80 08:40 06.02.2022
5489 Haze 22 1019 35 5000 1.54 50 05:36 06.02.2022
5490 Haze 12 1017 58 3000 1.03 350 03:31 06.02.2022
5491 Haze 13 1016 58 3000 1.03 10 02:24 06.02.2022
5492 Haze 11 1015 66 3000 0 0 00:30 06.02.2022
5493 Haze 11 1014 62 4000 0 0 23:18 05.02.2022
5494 Haze 13 1015 54 4000 0 0 21:33 05.02.2022
5495 Haze 16 1016 48 4000 1.03 20 20:25 05.02.2022
5496 Haze 13 1015 54 4000 1.03 320 19:49 05.02.2022
5497 Haze 13 1015 54 4000 1.03 320 19:18 05.02.2022
5498 Haze 16 1015 41 4000 0 0 17:45 05.02.2022
5499 Haze 15 1015 41 4000 1.54 150 17:27 05.02.2022
5500 Haze 19 1014 32 4000 1.54 120 15:42 05.02.2022
5501 Haze 20 1014 30 4000 1.54 100 15:24 05.02.2022
5502 Haze 27 1012 34 5000 1.03 90 12:54 05.02.2022
5503 Haze 27 1012 34 5000 1.03 90 12:33 05.02.2022
5504 Haze 27 1012 32 5000 2.06 140 10:53 05.02.2022
5505 Haze 27 1013 32 5000 1.03 80 10:25 05.02.2022
5506 Haze 27 1013 28 5000 2.06 170 09:46 05.02.2022
5507 Haze 25 1015 29 5000 1.03 160 07:54 05.02.2022
5508 Haze 23 1016 27 5000 2.06 40 06:57 05.02.2022
5509 Haze 16 1015 41 4000 1.03 360 04:30 05.02.2022
5510 Haze 12 1013 54 3000 0 0 01:19 05.02.2022
5511 Haze 12 1013 50 3000 2.06 330 00:53 05.02.2022
5512 Haze 10 1012 62 3000 1.03 320 23:46 04.02.2022
5513 Haze 10 1012 62 3000 1.03 320 23:28 04.02.2022
5514 Haze 13 1013 50 3000 1.03 340 21:54 04.02.2022
5515 Haze 13 1013 50 3000 1.03 340 21:36 04.02.2022
5516 Haze 13 1013 50 3000 1.03 340 21:18 04.02.2022
5517 Haze 15 1013 44 3000 1.03 320 19:59 04.02.2022
5518 Haze 17 1013 39 3500 1.54 340 17:43 04.02.2022
5519 Haze 20 1012 30 3500 1.54 340 15:42 04.02.2022
5520 Haze 22 1011 24 4000 2.57 330 14:55 04.02.2022
5521 Haze 23 1010 25 4000 2.57 320 13:33 04.02.2022
5522 Haze 25 1010 20 5000 4.12 320 12:43 04.02.2022
5523 Haze 26 1010 19 5000 4.12 280 11:42 04.02.2022
5524 Haze 25 1010 20 5000 1.54 340 10:36 04.02.2022
5525 Haze 25 1010 20 5000 1.54 340 10:36 04.02.2022
5526 Haze 25 1012 22 5000 2.57 350 08:42 04.02.2022
5527 Haze 23 1014 28 5000 2.57 350 06:57 04.02.2022
5528 Haze 15 1011 67 3000 1.54 310 02:46 04.02.2022
5529 Haze 15 1010 67 3000 2.06 330 01:52 04.02.2022
5530 Haze 16 1009 63 3000 0 0 23:29 03.02.2022
5531 Haze 20 1009 49 3000 0 0 22:33 03.02.2022
5532 Haze 21 1009 46 3000 0 0 21:49 03.02.2022
5533 Haze 19 1009 100 3000 0 0 20:39 03.02.2022
5534 Haze 19 1009 100 3000 0 0 20:18 03.02.2022
5535 Haze 21 1009 73 3000 1.54 290 19:30 03.02.2022
5536 Haze 22 1009 73 3000 1.54 210 18:35 03.02.2022
5537 Haze 22 1009 60 3000 0 0 17:32 03.02.2022
5538 Haze 23 1008 53 3000 0 0 16:26 03.02.2022
5539 Haze 24 1007 46 4000 1.54 130 14:45 03.02.2022
5540 Haze 30 1006 28 5000 3.09 200 12:52 03.02.2022
5541 Haze 30 1007 35 5000 4.12 220 10:58 03.02.2022
5542 Haze 29 1010 39 5000 4.12 180 08:36 03.02.2022
5543 Haze 19 1013 77 3000 0 0 04:28 03.02.2022
5544 Haze 15 1010 88 3000 1.03 360 00:31 03.02.2022
5545 Haze 15 1010 100 3000 1.03 350 23:39 02.02.2022
5546 Haze 16 1012 67 3000 1.03 340 21:55 02.02.2022
5547 Haze 16 1012 67 3000 1.03 340 21:31 02.02.2022
5548 Haze 16 1013 72 3000 0 0 20:40 02.02.2022
5549 Haze 17 1013 63 3000 0 0 19:58 02.02.2022
5550 Haze 18 1013 59 3000 1.03 320 19:27 02.02.2022
5551 Haze 18 1013 59 3000 1.03 320 18:39 02.02.2022
5552 Haze 19 1013 55 3000 1.54 100 17:44 02.02.2022
5553 Haze 21 1013 49 3000 1.54 100 17:19 02.02.2022
5554 Haze 21 1013 52 3000 1.54 110 16:31 02.02.2022
5555 Haze 29 1011 26 5000 2.06 110 12:57 02.02.2022
5556 Haze 30 1011 21 5000 2.57 130 12:20 02.02.2022
5557 Haze 31 1011 20 5000 1.03 160 11:32 02.02.2022
5558 Haze 29 1013 24 5000 1.54 60 09:46 02.02.2022
5559 Haze 27 1015 32 5000 1.54 100 07:33 02.02.2022
5560 Haze 14 1012 72 3000 0 0 22:51 01.02.2022
5561 Haze 15 1013 67 3000 0 0 21:40 01.02.2022
5562 Haze 16 1013 59 4000 1.03 330 19:58 01.02.2022
5563 Haze 19 1013 52 4000 2.06 330 17:41 01.02.2022
5564 Haze 19 1012 45 4000 0 0 16:39 01.02.2022
5565 Haze 25 1011 31 4000 1.54 110 13:56 01.02.2022
5566 Haze 29 1010 20 5000 1.03 100 12:42 01.02.2022
5567 Haze 29 1010 20 5000 1.03 50 11:20 01.02.2022
5568 Haze 11 1013 66 3000 0 0 02:34 01.02.2022
5569 Haze 13 1012 58 3000 0 0 23:41 31.01.2022
5570 Haze 13 1013 58 3000 2.06 180 22:57 31.01.2022
5571 Haze 16 1013 51 3000 1.03 360 21:39 31.01.2022
5572 Haze 14 1013 62 3000 1.03 0 20:50 31.01.2022
5573 Haze 14 1013 62 3000 1.03 0 20:27 31.01.2022
5574 Haze 15 1014 63 4000 1.03 0 19:29 31.01.2022
5575 Haze 18 1014 52 4000 2.06 340 18:25 31.01.2022
5576 Haze 17 1013 55 4000 0 0 17:26 31.01.2022
5577 Haze 20 1013 45 4000 0 0 16:29 31.01.2022
5578 Haze 23 1011 33 4000 1.03 140 14:54 31.01.2022
5579 Haze 26 1011 27 4000 1.03 150 13:52 31.01.2022
5580 Haze 29 1011 21 5000 2.57 160 12:38 31.01.2022
5581 Haze 31 1011 18 5000 1.54 210 11:47 31.01.2022
5582 Haze 31 1011 16 5000 1.54 290 10:50 31.01.2022
5583 Haze 30 1012 16 5000 2.57 260 09:59 31.01.2022
5584 Haze 28 1013 21 5000 1.54 10 08:59 31.01.2022
5585 Haze 27 1014 22 5000 1.03 10 08:39 31.01.2022
5586 Haze 27 1014 22 5000 1.03 10 08:20 31.01.2022
5587 Haze 23 1016 35 5000 0 0 06:18 31.01.2022
5588 Haze 11 1012 71 2500 0 0 00:46 31.01.2022
5589 Haze 13 1013 62 2500 0 0 22:40 30.01.2022
5590 Haze 13 1013 62 2500 0 0 22:22 30.01.2022
5591 Haze 14 1013 62 2500 0 0 21:38 30.01.2022
5592 Haze 14 1013 62 2500 0 0 21:18 30.01.2022
5593 Haze 15 1014 58 2500 0 0 20:45 30.01.2022
5594 Haze 15 1014 58 2500 0 0 20:27 30.01.2022
5595 Haze 15 1014 55 2500 0 0 19:24 30.01.2022
5596 Haze 14 1014 58 2500 0 0 18:36 30.01.2022
5597 Haze 16 1014 55 3000 0 0 17:54 30.01.2022
5598 Haze 16 1014 51 3000 0 0 17:21 30.01.2022
5599 Haze 17 1014 45 3000 0 0 16:39 30.01.2022
5600 Haze 19 1013 42 3000 0 0 16:21 30.01.2022
5601 Haze 19 1013 42 4000 0 0 15:50 30.01.2022
5602 Haze 20 1013 34 4000 0 0 15:31 30.01.2022
5603 Haze 22 1013 33 4000 0 0 14:46 30.01.2022
5604 Haze 29 1012 17 5000 1.54 250 12:47 30.01.2022
5605 Haze 30 1012 15 5000 1.54 250 11:53 30.01.2022
5606 Haze 29 1013 18 5000 1.03 230 10:29 30.01.2022
5607 Haze 28 1013 20 5000 1.54 250 09:50 30.01.2022
5608 Haze 26 1015 22 5000 2.57 250 08:52 30.01.2022
5609 Haze 23 1017 31 5000 3.09 180 06:55 30.01.2022
5610 Mist 8 1015 100 2500 0 0 01:56 30.01.2022
5611 Haze 9 1015 93 3000 0 0 00:22 30.01.2022
5612 Haze 11 1016 66 3000 1.03 330 22:58 29.01.2022
5613 Haze 12 1017 76 3000 1.03 320 21:47 29.01.2022
5614 Haze 12 1017 76 3000 1.03 320 21:23 29.01.2022
5615 Haze 12 1017 71 3000 1.03 350 20:22 29.01.2022
5616 Haze 12 1017 66 3000 0 0 19:33 29.01.2022
5617 Haze 13 1017 62 3500 1.03 320 18:51 29.01.2022
5618 Haze 14 1018 54 3500 1.03 320 18:18 29.01.2022
5619 Haze 14 1018 51 3500 1.03 260 17:27 29.01.2022
5620 Haze 16 1017 44 4000 0 0 15:44 29.01.2022
5621 Haze 23 1016 25 4000 1.03 50 13:59 29.01.2022
5622 Haze 23 1016 25 4000 1.03 50 13:41 29.01.2022
5623 Haze 25 1015 22 4000 1.03 50 13:22 29.01.2022
5624 Haze 27 1016 18 5000 1.54 350 11:40 29.01.2022
5625 Haze 26 1016 19 5000 2.57 340 10:46 29.01.2022
5626 Haze 24 1018 23 5000 2.57 80 08:42 29.01.2022
5627 Haze 13 1020 62 3000 1.54 340 03:53 29.01.2022
5628 Haze 9 1017 100 3000 1.03 360 00:34 29.01.2022
5629 Haze 9 1017 93 3000 0 0 23:44 28.01.2022
5630 Haze 12 1018 66 3000 0 0 22:48 28.01.2022
5631 Haze 12 1018 66 3000 0 0 22:20 28.01.2022
5632 Clear 14 1017 39 10000 2.46 17 20:42 28.01.2022
5633 Clear 14 1017 37 10000 2.38 20 20:23 28.01.2022
5634 Haze 12 1019 66 4000 1.54 330 19:28 28.01.2022
5635 Haze 13 1019 62 4000 1.03 350 18:38 28.01.2022
5636 Haze 14 1018 51 4000 0 0 16:39 28.01.2022
5637 Haze 17 1017 42 4000 1.54 90 14:59 28.01.2022
5638 Haze 23 1016 25 5000 1.03 60 13:23 28.01.2022
5639 Haze 24 1016 23 5000 1.03 300 11:52 28.01.2022
5640 Haze 23 1017 27 5000 1.54 300 10:32 28.01.2022
5641 Haze 22 1017 28 5000 1.03 220 09:47 28.01.2022
5642 Haze 20 1020 34 5000 2.57 80 07:43 28.01.2022
5643 Haze 17 1021 45 5000 2.57 60 06:30 28.01.2022
5644 Haze 13 1020 62 2500 1.03 40 03:51 28.01.2022
5645 Haze 9 1018 81 2500 1.03 340 02:29 28.01.2022
5646 Haze 11 1017 71 2500 1.03 20 01:57 28.01.2022
5647 Haze 11 1017 71 2500 1.03 20 01:57 28.01.2022
5648 Haze 10 1017 81 3000 1.03 20 01:29 28.01.2022
5649 Haze 11 1017 66 3000 0 0 22:39 27.01.2022
5650 Haze 12 1017 62 3000 1.03 40 21:40 27.01.2022
5651 Haze 14 1017 54 3000 0 0 20:59 27.01.2022
5652 Haze 15 1018 51 4000 0 0 19:45 27.01.2022
5653 Haze 14 1017 58 4000 1.03 40 18:22 27.01.2022
5654 Haze 16 1017 51 4000 1.54 150 16:59 27.01.2022
5655 Haze 20 1015 30 4000 1.54 40 14:23 27.01.2022
5656 Haze 24 1015 22 5000 1.54 30 12:49 27.01.2022
5657 Haze 24 1015 22 5000 1.54 30 12:49 27.01.2022
5658 Haze 24 1015 22 5000 2.57 340 12:18 27.01.2022
5659 Haze 22 1016 33 5000 2.06 130 09:48 27.01.2022
5660 Haze 21 1017 35 5000 2.06 200 08:40 27.01.2022
5661 Haze 20 1018 40 5000 1.54 100 07:52 27.01.2022
5662 Haze 13 1018 58 4000 2.06 360 03:34 27.01.2022
5663 Mist 9 1016 100 2500 0 0 00:24 27.01.2022
5664 Haze 13 1016 62 2500 1.03 10 22:28 26.01.2022
5665 Haze 14 1016 58 2500 1.03 10 21:44 26.01.2022
5666 Haze 14 1016 58 3000 1.03 10 20:50 26.01.2022
5667 Haze 14 1016 58 3000 1.03 10 20:31 26.01.2022
5668 Haze 13 1016 62 3000 1.03 320 19:49 26.01.2022
5669 Haze 14 1017 62 3000 1.03 90 18:47 26.01.2022
5670 Haze 14 1017 62 3000 1.03 90 18:24 26.01.2022
5671 Haze 17 1016 48 4000 1.03 20 17:33 26.01.2022
5672 Haze 17 1016 48 4000 1.03 10 16:49 26.01.2022
5673 Haze 17 1015 45 4000 1.03 10 16:22 26.01.2022
5674 Haze 19 1014 39 4000 1.03 360 14:40 26.01.2022
5675 Haze 24 1013 27 5000 1.54 320 12:20 26.01.2022
5676 Haze 23 1014 28 5000 4.12 270 10:52 26.01.2022
5677 Haze 23 1014 28 5000 2.57 260 09:52 26.01.2022
5678 Haze 21 1016 35 5000 2.06 310 08:49 26.01.2022
5679 Haze 19 1018 39 5000 1.54 50 06:36 26.01.2022
5680 Haze 13 1014 62 3000 1.54 350 00:21 26.01.2022
5681 Haze 14 1014 62 3000 1.54 20 23:41 25.01.2022
5682 Haze 15 1014 58 3000 2.06 350 22:48 25.01.2022
5683 Haze 15 1014 58 3000 2.06 350 22:18 25.01.2022
5684 Haze 16 1014 55 3000 1.54 20 21:27 25.01.2022
5685 Haze 16 1014 55 3000 1.03 30 20:45 25.01.2022
5686 Haze 15 1014 63 3000 1.54 30 19:54 25.01.2022
5687 Haze 15 1014 63 3000 1.54 10 19:23 25.01.2022
5688 Haze 15 1015 63 3000 1.03 330 17:56 25.01.2022
5689 Haze 16 1015 59 3000 1.03 320 17:18 25.01.2022
5690 Haze 15 1014 63 3000 0 0 16:34 25.01.2022
5691 Haze 16 1014 59 3000 1.03 120 15:39 25.01.2022
5692 Haze 17 1013 51 3000 1.03 40 15:18 25.01.2022
5693 Haze 17 1013 55 3000 1.03 120 14:43 25.01.2022
5694 Haze 23 1012 31 4000 2.06 300 12:20 25.01.2022
5695 Haze 22 1013 35 5000 2.06 290 09:24 25.01.2022
5696 Haze 21 1015 40 5000 1.54 80 07:52 25.01.2022
5697 Haze 19 1016 45 5000 2.06 10 06:55 25.01.2022
5698 Haze 17 1017 51 4000 2.06 40 05:23 25.01.2022
5699 Haze 14 1013 62 3000 1.03 360 00:31 25.01.2022
5700 Haze 14 1013 62 3000 2.06 340 23:36 24.01.2022
5701 Haze 14 1013 62 3000 2.06 340 23:18 24.01.2022
5702 Haze 15 1014 58 3000 1.54 340 22:42 24.01.2022
5703 Haze 16 1014 55 3000 1.54 10 21:58 24.01.2022
5704 Haze 16 1014 55 3000 1.54 10 21:32 24.01.2022
5705 Haze 17 1014 51 3000 2.06 10 20:38 24.01.2022
5706 Haze 17 1014 51 3000 2.06 10 20:20 24.01.2022
5707 Haze 17 1014 59 3000 1.54 340 19:38 24.01.2022
5708 Haze 18 1014 55 3000 2.06 40 18:47 24.01.2022
5709 Haze 17 1014 63 3000 0 0 17:24 24.01.2022
5710 Haze 17 1014 63 3000 0 0 16:58 24.01.2022
5711 Haze 17 1014 63 3000 0 0 16:58 24.01.2022
5712 Haze 17 1014 63 3000 0 0 16:58 24.01.2022
5713 Haze 18 1013 59 3000 0 0 16:30 24.01.2022
5714 Haze 21 1012 43 3000 1.03 30 14:54 24.01.2022
5715 Haze 22 1011 37 3000 1.03 10 13:38 24.01.2022
5716 Haze 24 1011 35 3000 1.03 340 12:32 24.01.2022
5717 Haze 24 1011 35 3000 1.03 20 11:21 24.01.2022
5718 Haze 23 1011 38 2500 1.03 360 09:49 24.01.2022
5719 Haze 23 1012 38 2500 1.54 10 09:20 24.01.2022
5720 Haze 21 1015 46 2500 2.57 350 07:28 24.01.2022
5721 Haze 14 1012 67 2500 2.57 320 01:34 24.01.2022
5722 Haze 15 1011 58 3000 1.54 300 00:46 24.01.2022
5723 Haze 15 1011 58 3000 1.54 300 00:27 24.01.2022
5724 Haze 16 1011 55 3000 3.6 310 22:46 23.01.2022
5725 Haze 17 1011 51 3000 3.09 330 21:51 23.01.2022
5726 Haze 17 1011 51 3000 3.09 330 21:27 23.01.2022
5727 Haze 18 1012 48 3000 5.14 330 20:54 23.01.2022
5728 Haze 19 1012 48 3000 5.14 330 19:55 23.01.2022
5729 Haze 19 1012 52 3000 7.2 340 18:52 23.01.2022
5730 Haze 19 1012 48 4000 5.14 320 17:54 23.01.2022
5731 Haze 20 1012 45 4000 4.12 300 16:52 23.01.2022
5732 Haze 20 1011 42 4000 2.57 310 15:18 23.01.2022
5733 Haze 22 1011 37 4000 2.06 280 14:33 23.01.2022
5734 Haze 24 1009 31 5000 4.12 270 13:27 23.01.2022
5735 Haze 25 1009 29 5000 4.12 250 12:36 23.01.2022
5736 Haze 26 1009 25 5000 4.12 230 12:18 23.01.2022
5737 Haze 26 1009 27 5000 4.63 240 11:24 23.01.2022
5738 Haze 26 1009 25 5000 5.14 240 10:57 23.01.2022
5739 Haze 26 1009 27 5000 6.17 240 10:21 23.01.2022
5740 Haze 26 1010 27 5000 4.63 210 09:22 23.01.2022
5741 Haze 22 1012 56 5000 2.06 310 05:59 23.01.2022
5742 Mist 16 1009 100 2500 0 0 02:25 23.01.2022
5743 Mist 17 1009 100 2500 0 0 01:35 23.01.2022
5744 Mist 17 1008 100 2500 1.03 300 00:41 23.01.2022
5745 Haze 18 1008 94 3000 1.03 340 23:57 22.01.2022
5746 Haze 19 1008 77 3000 2.57 330 22:48 22.01.2022
5747 Haze 18 1008 77 3000 0 0 21:58 22.01.2022
5748 Haze 19 1008 72 3000 1.03 280 20:26 22.01.2022
5749 Haze 20 1009 68 3000 2.06 280 19:34 22.01.2022
5750 Haze 20 1009 64 3000 0 0 18:36 22.01.2022
5751 Haze 20 1009 60 4000 1.03 260 17:42 22.01.2022
5752 Haze 22 1009 53 4000 0 0 16:57 22.01.2022
5753 Haze 21 1008 56 4000 1.03 240 16:20 22.01.2022
5754 Haze 22 1008 53 4000 1.03 220 15:42 22.01.2022
5755 Haze 25 1007 41 5000 2.06 240 13:59 22.01.2022
5756 Haze 28 1007 34 5000 3.6 270 12:58 22.01.2022
5757 Haze 28 1007 34 5000 5.66 250 12:30 22.01.2022
5758 Haze 29 1007 30 5000 5.14 250 11:57 22.01.2022
5759 Haze 28 1008 32 5000 5.66 230 10:38 22.01.2022
5760 Haze 28 1008 34 5000 4.63 230 10:19 22.01.2022
5761 Haze 28 1009 30 5000 5.14 230 08:54 22.01.2022
5762 Haze 28 1010 30 5000 3.6 240 08:27 22.01.2022
5763 Haze 20 1012 64 4000 1.03 70 05:20 22.01.2022
5764 Mist 13 1010 100 2500 0 0 01:58 22.01.2022
5765 Haze 15 1010 88 3000 0 0 23:49 21.01.2022
5766 Haze 15 1011 82 3000 1.03 320 22:44 21.01.2022
5767 Haze 15 1011 72 3000 1.03 220 20:45 21.01.2022
5768 Haze 16 1013 67 3500 0 0 18:41 21.01.2022
5769 Haze 18 1013 59 3500 0 0 17:45 21.01.2022
5770 Haze 21 1012 46 4000 1.03 320 15:48 21.01.2022
5771 Haze 21 1011 43 4000 1.03 310 14:37 21.01.2022
5772 Haze 28 1010 28 5000 5.14 320 12:42 21.01.2022
5773 Haze 28 1010 26 5000 3.6 300 11:29 21.01.2022
5774 Haze 28 1010 24 5000 3.09 340 10:27 21.01.2022
5775 Haze 27 1012 29 5000 3.09 320 08:50 21.01.2022
5776 Haze 25 1013 47 5000 2.06 350 07:37 21.01.2022
5777 Haze 13 1011 100 2500 1.03 340 01:48 21.01.2022
5778 Haze 15 1010 72 3000 1.54 320 22:46 20.01.2022
5779 Haze 16 1011 67 4000 0 0 21:48 20.01.2022
5780 Haze 17 1010 63 4000 2.06 310 20:57 20.01.2022
5781 Haze 18 1011 59 4000 1.03 220 19:40 20.01.2022
5782 Haze 18 1011 59 4000 1.03 220 19:18 20.01.2022
5783 Haze 18 1011 55 4000 0 0 17:36 20.01.2022
5784 Haze 20 1010 49 4000 1.03 200 15:46 20.01.2022
5785 Haze 20 1010 49 4000 0 0 15:26 20.01.2022
5786 Haze 24 1009 38 5000 1.03 140 13:54 20.01.2022
5787 Haze 28 1009 28 5000 2.57 180 12:44 20.01.2022
5788 Haze 28 1009 26 5000 2.57 180 12:26 20.01.2022
5789 Haze 28 1010 24 5000 1.03 210 10:58 20.01.2022
5790 Haze 28 1011 23 5000 2.06 260 09:43 20.01.2022
5791 Haze 27 1012 26 5000 2.06 310 08:36 20.01.2022
5792 Haze 23 1015 35 5000 1.54 130 06:18 20.01.2022
5793 Mist 13 1012 100 2500 1.03 350 23:52 19.01.2022
5794 Haze 13 1013 76 3000 1.03 320 22:37 19.01.2022
5795 Haze 14 1014 77 3000 1.03 320 21:24 19.01.2022
5796 Haze 14 1014 77 3000 1.03 320 20:53 19.01.2022
5797 Haze 15 1014 72 3000 0 0 20:22 19.01.2022
5798 Haze 15 1014 63 3000 0 0 18:48 19.01.2022
5799 Haze 16 1015 55 3000 0 0 17:50 19.01.2022
5800 Haze 16 1014 59 3000 1.03 320 16:59 19.01.2022
5801 Haze 19 1013 45 4000 1.54 80 14:43 19.01.2022
5802 Haze 25 1013 27 5000 1.54 120 12:53 19.01.2022
5803 Haze 27 1013 21 5000 1.54 50 11:43 19.01.2022
5804 Haze 26 1014 22 5000 1.54 40 10:38 19.01.2022
5805 Haze 26 1015 25 5000 2.06 80 09:34 19.01.2022
5806 Haze 22 1018 37 5000 2.06 330 07:34 19.01.2022
5807 Haze 19 1019 45 4000 1.54 360 05:19 19.01.2022
5808 Mist 16 1016 100 2500 1.03 30 23:41 18.01.2022
5809 Mist 16 1016 100 2500 1.03 30 23:18 18.01.2022
5810 Haze 17 1017 72 3000 1.03 20 21:43 18.01.2022
5811 Haze 19 1017 94 3000 1.03 50 19:57 18.01.2022
5812 Haze 19 1017 94 3000 1.03 50 19:38 18.01.2022
5813 Haze 19 1017 94 3000 1.03 50 19:18 18.01.2022
5814 Haze 19 1017 72 3000 1.03 350 17:59 18.01.2022
5815 Haze 19 1017 72 3000 1.03 300 17:27 18.01.2022
5816 Haze 20 1016 68 3000 1.03 100 15:50 18.01.2022
5817 Haze 21 1016 64 3000 0 0 15:23 18.01.2022
5818 Haze 25 1014 47 4000 1.54 190 13:32 18.01.2022
5819 Haze 27 1015 36 5000 2.57 260 10:49 18.01.2022
5820 Haze 26 1016 38 5000 1.54 230 09:39 18.01.2022
5821 Haze 24 1018 43 5000 1.03 320 07:58 18.01.2022
5822 Haze 23 1019 46 5000 1.03 0 07:21 18.01.2022
5823 Mist 15 1018 100 3000 1.03 320 00:21 18.01.2022
5824 Haze 17 1019 72 3000 0 0 22:30 17.01.2022
5825 Haze 17 1019 72 3000 1.03 300 21:36 17.01.2022
5826 Haze 18 1020 72 3000 1.03 30 20:29 17.01.2022
5827 Haze 20 1021 68 3000 1.54 30 18:31 17.01.2022
5828 Haze 19 1020 72 3000 1.03 300 17:51 17.01.2022
5829 Haze 19 1020 77 3000 1.03 100 16:45 17.01.2022
5830 Haze 21 1019 68 3000 1.03 60 15:24 17.01.2022
5831 Haze 21 1019 64 3000 1.03 90 14:57 17.01.2022
5832 Haze 24 1018 53 4000 1.03 70 13:30 17.01.2022
5833 Haze 25 1017 47 4000 1.03 60 12:57 17.01.2022
5834 Haze 26 1017 44 4000 1.03 90 11:49 17.01.2022
5835 Haze 26 1018 44 5000 1.54 50 10:38 17.01.2022
5836 Haze 26 1018 44 5000 2.06 100 09:35 17.01.2022
5837 Haze 23 1021 56 5000 1.03 150 07:43 17.01.2022
5838 Haze 22 1021 60 5000 2.57 140 07:18 17.01.2022
5839 Mist 14 1019 100 2500 1.03 360 00:56 17.01.2022
5840 Mist 16 1019 94 2500 0 0 22:30 16.01.2022
5841 Haze 16 1019 88 2500 0 0 20:38 16.01.2022
5842 Haze 18 1020 68 2500 1.03 50 18:53 16.01.2022
5843 Haze 18 1020 68 2500 0 0 17:59 16.01.2022
5844 Haze 19 1020 59 2500 1.03 60 17:23 16.01.2022
5845 Haze 19 1019 68 2500 1.03 90 16:38 16.01.2022
5846 Haze 20 1018 68 2500 1.03 120 14:31 16.01.2022
5847 Haze 21 1017 64 3000 1.54 110 13:49 16.01.2022
5848 Haze 24 1017 50 3000 1.03 100 12:48 16.01.2022
5849 Haze 25 1017 47 3000 1.03 150 11:43 16.01.2022
5850 Haze 25 1017 50 3000 1.03 20 10:55 16.01.2022
5851 Haze 25 1018 50 3000 2.57 110 10:19 16.01.2022
5852 Haze 24 1018 57 2500 3.6 120 09:51 16.01.2022
5853 Haze 24 1018 57 2500 3.6 120 09:22 16.01.2022
5854 Haze 24 1018 57 2500 3.6 120 09:22 16.01.2022
5855 Haze 22 1021 68 2500 2.06 90 07:33 16.01.2022
5856 Mist 15 1017 94 2000 1.03 50 00:42 16.01.2022
5857 Mist 15 1017 94 2000 2.06 30 23:49 15.01.2022
5858 Mist 15 1018 100 2500 1.54 50 21:37 15.01.2022
5859 Mist 15 1018 100 2500 1.54 30 21:19 15.01.2022
5860 Mist 15 1018 100 2500 1.54 30 20:39 15.01.2022
5861 Mist 17 1018 100 2500 1.54 30 19:29 15.01.2022
5862 Mist 17 1018 100 2500 1.03 20 18:37 15.01.2022
5863 Mist 18 1018 100 2500 1.03 350 16:57 15.01.2022
5864 Mist 18 1017 100 2500 1.03 110 15:39 15.01.2022
5865 Haze 21 1016 83 2500 1.54 100 13:39 15.01.2022
5866 Haze 22 1015 73 2500 2.06 100 11:46 15.01.2022
5867 Haze 23 1016 68 2500 2.06 120 10:24 15.01.2022
5868 Fog 17 1019 100 1000 1.54 20 05:27 15.01.2022
5869 Mist 17 1016 100 1500 1.03 330 23:44 14.01.2022
5870 Mist 16 1016 100 2000 1.03 10 21:37 14.01.2022
5871 Mist 16 1016 100 2000 1.03 10 20:37 14.01.2022
5872 Mist 16 1016 100 2000 1.03 20 19:57 14.01.2022
5873 Mist 16 1016 100 2000 1.03 20 18:44 14.01.2022
5874 Mist 17 1016 94 2000 1.03 20 17:53 14.01.2022
5875 Mist 17 1015 100 1500 1.03 10 16:47 14.01.2022
5876 Mist 18 1014 100 1500 1.03 20 15:33 14.01.2022
5877 Mist 19 1014 94 1500 1.03 10 14:29 14.01.2022
5878 Mist 19 1013 100 1500 2.06 360 12:59 14.01.2022
5879 Mist 20 1014 100 1500 2.57 330 11:59 14.01.2022
5880 Mist 20 1014 100 1500 1.03 90 10:40 14.01.2022
5881 Mist 18 1015 100 2000 1.03 50 08:53 14.01.2022
5882 Clouds 17 1017 100 1800 1.03 360 07:35 14.01.2022
5883 Mist 18 1015 94 2000 1.03 50 03:19 14.01.2022
5884 Mist 18 1014 100 2500 1.54 40 00:35 14.01.2022
5885 Mist 18 1015 100 2500 1.54 30 21:55 13.01.2022
5886 Mist 18 1015 100 2500 1.03 60 21:30 13.01.2022
5887 Mist 18 1015 100 2500 1.54 60 20:27 13.01.2022
5888 Mist 18 1015 100 2500 2.06 90 19:30 13.01.2022
5889 Haze 19 1015 94 2500 2.06 80 18:50 13.01.2022
5890 Haze 20 1015 83 2500 1.54 100 16:58 13.01.2022
5891 Haze 20 1015 77 2500 1.03 70 15:49 13.01.2022
5892 Haze 21 1014 73 2500 1.54 90 15:26 13.01.2022
5893 Haze 22 1014 68 2500 0 0 13:36 13.01.2022
5894 Haze 24 1013 57 4000 2.06 60 11:43 13.01.2022
5895 Haze 23 1014 64 5000 3.09 110 09:37 13.01.2022
5896 Haze 23 1015 64 5000 1.54 110 08:52 13.01.2022
5897 Haze 22 1016 68 5000 1.03 70 08:18 13.01.2022
5898 Haze 21 1017 78 5000 2.06 100 07:20 13.01.2022
5899 Haze 18 1018 77 4000 1.03 50 05:21 13.01.2022
5900 Haze 17 1018 82 4000 1.54 30 04:55 13.01.2022
5901 Mist 15 1016 100 2500 1.54 20 01:41 13.01.2022
5902 Mist 15 1015 100 2500 1.03 360 23:54 12.01.2022
5903 Mist 15 1015 100 2500 1.03 360 23:34 12.01.2022
5904 Mist 16 1015 94 2500 1.03 50 22:35 12.01.2022
5905 Mist 16 1016 100 2500 0 0 21:49 12.01.2022
5906 Mist 16 1016 100 2500 0 0 21:20 12.01.2022
5907 Mist 17 1016 100 3000 1.03 30 20:49 12.01.2022
5908 Haze 17 1016 100 3000 0 0 19:22 12.01.2022
5909 Haze 18 1017 100 3000 1.03 360 18:25 12.01.2022
5910 Haze 19 1017 100 3000 1.03 30 16:57 12.01.2022
5911 Haze 19 1016 100 3000 1.03 60 15:38 12.01.2022
5912 Haze 20 1015 83 3000 1.03 90 14:39 12.01.2022
5913 Haze 22 1014 68 4000 2.06 100 12:57 12.01.2022
5914 Haze 22 1015 73 3000 1.03 130 09:57 12.01.2022
5915 Mist 21 1017 83 2500 1.54 70 07:58 12.01.2022
5916 Mist 20 1018 94 2500 1.03 90 07:33 12.01.2022
5917 Mist 16 1016 100 2000 1.54 10 02:38 12.01.2022
5918 Mist 17 1014 100 2500 1.03 20 23:27 11.01.2022
5919 Mist 18 1015 94 2500 1.03 50 22:40 11.01.2022
5920 Mist 18 1015 94 2500 1.03 50 22:18 11.01.2022
5921 Mist 18 1015 100 2500 1.54 40 20:40 11.01.2022
5922 Mist 18 1016 100 2500 1.03 50 19:40 11.01.2022
5923 Mist 18 1016 100 2500 1.54 90 17:55 11.01.2022
5924 Mist 18 1016 100 2500 1.54 50 16:47 11.01.2022
5925 Mist 18 1016 100 2500 1.54 50 16:28 11.01.2022
5926 Mist 19 1015 94 2500 1.54 40 14:57 11.01.2022
5927 Mist 18 1014 100 2500 1.54 80 14:38 11.01.2022
5928 Mist 19 1014 100 2500 1.03 80 13:53 11.01.2022
5929 Mist 20 1014 94 2500 1.54 90 13:28 11.01.2022
5930 Mist 20 1014 100 2500 1.03 80 12:36 11.01.2022
5931 Mist 20 1014 94 2500 2.06 80 10:40 11.01.2022
5932 Haze 21 1015 100 2500 1.54 60 08:27 11.01.2022
5933 Clouds 18 1016 100 2000 2.06 50 04:30 11.01.2022
5934 Clouds 18 1016 100 2000 2.06 50 04:30 11.01.2022
5935 Clouds 19 1016 94 1500 1.03 10 00:28 11.01.2022
5936 Clouds 19 1016 94 1500 1.03 60 23:40 10.01.2022
5937 Mist 19 1016 100 2000 1.03 40 22:42 10.01.2022
5938 Mist 19 1016 100 2000 1.03 40 22:18 10.01.2022
5939 Mist 19 1016 100 2000 1.54 50 21:36 10.01.2022
5940 Mist 19 1016 100 2000 1.54 50 21:18 10.01.2022
5941 Mist 19 1017 100 2000 1.54 90 20:54 10.01.2022
5942 Mist 19 1017 100 2000 1.54 90 20:19 10.01.2022
5943 Mist 19 1017 100 2000 1.03 100 19:39 10.01.2022
5944 Mist 19 1017 100 2000 1.03 100 19:19 10.01.2022
5945 Mist 20 1017 100 2000 1.03 90 18:46 10.01.2022
5946 Mist 21 1017 100 2000 1.54 90 16:49 10.01.2022
5947 Mist 21 1017 94 2000 1.54 90 16:27 10.01.2022
5948 Mist 21 1015 100 1800 1.54 110 14:44 10.01.2022
5949 Mist 21 1015 100 1800 1.03 110 13:35 10.01.2022
5950 Mist 23 1014 78 1800 2.06 100 11:56 10.01.2022
5951 Mist 23 1014 78 1800 2.57 120 10:49 10.01.2022
5952 Mist 23 1015 78 1800 2.06 120 09:37 10.01.2022
5953 Mist 20 1018 100 1500 1.54 30 05:52 10.01.2022
5954 Mist 19 1015 94 1200 1.54 350 02:32 10.01.2022
5955 Mist 19 1015 100 1000 0 0 01:21 10.01.2022
5956 Mist 19 1014 100 1000 0 0 00:21 10.01.2022
5957 Mist 19 1014 100 1500 2.57 330 22:47 09.01.2022
5958 Mist 19 1014 100 1500 2.57 330 22:18 09.01.2022
5959 Mist 19 1014 100 1500 1.03 330 21:41 09.01.2022
5960 Mist 19 1014 100 1500 1.03 330 21:41 09.01.2022
5961 Mist 19 1014 100 1500 1.03 10 21:22 09.01.2022
5962 Mist 19 1014 100 1500 1.03 10 21:22 09.01.2022
5963 Mist 19 1015 100 1500 1.03 10 20:46 09.01.2022
5964 Mist 19 1015 94 1500 0 0 20:28 09.01.2022
5965 Mist 19 1015 100 1800 1.03 130 19:39 09.01.2022
5966 Mist 19 1015 100 1800 1.03 130 19:20 09.01.2022
5967 Mist 20 1015 100 1800 1.54 10 18:38 09.01.2022
5968 Mist 20 1015 100 1800 1.03 20 18:18 09.01.2022
5969 Mist 21 1015 94 1800 1.03 30 17:30 09.01.2022
5970 Mist 21 1015 100 1800 1.03 50 16:49 09.01.2022
5971 Mist 21 1014 100 1800 1.54 20 15:46 09.01.2022
5972 Mist 22 1014 100 1800 1.54 50 15:25 09.01.2022
5973 Mist 22 1014 100 1800 1.03 50 14:39 09.01.2022
5974 Mist 22 1013 100 1800 2.06 20 13:48 09.01.2022
5975 Mist 24 1012 78 1800 1.54 10 11:58 09.01.2022
5976 Mist 24 1012 78 1800 1.54 10 11:38 09.01.2022
5977 Mist 23 1013 94 2000 1.03 190 09:55 09.01.2022
5978 Mist 22 1014 100 2000 1.03 190 09:24 09.01.2022
5979 Mist 21 1015 100 2000 2.06 110 07:54 09.01.2022
5980 Mist 19 1014 100 2500 0 0 01:30 09.01.2022
5981 Mist 19 1013 100 2500 1.54 100 00:50 09.01.2022
5982 Mist 19 1013 94 2500 1.54 100 23:36 08.01.2022
5983 Mist 19 1013 100 2500 1.03 100 22:48 08.01.2022
5984 Mist 19 1014 100 3000 1.03 90 21:28 08.01.2022
5985 Haze 21 1015 73 3000 1.03 100 20:44 08.01.2022
5986 Haze 21 1015 73 3000 1.03 100 20:44 08.01.2022
5987 Haze 21 1015 73 3000 1.03 100 20:22 08.01.2022
5988 Haze 21 1015 73 3000 1.54 130 19:22 08.01.2022
5989 Haze 21 1016 73 3000 1.03 150 17:43 08.01.2022
5990 Haze 22 1016 68 3000 1.03 120 16:57 08.01.2022
5991 Thunderstorm 24 1016 60 3000 2.06 360 15:34 08.01.2022
5992 Haze 25 1015 57 3000 2.06 130 14:25 08.01.2022
5993 Haze 27 1014 50 4000 2.06 190 11:43 08.01.2022
5994 Haze 27 1014 50 4000 3.09 230 10:40 08.01.2022
5995 Haze 27 1015 50 5000 2.57 160 10:22 08.01.2022
5996 Haze 27 1016 50 5000 3.09 180 09:34 08.01.2022
5997 Haze 23 1019 73 3000 2.57 160 06:22 08.01.2022
5998 Mist 16 1016 100 2500 1.03 110 01:46 08.01.2022
5999 Mist 18 1015 100 3000 1.03 110 23:36 07.01.2022
6000 Mist 18 1015 100 3000 1.54 90 21:49 07.01.2022
6001 Haze 19 1016 77 3000 1.03 110 20:34 07.01.2022
6002 Haze 20 1016 73 3000 1.54 140 19:27 07.01.2022
6003 Haze 19 1017 77 3000 1.54 120 18:49 07.01.2022
6004 Haze 20 1017 73 3000 1.03 140 18:21 07.01.2022
6005 Haze 21 1017 68 3000 1.03 120 17:24 07.01.2022
6006 Haze 23 1016 60 3000 1.03 90 14:56 07.01.2022
6007 Haze 26 1015 44 3000 1.54 160 13:52 07.01.2022
6008 Haze 28 1014 34 4000 4.12 180 12:51 07.01.2022
6009 Haze 29 1014 32 5000 4.12 190 11:28 07.01.2022
6010 Mist 21 1018 83 2000 1.54 90 04:54 07.01.2022
6011 Mist 16 1017 100 1800 1.03 30 02:53 07.01.2022
6012 Mist 16 1016 100 2000 0 0 01:49 07.01.2022
6013 Mist 17 1015 100 2000 0 0 01:26 07.01.2022
6014 Mist 17 1015 94 2500 1.03 360 00:30 07.01.2022
6015 Mist 17 1015 94 2500 1.03 360 00:30 07.01.2022
6016 Haze 18 1015 100 3000 0 0 22:33 06.01.2022
6017 Haze 19 1015 77 3000 1.03 110 20:51 06.01.2022
6018 Haze 19 1015 77 3000 1.03 110 20:18 06.01.2022
6019 Haze 20 1016 77 3000 1.03 100 19:38 06.01.2022
6020 Haze 21 1016 73 3000 1.03 100 17:51 06.01.2022
6021 Haze 21 1016 73 3000 1.03 100 17:23 06.01.2022
6022 Haze 22 1016 68 3000 1.03 90 16:32 06.01.2022
6023 Haze 22 1016 68 3000 1.03 90 15:44 06.01.2022
6024 Haze 22 1016 64 3000 1.03 90 15:21 06.01.2022
6025 Haze 23 1014 56 3000 1.03 100 14:20 06.01.2022
6026 Haze 25 1014 50 4000 0 0 13:33 06.01.2022
6027 Haze 28 1013 39 4000 1.03 180 12:20 06.01.2022
6028 Haze 28 1013 36 4000 2.57 180 11:30 06.01.2022
6029 Haze 28 1013 39 4000 2.06 150 10:50 06.01.2022
6030 Haze 24 1018 57 3000 2.06 120 06:38 06.01.2022
6031 Haze 15 1016 100 3000 1.03 320 00:34 06.01.2022
6032 Haze 15 1015 77 3000 0 0 23:22 05.01.2022
6033 Haze 16 1016 82 3000 1.03 330 22:48 05.01.2022
6034 Haze 16 1016 82 3000 1.03 330 22:26 05.01.2022
6035 Haze 16 1016 77 3000 0 0 21:28 05.01.2022
6036 Haze 16 1017 77 3000 1.03 330 20:30 05.01.2022
6037 Haze 17 1017 67 3000 1.03 310 19:29 05.01.2022
6038 Haze 18 1017 68 3000 1.03 60 18:21 05.01.2022
6039 Haze 20 1017 56 3000 0 0 16:56 05.01.2022
6040 Haze 20 1017 56 3000 1.03 90 16:19 05.01.2022
6041 Haze 22 1016 49 3000 1.03 100 15:19 05.01.2022
6042 Haze 25 1015 36 5000 1.03 140 13:34 05.01.2022
6043 Haze 28 1015 26 5000 2.06 120 12:20 05.01.2022
6044 Haze 27 1017 34 5000 1.03 180 08:35 05.01.2022
6045 Haze 23 1020 46 4000 2.06 170 06:46 05.01.2022
6046 Mist 14 1017 94 2000 0 0 01:46 05.01.2022
6047 Mist 14 1016 100 3000 1.03 330 23:43 04.01.2022
6048 Mist 14 1016 100 3000 1.03 330 23:21 04.01.2022
6049 Mist 17 1017 77 3000 1.03 10 21:41 04.01.2022
6050 Mist 16 1017 100 3000 1.03 10 20:42 04.01.2022
6051 Haze 16 1017 72 3000 0 0 18:39 04.01.2022
6052 Haze 18 1018 68 3000 0 0 17:30 04.01.2022
6053 Haze 19 1018 59 3000 0 0 16:34 04.01.2022
6054 Haze 21 1017 56 3000 1.54 100 15:20 04.01.2022
6055 Haze 22 1016 49 3000 1.03 100 14:37 04.01.2022
6056 Haze 23 1016 46 3000 1.03 90 13:55 04.01.2022
6057 Haze 28 1015 32 5000 1.03 80 12:20 04.01.2022
6058 Haze 28 1016 28 5000 2.06 300 10:21 04.01.2022
6059 Haze 26 1017 34 5000 1.03 90 08:57 04.01.2022
6060 Haze 23 1020 40 5000 1.03 40 06:28 04.01.2022
6061 Mist 14 1018 100 2500 0 0 00:42 04.01.2022
6062 Mist 15 1018 94 2500 0 0 23:54 03.01.2022
6063 Mist 16 1018 100 2500 0 0 22:22 03.01.2022
6064 Haze 16 1018 100 3000 1.03 330 21:39 03.01.2022
6065 Haze 18 1018 94 3000 1.03 360 20:41 03.01.2022
6066 Haze 18 1019 72 3000 1.03 320 18:55 03.01.2022
6067 Haze 18 1019 77 3000 0 0 18:30 03.01.2022
6068 Haze 19 1019 68 3000 0 0 17:20 03.01.2022
6069 Haze 19 1018 68 3000 0 0 16:53 03.01.2022
6070 Haze 22 1017 53 3000 0 0 14:31 03.01.2022
6071 Haze 26 1016 41 4000 1.03 350 12:52 03.01.2022
6072 Haze 27 1016 36 5000 1.03 40 11:50 03.01.2022
6073 Haze 27 1016 39 5000 2.06 350 10:38 03.01.2022
6074 Haze 26 1017 41 5000 1.54 40 09:28 03.01.2022
6075 Haze 24 1019 43 5000 2.06 320 07:53 03.01.2022
6076 Mist 15 1018 100 2000 1.03 30 02:56 03.01.2022
6077 Haze 17 1018 82 2000 1.03 20 23:24 02.01.2022
6078 Haze 18 1018 77 3000 1.03 30 22:56 02.01.2022
6079 Haze 18 1018 77 3000 1.03 30 21:58 02.01.2022
6080 Haze 20 1019 68 3000 1.54 20 20:50 02.01.2022
6081 Haze 20 1019 68 3000 1.54 20 20:29 02.01.2022
6082 Haze 19 1018 72 3000 1.03 40 19:31 02.01.2022
6083 Haze 19 1018 72 3000 1.03 50 18:56 02.01.2022
6084 Haze 19 1018 77 3000 1.03 100 17:57 02.01.2022
6085 Haze 19 1018 77 3000 1.03 100 17:38 02.01.2022
6086 Haze 19 1018 72 3000 1.03 100 17:20 02.01.2022
6087 Haze 20 1018 73 3000 1.03 80 16:27 02.01.2022
6088 Haze 21 1018 64 3000 1.03 90 14:41 02.01.2022
6089 Haze 24 1017 53 3000 1.03 60 13:25 02.01.2022
6090 Haze 26 1017 44 4000 1.54 50 12:31 02.01.2022
6091 Haze 26 1017 47 4000 1.03 50 11:41 02.01.2022
6092 Haze 27 1017 44 4000 1.03 110 10:53 02.01.2022
6093 Haze 26 1018 47 4000 1.54 330 09:56 02.01.2022
6094 Haze 23 1020 56 3000 2.57 130 07:34 02.01.2022
6095 Mist 15 1020 100 2000 1.03 40 02:51 02.01.2022
6096 Mist 17 1019 77 2000 1.03 10 23:42 01.01.2022
6097 Mist 17 1019 77 2000 1.03 10 23:23 01.01.2022
6098 Mist 17 1019 77 2000 1.03 10 22:25 01.01.2022
6099 Mist 18 1019 72 2000 1.03 10 21:44 01.01.2022
6100 Mist 19 1020 72 2000 1.54 60 20:56 01.01.2022
6101 Mist 19 1020 72 2000 1.54 40 20:20 01.01.2022
6102 Mist 20 1020 73 2000 1.54 50 19:33 01.01.2022
6103 Mist 20 1020 73 2000 1.03 30 18:29 01.01.2022
6104 Mist 20 1020 73 2500 1.03 170 16:55 01.01.2022
6105 Haze 21 1020 68 2500 1.54 60 16:34 01.01.2022
6106 Haze 21 1020 68 2500 1.03 90 15:33 01.01.2022
6107 Haze 22 1019 64 2000 1.03 70 14:22 01.01.2022
6108 Haze 23 1018 60 2000 1.03 90 13:28 01.01.2022
6109 Haze 25 1018 53 3000 1.03 0 11:59 01.01.2022
6110 Haze 26 1018 47 3000 1.03 0 11:24 01.01.2022
6111 Haze 26 1018 47 3000 1.03 0 10:43 01.01.2022
6112 Haze 25 1019 50 4000 1.54 360 09:47 01.01.2022
6113 Haze 24 1021 53 4000 2.57 140 08:27 01.01.2022
6114 Haze 24 1021 53 4000 2.06 100 07:56 01.01.2022
6115 Haze 24 1021 53 4000 2.06 100 07:37 01.01.2022
6116 Haze 22 1022 56 4000 1.03 30 06:42 01.01.2022
6117 Haze 17 1023 67 2000 1.03 40 04:38 01.01.2022
6118 Mist 16 1022 72 2000 0 0 03:48 01.01.2022
6119 Mist 15 1021 72 2500 0 0 23:53 31.12.2021
6120 Mist 17 1021 77 2500 0 0 21:55 31.12.2021
6121 Mist 17 1021 77 2500 0 0 21:32 31.12.2021
6122 Mist 18 1022 88 2500 1.03 40 19:43 31.12.2021
6123 Mist 19 1022 77 2500 1.03 40 18:47 31.12.2021
6124 Mist 18 1022 82 2500 0 0 17:49 31.12.2021
6125 Mist 19 1022 82 2500 0 0 17:22 31.12.2021
6126 Mist 19 1022 77 2500 0 0 16:46 31.12.2021
6127 Haze 19 1021 82 2500 1.03 50 15:59 31.12.2021
6128 Haze 19 1021 82 2500 1.03 50 15:41 31.12.2021
6129 Haze 20 1021 77 2500 1.03 90 15:19 31.12.2021
6130 Haze 20 1021 77 2500 1.03 80 14:37 31.12.2021
6131 Haze 21 1020 73 3000 1.54 110 13:44 31.12.2021
6132 Haze 23 1019 60 3000 1.03 120 12:49 31.12.2021
6133 Haze 23 1019 60 3000 1.03 80 12:19 31.12.2021
6134 Haze 24 1019 57 3000 1.03 70 11:33 31.12.2021
6135 Haze 24 1020 53 3000 1.03 100 10:41 31.12.2021
6136 Haze 23 1020 60 3000 1.03 90 10:23 31.12.2021
6137 Haze 23 1020 56 3000 1.03 60 09:33 31.12.2021
6138 Mist 22 1021 60 3000 2.57 60 08:50 31.12.2021
6139 Mist 21 1022 68 3000 2.57 120 07:49 31.12.2021
6140 Mist 14 1021 88 2000 1.03 20 01:38 31.12.2021
6141 Mist 15 1021 88 2000 2.06 360 22:54 30.12.2021
6142 Mist 15 1021 88 2000 2.06 360 22:27 30.12.2021
6143 Mist 16 1022 82 2000 2.06 40 21:38 30.12.2021
6144 Clear 14 1020 66 10000 2.64 18 20:58 30.12.2021
6145 Clear 14 1020 66 10000 2.64 18 20:35 30.12.2021
6146 Mist 17 1023 94 2000 1.03 30 19:50 30.12.2021
6147 Mist 17 1023 94 2000 1.03 30 19:28 30.12.2021
6148 Mist 18 1022 100 2000 2.06 40 18:26 30.12.2021
6149 Mist 18 1022 100 2000 1.03 60 16:39 30.12.2021
6150 Mist 19 1021 82 2000 1.03 70 15:53 30.12.2021
6151 Mist 19 1021 82 2000 1.03 70 15:53 30.12.2021
6152 Mist 18 1021 82 2000 1.03 70 14:51 30.12.2021
6153 Mist 19 1020 77 2000 1.54 130 14:31 30.12.2021
6154 Mist 20 1019 68 2000 2.57 100 13:24 30.12.2021
6155 Haze 22 1019 64 2500 2.57 70 11:45 30.12.2021
6156 Haze 22 1019 60 2500 1.54 70 10:28 30.12.2021
6157 Haze 22 1020 60 2500 3.09 80 09:27 30.12.2021
6158 Mist 20 1023 68 2000 2.06 70 06:56 30.12.2021
6159 Mist 16 1023 88 1500 1.54 40 04:56 30.12.2021
6160 Mist 15 1022 100 1500 1.03 30 03:40 30.12.2021
6161 Mist 15 1020 100 1500 1.03 40 02:19 30.12.2021
6162 Haze 16 1019 88 2000 1.03 20 23:37 29.12.2021
6163 Haze 16 1019 82 2000 1.03 30 22:33 29.12.2021
6164 Haze 16 1020 88 2000 1.54 30 21:55 29.12.2021
6165 Haze 17 1020 82 2000 1.54 30 20:56 29.12.2021
6166 Haze 17 1020 82 2000 1.54 30 20:26 29.12.2021
6167 Haze 18 1020 77 2000 2.06 40 19:31 29.12.2021
6168 Mist 18 1020 72 2000 1.54 30 18:35 29.12.2021
6169 Mist 18 1020 77 2000 1.54 40 17:41 29.12.2021
6170 Mist 18 1020 77 2000 1.54 30 17:20 29.12.2021
6171 Mist 19 1019 77 2000 1.54 40 16:19 29.12.2021
6172 Mist 19 1018 88 2000 2.06 90 14:59 29.12.2021
6173 Haze 21 1016 73 2000 1.03 120 12:57 29.12.2021
6174 Haze 22 1015 68 2000 1.54 50 12:30 29.12.2021
6175 Haze 23 1016 60 2000 1.03 340 10:53 29.12.2021
6176 Mist 22 1017 64 1500 1.54 130 09:24 29.12.2021
6177 Mist 19 1019 100 1500 1.03 340 06:59 29.12.2021
6178 Mist 19 1019 100 1500 1.03 340 06:30 29.12.2021
6179 Mist 19 1019 100 1500 1.03 360 05:52 29.12.2021
6180 Mist 17 1018 100 1500 2.06 320 03:48 29.12.2021
6181 Mist 17 1015 100 2000 1.54 280 00:32 29.12.2021
6182 Mist 18 1015 94 2000 1.03 40 23:57 28.12.2021
6183 Mist 18 1015 94 2000 1.03 100 22:56 28.12.2021
6184 Mist 18 1015 94 2000 1.03 100 22:24 28.12.2021
6185 Mist 18 1016 94 2000 1.54 60 21:54 28.12.2021
6186 Mist 18 1016 94 2000 1.54 80 21:28 28.12.2021
6187 Mist 18 1016 100 2000 2.57 60 19:52 28.12.2021
6188 Mist 18 1017 100 2000 1.54 50 18:53 28.12.2021
6189 Mist 18 1017 100 2000 1.54 50 18:25 28.12.2021
6190 Mist 18 1017 100 2000 1.03 20 17:29 28.12.2021
6191 Mist 18 1016 100 2000 2.06 20 15:53 28.12.2021
6192 Clouds 18 1016 100 2000 1.03 120 15:29 28.12.2021
6193 Clouds 18 1016 100 1800 2.57 310 14:55 28.12.2021
6194 Clouds 18 1014 100 1800 5.14 310 14:22 28.12.2021
6195 Clouds 20 1014 100 1800 5.14 310 13:58 28.12.2021
6196 Clouds 20 1014 100 1800 5.14 310 13:37 28.12.2021
6197 Clouds 25 1012 65 1800 3.09 170 12:55 28.12.2021
6198 Haze 26 1012 57 2000 4.12 200 12:20 28.12.2021
6199 Haze 27 1013 54 2000 6.17 200 10:19 28.12.2021
6200 Fog 24 1017 78 1500 2.06 130 07:33 28.12.2021
6201 Fog 18 1018 100 25 1.03 70 03:35 28.12.2021
6202 Mist 18 1016 100 2000 1.54 340 23:39 27.12.2021
6203 Haze 19 1017 94 2000 0 0 22:21 27.12.2021
6204 Haze 19 1017 94 2000 0 0 21:30 27.12.2021
6205 Haze 18 1017 100 2000 0 0 20:39 27.12.2021
6206 Haze 19 1017 100 2000 0 0 19:48 27.12.2021
6207 Haze 19 1017 100 2000 0 0 19:27 27.12.2021
6208 Haze 20 1018 100 2500 0 0 17:51 27.12.2021
6209 Haze 21 1018 88 2500 1.03 90 17:28 27.12.2021
6210 Haze 21 1017 68 2500 0 0 15:56 27.12.2021
6211 Haze 21 1017 68 2500 1.03 90 15:19 27.12.2021
6212 Haze 23 1016 56 2500 1.03 130 14:22 27.12.2021
6213 Haze 26 1016 50 2500 1.03 110 12:56 27.12.2021
6214 Haze 27 1015 44 2500 3.6 180 10:56 27.12.2021
6215 Haze 27 1016 47 2500 1.54 40 10:27 27.12.2021
6216 Haze 27 1017 50 2500 1.03 320 09:19 27.12.2021
6217 Haze 25 1019 61 2500 1.54 80 07:34 27.12.2021
6218 Haze 23 1019 60 2500 2.57 120 06:29 27.12.2021
6219 Mist 15 1017 82 2000 1.03 360 01:52 27.12.2021
6220 Mist 17 1016 77 2500 1.03 360 23:49 26.12.2021
6221 Mist 17 1016 77 2500 1.03 360 23:19 26.12.2021
6222 Mist 18 1017 77 2500 1.54 320 21:37 26.12.2021
6223 Mist 17 1018 100 2500 0 0 19:55 26.12.2021
6224 Haze 18 1018 88 3000 0 0 18:46 26.12.2021
6225 Haze 18 1018 94 3000 0 0 18:22 26.12.2021
6226 Haze 20 1017 68 3000 0 0 15:53 26.12.2021
6227 Haze 23 1016 53 3000 1.03 110 13:51 26.12.2021
6228 Haze 24 1016 50 3500 1.54 120 13:32 26.12.2021
6229 Haze 26 1015 47 3500 1.03 100 12:37 26.12.2021
6230 Haze 26 1015 47 3500 1.03 100 12:37 26.12.2021
6231 Haze 27 1015 39 3500 1.54 50 11:24 26.12.2021
6232 Haze 27 1015 39 4000 1.54 220 09:35 26.12.2021
6233 Haze 27 1016 41 5000 1.54 70 08:50 26.12.2021
6234 Haze 26 1017 44 5000 1.03 130 08:27 26.12.2021
6235 Haze 22 1019 43 5000 2.06 50 05:59 26.12.2021
6236 Haze 16 1015 82 3000 0 0 00:43 26.12.2021
6237 Haze 15 1015 100 3000 0 0 23:48 25.12.2021
6238 Haze 15 1015 100 3000 0 0 22:39 25.12.2021
6239 Haze 15 1015 100 3000 0 0 22:20 25.12.2021
6240 Haze 17 1016 72 3000 0 0 20:27 25.12.2021
6241 Haze 19 1016 68 3000 1.03 20 19:19 25.12.2021
6242 Haze 20 1016 60 3000 1.03 300 18:39 25.12.2021
6243 Haze 19 1016 68 3000 1.03 320 16:50 25.12.2021
6244 Haze 21 1015 60 3000 1.03 50 15:38 25.12.2021
6245 Haze 22 1014 53 3000 0 0 14:23 25.12.2021
6246 Haze 26 1013 41 4000 1.54 120 12:40 25.12.2021
6247 Haze 28 1013 34 4000 0 0 10:49 25.12.2021
6248 Haze 28 1014 34 4000 1.54 360 09:49 25.12.2021
6249 Haze 26 1016 38 3500 2.57 70 07:28 25.12.2021
6250 Mist 15 1014 82 2500 0 0 01:45 25.12.2021
6251 Mist 15 1013 82 2500 0 0 00:23 25.12.2021
6252 Mist 16 1013 72 2500 1.03 330 22:26 24.12.2021
6253 Haze 18 1014 68 3000 1.03 340 19:29 24.12.2021
6254 Haze 19 1015 63 3000 1.03 340 18:57 24.12.2021
6255 Haze 21 1015 56 3000 1.03 320 16:49 24.12.2021
6256 Haze 20 1014 60 3000 1.03 140 15:52 24.12.2021
6257 Haze 21 1014 56 3000 1.03 120 15:32 24.12.2021
6258 Haze 23 1013 49 3000 1.03 110 14:35 24.12.2021
6259 Haze 24 1013 43 3000 1.03 120 13:59 24.12.2021
6260 Haze 25 1013 41 4000 2.57 150 13:32 24.12.2021
6261 Haze 27 1013 34 4000 2.57 150 12:47 24.12.2021
6262 Haze 29 1012 28 4000 3.09 180 11:46 24.12.2021
6263 Haze 29 1012 26 4000 3.09 180 11:24 24.12.2021
6264 Haze 29 1012 26 5000 2.57 200 10:45 24.12.2021
6265 Haze 29 1013 28 5000 2.57 220 09:25 24.12.2021
6266 Haze 27 1014 29 5000 1.54 150 08:19 24.12.2021
6267 Haze 26 1015 34 5000 1.03 210 07:44 24.12.2021
6268 Clear 16 1013 46 10000 1.05 12 00:48 24.12.2021
6269 Mist 14 1013 77 3000 1.03 360 23:54 23.12.2021
6270 Mist 14 1013 72 3000 0 0 22:54 23.12.2021
6271 Mist 14 1013 72 3000 0 0 22:27 23.12.2021
6272 Mist 14 1014 72 3000 0 0 21:59 23.12.2021
6273 Mist 15 1014 67 3000 1.03 320 20:54 23.12.2021
6274 Haze 15 1015 67 3000 1.03 330 19:39 23.12.2021
6275 Haze 17 1015 55 3000 0 0 18:32 23.12.2021
6276 Haze 17 1015 59 3000 0 0 17:47 23.12.2021
6277 Haze 17 1015 51 3000 0 0 16:40 23.12.2021
6278 Haze 18 1015 55 3000 0 0 16:20 23.12.2021
6279 Haze 19 1015 48 3000 1.03 90 15:31 23.12.2021
6280 Haze 20 1014 42 3000 1.54 90 14:42 23.12.2021
6281 Haze 20 1014 42 3000 1.54 90 14:42 23.12.2021
6282 Haze 21 1014 43 3000 1.03 160 14:19 23.12.2021
6283 Haze 27 1013 28 4000 1.03 130 12:39 23.12.2021
6284 Haze 28 1013 21 4000 1.54 40 10:41 23.12.2021
6285 Haze 28 1013 21 4000 1.03 120 09:34 23.12.2021
6286 Haze 27 1014 24 4000 1.54 90 08:58 23.12.2021
6287 Haze 22 1018 35 3000 1.03 90 06:23 23.12.2021
6288 Haze 10 1016 76 3000 0 0 03:28 23.12.2021
6289 Haze 12 1014 71 3000 1.03 20 22:54 22.12.2021
6290 Haze 12 1014 71 3000 1.03 20 22:23 22.12.2021
6291 Haze 14 1015 67 3000 1.03 340 21:53 22.12.2021
6292 Haze 14 1015 67 3000 1.03 340 21:27 22.12.2021
6293 Haze 14 1015 67 3000 0 0 20:41 22.12.2021
6294 Haze 14 1015 62 3000 1.03 340 19:59 22.12.2021
6295 Haze 14 1016 58 3000 1.03 320 18:57 22.12.2021
6296 Haze 16 1016 51 3000 1.03 340 17:39 22.12.2021
6297 Haze 18 1015 45 3000 1.03 130 16:34 22.12.2021
6298 Haze 17 1015 48 3000 1.03 100 15:24 22.12.2021
6299 Haze 26 1013 25 3000 1.03 90 12:59 22.12.2021
6300 Haze 26 1013 25 4000 1.03 90 12:19 22.12.2021
6301 Haze 26 1014 24 5000 1.03 70 09:53 22.12.2021
6302 Haze 26 1014 22 5000 1.03 120 09:31 22.12.2021
6303 Haze 24 1017 23 5000 1.03 200 07:22 22.12.2021
6304 Haze 20 1019 37 4000 2.06 140 05:40 22.12.2021
6305 Haze 19 1018 42 4000 0 0 05:21 22.12.2021
6306 Haze 18 1018 45 4000 1.03 60 04:43 22.12.2021
6307 Haze 14 1018 62 4000 0 0 03:56 22.12.2021
6308 Haze 10 1017 76 3000 0 0 03:31 22.12.2021
6309 Haze 9 1015 76 2500 1.03 330 23:57 21.12.2021
6310 Haze 10 1016 66 2500 0 0 22:49 21.12.2021
6311 Haze 10 1016 66 2500 0 0 22:27 21.12.2021
6312 Haze 12 1017 58 2500 0 0 21:43 21.12.2021
6313 Haze 12 1018 62 2500 0 0 20:53 21.12.2021
6314 Haze 12 1018 62 2500 0 0 20:20 21.12.2021
6315 Haze 13 1018 62 2500 0 0 19:41 21.12.2021
6316 Haze 15 1018 47 2500 0 0 18:36 21.12.2021
6317 Haze 15 1018 47 3000 0 0 17:59 21.12.2021
6318 Haze 15 1018 47 3000 0 0 17:40 21.12.2021
6319 Haze 16 1018 44 3000 0 0 15:46 21.12.2021
6320 Haze 17 1017 34 4000 0 0 14:59 21.12.2021
6321 Haze 19 1016 32 4000 1.03 110 13:44 21.12.2021
6322 Haze 24 1016 23 5000 0 0 12:58 21.12.2021
6323 Haze 26 1016 17 5000 0 0 10:53 21.12.2021
6324 Haze 25 1017 19 5000 1.03 110 09:57 21.12.2021
6325 Haze 25 1017 18 5000 1.03 300 09:18 21.12.2021
6326 Haze 23 1019 21 5000 2.06 70 07:45 21.12.2021
6327 Haze 22 1020 23 5000 2.57 70 07:24 21.12.2021
6328 Haze 17 1020 36 4000 1.54 50 04:48 21.12.2021
6329 Haze 8 1018 66 2500 0 0 02:39 21.12.2021
6330 Haze 10 1017 53 3000 0 0 23:57 20.12.2021
6331 Haze 11 1017 58 3000 1.54 330 22:48 20.12.2021
6332 Haze 11 1017 54 3000 2.57 330 22:27 20.12.2021
6333 Haze 11 1018 54 3000 1.54 330 21:28 20.12.2021
6334 Haze 12 1018 58 3000 1.03 340 20:57 20.12.2021
6335 Haze 12 1018 58 3000 1.03 350 20:32 20.12.2021
6336 Haze 12 1018 54 3000 1.54 350 19:38 20.12.2021
6337 Haze 13 1018 50 3000 2.06 320 19:20 20.12.2021
6338 Haze 12 1019 47 3000 2.06 330 18:33 20.12.2021
6339 Haze 12 1019 50 3500 1.03 330 17:51 20.12.2021
6340 Haze 13 1019 44 4000 1.03 80 16:47 20.12.2021
6341 Haze 13 1019 47 4000 1.03 70 16:25 20.12.2021
6342 Haze 13 1018 38 4000 1.03 50 15:40 20.12.2021
6343 Haze 17 1018 27 4000 0 0 14:26 20.12.2021
6344 Haze 24 1017 15 5000 0 0 12:40 20.12.2021
6345 Haze 24 1017 15 5000 2.06 100 10:50 20.12.2021
6346 Haze 24 1018 14 5000 2.06 100 09:40 20.12.2021
6347 Haze 23 1019 18 5000 2.06 150 08:50 20.12.2021
6348 Haze 22 1020 18 5000 1.03 320 08:32 20.12.2021
6349 Haze 21 1021 21 5000 2.57 100 07:38 20.12.2021
6350 Haze 20 1022 26 5000 1.54 80 06:39 20.12.2021
6351 Haze 10 1019 53 3000 0 0 00:26 20.12.2021
6352 Haze 10 1019 57 3000 1.03 330 22:58 19.12.2021
6353 Haze 10 1019 57 3000 1.03 330 22:40 19.12.2021
6354 Haze 10 1020 57 3000 0 0 21:32 19.12.2021
6355 Haze 10 1020 57 3000 0 0 20:44 19.12.2021
6356 Haze 10 1020 57 3000 0 0 20:23 19.12.2021
6357 Haze 14 1020 41 3000 0 0 19:42 19.12.2021
6358 Haze 15 1020 38 3000 1.03 20 18:46 19.12.2021
6359 Haze 17 1020 34 3000 0 0 17:54 19.12.2021
6360 Haze 17 1020 34 3000 0 0 17:34 19.12.2021
6361 Haze 17 1020 39 3000 0 0 16:41 19.12.2021
6362 Haze 16 1020 55 3000 0 0 15:56 19.12.2021
6363 Haze 18 1019 45 3000 0 0 15:24 19.12.2021
6364 Haze 18 1019 45 3000 1.03 80 14:45 19.12.2021
6365 Haze 21 1018 40 3000 1.03 60 13:32 19.12.2021
6366 Haze 23 1017 35 3000 1.03 70 12:59 19.12.2021
6367 Haze 24 1017 33 4000 1.03 100 12:31 19.12.2021
6368 Haze 24 1018 29 4000 1.03 50 11:38 19.12.2021
6369 Clear 24 1015 14 10000 2.35 11 10:50 19.12.2021
6370 Clear 24 1016 14 10000 2.65 16 10:22 19.12.2021
6371 Haze 22 1020 26 5000 3.09 350 08:50 19.12.2021
6372 Haze 19 1022 30 5000 2.06 50 06:51 19.12.2021
6373 Haze 14 1020 47 2000 1.03 40 01:52 19.12.2021
6374 Haze 15 1019 51 2000 2.06 40 00:54 19.12.2021
6375 Haze 15 1019 55 2000 1.03 10 23:18 18.12.2021
6376 Haze 16 1019 51 2000 1.03 10 22:24 18.12.2021
6377 Haze 17 1019 48 2500 1.03 10 21:44 18.12.2021
6378 Haze 17 1019 48 2500 1.03 10 21:25 18.12.2021
6379 Haze 17 1019 48 2500 1.03 10 20:26 18.12.2021
6380 Haze 18 1019 45 2500 1.54 10 19:38 18.12.2021
6381 Haze 19 1020 42 2500 1.54 20 18:25 18.12.2021
6382 Haze 19 1020 45 2500 1.54 20 17:49 18.12.2021
6383 Haze 20 1019 45 2500 2.06 20 16:48 18.12.2021
6384 Haze 21 1019 52 2500 2.06 30 16:20 18.12.2021
6385 Haze 21 1017 56 2500 1.03 50 14:54 18.12.2021
6386 Haze 22 1017 53 2500 1.03 70 13:45 18.12.2021
6387 Haze 26 1016 38 2500 1.54 50 11:57 18.12.2021
6388 Haze 26 1016 38 2500 1.54 50 11:57 18.12.2021
6389 Haze 26 1017 38 3000 2.06 80 09:54 18.12.2021
6390 Haze 25 1017 41 3000 1.54 20 09:31 18.12.2021
6391 Haze 25 1019 41 3000 2.57 50 08:36 18.12.2021
6392 Haze 21 1021 52 3000 1.54 50 06:28 18.12.2021
6393 Haze 17 1017 77 2000 0 0 01:45 18.12.2021
6394 Haze 17 1017 72 2000 0 0 23:49 17.12.2021
6395 Haze 17 1017 72 2000 0 0 22:39 17.12.2021
6396 Haze 17 1018 72 2000 0 0 21:31 17.12.2021
6397 Haze 17 1018 72 2000 0 0 20:43 17.12.2021
6398 Haze 18 1018 68 2000 0 0 19:56 17.12.2021
6399 Haze 18 1019 68 2000 1.54 310 18:39 17.12.2021
6400 Haze 18 1019 63 2500 0 0 17:50 17.12.2021
6401 Haze 19 1018 59 2500 0 0 16:51 17.12.2021
6402 Haze 19 1018 59 2500 0 0 16:27 17.12.2021
6403 Haze 19 1018 59 2500 1.03 90 15:38 17.12.2021
6404 Haze 20 1017 56 2500 0 0 14:42 17.12.2021
6405 Haze 22 1017 49 2500 0 0 13:45 17.12.2021
6406 Haze 25 1016 38 3000 1.03 40 12:36 17.12.2021
6407 Haze 27 1016 32 3000 1.54 30 10:42 17.12.2021
6408 Haze 27 1017 34 3000 2.06 110 09:47 17.12.2021
6409 Haze 25 1019 38 3000 1.03 120 08:32 17.12.2021
6410 Haze 25 1020 41 3000 1.54 140 07:30 17.12.2021
6411 Mist 18 1021 68 2500 0 0 04:40 17.12.2021
6412 Haze 14 1018 94 2500 0 0 00:22 17.12.2021
6413 Haze 16 1018 77 2500 1.54 10 22:25 16.12.2021
6414 Haze 17 1018 67 2500 1.03 350 21:51 16.12.2021
6415 Haze 17 1018 67 2500 1.03 350 21:33 16.12.2021
6416 Haze 17 1018 63 3000 1.54 340 20:39 16.12.2021
6417 Haze 16 1018 67 3000 1.03 320 19:51 16.12.2021
6418 Haze 17 1019 63 3000 1.03 110 18:42 16.12.2021
6419 Haze 17 1019 67 3000 1.03 100 18:22 16.12.2021
6420 Haze 18 1019 63 3000 0 0 17:35 16.12.2021
6421 Haze 18 1018 63 3000 1.54 90 16:23 16.12.2021
6422 Haze 20 1018 52 3000 1.03 110 15:22 16.12.2021
6423 Haze 22 1017 46 2500 1.03 110 13:44 16.12.2021
6424 Haze 26 1015 34 4000 1.54 40 11:48 16.12.2021
6425 Haze 27 1015 32 4000 1.54 110 11:18 16.12.2021
6426 Haze 27 1016 29 4000 1.54 100 10:32 16.12.2021
6427 Haze 26 1017 34 4000 2.57 140 09:39 16.12.2021
6428 Haze 24 1021 43 2000 2.06 110 06:23 16.12.2021
6429 Mist 13 1019 100 1800 0 0 03:19 16.12.2021
6430 Mist 15 1017 100 2000 0 0 23:36 15.12.2021
6431 Mist 15 1017 94 2000 0 0 22:49 15.12.2021
6432 Mist 15 1017 94 2000 0 0 22:19 15.12.2021
6433 Mist 15 1017 82 2000 0 0 21:31 15.12.2021
6434 Mist 16 1017 72 2000 0 0 20:32 15.12.2021
6435 Mist 17 1017 67 2000 0 0 19:53 15.12.2021
6436 Haze 17 1018 67 2500 1.03 340 18:40 15.12.2021
6437 Haze 17 1018 67 2500 0 0 17:57 15.12.2021
6438 Haze 18 1018 63 3000 0 0 17:39 15.12.2021
6439 Haze 18 1017 63 3000 0 0 16:35 15.12.2021
6440 Haze 20 1017 56 3000 1.03 100 15:47 15.12.2021
6441 Haze 20 1017 56 3000 1.03 100 15:47 15.12.2021
6442 Haze 19 1017 59 3000 2.06 100 15:29 15.12.2021
6443 Haze 21 1016 52 2500 1.03 120 14:43 15.12.2021
6444 Haze 24 1016 43 3000 1.54 100 12:52 15.12.2021
6445 Haze 27 1015 34 3000 1.54 130 10:49 15.12.2021
6446 Haze 26 1017 38 3000 1.54 90 09:28 15.12.2021
6447 Haze 25 1018 41 3000 1.54 140 07:44 15.12.2021
6448 Mist 15 1017 100 2000 1.03 330 01:39 15.12.2021
6449 Mist 16 1017 88 2000 1.03 340 23:42 14.12.2021
6450 Mist 15 1016 77 2000 1.03 280 22:49 14.12.2021
6451 Mist 15 1016 77 2000 1.03 280 22:49 14.12.2021
6452 Mist 15 1016 77 2000 1.03 280 22:25 14.12.2021
6453 Mist 16 1017 77 2000 1.03 320 20:57 14.12.2021
6454 Mist 17 1017 72 2000 1.03 320 19:44 14.12.2021
6455 Mist 18 1018 68 2000 1.03 40 19:44 14.12.2021
6456 Mist 18 1018 68 2000 1.03 40 19:20 14.12.2021
6457 Haze 17 1018 67 3000 1.03 300 18:29 14.12.2021
6458 Haze 17 1018 67 3000 0 0 17:33 14.12.2021
6459 Haze 19 1017 59 3000 0 0 16:42 14.12.2021
6460 Haze 21 1017 49 3000 0 0 15:36 14.12.2021
6461 Haze 24 1015 41 3000 1.03 60 13:31 14.12.2021
6462 Haze 26 1015 36 4000 1.54 70 12:21 14.12.2021
6463 Haze 27 1015 34 4000 1.54 50 11:24 14.12.2021
6464 Haze 27 1015 32 4000 1.03 310 10:24 14.12.2021
6465 Haze 27 1015 32 4000 1.54 350 09:51 14.12.2021
6466 Haze 26 1017 36 3500 2.06 60 08:28 14.12.2021
6467 Haze 26 1018 38 3500 1.03 80 07:43 14.12.2021
6468 Haze 23 1019 49 3000 2.06 90 05:35 14.12.2021
6469 Haze 16 1016 77 2500 0 0 22:59 13.12.2021
6470 Haze 16 1017 77 2500 0 0 21:53 13.12.2021
6471 Haze 16 1017 77 2500 0 0 21:33 13.12.2021
6472 Haze 15 1017 72 2500 0 0 20:43 13.12.2021
6473 Haze 16 1017 67 2500 1.03 320 19:53 13.12.2021
6474 Haze 18 1017 59 2500 1.03 320 19:19 13.12.2021
6475 Haze 18 1018 55 3000 1.03 90 17:26 13.12.2021
6476 Haze 18 1017 59 3000 0 0 15:56 13.12.2021
6477 Haze 18 1017 59 3000 0 0 15:38 13.12.2021
6478 Haze 22 1016 43 3000 1.03 100 13:47 13.12.2021
6479 Haze 26 1016 34 4000 1.03 60 12:59 13.12.2021
6480 Haze 27 1015 32 4000 1.03 30 11:59 13.12.2021
6481 Haze 27 1015 32 4000 1.03 30 11:35 13.12.2021
6482 Haze 27 1015 32 4000 1.03 50 10:47 13.12.2021
6483 Haze 27 1017 32 4000 2.06 90 09:41 13.12.2021
6484 Haze 26 1019 38 3500 1.03 150 07:53 13.12.2021
6485 Mist 21 1020 56 2500 1.54 20 05:36 13.12.2021
6486 Mist 15 1019 88 2500 0 0 03:28 13.12.2021
6487 Haze 16 1017 77 3000 1.03 10 23:26 12.12.2021
6488 Haze 17 1018 72 3000 1.54 330 21:41 12.12.2021
6489 Haze 19 1018 63 3000 1.03 30 20:18 12.12.2021
6490 Haze 17 1019 72 3000 0 0 18:43 12.12.2021
6491 Haze 19 1019 59 3000 1.54 90 17:38 12.12.2021
6492 Haze 19 1019 63 3000 1.03 100 16:28 12.12.2021
6493 Haze 19 1018 63 3000 1.03 120 15:46 12.12.2021
6494 Haze 21 1018 56 3000 1.03 80 15:25 12.12.2021
6495 Haze 21 1018 52 3000 1.03 10 14:34 12.12.2021
6496 Haze 24 1017 43 3000 1.03 50 13:26 12.12.2021
6497 Haze 27 1016 34 3000 1.03 50 12:30 12.12.2021
6498 Haze 27 1016 34 4000 1.03 60 11:44 12.12.2021
6499 Haze 28 1016 34 4000 1.03 350 11:22 12.12.2021
6500 Haze 27 1017 34 4000 1.03 50 10:22 12.12.2021
6501 Haze 28 1017 32 4000 1.03 20 09:38 12.12.2021
6502 Haze 26 1020 38 4000 2.57 110 07:57 12.12.2021
6503 Haze 23 1021 43 3000 2.06 40 05:57 12.12.2021
6504 Haze 21 1021 52 2500 1.03 90 04:56 12.12.2021
6505 Mist 16 1020 77 2000 0 0 03:27 12.12.2021
6506 Mist 17 1018 72 2500 0 0 23:44 11.12.2021
6507 Mist 18 1019 68 2500 0 0 22:22 11.12.2021
6508 Mist 18 1019 68 2500 0 0 21:51 11.12.2021
6509 Mist 19 1019 68 2500 0 0 20:51 11.12.2021
6510 Mist 20 1019 68 2500 0 0 19:23 11.12.2021
6511 Haze 20 1020 68 2500 0 0 18:52 11.12.2021
6512 Haze 20 1020 68 2500 1.03 360 18:21 11.12.2021
6513 Haze 19 1020 68 2500 0 0 17:20 11.12.2021
6514 Haze 19 1019 68 2500 0 0 15:53 11.12.2021
6515 Haze 20 1019 64 2500 1.03 90 15:27 11.12.2021
6516 Haze 25 1017 47 3000 1.03 70 12:50 11.12.2021
6517 Haze 27 1016 41 3500 1.54 60 11:25 11.12.2021
6518 Haze 28 1017 39 3500 1.03 60 09:45 11.12.2021
6519 Haze 27 1019 39 4000 2.06 90 08:23 11.12.2021
6520 Haze 18 1019 68 2000 0 0 02:23 11.12.2021
6521 Haze 20 1017 64 2000 1.03 360 23:58 10.12.2021
6522 Haze 20 1017 64 2000 1.03 360 23:20 10.12.2021
6523 Haze 20 1018 68 2000 1.54 70 21:56 10.12.2021
6524 Haze 21 1019 68 2000 1.03 10 20:57 10.12.2021
6525 Mist 21 1019 68 2000 2.06 360 19:21 10.12.2021
6526 Haze 19 1019 72 2500 0 0 18:19 10.12.2021
6527 Haze 20 1019 68 2500 0 0 16:56 10.12.2021
6528 Haze 21 1019 68 2500 0 0 16:28 10.12.2021
6529 Haze 21 1019 64 2500 1.07 7 15:40 10.12.2021
6530 Haze 22 1018 60 2500 0.36 158 15:21 10.12.2021
6531 Haze 24 1017 50 2500 1.03 40 13:51 10.12.2021
6532 Haze 25 1017 47 2500 0 0 13:26 10.12.2021
6533 Haze 26 1017 44 2500 0 0 12:36 10.12.2021
6534 Haze 28 1016 39 3000 0 0 11:28 10.12.2021
6535 Haze 28 1017 42 3000 1.54 50 10:26 10.12.2021
6536 Haze 28 1018 51 3000 1.54 110 08:52 10.12.2021
6537 Haze 25 1020 61 2500 1.03 80 06:50 10.12.2021
6538 Mist 18 1019 100 1500 1.03 20 02:48 10.12.2021
6539 Haze 18 1018 77 2500 1.03 330 00:32 10.12.2021
6540 Haze 19 1018 77 2500 1.03 50 23:20 09.12.2021
6541 Haze 20 1018 73 2500 1.54 10 22:24 09.12.2021
6542 Haze 21 1018 68 2500 1.54 10 21:59 09.12.2021
6543 Haze 21 1018 68 2500 1.03 20 20:44 09.12.2021
6544 Haze 21 1019 64 2500 1.54 40 20:21 09.12.2021
6545 Haze 20 1019 68 2500 1.03 50 19:21 09.12.2021
6546 Haze 19 1019 72 2500 1.03 40 18:46 09.12.2021
6547 Haze 19 1019 72 2500 1.03 310 17:51 09.12.2021
6548 Haze 19 1019 68 2500 0 0 17:25 09.12.2021
6549 Haze 20 1019 68 2500 1.03 70 16:53 09.12.2021
6550 Haze 23 1018 56 2500 1.03 40 15:32 09.12.2021
6551 Haze 22 1018 60 2500 0 0 14:46 09.12.2021
6552 Haze 26 1017 41 2500 0 0 13:20 09.12.2021
6553 Haze 27 1017 39 2500 1.03 30 12:37 09.12.2021
6554 Haze 29 1016 34 3000 1.54 10 11:21 09.12.2021
6555 Haze 29 1018 37 3000 1.03 80 08:54 09.12.2021
6556 Haze 26 1020 53 2500 1.54 100 06:21 09.12.2021
6557 Haze 20 1018 73 2000 0 0 02:58 09.12.2021
6558 Haze 20 1016 73 2000 1.03 70 23:43 08.12.2021
6559 Haze 20 1016 73 2000 1.03 70 23:21 08.12.2021
6560 Haze 21 1016 68 2000 1.03 10 22:46 08.12.2021
6561 Haze 20 1017 73 2000 1.03 10 21:40 08.12.2021
6562 Haze 20 1017 73 2000 1.54 340 20:59 08.12.2021
6563 Haze 19 1017 72 2000 1.03 170 19:58 08.12.2021
6564 Haze 19 1017 72 2000 1.03 170 19:58 08.12.2021
6565 Haze 19 1017 72 2000 1.03 170 19:58 08.12.2021
6566 Haze 19 1017 72 2000 1.03 170 19:33 08.12.2021
6567 Haze 20 1017 73 2000 0 0 18:40 08.12.2021
6568 Haze 20 1018 73 2000 0 0 17:34 08.12.2021
6569 Haze 21 1017 64 2500 0 0 15:47 08.12.2021
6570 Haze 22 1017 60 2500 1.03 70 15:26 08.12.2021
6571 Haze 23 1016 56 2500 1.03 60 14:28 08.12.2021
6572 Haze 29 1015 39 3000 1.54 110 10:54 08.12.2021
6573 Haze 29 1015 39 3000 1.54 100 10:28 08.12.2021
6574 Haze 28 1016 47 2500 2.06 100 08:54 08.12.2021
6575 Haze 26 1018 53 2500 2.57 90 07:21 08.12.2021
6576 Mist 19 1017 77 2000 3.06 31 01:40 08.12.2021
6577 Mist 19 1015 77 2000 1.03 20 23:33 07.12.2021
6578 Mist 20 1016 73 2000 0 0 21:40 07.12.2021
6579 Mist 20 1016 73 2000 0 0 21:18 07.12.2021
6580 Mist 20 1016 73 2000 0 0 20:19 07.12.2021
6581 Haze 22 1017 68 2500 1.03 360 18:42 07.12.2021
6582 Haze 22 1017 64 2500 1.03 50 17:27 07.12.2021
6583 Haze 22 1017 64 2500 0 0 16:58 07.12.2021
6584 Haze 22 1017 68 2500 0 0 16:28 07.12.2021
6585 Haze 24 1016 57 2500 0 0 14:57 07.12.2021
6586 Haze 25 1015 53 2500 0 0 13:49 07.12.2021
6587 Haze 27 1014 47 2500 1.03 40 12:49 07.12.2021
6588 Haze 29 1014 39 3000 1.03 60 11:25 07.12.2021
6589 Haze 29 1015 42 2500 1.03 310 09:55 07.12.2021
6590 Haze 27 1017 47 2500 2.06 90 07:55 07.12.2021
6591 Haze 24 1019 60 2000 2.06 10 05:55 07.12.2021
6592 Haze 23 1019 64 2000 1.03 10 05:30 07.12.2021
6593 Haze 20 1015 73 2500 2.57 10 23:45 06.12.2021
6594 Haze 21 1015 68 2500 1.03 20 22:44 06.12.2021
6595 Haze 21 1015 68 2500 1.03 20 22:22 06.12.2021
6596 Haze 21 1015 68 2500 1.03 350 21:42 06.12.2021
6597 Haze 22 1016 64 2500 2.06 340 20:33 06.12.2021
6598 Haze 22 1016 60 2500 1.03 360 19:27 06.12.2021
6599 Haze 23 1016 56 2500 1.03 10 18:57 06.12.2021
6600 Haze 23 1016 56 2500 1.03 350 17:56 06.12.2021
6601 Haze 22 1016 64 2500 1.03 350 17:36 06.12.2021
6602 Haze 23 1015 60 2500 1.03 320 16:21 06.12.2021
6603 Haze 23 1014 56 2500 0 0 14:54 06.12.2021
6604 Haze 26 1013 47 2500 1.03 40 13:45 06.12.2021
6605 Haze 26 1013 47 2500 1.03 40 13:45 06.12.2021
6606 Haze 28 1013 42 2500 1.03 30 12:39 06.12.2021
6607 Haze 30 1013 37 3000 1.54 40 10:31 06.12.2021
6608 Haze 28 1015 44 2500 1.03 40 07:59 06.12.2021
6609 Mist 20 1016 77 2000 0 0 03:52 06.12.2021
6610 Haze 18 1014 82 2500 0 0 22:28 05.12.2021
6611 Haze 19 1014 77 2500 0 0 21:26 05.12.2021
6612 Haze 20 1014 73 2500 0 0 20:59 05.12.2021
6613 Haze 20 1014 73 2500 0 0 20:18 05.12.2021
6614 Haze 21 1015 73 2500 0 0 19:33 05.12.2021
6615 Haze 20 1015 73 2500 0 0 18:39 05.12.2021
6616 Haze 20 1015 73 2500 0 0 18:18 05.12.2021
6617 Haze 20 1015 73 2500 0 0 17:45 05.12.2021
6618 Haze 21 1015 68 2500 0 0 16:41 05.12.2021
6619 Haze 21 1015 64 2500 0 0 16:22 05.12.2021
6620 Haze 22 1014 64 2500 0 0 14:48 05.12.2021
6621 Haze 23 1013 56 2500 0 0 14:30 05.12.2021
6622 Haze 26 1013 44 2500 0 0 13:38 05.12.2021
6623 Haze 27 1013 44 2500 0 0 12:47 05.12.2021
6624 Haze 29 1012 39 2500 0 0 12:29 05.12.2021
6625 Haze 29 1012 39 2500 1.03 40 11:47 05.12.2021
6626 Haze 28 1013 42 2500 2.57 350 10:44 05.12.2021
6627 Haze 29 1013 39 2500 2.06 10 09:52 05.12.2021
6628 Haze 26 1016 50 2500 3.09 100 07:33 05.12.2021
6629 Mist 17 1016 82 1500 1.03 320 02:25 05.12.2021
6630 Haze 19 1015 68 2500 0 0 23:25 04.12.2021
6631 Haze 20 1015 68 2500 1.03 10 21:53 04.12.2021
6632 Haze 20 1016 73 2500 0 0 20:47 04.12.2021
6633 Haze 20 1016 68 2500 1.03 10 19:54 04.12.2021
6634 Haze 21 1016 64 2500 1.03 10 19:31 04.12.2021
6635 Haze 20 1016 73 2500 1.03 340 17:58 04.12.2021
6636 Haze 20 1016 73 2500 1.03 340 17:36 04.12.2021
6637 Haze 21 1015 64 2500 1.03 10 16:48 04.12.2021
6638 Haze 21 1015 64 2500 1.03 10 16:29 04.12.2021
6639 Haze 24 1014 50 2000 1.03 50 14:23 04.12.2021
6640 Haze 28 1013 36 2500 2.57 10 11:45 04.12.2021
6641 Haze 29 1013 34 2500 1.03 60 11:25 04.12.2021
6642 Haze 28 1013 36 2500 1.03 70 10:42 04.12.2021
6643 Haze 28 1014 42 2000 2.06 360 08:42 04.12.2021
6644 Mist 24 1017 53 2000 2.06 50 05:47 04.12.2021
6645 Mist 22 1017 60 1800 0 0 04:41 04.12.2021
6646 Haze 19 1014 72 2000 1.03 20 23:49 03.12.2021
6647 Haze 20 1014 64 2000 1.54 10 22:56 03.12.2021
6648 Haze 20 1015 64 2000 2.57 10 22:00 03.12.2021
6649 Haze 20 1015 64 2000 2.57 10 21:25 03.12.2021
6650 Haze 21 1015 60 2000 1.03 30 20:43 03.12.2021
6651 Haze 21 1016 64 2500 2.57 20 19:36 03.12.2021
6652 Haze 21 1017 64 2500 0 0 18:26 03.12.2021
6653 Haze 22 1017 60 2500 0 0 17:44 03.12.2021
6654 Haze 23 1016 56 2500 1.03 10 14:20 03.12.2021
6655 Haze 25 1015 47 2500 1.03 10 12:52 03.12.2021
6656 Haze 26 1015 44 2500 1.03 20 11:24 03.12.2021
6657 Haze 25 1015 47 2500 1.03 10 09:55 03.12.2021
6658 Haze 24 1016 50 2500 1.03 40 08:23 03.12.2021
6659 Haze 23 1018 53 2000 2.06 50 07:29 03.12.2021
6660 Haze 19 1015 59 3000 1.03 100 01:51 03.12.2021
6661 Haze 19 1014 63 3000 1.03 10 00:43 03.12.2021
6662 Haze 20 1014 60 3000 1.03 50 23:42 02.12.2021
6663 Haze 20 1015 64 3000 2.06 10 21:42 02.12.2021
6664 Haze 19 1015 68 3000 0 0 20:56 02.12.2021
6665 Haze 19 1015 68 3000 0 0 20:35 02.12.2021
6666 Haze 19 1015 68 3000 0 0 20:35 02.12.2021
6667 Haze 19 1015 68 3000 1.03 320 19:24 02.12.2021
6668 Haze 20 1016 60 3000 0 0 17:36 02.12.2021
6669 Haze 21 1015 56 3000 0 0 15:42 02.12.2021
6670 Haze 23 1014 46 3000 1.03 50 14:58 02.12.2021
6671 Haze 24 1013 43 3000 1.03 100 13:56 02.12.2021
6672 Haze 26 1013 38 3000 1.54 100 12:52 02.12.2021
6673 Haze 27 1013 36 4000 2.57 70 11:56 02.12.2021
6674 Haze 27 1014 36 4000 2.06 110 09:34 02.12.2021
6675 Haze 27 1015 34 4000 3.09 130 08:35 02.12.2021
6676 Haze 18 1017 68 2000 1.03 360 03:39 02.12.2021
6677 Haze 18 1014 63 2500 1.03 10 00:51 02.12.2021
6678 Haze 18 1014 68 2500 0 0 22:52 01.12.2021
6679 Haze 18 1014 68 2500 0 0 22:23 01.12.2021
6680 Haze 19 1016 68 2500 0 0 20:36 01.12.2021
6681 Haze 19 1016 68 2500 1.54 340 19:53 01.12.2021
6682 Haze 19 1016 68 2500 1.54 340 19:25 01.12.2021
6683 Haze 18 1016 63 3000 0 0 17:45 01.12.2021
6684 Haze 18 1016 63 3000 0 0 17:45 01.12.2021
6685 Haze 19 1016 63 3000 0 0 16:40 01.12.2021
6686 Haze 22 1015 49 3000 0 0 14:50 01.12.2021
6687 Haze 23 1013 43 3000 1.03 70 13:44 01.12.2021
6688 Haze 27 1013 34 3000 1.03 50 12:30 01.12.2021
6689 Haze 28 1013 32 3000 2.06 70 10:42 01.12.2021
6690 Haze 27 1015 34 3000 2.57 40 08:58 01.12.2021
6691 Haze 27 1015 34 3000 3.09 80 08:26 01.12.2021
6692 Haze 26 1017 41 3000 1.54 70 07:33 01.12.2021
6693 Haze 23 1018 46 3000 2.06 90 05:51 01.12.2021
6694 Haze 17 1018 72 2500 1.03 10 03:41 01.12.2021
6695 Haze 17 1016 67 3000 1.03 360 00:52 01.12.2021
6696 Haze 17 1016 67 3000 1.03 360 23:45 30.11.2021
6697 Haze 17 1016 72 3000 1.03 320 22:49 30.11.2021
6698 Haze 19 1016 59 3000 1.03 340 21:28 30.11.2021
6699 Haze 19 1017 59 3000 1.03 10 20:37 30.11.2021
6700 Haze 19 1017 63 3000 1.03 40 19:53 30.11.2021
6701 Haze 19 1017 63 3000 1.03 330 19:30 30.11.2021
6702 Haze 19 1017 68 3000 1.03 320 18:35 30.11.2021
6703 Haze 21 1017 56 3000 0 0 16:35 30.11.2021
6704 Haze 22 1016 49 3000 0 0 14:58 30.11.2021
6705 Haze 23 1016 43 3000 0 0 14:19 30.11.2021
6706 Haze 24 1015 41 3000 1.03 130 13:25 30.11.2021
6707 Haze 25 1015 38 3000 1.03 120 12:45 30.11.2021
6708 Haze 26 1015 31 3000 1.54 220 11:27 30.11.2021
6709 Haze 26 1015 34 3000 1.54 90 10:53 30.11.2021
6710 Haze 26 1015 34 3000 1.54 100 10:30 30.11.2021
6711 Haze 27 1017 29 3500 2.06 70 08:51 30.11.2021
6712 Haze 26 1017 31 3500 1.54 100 08:20 30.11.2021
6713 Haze 25 1018 36 3500 2.06 90 07:47 30.11.2021
6714 Haze 12 1017 82 2000 1.03 160 02:29 30.11.2021
6715 Haze 14 1017 72 2500 1.03 50 01:40 30.11.2021
6716 Haze 17 1016 59 2500 1.03 20 23:57 29.11.2021
6717 Haze 17 1016 59 2500 1.03 20 23:23 29.11.2021
6718 Haze 17 1016 59 3000 1.03 20 22:52 29.11.2021
6719 Haze 17 1016 59 3000 1.03 20 22:32 29.11.2021
6720 Haze 17 1017 59 3000 1.03 20 21:23 29.11.2021
6721 Haze 18 1017 55 3000 1.03 340 20:57 29.11.2021
6722 Haze 18 1017 55 3000 1.03 340 20:29 29.11.2021
6723 Haze 16 1018 67 3000 0 0 19:54 29.11.2021
6724 Haze 16 1018 67 3000 0 0 19:33 29.11.2021
6725 Clouds 17 1017 45 10000 2.22 24 18:48 29.11.2021
6726 Clouds 19 1016 44 10000 2.2 20 17:22 29.11.2021
6727 Clouds 19 1016 44 10000 2.2 20 16:59 29.11.2021
6728 Clouds 20 1016 43 10000 1.56 46 16:29 29.11.2021
6729 Clouds 20 1016 43 10000 1.56 46 15:32 29.11.2021
6730 Clouds 20 1016 42 10000 1.65 87 14:42 29.11.2021
6731 Clouds 21 1015 40 10000 1.76 100 13:32 29.11.2021
6732 Clouds 26 1013 33 10000 1.72 100 12:28 29.11.2021
6733 Clouds 26 1013 33 10000 1.72 100 11:34 29.11.2021
6734 Clouds 28 1013 25 10000 2.05 71 10:32 29.11.2021
6735 Haze 28 1016 24 5000 1.54 60 09:24 29.11.2021
6736 Haze 24 1019 38 4000 2.06 60 06:19 29.11.2021
6737 Haze 15 1017 67 3000 1.03 350 01:38 29.11.2021
6738 Haze 14 1017 72 3000 1.03 340 00:38 29.11.2021
6739 Haze 15 1017 72 4000 1.03 350 23:43 28.11.2021
6740 Haze 15 1017 67 4000 1.03 310 22:42 28.11.2021
6741 Haze 16 1017 67 4000 1.03 360 21:41 28.11.2021
6742 Haze 16 1017 67 4000 1.03 360 21:19 28.11.2021
6743 Haze 18 1018 55 4000 0 0 19:58 28.11.2021
6744 Haze 18 1018 59 4000 1.03 320 18:45 28.11.2021
6745 Haze 17 1018 59 4000 1.03 320 18:27 28.11.2021
6746 Haze 17 1018 59 4000 1.03 320 17:49 28.11.2021
6747 Haze 18 1018 55 4000 1.03 320 17:30 28.11.2021
6748 Haze 18 1018 52 4000 1.03 180 16:28 28.11.2021
6749 Haze 18 1017 52 4000 0 0 15:53 28.11.2021
6750 Haze 22 1017 37 4000 1.03 60 14:57 28.11.2021
6751 Haze 22 1017 37 4000 1.03 60 14:35 28.11.2021
6752 Haze 26 1015 27 4000 1.03 60 12:58 28.11.2021
6753 Haze 27 1015 26 5000 2.06 80 12:29 28.11.2021
6754 Haze 28 1016 23 5000 1.54 60 10:53 28.11.2021
6755 Haze 29 1016 20 5000 1.54 50 10:20 28.11.2021
6756 Haze 29 1016 21 5000 2.06 50 09:36 28.11.2021
6757 Haze 25 1019 31 5000 2.57 80 06:29 28.11.2021
6758 Haze